<?xml version="1.0" encoding="UTF-8" standalone="no" ?>
<gpx xmlns="http://www.topografix.com/GPX/1/1" xmlns:xsi="http://www.w3.org/2001/XMLSchema-instance" xsi:schemaLocation="http://www.topografix.com/GPX/1/1 http://www.topografix.com/GPX/1/1/gpx.xsd" version="1.1" creator="VisuGPX - https://www.visugpx.com">
  <metadata>
    <name>ultra 6666 2016</name>
    <desc><![CDATA[ultra occitane 6666 avec correction des dénivellés]]></desc>
  </metadata>
  <trk>
    <name><![CDATA[Grand Raid 6666 2016]]></name>
    <trkseg>
      <trkpt lat="43.50047" lon="3.02768">
        <ele>97</ele>
        <time>2016-06-11T04:00:00Z</time>
      </trkpt>
      <trkpt lat="43.50048" lon="3.02964">
        <ele>103</ele>
        <time>2016-06-11T04:01:29Z</time>
      </trkpt>
      <trkpt lat="43.50043" lon="3.02986">
        <ele>101</ele>
        <time>2016-06-11T04:01:37Z</time>
      </trkpt>
      <trkpt lat="43.50029" lon="3.03022">
        <ele>99</ele>
        <time>2016-06-11T04:01:52Z</time>
      </trkpt>
      <trkpt lat="43.50023" lon="3.03032">
        <ele>98</ele>
        <time>2016-06-11T04:01:56Z</time>
      </trkpt>
      <trkpt lat="43.50021" lon="3.03042">
        <ele>98</ele>
        <time>2016-06-11T04:02:01Z</time>
      </trkpt>
      <trkpt lat="43.50016" lon="3.03052">
        <ele>97</ele>
        <time>2016-06-11T04:02:05Z</time>
      </trkpt>
      <trkpt lat="43.50007" lon="3.03065">
        <ele>96</ele>
        <time>2016-06-11T04:02:12Z</time>
      </trkpt>
      <trkpt lat="43.50005" lon="3.03076">
        <ele>96</ele>
        <time>2016-06-11T04:02:16Z</time>
      </trkpt>
      <trkpt lat="43.49997" lon="3.03094">
        <ele>94</ele>
        <time>2016-06-11T04:02:25Z</time>
      </trkpt>
      <trkpt lat="43.49991" lon="3.03113">
        <ele>93</ele>
        <time>2016-06-11T04:02:32Z</time>
      </trkpt>
      <trkpt lat="43.49984" lon="3.03129">
        <ele>91</ele>
        <time>2016-06-11T04:02:40Z</time>
      </trkpt>
      <trkpt lat="43.49989" lon="3.03142">
        <ele>91</ele>
        <time>2016-06-11T04:02:46Z</time>
      </trkpt>
      <trkpt lat="43.4999" lon="3.03149">
        <ele>91</ele>
        <time>2016-06-11T04:02:49Z</time>
      </trkpt>
      <trkpt lat="43.49996" lon="3.03158">
        <ele>92</ele>
        <time>2016-06-11T04:02:56Z</time>
      </trkpt>
      <trkpt lat="43.50005" lon="3.03163">
        <ele>93</ele>
        <time>2016-06-11T04:03:04Z</time>
      </trkpt>
      <trkpt lat="43.50015" lon="3.03166">
        <ele>94</ele>
        <time>2016-06-11T04:03:12Z</time>
      </trkpt>
      <trkpt lat="43.50025" lon="3.03172">
        <ele>94</ele>
        <time>2016-06-11T04:03:18Z</time>
      </trkpt>
      <trkpt lat="43.50032" lon="3.03184">
        <ele>95</ele>
        <time>2016-06-11T04:03:26Z</time>
      </trkpt>
      <trkpt lat="43.50043" lon="3.03187">
        <ele>96</ele>
        <time>2016-06-11T04:03:35Z</time>
      </trkpt>
      <trkpt lat="43.50059" lon="3.03187">
        <ele>97</ele>
        <time>2016-06-11T04:03:45Z</time>
      </trkpt>
      <trkpt lat="43.5007" lon="3.03179">
        <ele>99</ele>
        <time>2016-06-11T04:03:58Z</time>
      </trkpt>
      <trkpt lat="43.50076" lon="3.03167">
        <ele>100</ele>
        <time>2016-06-11T04:04:06Z</time>
      </trkpt>
      <trkpt lat="43.50082" lon="3.03161">
        <ele>101</ele>
        <time>2016-06-11T04:04:12Z</time>
      </trkpt>
      <trkpt lat="43.50091" lon="3.03151">
        <ele>102</ele>
        <time>2016-06-11T04:04:21Z</time>
      </trkpt>
      <trkpt lat="43.50098" lon="3.03143">
        <ele>104</ele>
        <time>2016-06-11T04:04:33Z</time>
      </trkpt>
      <trkpt lat="43.50105" lon="3.03135">
        <ele>105</ele>
        <time>2016-06-11T04:04:40Z</time>
      </trkpt>
      <trkpt lat="43.50113" lon="3.03129">
        <ele>106</ele>
        <time>2016-06-11T04:04:47Z</time>
      </trkpt>
      <trkpt lat="43.50119" lon="3.03125">
        <ele>107</ele>
        <time>2016-06-11T04:04:54Z</time>
      </trkpt>
      <trkpt lat="43.50127" lon="3.03121">
        <ele>107</ele>
        <time>2016-06-11T04:04:59Z</time>
      </trkpt>
      <trkpt lat="43.50138" lon="3.03116">
        <ele>107</ele>
        <time>2016-06-11T04:05:05Z</time>
      </trkpt>
      <trkpt lat="43.50149" lon="3.03109">
        <ele>108</ele>
        <time>2016-06-11T04:05:14Z</time>
      </trkpt>
      <trkpt lat="43.50159" lon="3.03106">
        <ele>108</ele>
        <time>2016-06-11T04:05:20Z</time>
      </trkpt>
      <trkpt lat="43.5017" lon="3.031">
        <ele>110</ele>
        <time>2016-06-11T04:05:32Z</time>
      </trkpt>
      <trkpt lat="43.5018" lon="3.03096">
        <ele>111</ele>
        <time>2016-06-11T04:05:40Z</time>
      </trkpt>
      <trkpt lat="43.50191" lon="3.03091">
        <ele>111</ele>
        <time>2016-06-11T04:05:47Z</time>
      </trkpt>
      <trkpt lat="43.50203" lon="3.03096">
        <ele>111</ele>
        <time>2016-06-11T04:05:54Z</time>
      </trkpt>
      <trkpt lat="43.50215" lon="3.03105">
        <ele>112</ele>
        <time>2016-06-11T04:06:03Z</time>
      </trkpt>
      <trkpt lat="43.50223" lon="3.03117">
        <ele>110</ele>
        <time>2016-06-11T04:06:11Z</time>
      </trkpt>
      <trkpt lat="43.50232" lon="3.03127">
        <ele>109</ele>
        <time>2016-06-11T04:06:16Z</time>
      </trkpt>
      <trkpt lat="43.5024" lon="3.03137">
        <ele>108</ele>
        <time>2016-06-11T04:06:22Z</time>
      </trkpt>
      <trkpt lat="43.50248" lon="3.03149">
        <ele>107</ele>
        <time>2016-06-11T04:06:27Z</time>
      </trkpt>
      <trkpt lat="43.50256" lon="3.0316">
        <ele>108</ele>
        <time>2016-06-11T04:06:36Z</time>
      </trkpt>
      <trkpt lat="43.5026" lon="3.03168">
        <ele>109</ele>
        <time>2016-06-11T04:06:43Z</time>
      </trkpt>
      <trkpt lat="43.50265" lon="3.03176">
        <ele>109</ele>
        <time>2016-06-11T04:06:47Z</time>
      </trkpt>
      <trkpt lat="43.50268" lon="3.03185">
        <ele>111</ele>
        <time>2016-06-11T04:06:58Z</time>
      </trkpt>
      <trkpt lat="43.50274" lon="3.03197">
        <ele>111</ele>
        <time>2016-06-11T04:07:04Z</time>
      </trkpt>
      <trkpt lat="43.50277" lon="3.0321">
        <ele>111</ele>
        <time>2016-06-11T04:07:10Z</time>
      </trkpt>
      <trkpt lat="43.5028" lon="3.03224">
        <ele>112</ele>
        <time>2016-06-11T04:07:18Z</time>
      </trkpt>
      <trkpt lat="43.50289" lon="3.03233">
        <ele>113</ele>
        <time>2016-06-11T04:07:26Z</time>
      </trkpt>
      <trkpt lat="43.503" lon="3.03233">
        <ele>115</ele>
        <time>2016-06-11T04:07:38Z</time>
      </trkpt>
      <trkpt lat="43.50311" lon="3.0323">
        <ele>114</ele>
        <time>2016-06-11T04:07:44Z</time>
      </trkpt>
      <trkpt lat="43.50322" lon="3.03226">
        <ele>113</ele>
        <time>2016-06-11T04:07:49Z</time>
      </trkpt>
      <trkpt lat="43.50331" lon="3.0322">
        <ele>113</ele>
        <time>2016-06-11T04:07:55Z</time>
      </trkpt>
      <trkpt lat="43.50341" lon="3.03219">
        <ele>113</ele>
        <time>2016-06-11T04:08:01Z</time>
      </trkpt>
      <trkpt lat="43.50349" lon="3.03222">
        <ele>113</ele>
        <time>2016-06-11T04:08:06Z</time>
      </trkpt>
      <trkpt lat="43.50358" lon="3.0322">
        <ele>114</ele>
        <time>2016-06-11T04:08:13Z</time>
      </trkpt>
      <trkpt lat="43.50366" lon="3.03218">
        <ele>114</ele>
        <time>2016-06-11T04:08:18Z</time>
      </trkpt>
      <trkpt lat="43.50375" lon="3.03218">
        <ele>114</ele>
        <time>2016-06-11T04:08:23Z</time>
      </trkpt>
      <trkpt lat="43.50383" lon="3.03219">
        <ele>114</ele>
        <time>2016-06-11T04:08:27Z</time>
      </trkpt>
      <trkpt lat="43.50391" lon="3.03222">
        <ele>115</ele>
        <time>2016-06-11T04:08:34Z</time>
      </trkpt>
      <trkpt lat="43.50397" lon="3.03224">
        <ele>116</ele>
        <time>2016-06-11T04:08:41Z</time>
      </trkpt>
      <trkpt lat="43.50405" lon="3.03225">
        <ele>117</ele>
        <time>2016-06-11T04:08:47Z</time>
      </trkpt>
      <trkpt lat="43.50411" lon="3.03228">
        <ele>118</ele>
        <time>2016-06-11T04:08:54Z</time>
      </trkpt>
      <trkpt lat="43.50415" lon="3.03226">
        <ele>118</ele>
        <time>2016-06-11T04:08:56Z</time>
      </trkpt>
      <trkpt lat="43.50419" lon="3.03224">
        <ele>118</ele>
        <time>2016-06-11T04:08:59Z</time>
      </trkpt>
      <trkpt lat="43.50423" lon="3.03223">
        <ele>118</ele>
        <time>2016-06-11T04:09:01Z</time>
      </trkpt>
      <trkpt lat="43.50428" lon="3.03222">
        <ele>118</ele>
        <time>2016-06-11T04:09:04Z</time>
      </trkpt>
      <trkpt lat="43.50434" lon="3.03224">
        <ele>119</ele>
        <time>2016-06-11T04:09:10Z</time>
      </trkpt>
      <trkpt lat="43.5044" lon="3.03225">
        <ele>119</ele>
        <time>2016-06-11T04:09:14Z</time>
      </trkpt>
      <trkpt lat="43.50445" lon="3.03222">
        <ele>120</ele>
        <time>2016-06-11T04:09:20Z</time>
      </trkpt>
      <trkpt lat="43.50449" lon="3.03221">
        <ele>120</ele>
        <time>2016-06-11T04:09:22Z</time>
      </trkpt>
      <trkpt lat="43.50453" lon="3.03219">
        <ele>121</ele>
        <time>2016-06-11T04:09:28Z</time>
      </trkpt>
      <trkpt lat="43.50457" lon="3.03215">
        <ele>121</ele>
        <time>2016-06-11T04:09:31Z</time>
      </trkpt>
      <trkpt lat="43.50461" lon="3.03211">
        <ele>121</ele>
        <time>2016-06-11T04:09:34Z</time>
      </trkpt>
      <trkpt lat="43.50468" lon="3.03209">
        <ele>122</ele>
        <time>2016-06-11T04:09:40Z</time>
      </trkpt>
      <trkpt lat="43.50472" lon="3.03208">
        <ele>122</ele>
        <time>2016-06-11T04:09:43Z</time>
      </trkpt>
      <trkpt lat="43.50476" lon="3.03206">
        <ele>123</ele>
        <time>2016-06-11T04:09:49Z</time>
      </trkpt>
      <trkpt lat="43.50482" lon="3.03205">
        <ele>123</ele>
        <time>2016-06-11T04:09:52Z</time>
      </trkpt>
      <trkpt lat="43.5049" lon="3.03204">
        <ele>124</ele>
        <time>2016-06-11T04:09:59Z</time>
      </trkpt>
      <trkpt lat="43.50496" lon="3.03203">
        <ele>124</ele>
        <time>2016-06-11T04:10:03Z</time>
      </trkpt>
      <trkpt lat="43.505" lon="3.03202">
        <ele>125</ele>
        <time>2016-06-11T04:10:09Z</time>
      </trkpt>
      <trkpt lat="43.50506" lon="3.03201">
        <ele>125</ele>
        <time>2016-06-11T04:10:12Z</time>
      </trkpt>
      <trkpt lat="43.50511" lon="3.032">
        <ele>126</ele>
        <time>2016-06-11T04:10:18Z</time>
      </trkpt>
      <trkpt lat="43.50519" lon="3.032">
        <ele>126</ele>
        <time>2016-06-11T04:10:22Z</time>
      </trkpt>
      <trkpt lat="43.50526" lon="3.03199">
        <ele>127</ele>
        <time>2016-06-11T04:10:29Z</time>
      </trkpt>
      <trkpt lat="43.50533" lon="3.032">
        <ele>127</ele>
        <time>2016-06-11T04:10:33Z</time>
      </trkpt>
      <trkpt lat="43.5054" lon="3.03201">
        <ele>128</ele>
        <time>2016-06-11T04:10:39Z</time>
      </trkpt>
      <trkpt lat="43.50547" lon="3.03203">
        <ele>128</ele>
        <time>2016-06-11T04:10:43Z</time>
      </trkpt>
      <trkpt lat="43.50555" lon="3.03204">
        <ele>129</ele>
        <time>2016-06-11T04:10:50Z</time>
      </trkpt>
      <trkpt lat="43.50562" lon="3.03203">
        <ele>129</ele>
        <time>2016-06-11T04:10:54Z</time>
      </trkpt>
      <trkpt lat="43.5057" lon="3.03202">
        <ele>129</ele>
        <time>2016-06-11T04:10:59Z</time>
      </trkpt>
      <trkpt lat="43.50578" lon="3.03201">
        <ele>130</ele>
        <time>2016-06-11T04:11:06Z</time>
      </trkpt>
      <trkpt lat="43.50586" lon="3.03199">
        <ele>130</ele>
        <time>2016-06-11T04:11:10Z</time>
      </trkpt>
      <trkpt lat="43.50591" lon="3.03197">
        <ele>131</ele>
        <time>2016-06-11T04:11:16Z</time>
      </trkpt>
      <trkpt lat="43.50599" lon="3.03195">
        <ele>131</ele>
        <time>2016-06-11T04:11:21Z</time>
      </trkpt>
      <trkpt lat="43.50609" lon="3.03191">
        <ele>131</ele>
        <time>2016-06-11T04:11:27Z</time>
      </trkpt>
      <trkpt lat="43.50618" lon="3.03189">
        <ele>131</ele>
        <time>2016-06-11T04:11:32Z</time>
      </trkpt>
      <trkpt lat="43.50626" lon="3.03183">
        <ele>131</ele>
        <time>2016-06-11T04:11:37Z</time>
      </trkpt>
      <trkpt lat="43.50633" lon="3.03178">
        <ele>129</ele>
        <time>2016-06-11T04:11:44Z</time>
      </trkpt>
      <trkpt lat="43.50641" lon="3.03171">
        <ele>128</ele>
        <time>2016-06-11T04:11:49Z</time>
      </trkpt>
      <trkpt lat="43.50648" lon="3.03167">
        <ele>126</ele>
        <time>2016-06-11T04:11:55Z</time>
      </trkpt>
      <trkpt lat="43.50655" lon="3.0316">
        <ele>125</ele>
        <time>2016-06-11T04:12:00Z</time>
      </trkpt>
      <trkpt lat="43.5066" lon="3.03154">
        <ele>126</ele>
        <time>2016-06-11T04:12:06Z</time>
      </trkpt>
      <trkpt lat="43.50669" lon="3.03145">
        <ele>129</ele>
        <time>2016-06-11T04:12:24Z</time>
      </trkpt>
      <trkpt lat="43.50677" lon="3.03134">
        <ele>131</ele>
        <time>2016-06-11T04:12:36Z</time>
      </trkpt>
      <trkpt lat="43.50684" lon="3.03124">
        <ele>133</ele>
        <time>2016-06-11T04:12:48Z</time>
      </trkpt>
      <trkpt lat="43.50691" lon="3.03115">
        <ele>135</ele>
        <time>2016-06-11T04:13:00Z</time>
      </trkpt>
      <trkpt lat="43.50699" lon="3.03107">
        <ele>135</ele>
        <time>2016-06-11T04:13:06Z</time>
      </trkpt>
      <trkpt lat="43.50706" lon="3.03099">
        <ele>136</ele>
        <time>2016-06-11T04:13:13Z</time>
      </trkpt>
      <trkpt lat="43.50711" lon="3.03091">
        <ele>136</ele>
        <time>2016-06-11T04:13:18Z</time>
      </trkpt>
      <trkpt lat="43.50719" lon="3.03083">
        <ele>136</ele>
        <time>2016-06-11T04:13:23Z</time>
      </trkpt>
      <trkpt lat="43.50723" lon="3.03074">
        <ele>136</ele>
        <time>2016-06-11T04:13:27Z</time>
      </trkpt>
      <trkpt lat="43.50725" lon="3.03068">
        <ele>137</ele>
        <time>2016-06-11T04:13:33Z</time>
      </trkpt>
      <trkpt lat="43.50726" lon="3.03065">
        <ele>137</ele>
        <time>2016-06-11T04:13:35Z</time>
      </trkpt>
      <trkpt lat="43.50727" lon="3.03057">
        <ele>138</ele>
        <time>2016-06-11T04:13:41Z</time>
      </trkpt>
      <trkpt lat="43.50728" lon="3.03053">
        <ele>138</ele>
        <time>2016-06-11T04:13:43Z</time>
      </trkpt>
      <trkpt lat="43.50728" lon="3.03045">
        <ele>138</ele>
        <time>2016-06-11T04:13:46Z</time>
      </trkpt>
      <trkpt lat="43.5073" lon="3.03039">
        <ele>138</ele>
        <time>2016-06-11T04:13:49Z</time>
      </trkpt>
      <trkpt lat="43.50737" lon="3.03027">
        <ele>138</ele>
        <time>2016-06-11T04:13:55Z</time>
      </trkpt>
      <trkpt lat="43.50743" lon="3.03016">
        <ele>139</ele>
        <time>2016-06-11T04:14:03Z</time>
      </trkpt>
      <trkpt lat="43.5075" lon="3.03003">
        <ele>139</ele>
        <time>2016-06-11T04:14:10Z</time>
      </trkpt>
      <trkpt lat="43.50757" lon="3.02992">
        <ele>140</ele>
        <time>2016-06-11T04:14:18Z</time>
      </trkpt>
      <trkpt lat="43.5076" lon="3.02987">
        <ele>139</ele>
        <time>2016-06-11T04:14:21Z</time>
      </trkpt>
      <trkpt lat="43.50763" lon="3.02985">
        <ele>139</ele>
        <time>2016-06-11T04:14:23Z</time>
      </trkpt>
      <trkpt lat="43.50765" lon="3.02982">
        <ele>139</ele>
        <time>2016-06-11T04:14:25Z</time>
      </trkpt>
      <trkpt lat="43.50767" lon="3.02979">
        <ele>139</ele>
        <time>2016-06-11T04:14:26Z</time>
      </trkpt>
      <trkpt lat="43.50771" lon="3.02973">
        <ele>139</ele>
        <time>2016-06-11T04:14:30Z</time>
      </trkpt>
      <trkpt lat="43.50777" lon="3.02969">
        <ele>138</ele>
        <time>2016-06-11T04:14:34Z</time>
      </trkpt>
      <trkpt lat="43.50782" lon="3.02967">
        <ele>138</ele>
        <time>2016-06-11T04:14:37Z</time>
      </trkpt>
      <trkpt lat="43.50788" lon="3.02965">
        <ele>137</ele>
        <time>2016-06-11T04:14:40Z</time>
      </trkpt>
      <trkpt lat="43.50796" lon="3.02961">
        <ele>136</ele>
        <time>2016-06-11T04:14:45Z</time>
      </trkpt>
      <trkpt lat="43.50799" lon="3.02959">
        <ele>136</ele>
        <time>2016-06-11T04:14:47Z</time>
      </trkpt>
      <trkpt lat="43.50806" lon="3.02954">
        <ele>136</ele>
        <time>2016-06-11T04:14:52Z</time>
      </trkpt>
      <trkpt lat="43.50812" lon="3.0295">
        <ele>136</ele>
        <time>2016-06-11T04:14:55Z</time>
      </trkpt>
      <trkpt lat="43.50816" lon="3.02948">
        <ele>136</ele>
        <time>2016-06-11T04:14:58Z</time>
      </trkpt>
      <trkpt lat="43.50822" lon="3.02945">
        <ele>136</ele>
        <time>2016-06-11T04:15:01Z</time>
      </trkpt>
      <trkpt lat="43.50828" lon="3.02944">
        <ele>136</ele>
        <time>2016-06-11T04:15:05Z</time>
      </trkpt>
      <trkpt lat="43.50834" lon="3.02944">
        <ele>136</ele>
        <time>2016-06-11T04:15:08Z</time>
      </trkpt>
      <trkpt lat="43.50842" lon="3.02942">
        <ele>136</ele>
        <time>2016-06-11T04:15:13Z</time>
      </trkpt>
      <trkpt lat="43.50848" lon="3.02944">
        <ele>137</ele>
        <time>2016-06-11T04:15:19Z</time>
      </trkpt>
      <trkpt lat="43.50854" lon="3.02944">
        <ele>137</ele>
        <time>2016-06-11T04:15:22Z</time>
      </trkpt>
      <trkpt lat="43.50863" lon="3.02946">
        <ele>138</ele>
        <time>2016-06-11T04:15:30Z</time>
      </trkpt>
      <trkpt lat="43.50869" lon="3.02949">
        <ele>138</ele>
        <time>2016-06-11T04:15:33Z</time>
      </trkpt>
      <trkpt lat="43.50877" lon="3.0295">
        <ele>139</ele>
        <time>2016-06-11T04:15:40Z</time>
      </trkpt>
      <trkpt lat="43.50884" lon="3.02953">
        <ele>139</ele>
        <time>2016-06-11T04:15:44Z</time>
      </trkpt>
      <trkpt lat="43.50889" lon="3.02954">
        <ele>140</ele>
        <time>2016-06-11T04:15:50Z</time>
      </trkpt>
      <trkpt lat="43.50895" lon="3.02958">
        <ele>140</ele>
        <time>2016-06-11T04:15:54Z</time>
      </trkpt>
      <trkpt lat="43.50903" lon="3.02962">
        <ele>142</ele>
        <time>2016-06-11T04:16:06Z</time>
      </trkpt>
      <trkpt lat="43.50909" lon="3.02969">
        <ele>144</ele>
        <time>2016-06-11T04:16:18Z</time>
      </trkpt>
      <trkpt lat="43.50916" lon="3.02975">
        <ele>145</ele>
        <time>2016-06-11T04:16:25Z</time>
      </trkpt>
      <trkpt lat="43.50924" lon="3.02978">
        <ele>146</ele>
        <time>2016-06-11T04:16:32Z</time>
      </trkpt>
      <trkpt lat="43.5093" lon="3.02984">
        <ele>147</ele>
        <time>2016-06-11T04:16:39Z</time>
      </trkpt>
      <trkpt lat="43.50936" lon="3.02988">
        <ele>148</ele>
        <time>2016-06-11T04:16:45Z</time>
      </trkpt>
      <trkpt lat="43.50944" lon="3.02992">
        <ele>148</ele>
        <time>2016-06-11T04:16:50Z</time>
      </trkpt>
      <trkpt lat="43.50953" lon="3.03">
        <ele>149</ele>
        <time>2016-06-11T04:16:58Z</time>
      </trkpt>
      <trkpt lat="43.50962" lon="3.03007">
        <ele>148</ele>
        <time>2016-06-11T04:17:03Z</time>
      </trkpt>
      <trkpt lat="43.50971" lon="3.03012">
        <ele>148</ele>
        <time>2016-06-11T04:17:09Z</time>
      </trkpt>
      <trkpt lat="43.50979" lon="3.0302">
        <ele>148</ele>
        <time>2016-06-11T04:17:14Z</time>
      </trkpt>
      <trkpt lat="43.50987" lon="3.03026">
        <ele>149</ele>
        <time>2016-06-11T04:17:22Z</time>
      </trkpt>
      <trkpt lat="43.50995" lon="3.03032">
        <ele>150</ele>
        <time>2016-06-11T04:17:29Z</time>
      </trkpt>
      <trkpt lat="43.51" lon="3.03037">
        <ele>151</ele>
        <time>2016-06-11T04:17:35Z</time>
      </trkpt>
      <trkpt lat="43.51004" lon="3.03041">
        <ele>152</ele>
        <time>2016-06-11T04:17:41Z</time>
      </trkpt>
      <trkpt lat="43.51011" lon="3.03046">
        <ele>154</ele>
        <time>2016-06-11T04:17:53Z</time>
      </trkpt>
      <trkpt lat="43.51015" lon="3.0305">
        <ele>156</ele>
        <time>2016-06-11T04:18:05Z</time>
      </trkpt>
      <trkpt lat="43.51024" lon="3.03059">
        <ele>158</ele>
        <time>2016-06-11T04:18:17Z</time>
      </trkpt>
      <trkpt lat="43.51033" lon="3.03063">
        <ele>160</ele>
        <time>2016-06-11T04:18:29Z</time>
      </trkpt>
      <trkpt lat="43.5104" lon="3.03062">
        <ele>160</ele>
        <time>2016-06-11T04:18:34Z</time>
      </trkpt>
      <trkpt lat="43.51046" lon="3.03064">
        <ele>160</ele>
        <time>2016-06-11T04:18:37Z</time>
      </trkpt>
      <trkpt lat="43.51051" lon="3.03063">
        <ele>159</ele>
        <time>2016-06-11T04:18:41Z</time>
      </trkpt>
      <trkpt lat="43.51056" lon="3.0306">
        <ele>159</ele>
        <time>2016-06-11T04:18:44Z</time>
      </trkpt>
      <trkpt lat="43.51061" lon="3.03056">
        <ele>157</ele>
        <time>2016-06-11T04:18:51Z</time>
      </trkpt>
      <trkpt lat="43.51064" lon="3.03053">
        <ele>157</ele>
        <time>2016-06-11T04:18:53Z</time>
      </trkpt>
      <trkpt lat="43.51068" lon="3.03047">
        <ele>155</ele>
        <time>2016-06-11T04:19:00Z</time>
      </trkpt>
      <trkpt lat="43.51072" lon="3.03046">
        <ele>155</ele>
        <time>2016-06-11T04:19:02Z</time>
      </trkpt>
      <trkpt lat="43.51077" lon="3.03046">
        <ele>154</ele>
        <time>2016-06-11T04:19:06Z</time>
      </trkpt>
      <trkpt lat="43.51082" lon="3.03045">
        <ele>154</ele>
        <time>2016-06-11T04:19:08Z</time>
      </trkpt>
      <trkpt lat="43.51085" lon="3.03043">
        <ele>153</ele>
        <time>2016-06-11T04:19:11Z</time>
      </trkpt>
      <trkpt lat="43.51088" lon="3.0304">
        <ele>153</ele>
        <time>2016-06-11T04:19:13Z</time>
      </trkpt>
      <trkpt lat="43.51093" lon="3.03036">
        <ele>152</ele>
        <time>2016-06-11T04:19:17Z</time>
      </trkpt>
      <trkpt lat="43.51098" lon="3.03032">
        <ele>150</ele>
        <time>2016-06-11T04:19:24Z</time>
      </trkpt>
      <trkpt lat="43.51101" lon="3.03028">
        <ele>150</ele>
        <time>2016-06-11T04:19:26Z</time>
      </trkpt>
      <trkpt lat="43.51107" lon="3.03022">
        <ele>148</ele>
        <time>2016-06-11T04:19:33Z</time>
      </trkpt>
      <trkpt lat="43.51115" lon="3.03018">
        <ele>147</ele>
        <time>2016-06-11T04:19:37Z</time>
      </trkpt>
      <trkpt lat="43.51123" lon="3.03019">
        <ele>148</ele>
        <time>2016-06-11T04:19:44Z</time>
      </trkpt>
      <trkpt lat="43.51129" lon="3.03025">
        <ele>150</ele>
        <time>2016-06-11T04:19:56Z</time>
      </trkpt>
      <trkpt lat="43.51135" lon="3.03031">
        <ele>151</ele>
        <time>2016-06-11T04:20:03Z</time>
      </trkpt>
      <trkpt lat="43.51141" lon="3.03041">
        <ele>154</ele>
        <time>2016-06-11T04:20:20Z</time>
      </trkpt>
      <trkpt lat="43.51146" lon="3.03049">
        <ele>156</ele>
        <time>2016-06-11T04:20:32Z</time>
      </trkpt>
      <trkpt lat="43.51151" lon="3.03056">
        <ele>158</ele>
        <time>2016-06-11T04:20:44Z</time>
      </trkpt>
      <trkpt lat="43.51157" lon="3.03063">
        <ele>159</ele>
        <time>2016-06-11T04:20:50Z</time>
      </trkpt>
      <trkpt lat="43.51162" lon="3.03069">
        <ele>160</ele>
        <time>2016-06-11T04:20:57Z</time>
      </trkpt>
      <trkpt lat="43.51168" lon="3.03075">
        <ele>160</ele>
        <time>2016-06-11T04:21:01Z</time>
      </trkpt>
      <trkpt lat="43.51176" lon="3.03082">
        <ele>162</ele>
        <time>2016-06-11T04:21:13Z</time>
      </trkpt>
      <trkpt lat="43.51182" lon="3.03086">
        <ele>162</ele>
        <time>2016-06-11T04:21:18Z</time>
      </trkpt>
      <trkpt lat="43.51191" lon="3.03094">
        <ele>163</ele>
        <time>2016-06-11T04:21:25Z</time>
      </trkpt>
      <trkpt lat="43.51198" lon="3.03097">
        <ele>165</ele>
        <time>2016-06-11T04:21:37Z</time>
      </trkpt>
      <trkpt lat="43.51205" lon="3.031">
        <ele>165</ele>
        <time>2016-06-11T04:21:41Z</time>
      </trkpt>
      <trkpt lat="43.51212" lon="3.03102">
        <ele>165</ele>
        <time>2016-06-11T04:21:45Z</time>
      </trkpt>
      <trkpt lat="43.51215" lon="3.03104">
        <ele>165</ele>
        <time>2016-06-11T04:21:48Z</time>
      </trkpt>
      <trkpt lat="43.51222" lon="3.03109">
        <ele>166</ele>
        <time>2016-06-11T04:21:54Z</time>
      </trkpt>
      <trkpt lat="43.51228" lon="3.03107">
        <ele>165</ele>
        <time>2016-06-11T04:21:58Z</time>
      </trkpt>
      <trkpt lat="43.51235" lon="3.03109">
        <ele>164</ele>
        <time>2016-06-11T04:22:02Z</time>
      </trkpt>
      <trkpt lat="43.51242" lon="3.0311">
        <ele>163</ele>
        <time>2016-06-11T04:22:06Z</time>
      </trkpt>
      <trkpt lat="43.5125" lon="3.03112">
        <ele>163</ele>
        <time>2016-06-11T04:22:11Z</time>
      </trkpt>
      <trkpt lat="43.51258" lon="3.03113">
        <ele>162</ele>
        <time>2016-06-11T04:22:15Z</time>
      </trkpt>
      <trkpt lat="43.51266" lon="3.03115">
        <ele>162</ele>
        <time>2016-06-11T04:22:20Z</time>
      </trkpt>
      <trkpt lat="43.51273" lon="3.03122">
        <ele>163</ele>
        <time>2016-06-11T04:22:27Z</time>
      </trkpt>
      <trkpt lat="43.51278" lon="3.03132">
        <ele>164</ele>
        <time>2016-06-11T04:22:34Z</time>
      </trkpt>
      <trkpt lat="43.51278" lon="3.03144">
        <ele>166</ele>
        <time>2016-06-11T04:22:46Z</time>
      </trkpt>
      <trkpt lat="43.51276" lon="3.03156">
        <ele>167</ele>
        <time>2016-06-11T04:22:54Z</time>
      </trkpt>
      <trkpt lat="43.51274" lon="3.0317">
        <ele>170</ele>
        <time>2016-06-11T04:23:11Z</time>
      </trkpt>
      <trkpt lat="43.51271" lon="3.03184">
        <ele>172</ele>
        <time>2016-06-11T04:23:23Z</time>
      </trkpt>
      <trkpt lat="43.51267" lon="3.03198">
        <ele>175</ele>
        <time>2016-06-11T04:23:41Z</time>
      </trkpt>
      <trkpt lat="43.51264" lon="3.03212">
        <ele>177</ele>
        <time>2016-06-11T04:23:53Z</time>
      </trkpt>
      <trkpt lat="43.51263" lon="3.03225">
        <ele>180</ele>
        <time>2016-06-11T04:24:10Z</time>
      </trkpt>
      <trkpt lat="43.51262" lon="3.0324">
        <ele>182</ele>
        <time>2016-06-11T04:24:22Z</time>
      </trkpt>
      <trkpt lat="43.5126" lon="3.03254">
        <ele>185</ele>
        <time>2016-06-11T04:24:40Z</time>
      </trkpt>
      <trkpt lat="43.51257" lon="3.03269">
        <ele>187</ele>
        <time>2016-06-11T04:24:52Z</time>
      </trkpt>
      <trkpt lat="43.51253" lon="3.03282">
        <ele>190</ele>
        <time>2016-06-11T04:25:09Z</time>
      </trkpt>
      <trkpt lat="43.5125" lon="3.03296">
        <ele>192</ele>
        <time>2016-06-11T04:25:21Z</time>
      </trkpt>
      <trkpt lat="43.51249" lon="3.03308">
        <ele>195</ele>
        <time>2016-06-11T04:25:39Z</time>
      </trkpt>
      <trkpt lat="43.51249" lon="3.03323">
        <ele>197</ele>
        <time>2016-06-11T04:25:51Z</time>
      </trkpt>
      <trkpt lat="43.51249" lon="3.03337">
        <ele>200</ele>
        <time>2016-06-11T04:26:09Z</time>
      </trkpt>
      <trkpt lat="43.5124" lon="3.0333">
        <ele>202</ele>
        <time>2016-06-11T04:26:21Z</time>
      </trkpt>
      <trkpt lat="43.51238" lon="3.03315">
        <ele>200</ele>
        <time>2016-06-11T04:26:28Z</time>
      </trkpt>
      <trkpt lat="43.51237" lon="3.033">
        <ele>199</ele>
        <time>2016-06-11T04:26:33Z</time>
      </trkpt>
      <trkpt lat="43.51236" lon="3.03289">
        <ele>197</ele>
        <time>2016-06-11T04:26:40Z</time>
      </trkpt>
      <trkpt lat="43.51235" lon="3.03277">
        <ele>196</ele>
        <time>2016-06-11T04:26:44Z</time>
      </trkpt>
      <trkpt lat="43.51234" lon="3.03265">
        <ele>195</ele>
        <time>2016-06-11T04:26:49Z</time>
      </trkpt>
      <trkpt lat="43.51232" lon="3.03253">
        <ele>194</ele>
        <time>2016-06-11T04:26:54Z</time>
      </trkpt>
      <trkpt lat="43.51229" lon="3.0324">
        <ele>192</ele>
        <time>2016-06-11T04:27:01Z</time>
      </trkpt>
      <trkpt lat="43.51228" lon="3.03228">
        <ele>192</ele>
        <time>2016-06-11T04:27:05Z</time>
      </trkpt>
      <trkpt lat="43.51226" lon="3.03216">
        <ele>191</ele>
        <time>2016-06-11T04:27:10Z</time>
      </trkpt>
      <trkpt lat="43.51218" lon="3.03206">
        <ele>191</ele>
        <time>2016-06-11T04:27:16Z</time>
      </trkpt>
      <trkpt lat="43.5121" lon="3.03197">
        <ele>193</ele>
        <time>2016-06-11T04:27:28Z</time>
      </trkpt>
      <trkpt lat="43.51208" lon="3.0321">
        <ele>195</ele>
        <time>2016-06-11T04:27:40Z</time>
      </trkpt>
      <trkpt lat="43.51207" lon="3.03224">
        <ele>198</ele>
        <time>2016-06-11T04:27:58Z</time>
      </trkpt>
      <trkpt lat="43.51204" lon="3.03238">
        <ele>201</ele>
        <time>2016-06-11T04:28:15Z</time>
      </trkpt>
      <trkpt lat="43.51195" lon="3.03231">
        <ele>203</ele>
        <time>2016-06-11T04:28:27Z</time>
      </trkpt>
      <trkpt lat="43.5119" lon="3.03227">
        <ele>203</ele>
        <time>2016-06-11T04:28:30Z</time>
      </trkpt>
      <trkpt lat="43.51185" lon="3.03221">
        <ele>204</ele>
        <time>2016-06-11T04:28:37Z</time>
      </trkpt>
      <trkpt lat="43.51182" lon="3.03215">
        <ele>203</ele>
        <time>2016-06-11T04:28:40Z</time>
      </trkpt>
      <trkpt lat="43.51178" lon="3.03211">
        <ele>203</ele>
        <time>2016-06-11T04:28:43Z</time>
      </trkpt>
      <trkpt lat="43.51174" lon="3.03218">
        <ele>205</ele>
        <time>2016-06-11T04:28:55Z</time>
      </trkpt>
      <trkpt lat="43.51173" lon="3.03227">
        <ele>208</ele>
        <time>2016-06-11T04:29:13Z</time>
      </trkpt>
      <trkpt lat="43.51172" lon="3.03237">
        <ele>210</ele>
        <time>2016-06-11T04:29:25Z</time>
      </trkpt>
      <trkpt lat="43.5117" lon="3.03248">
        <ele>213</ele>
        <time>2016-06-11T04:29:42Z</time>
      </trkpt>
      <trkpt lat="43.51168" lon="3.03259">
        <ele>216</ele>
        <time>2016-06-11T04:30:00Z</time>
      </trkpt>
      <trkpt lat="43.51161" lon="3.03263">
        <ele>218</ele>
        <time>2016-06-11T04:30:12Z</time>
      </trkpt>
      <trkpt lat="43.51157" lon="3.03261">
        <ele>220</ele>
        <time>2016-06-11T04:30:23Z</time>
      </trkpt>
      <trkpt lat="43.51152" lon="3.03256">
        <ele>220</ele>
        <time>2016-06-11T04:30:27Z</time>
      </trkpt>
      <trkpt lat="43.51148" lon="3.0325">
        <ele>220</ele>
        <time>2016-06-11T04:30:30Z</time>
      </trkpt>
      <trkpt lat="43.51143" lon="3.03242">
        <ele>220</ele>
        <time>2016-06-11T04:30:34Z</time>
      </trkpt>
      <trkpt lat="43.51139" lon="3.03238">
        <ele>221</ele>
        <time>2016-06-11T04:30:40Z</time>
      </trkpt>
      <trkpt lat="43.51134" lon="3.03242">
        <ele>222</ele>
        <time>2016-06-11T04:30:46Z</time>
      </trkpt>
      <trkpt lat="43.51136" lon="3.03252">
        <ele>223</ele>
        <time>2016-06-11T04:30:53Z</time>
      </trkpt>
      <trkpt lat="43.51138" lon="3.0326">
        <ele>225</ele>
        <time>2016-06-11T04:31:05Z</time>
      </trkpt>
      <trkpt lat="43.51133" lon="3.03266">
        <ele>227</ele>
        <time>2016-06-11T04:31:16Z</time>
      </trkpt>
      <trkpt lat="43.51126" lon="3.03266">
        <ele>229</ele>
        <time>2016-06-11T04:31:28Z</time>
      </trkpt>
      <trkpt lat="43.51117" lon="3.03269">
        <ele>232</ele>
        <time>2016-06-11T04:31:46Z</time>
      </trkpt>
      <trkpt lat="43.51115" lon="3.03279">
        <ele>235</ele>
        <time>2016-06-11T04:32:03Z</time>
      </trkpt>
      <trkpt lat="43.51121" lon="3.03286">
        <ele>236</ele>
        <time>2016-06-11T04:32:10Z</time>
      </trkpt>
      <trkpt lat="43.51122" lon="3.03298">
        <ele>238</ele>
        <time>2016-06-11T04:32:22Z</time>
      </trkpt>
      <trkpt lat="43.51121" lon="3.0331">
        <ele>241</ele>
        <time>2016-06-11T04:32:40Z</time>
      </trkpt>
      <trkpt lat="43.51119" lon="3.03322">
        <ele>244</ele>
        <time>2016-06-11T04:32:58Z</time>
      </trkpt>
      <trkpt lat="43.51115" lon="3.03329">
        <ele>245</ele>
        <time>2016-06-11T04:33:04Z</time>
      </trkpt>
      <trkpt lat="43.51107" lon="3.03324">
        <ele>248</ele>
        <time>2016-06-11T04:33:22Z</time>
      </trkpt>
      <trkpt lat="43.511" lon="3.03321">
        <ele>249</ele>
        <time>2016-06-11T04:33:29Z</time>
      </trkpt>
      <trkpt lat="43.51093" lon="3.03324">
        <ele>251</ele>
        <time>2016-06-11T04:33:41Z</time>
      </trkpt>
      <trkpt lat="43.51096" lon="3.03333">
        <ele>254</ele>
        <time>2016-06-11T04:33:58Z</time>
      </trkpt>
      <trkpt lat="43.51099" lon="3.0334">
        <ele>255</ele>
        <time>2016-06-11T04:34:05Z</time>
      </trkpt>
      <trkpt lat="43.51101" lon="3.03349">
        <ele>257</ele>
        <time>2016-06-11T04:34:16Z</time>
      </trkpt>
      <trkpt lat="43.51102" lon="3.0336">
        <ele>258</ele>
        <time>2016-06-11T04:34:23Z</time>
      </trkpt>
      <trkpt lat="43.51103" lon="3.03371">
        <ele>261</ele>
        <time>2016-06-11T04:34:41Z</time>
      </trkpt>
      <trkpt lat="43.51103" lon="3.03383">
        <ele>264</ele>
        <time>2016-06-11T04:34:58Z</time>
      </trkpt>
      <trkpt lat="43.51103" lon="3.03394">
        <ele>267</ele>
        <time>2016-06-11T04:35:16Z</time>
      </trkpt>
      <trkpt lat="43.51102" lon="3.03406">
        <ele>269</ele>
        <time>2016-06-11T04:35:28Z</time>
      </trkpt>
      <trkpt lat="43.51102" lon="3.03416">
        <ele>272</ele>
        <time>2016-06-11T04:35:46Z</time>
      </trkpt>
      <trkpt lat="43.51103" lon="3.03425">
        <ele>273</ele>
        <time>2016-06-11T04:35:52Z</time>
      </trkpt>
      <trkpt lat="43.51103" lon="3.03435">
        <ele>276</ele>
        <time>2016-06-11T04:36:10Z</time>
      </trkpt>
      <trkpt lat="43.51103" lon="3.03445">
        <ele>278</ele>
        <time>2016-06-11T04:36:22Z</time>
      </trkpt>
      <trkpt lat="43.51103" lon="3.03458">
        <ele>281</ele>
        <time>2016-06-11T04:36:40Z</time>
      </trkpt>
      <trkpt lat="43.51104" lon="3.03469">
        <ele>283</ele>
        <time>2016-06-11T04:36:52Z</time>
      </trkpt>
      <trkpt lat="43.51103" lon="3.03478">
        <ele>285</ele>
        <time>2016-06-11T04:37:03Z</time>
      </trkpt>
      <trkpt lat="43.51101" lon="3.03491">
        <ele>289</ele>
        <time>2016-06-11T04:37:27Z</time>
      </trkpt>
      <trkpt lat="43.51103" lon="3.03505">
        <ele>290</ele>
        <time>2016-06-11T04:37:35Z</time>
      </trkpt>
      <trkpt lat="43.51106" lon="3.03518">
        <ele>292</ele>
        <time>2016-06-11T04:37:47Z</time>
      </trkpt>
      <trkpt lat="43.51106" lon="3.03532">
        <ele>296</ele>
        <time>2016-06-11T04:38:11Z</time>
      </trkpt>
      <trkpt lat="43.51104" lon="3.03544">
        <ele>300</ele>
        <time>2016-06-11T04:38:35Z</time>
      </trkpt>
      <trkpt lat="43.51104" lon="3.03556">
        <ele>303</ele>
        <time>2016-06-11T04:38:52Z</time>
      </trkpt>
      <trkpt lat="43.51104" lon="3.0357">
        <ele>307</ele>
        <time>2016-06-11T04:39:16Z</time>
      </trkpt>
      <trkpt lat="43.51105" lon="3.03584">
        <ele>310</ele>
        <time>2016-06-11T04:39:33Z</time>
      </trkpt>
      <trkpt lat="43.51107" lon="3.03598">
        <ele>313</ele>
        <time>2016-06-11T04:39:51Z</time>
      </trkpt>
      <trkpt lat="43.51109" lon="3.03612">
        <ele>316</ele>
        <time>2016-06-11T04:40:08Z</time>
      </trkpt>
      <trkpt lat="43.51112" lon="3.03625">
        <ele>319</ele>
        <time>2016-06-11T04:40:26Z</time>
      </trkpt>
      <trkpt lat="43.51113" lon="3.0364">
        <ele>322</ele>
        <time>2016-06-11T04:40:43Z</time>
      </trkpt>
      <trkpt lat="43.51118" lon="3.03652">
        <ele>325</ele>
        <time>2016-06-11T04:41:01Z</time>
      </trkpt>
      <trkpt lat="43.51123" lon="3.03665">
        <ele>326</ele>
        <time>2016-06-11T04:41:09Z</time>
      </trkpt>
      <trkpt lat="43.51128" lon="3.03677">
        <ele>327</ele>
        <time>2016-06-11T04:41:17Z</time>
      </trkpt>
      <trkpt lat="43.51134" lon="3.03691">
        <ele>329</ele>
        <time>2016-06-11T04:41:29Z</time>
      </trkpt>
      <trkpt lat="43.51139" lon="3.03702">
        <ele>332</ele>
        <time>2016-06-11T04:41:46Z</time>
      </trkpt>
      <trkpt lat="43.51143" lon="3.03715">
        <ele>336</ele>
        <time>2016-06-11T04:42:10Z</time>
      </trkpt>
      <trkpt lat="43.51147" lon="3.03728">
        <ele>340</ele>
        <time>2016-06-11T04:42:33Z</time>
      </trkpt>
      <trkpt lat="43.51151" lon="3.03742">
        <ele>344</ele>
        <time>2016-06-11T04:42:57Z</time>
      </trkpt>
      <trkpt lat="43.51155" lon="3.03755">
        <ele>348</ele>
        <time>2016-06-11T04:43:20Z</time>
      </trkpt>
      <trkpt lat="43.51158" lon="3.03769">
        <ele>352</ele>
        <time>2016-06-11T04:43:44Z</time>
      </trkpt>
      <trkpt lat="43.51163" lon="3.03783">
        <ele>354</ele>
        <time>2016-06-11T04:43:56Z</time>
      </trkpt>
      <trkpt lat="43.51171" lon="3.03786">
        <ele>356</ele>
        <time>2016-06-11T04:44:08Z</time>
      </trkpt>
      <trkpt lat="43.5118" lon="3.03787">
        <ele>354</ele>
        <time>2016-06-11T04:44:15Z</time>
      </trkpt>
      <trkpt lat="43.51188" lon="3.03784">
        <ele>353</ele>
        <time>2016-06-11T04:44:19Z</time>
      </trkpt>
      <trkpt lat="43.51192" lon="3.03784">
        <ele>353</ele>
        <time>2016-06-11T04:44:22Z</time>
      </trkpt>
      <trkpt lat="43.51196" lon="3.03785">
        <ele>353</ele>
        <time>2016-06-11T04:44:24Z</time>
      </trkpt>
      <trkpt lat="43.512" lon="3.03784">
        <ele>352</ele>
        <time>2016-06-11T04:44:28Z</time>
      </trkpt>
      <trkpt lat="43.51205" lon="3.03782">
        <ele>351</ele>
        <time>2016-06-11T04:44:31Z</time>
      </trkpt>
      <trkpt lat="43.5121" lon="3.03781">
        <ele>351</ele>
        <time>2016-06-11T04:44:34Z</time>
      </trkpt>
      <trkpt lat="43.51213" lon="3.03781">
        <ele>350</ele>
        <time>2016-06-11T04:44:37Z</time>
      </trkpt>
      <trkpt lat="43.51217" lon="3.03778">
        <ele>350</ele>
        <time>2016-06-11T04:44:39Z</time>
      </trkpt>
      <trkpt lat="43.51226" lon="3.03776">
        <ele>349</ele>
        <time>2016-06-11T04:44:44Z</time>
      </trkpt>
      <trkpt lat="43.51235" lon="3.03774">
        <ele>349</ele>
        <time>2016-06-11T04:44:49Z</time>
      </trkpt>
      <trkpt lat="43.51242" lon="3.03784">
        <ele>351</ele>
        <time>2016-06-11T04:45:01Z</time>
      </trkpt>
      <trkpt lat="43.51248" lon="3.03796">
        <ele>354</ele>
        <time>2016-06-11T04:45:19Z</time>
      </trkpt>
      <trkpt lat="43.51249" lon="3.03809">
        <ele>356</ele>
        <time>2016-06-11T04:45:31Z</time>
      </trkpt>
      <trkpt lat="43.5125" lon="3.03821">
        <ele>359</ele>
        <time>2016-06-11T04:45:49Z</time>
      </trkpt>
      <trkpt lat="43.51245" lon="3.03832">
        <ele>362</ele>
        <time>2016-06-11T04:46:06Z</time>
      </trkpt>
      <trkpt lat="43.51243" lon="3.03841">
        <ele>364</ele>
        <time>2016-06-11T04:46:18Z</time>
      </trkpt>
      <trkpt lat="43.51237" lon="3.03848">
        <ele>365</ele>
        <time>2016-06-11T04:46:25Z</time>
      </trkpt>
      <trkpt lat="43.51238" lon="3.03874">
        <ele>369</ele>
        <time>2016-06-11T04:46:49Z</time>
      </trkpt>
      <trkpt lat="43.51241" lon="3.03883">
        <ele>370</ele>
        <time>2016-06-11T04:46:56Z</time>
      </trkpt>
      <trkpt lat="43.51244" lon="3.03895">
        <ele>371</ele>
        <time>2016-06-11T04:47:03Z</time>
      </trkpt>
      <trkpt lat="43.51244" lon="3.03908">
        <ele>373</ele>
        <time>2016-06-11T04:47:15Z</time>
      </trkpt>
      <trkpt lat="43.51244" lon="3.03922">
        <ele>376</ele>
        <time>2016-06-11T04:47:33Z</time>
      </trkpt>
      <trkpt lat="43.51243" lon="3.03936">
        <ele>380</ele>
        <time>2016-06-11T04:47:57Z</time>
      </trkpt>
      <trkpt lat="43.51243" lon="3.03948">
        <ele>382</ele>
        <time>2016-06-11T04:48:09Z</time>
      </trkpt>
      <trkpt lat="43.51244" lon="3.03963">
        <ele>386</ele>
        <time>2016-06-11T04:48:32Z</time>
      </trkpt>
      <trkpt lat="43.51246" lon="3.03975">
        <ele>387</ele>
        <time>2016-06-11T04:48:40Z</time>
      </trkpt>
      <trkpt lat="43.5125" lon="3.03984">
        <ele>389</ele>
        <time>2016-06-11T04:48:51Z</time>
      </trkpt>
      <trkpt lat="43.51256" lon="3.03992">
        <ele>388</ele>
        <time>2016-06-11T04:48:56Z</time>
      </trkpt>
      <trkpt lat="43.51261" lon="3.03999">
        <ele>387</ele>
        <time>2016-06-11T04:49:00Z</time>
      </trkpt>
      <trkpt lat="43.51268" lon="3.0401">
        <ele>386</ele>
        <time>2016-06-11T04:49:05Z</time>
      </trkpt>
      <trkpt lat="43.51275" lon="3.0402">
        <ele>385</ele>
        <time>2016-06-11T04:49:10Z</time>
      </trkpt>
      <trkpt lat="43.51278" lon="3.04028">
        <ele>385</ele>
        <time>2016-06-11T04:49:14Z</time>
      </trkpt>
      <trkpt lat="43.51281" lon="3.04039">
        <ele>385</ele>
        <time>2016-06-11T04:49:19Z</time>
      </trkpt>
      <trkpt lat="43.51282" lon="3.04051">
        <ele>386</ele>
        <time>2016-06-11T04:49:26Z</time>
      </trkpt>
      <trkpt lat="43.51282" lon="3.04064">
        <ele>387</ele>
        <time>2016-06-11T04:49:33Z</time>
      </trkpt>
      <trkpt lat="43.51281" lon="3.04077">
        <ele>389</ele>
        <time>2016-06-11T04:49:46Z</time>
      </trkpt>
      <trkpt lat="43.51279" lon="3.04088">
        <ele>391</ele>
        <time>2016-06-11T04:49:58Z</time>
      </trkpt>
      <trkpt lat="43.51277" lon="3.04101">
        <ele>394</ele>
        <time>2016-06-11T04:50:15Z</time>
      </trkpt>
      <trkpt lat="43.51274" lon="3.04114">
        <ele>396</ele>
        <time>2016-06-11T04:50:28Z</time>
      </trkpt>
      <trkpt lat="43.51272" lon="3.04129">
        <ele>400</ele>
        <time>2016-06-11T04:50:51Z</time>
      </trkpt>
      <trkpt lat="43.51269" lon="3.04142">
        <ele>403</ele>
        <time>2016-06-11T04:51:09Z</time>
      </trkpt>
      <trkpt lat="43.51267" lon="3.04156">
        <ele>406</ele>
        <time>2016-06-11T04:51:26Z</time>
      </trkpt>
      <trkpt lat="43.51266" lon="3.0417">
        <ele>408</ele>
        <time>2016-06-11T04:51:38Z</time>
      </trkpt>
      <trkpt lat="43.51265" lon="3.04184">
        <ele>410</ele>
        <time>2016-06-11T04:51:50Z</time>
      </trkpt>
      <trkpt lat="43.51263" lon="3.04199">
        <ele>412</ele>
        <time>2016-06-11T04:52:02Z</time>
      </trkpt>
      <trkpt lat="43.51267" lon="3.04212">
        <ele>415</ele>
        <time>2016-06-11T04:52:20Z</time>
      </trkpt>
      <trkpt lat="43.51273" lon="3.04224">
        <ele>414</ele>
        <time>2016-06-11T04:52:25Z</time>
      </trkpt>
      <trkpt lat="43.51281" lon="3.04234">
        <ele>413</ele>
        <time>2016-06-11T04:52:30Z</time>
      </trkpt>
      <trkpt lat="43.51289" lon="3.04242">
        <ele>412</ele>
        <time>2016-06-11T04:52:35Z</time>
      </trkpt>
      <trkpt lat="43.51298" lon="3.04249">
        <ele>410</ele>
        <time>2016-06-11T04:52:42Z</time>
      </trkpt>
      <trkpt lat="43.51308" lon="3.04256">
        <ele>409</ele>
        <time>2016-06-11T04:52:48Z</time>
      </trkpt>
      <trkpt lat="43.51318" lon="3.04263">
        <ele>408</ele>
        <time>2016-06-11T04:52:53Z</time>
      </trkpt>
      <trkpt lat="43.51327" lon="3.04271">
        <ele>407</ele>
        <time>2016-06-11T04:52:59Z</time>
      </trkpt>
      <trkpt lat="43.51335" lon="3.04279">
        <ele>406</ele>
        <time>2016-06-11T04:53:03Z</time>
      </trkpt>
      <trkpt lat="43.51342" lon="3.04287">
        <ele>406</ele>
        <time>2016-06-11T04:53:08Z</time>
      </trkpt>
      <trkpt lat="43.51349" lon="3.04296">
        <ele>407</ele>
        <time>2016-06-11T04:53:16Z</time>
      </trkpt>
      <trkpt lat="43.51356" lon="3.04306">
        <ele>408</ele>
        <time>2016-06-11T04:53:24Z</time>
      </trkpt>
      <trkpt lat="43.51363" lon="3.04316">
        <ele>409</ele>
        <time>2016-06-11T04:53:32Z</time>
      </trkpt>
      <trkpt lat="43.5137" lon="3.04327">
        <ele>408</ele>
        <time>2016-06-11T04:53:37Z</time>
      </trkpt>
      <trkpt lat="43.51378" lon="3.04338">
        <ele>407</ele>
        <time>2016-06-11T04:53:42Z</time>
      </trkpt>
      <trkpt lat="43.51383" lon="3.04351">
        <ele>406</ele>
        <time>2016-06-11T04:53:48Z</time>
      </trkpt>
      <trkpt lat="43.51385" lon="3.04365">
        <ele>406</ele>
        <time>2016-06-11T04:53:54Z</time>
      </trkpt>
      <trkpt lat="43.51383" lon="3.0438">
        <ele>408</ele>
        <time>2016-06-11T04:54:06Z</time>
      </trkpt>
      <trkpt lat="43.51379" lon="3.04393">
        <ele>409</ele>
        <time>2016-06-11T04:54:14Z</time>
      </trkpt>
      <trkpt lat="43.51374" lon="3.04405">
        <ele>411</ele>
        <time>2016-06-11T04:54:26Z</time>
      </trkpt>
      <trkpt lat="43.51368" lon="3.04417">
        <ele>413</ele>
        <time>2016-06-11T04:54:38Z</time>
      </trkpt>
      <trkpt lat="43.5136" lon="3.04429">
        <ele>417</ele>
        <time>2016-06-11T04:55:02Z</time>
      </trkpt>
      <trkpt lat="43.51352" lon="3.04439">
        <ele>420</ele>
        <time>2016-06-11T04:55:19Z</time>
      </trkpt>
      <trkpt lat="43.51344" lon="3.04449">
        <ele>424</ele>
        <time>2016-06-11T04:55:43Z</time>
      </trkpt>
      <trkpt lat="43.51335" lon="3.04458">
        <ele>428</ele>
        <time>2016-06-11T04:56:07Z</time>
      </trkpt>
      <trkpt lat="43.51327" lon="3.04468">
        <ele>432</ele>
        <time>2016-06-11T04:56:30Z</time>
      </trkpt>
      <trkpt lat="43.51323" lon="3.04474">
        <ele>434</ele>
        <time>2016-06-11T04:56:42Z</time>
      </trkpt>
      <trkpt lat="43.51314" lon="3.04472">
        <ele>438</ele>
        <time>2016-06-11T04:57:06Z</time>
      </trkpt>
      <trkpt lat="43.51304" lon="3.04475">
        <ele>442</ele>
        <time>2016-06-11T04:57:30Z</time>
      </trkpt>
      <trkpt lat="43.51296" lon="3.04479">
        <ele>447</ele>
        <time>2016-06-11T04:57:56Z</time>
      </trkpt>
      <trkpt lat="43.51286" lon="3.04479">
        <ele>451</ele>
        <time>2016-06-11T04:58:19Z</time>
      </trkpt>
      <trkpt lat="43.51277" lon="3.04474">
        <ele>456</ele>
        <time>2016-06-11T04:58:46Z</time>
      </trkpt>
      <trkpt lat="43.51273" lon="3.04462">
        <ele>457</ele>
        <time>2016-06-11T04:58:54Z</time>
      </trkpt>
      <trkpt lat="43.51263" lon="3.04466">
        <ele>460</ele>
        <time>2016-06-11T04:59:11Z</time>
      </trkpt>
      <trkpt lat="43.51253" lon="3.04462">
        <ele>464</ele>
        <time>2016-06-11T04:59:35Z</time>
      </trkpt>
      <trkpt lat="43.51245" lon="3.04454">
        <ele>466</ele>
        <time>2016-06-11T04:59:47Z</time>
      </trkpt>
      <trkpt lat="43.51235" lon="3.04451">
        <ele>469</ele>
        <time>2016-06-11T05:00:04Z</time>
      </trkpt>
      <trkpt lat="43.51227" lon="3.04458">
        <ele>471</ele>
        <time>2016-06-11T05:00:16Z</time>
      </trkpt>
      <trkpt lat="43.51224" lon="3.04468">
        <ele>473</ele>
        <time>2016-06-11T05:00:28Z</time>
      </trkpt>
      <trkpt lat="43.51217" lon="3.04477">
        <ele>476</ele>
        <time>2016-06-11T05:00:46Z</time>
      </trkpt>
      <trkpt lat="43.51211" lon="3.04476">
        <ele>478</ele>
        <time>2016-06-11T05:00:58Z</time>
      </trkpt>
      <trkpt lat="43.51206" lon="3.04483">
        <ele>479</ele>
        <time>2016-06-11T05:01:04Z</time>
      </trkpt>
      <trkpt lat="43.51198" lon="3.04479">
        <ele>481</ele>
        <time>2016-06-11T05:01:16Z</time>
      </trkpt>
      <trkpt lat="43.51191" lon="3.04469">
        <ele>482</ele>
        <time>2016-06-11T05:01:24Z</time>
      </trkpt>
      <trkpt lat="43.51186" lon="3.04463">
        <ele>483</ele>
        <time>2016-06-11T05:01:31Z</time>
      </trkpt>
      <trkpt lat="43.51184" lon="3.04462">
        <ele>483</ele>
        <time>2016-06-11T05:01:32Z</time>
      </trkpt>
      <trkpt lat="43.51181" lon="3.04468">
        <ele>483</ele>
        <time>2016-06-11T05:01:35Z</time>
      </trkpt>
      <trkpt lat="43.51176" lon="3.04473">
        <ele>484</ele>
        <time>2016-06-11T05:01:41Z</time>
      </trkpt>
      <trkpt lat="43.51171" lon="3.04479">
        <ele>484</ele>
        <time>2016-06-11T05:01:45Z</time>
      </trkpt>
      <trkpt lat="43.51166" lon="3.04484">
        <ele>485</ele>
        <time>2016-06-11T05:01:51Z</time>
      </trkpt>
      <trkpt lat="43.51165" lon="3.04495">
        <ele>484</ele>
        <time>2016-06-11T05:01:56Z</time>
      </trkpt>
      <trkpt lat="43.5117" lon="3.04509">
        <ele>483</ele>
        <time>2016-06-11T05:02:01Z</time>
      </trkpt>
      <trkpt lat="43.51182" lon="3.04528">
        <ele>482</ele>
        <time>2016-06-11T05:02:10Z</time>
      </trkpt>
      <trkpt lat="43.51187" lon="3.04611">
        <ele>480</ele>
        <time>2016-06-11T05:02:41Z</time>
      </trkpt>
      <trkpt lat="43.51204" lon="3.04745">
        <ele>480</ele>
        <time>2016-06-11T05:03:37Z</time>
      </trkpt>
      <trkpt lat="43.512" lon="3.04834">
        <ele>480</ele>
        <time>2016-06-11T05:04:14Z</time>
      </trkpt>
      <trkpt lat="43.51196" lon="3.04907">
        <ele>478</ele>
        <time>2016-06-11T05:04:41Z</time>
      </trkpt>
      <trkpt lat="43.51191" lon="3.04945">
        <ele>478</ele>
        <time>2016-06-11T05:04:57Z</time>
      </trkpt>
      <trkpt lat="43.51142" lon="3.05015">
        <ele>478</ele>
        <time>2016-06-11T05:05:38Z</time>
      </trkpt>
      <trkpt lat="43.51112" lon="3.05049">
        <ele>479</ele>
        <time>2016-06-11T05:06:01Z</time>
      </trkpt>
      <trkpt lat="43.51084" lon="3.05062">
        <ele>474</ele>
        <time>2016-06-11T05:06:20Z</time>
      </trkpt>
      <trkpt lat="43.51056" lon="3.05052">
        <ele>469</ele>
        <time>2016-06-11T05:06:38Z</time>
      </trkpt>
      <trkpt lat="43.51023" lon="3.05068">
        <ele>465</ele>
        <time>2016-06-11T05:06:56Z</time>
      </trkpt>
      <trkpt lat="43.51022" lon="3.05068">
        <ele>465</ele>
        <time>2016-06-11T05:06:56Z</time>
      </trkpt>
      <trkpt lat="43.51012" lon="3.05084">
        <ele>466</ele>
        <time>2016-06-11T05:07:07Z</time>
      </trkpt>
      <trkpt lat="43.5101" lon="3.05102">
        <ele>468</ele>
        <time>2016-06-11T05:07:19Z</time>
      </trkpt>
      <trkpt lat="43.51009" lon="3.05111">
        <ele>469</ele>
        <time>2016-06-11T05:07:26Z</time>
      </trkpt>
      <trkpt lat="43.51007" lon="3.05123">
        <ele>470</ele>
        <time>2016-06-11T05:07:33Z</time>
      </trkpt>
      <trkpt lat="43.51002" lon="3.05134">
        <ele>472</ele>
        <time>2016-06-11T05:07:45Z</time>
      </trkpt>
      <trkpt lat="43.50997" lon="3.05147">
        <ele>473</ele>
        <time>2016-06-11T05:07:53Z</time>
      </trkpt>
      <trkpt lat="43.50993" lon="3.05162">
        <ele>475</ele>
        <time>2016-06-11T05:08:05Z</time>
      </trkpt>
      <trkpt lat="43.50988" lon="3.05174">
        <ele>476</ele>
        <time>2016-06-11T05:08:13Z</time>
      </trkpt>
      <trkpt lat="43.50984" lon="3.05186">
        <ele>477</ele>
        <time>2016-06-11T05:08:21Z</time>
      </trkpt>
      <trkpt lat="43.50979" lon="3.05199">
        <ele>478</ele>
        <time>2016-06-11T05:08:29Z</time>
      </trkpt>
      <trkpt lat="43.50973" lon="3.05213">
        <ele>481</ele>
        <time>2016-06-11T05:08:47Z</time>
      </trkpt>
      <trkpt lat="43.50968" lon="3.05226">
        <ele>481</ele>
        <time>2016-06-11T05:08:53Z</time>
      </trkpt>
      <trkpt lat="43.50965" lon="3.05241">
        <ele>482</ele>
        <time>2016-06-11T05:09:01Z</time>
      </trkpt>
      <trkpt lat="43.50963" lon="3.05255">
        <ele>483</ele>
        <time>2016-06-11T05:09:09Z</time>
      </trkpt>
      <trkpt lat="43.5096" lon="3.0527">
        <ele>484</ele>
        <time>2016-06-11T05:09:18Z</time>
      </trkpt>
      <trkpt lat="43.50956" lon="3.05284">
        <ele>485</ele>
        <time>2016-06-11T05:09:26Z</time>
      </trkpt>
      <trkpt lat="43.50953" lon="3.05293">
        <ele>484</ele>
        <time>2016-06-11T05:09:30Z</time>
      </trkpt>
      <trkpt lat="43.50952" lon="3.05304">
        <ele>484</ele>
        <time>2016-06-11T05:09:34Z</time>
      </trkpt>
      <trkpt lat="43.50956" lon="3.05318">
        <ele>482</ele>
        <time>2016-06-11T05:09:41Z</time>
      </trkpt>
      <trkpt lat="43.50953" lon="3.05331">
        <ele>482</ele>
        <time>2016-06-11T05:09:47Z</time>
      </trkpt>
      <trkpt lat="43.50947" lon="3.05345">
        <ele>481</ele>
        <time>2016-06-11T05:09:53Z</time>
      </trkpt>
      <trkpt lat="43.50941" lon="3.05356">
        <ele>481</ele>
        <time>2016-06-11T05:09:59Z</time>
      </trkpt>
      <trkpt lat="43.50934" lon="3.0537">
        <ele>478</ele>
        <time>2016-06-11T05:10:09Z</time>
      </trkpt>
      <trkpt lat="43.50928" lon="3.05384">
        <ele>476</ele>
        <time>2016-06-11T05:10:16Z</time>
      </trkpt>
      <trkpt lat="43.50925" lon="3.054">
        <ele>473</ele>
        <time>2016-06-11T05:10:26Z</time>
      </trkpt>
      <trkpt lat="43.50922" lon="3.05416">
        <ele>471</ele>
        <time>2016-06-11T05:10:33Z</time>
      </trkpt>
      <trkpt lat="43.5092" lon="3.0543">
        <ele>467</ele>
        <time>2016-06-11T05:10:47Z</time>
      </trkpt>
      <trkpt lat="43.50918" lon="3.05446">
        <ele>464</ele>
        <time>2016-06-11T05:10:57Z</time>
      </trkpt>
      <trkpt lat="43.50916" lon="3.05459">
        <ele>461</ele>
        <time>2016-06-11T05:11:07Z</time>
      </trkpt>
      <trkpt lat="43.50913" lon="3.05474">
        <ele>457</ele>
        <time>2016-06-11T05:11:21Z</time>
      </trkpt>
      <trkpt lat="43.50911" lon="3.0549">
        <ele>453</ele>
        <time>2016-06-11T05:11:35Z</time>
      </trkpt>
      <trkpt lat="43.50909" lon="3.05506">
        <ele>450</ele>
        <time>2016-06-11T05:11:45Z</time>
      </trkpt>
      <trkpt lat="43.50905" lon="3.05519">
        <ele>449</ele>
        <time>2016-06-11T05:11:50Z</time>
      </trkpt>
      <trkpt lat="43.50902" lon="3.05533">
        <ele>446</ele>
        <time>2016-06-11T05:12:00Z</time>
      </trkpt>
      <trkpt lat="43.50898" lon="3.05547">
        <ele>444</ele>
        <time>2016-06-11T05:12:07Z</time>
      </trkpt>
      <trkpt lat="43.50895" lon="3.05561">
        <ele>441</ele>
        <time>2016-06-11T05:12:17Z</time>
      </trkpt>
      <trkpt lat="43.50893" lon="3.05576">
        <ele>440</ele>
        <time>2016-06-11T05:12:22Z</time>
      </trkpt>
      <trkpt lat="43.5089" lon="3.0559">
        <ele>437</ele>
        <time>2016-06-11T05:12:32Z</time>
      </trkpt>
      <trkpt lat="43.50888" lon="3.05605">
        <ele>435</ele>
        <time>2016-06-11T05:12:39Z</time>
      </trkpt>
      <trkpt lat="43.50886" lon="3.05619">
        <ele>432</ele>
        <time>2016-06-11T05:12:49Z</time>
      </trkpt>
      <trkpt lat="43.50884" lon="3.05633">
        <ele>430</ele>
        <time>2016-06-11T05:12:56Z</time>
      </trkpt>
      <trkpt lat="43.50882" lon="3.05649">
        <ele>428</ele>
        <time>2016-06-11T05:13:03Z</time>
      </trkpt>
      <trkpt lat="43.50878" lon="3.05664">
        <ele>426</ele>
        <time>2016-06-11T05:13:11Z</time>
      </trkpt>
      <trkpt lat="43.50873" lon="3.05677">
        <ele>424</ele>
        <time>2016-06-11T05:13:18Z</time>
      </trkpt>
      <trkpt lat="43.50883" lon="3.05682">
        <ele>421</ele>
        <time>2016-06-11T05:13:28Z</time>
      </trkpt>
      <trkpt lat="43.50884" lon="3.05698">
        <ele>418</ele>
        <time>2016-06-11T05:13:38Z</time>
      </trkpt>
      <trkpt lat="43.50882" lon="3.05714">
        <ele>414</ele>
        <time>2016-06-11T05:13:51Z</time>
      </trkpt>
      <trkpt lat="43.5088" lon="3.0573">
        <ele>411</ele>
        <time>2016-06-11T05:14:01Z</time>
      </trkpt>
      <trkpt lat="43.50881" lon="3.05745">
        <ele>407</ele>
        <time>2016-06-11T05:14:15Z</time>
      </trkpt>
      <trkpt lat="43.50885" lon="3.05758">
        <ele>404</ele>
        <time>2016-06-11T05:14:25Z</time>
      </trkpt>
      <trkpt lat="43.50887" lon="3.05775">
        <ele>400</ele>
        <time>2016-06-11T05:14:39Z</time>
      </trkpt>
      <trkpt lat="43.50891" lon="3.05788">
        <ele>397</ele>
        <time>2016-06-11T05:14:49Z</time>
      </trkpt>
      <trkpt lat="43.50896" lon="3.05802">
        <ele>394</ele>
        <time>2016-06-11T05:14:59Z</time>
      </trkpt>
      <trkpt lat="43.509" lon="3.05816">
        <ele>391</ele>
        <time>2016-06-11T05:15:09Z</time>
      </trkpt>
      <trkpt lat="43.50897" lon="3.05829">
        <ele>389</ele>
        <time>2016-06-11T05:15:16Z</time>
      </trkpt>
      <trkpt lat="43.50894" lon="3.05841">
        <ele>387</ele>
        <time>2016-06-11T05:15:22Z</time>
      </trkpt>
      <trkpt lat="43.50896" lon="3.05853">
        <ele>385</ele>
        <time>2016-06-11T05:15:29Z</time>
      </trkpt>
      <trkpt lat="43.50901" lon="3.05867">
        <ele>383</ele>
        <time>2016-06-11T05:15:36Z</time>
      </trkpt>
      <trkpt lat="43.50902" lon="3.05881">
        <ele>381</ele>
        <time>2016-06-11T05:15:43Z</time>
      </trkpt>
      <trkpt lat="43.50902" lon="3.05896">
        <ele>379</ele>
        <time>2016-06-11T05:15:50Z</time>
      </trkpt>
      <trkpt lat="43.509" lon="3.05911">
        <ele>378</ele>
        <time>2016-06-11T05:15:56Z</time>
      </trkpt>
      <trkpt lat="43.50898" lon="3.05926">
        <ele>377</ele>
        <time>2016-06-11T05:16:01Z</time>
      </trkpt>
      <trkpt lat="43.50898" lon="3.05942">
        <ele>376</ele>
        <time>2016-06-11T05:16:07Z</time>
      </trkpt>
      <trkpt lat="43.509" lon="3.05956">
        <ele>375</ele>
        <time>2016-06-11T05:16:12Z</time>
      </trkpt>
      <trkpt lat="43.50898" lon="3.05969">
        <ele>375</ele>
        <time>2016-06-11T05:16:17Z</time>
      </trkpt>
      <trkpt lat="43.50891" lon="3.05979">
        <ele>374</ele>
        <time>2016-06-11T05:16:23Z</time>
      </trkpt>
      <trkpt lat="43.50883" lon="3.05987">
        <ele>374</ele>
        <time>2016-06-11T05:16:29Z</time>
      </trkpt>
      <trkpt lat="43.50884" lon="3.06001">
        <ele>374</ele>
        <time>2016-06-11T05:16:34Z</time>
      </trkpt>
      <trkpt lat="43.50889" lon="3.06014">
        <ele>373</ele>
        <time>2016-06-11T05:16:40Z</time>
      </trkpt>
      <trkpt lat="43.50891" lon="3.06026">
        <ele>373</ele>
        <time>2016-06-11T05:16:45Z</time>
      </trkpt>
      <trkpt lat="43.50892" lon="3.06041">
        <ele>372</ele>
        <time>2016-06-11T05:16:50Z</time>
      </trkpt>
      <trkpt lat="43.50893" lon="3.06057">
        <ele>371</ele>
        <time>2016-06-11T05:16:56Z</time>
      </trkpt>
      <trkpt lat="43.50894" lon="3.06072">
        <ele>369</ele>
        <time>2016-06-11T05:17:03Z</time>
      </trkpt>
      <trkpt lat="43.50893" lon="3.06088">
        <ele>368</ele>
        <time>2016-06-11T05:17:09Z</time>
      </trkpt>
      <trkpt lat="43.50893" lon="3.06104">
        <ele>367</ele>
        <time>2016-06-11T05:17:14Z</time>
      </trkpt>
      <trkpt lat="43.50893" lon="3.06119">
        <ele>364</ele>
        <time>2016-06-11T05:17:24Z</time>
      </trkpt>
      <trkpt lat="43.50896" lon="3.06133">
        <ele>361</ele>
        <time>2016-06-11T05:17:34Z</time>
      </trkpt>
      <trkpt lat="43.50894" lon="3.0615">
        <ele>359</ele>
        <time>2016-06-11T05:17:42Z</time>
      </trkpt>
      <trkpt lat="43.50885" lon="3.06158">
        <ele>359</ele>
        <time>2016-06-11T05:17:48Z</time>
      </trkpt>
      <trkpt lat="43.50878" lon="3.06169">
        <ele>358</ele>
        <time>2016-06-11T05:17:53Z</time>
      </trkpt>
      <trkpt lat="43.50869" lon="3.06181">
        <ele>358</ele>
        <time>2016-06-11T05:18:00Z</time>
      </trkpt>
      <trkpt lat="43.50863" lon="3.0619">
        <ele>356</ele>
        <time>2016-06-11T05:18:07Z</time>
      </trkpt>
      <trkpt lat="43.5086" lon="3.06206">
        <ele>354</ele>
        <time>2016-06-11T05:18:14Z</time>
      </trkpt>
      <trkpt lat="43.50859" lon="3.06222">
        <ele>350</ele>
        <time>2016-06-11T05:18:28Z</time>
      </trkpt>
      <trkpt lat="43.50859" lon="3.06238">
        <ele>346</ele>
        <time>2016-06-11T05:18:42Z</time>
      </trkpt>
      <trkpt lat="43.50869" lon="3.06238">
        <ele>342</ele>
        <time>2016-06-11T05:18:56Z</time>
      </trkpt>
      <trkpt lat="43.50872" lon="3.06254">
        <ele>339</ele>
        <time>2016-06-11T05:19:06Z</time>
      </trkpt>
      <trkpt lat="43.50872" lon="3.06272">
        <ele>334</ele>
        <time>2016-06-11T05:19:23Z</time>
      </trkpt>
      <trkpt lat="43.5087" lon="3.06285">
        <ele>331</ele>
        <time>2016-06-11T05:19:33Z</time>
      </trkpt>
      <trkpt lat="43.50871" lon="3.06301">
        <ele>328</ele>
        <time>2016-06-11T05:19:43Z</time>
      </trkpt>
      <trkpt lat="43.50867" lon="3.06314">
        <ele>325</ele>
        <time>2016-06-11T05:19:53Z</time>
      </trkpt>
      <trkpt lat="43.50865" lon="3.06328">
        <ele>322</ele>
        <time>2016-06-11T05:20:03Z</time>
      </trkpt>
      <trkpt lat="43.50861" lon="3.06341">
        <ele>319</ele>
        <time>2016-06-11T05:20:13Z</time>
      </trkpt>
      <trkpt lat="43.50857" lon="3.06356">
        <ele>317</ele>
        <time>2016-06-11T05:20:20Z</time>
      </trkpt>
      <trkpt lat="43.50852" lon="3.06372">
        <ele>314</ele>
        <time>2016-06-11T05:20:30Z</time>
      </trkpt>
      <trkpt lat="43.50847" lon="3.06384">
        <ele>313</ele>
        <time>2016-06-11T05:20:35Z</time>
      </trkpt>
      <trkpt lat="43.5084" lon="3.06398">
        <ele>313</ele>
        <time>2016-06-11T05:20:42Z</time>
      </trkpt>
      <trkpt lat="43.50831" lon="3.06409">
        <ele>313</ele>
        <time>2016-06-11T05:20:49Z</time>
      </trkpt>
      <trkpt lat="43.50822" lon="3.06417">
        <ele>314</ele>
        <time>2016-06-11T05:20:57Z</time>
      </trkpt>
      <trkpt lat="43.50813" lon="3.06426">
        <ele>315</ele>
        <time>2016-06-11T05:21:05Z</time>
      </trkpt>
      <trkpt lat="43.50806" lon="3.06439">
        <ele>313</ele>
        <time>2016-06-11T05:21:13Z</time>
      </trkpt>
      <trkpt lat="43.50802" lon="3.06453">
        <ele>313</ele>
        <time>2016-06-11T05:21:19Z</time>
      </trkpt>
      <trkpt lat="43.50804" lon="3.06466">
        <ele>310</ele>
        <time>2016-06-11T05:21:29Z</time>
      </trkpt>
      <trkpt lat="43.50812" lon="3.06479">
        <ele>306</ele>
        <time>2016-06-11T05:21:43Z</time>
      </trkpt>
      <trkpt lat="43.5082" lon="3.06492">
        <ele>302</ele>
        <time>2016-06-11T05:21:56Z</time>
      </trkpt>
      <trkpt lat="43.50825" lon="3.06506">
        <ele>299</ele>
        <time>2016-06-11T05:22:06Z</time>
      </trkpt>
      <trkpt lat="43.50827" lon="3.06521">
        <ele>297</ele>
        <time>2016-06-11T05:22:13Z</time>
      </trkpt>
      <trkpt lat="43.50826" lon="3.06535">
        <ele>295</ele>
        <time>2016-06-11T05:22:20Z</time>
      </trkpt>
      <trkpt lat="43.50825" lon="3.06548">
        <ele>295</ele>
        <time>2016-06-11T05:22:25Z</time>
      </trkpt>
      <trkpt lat="43.50824" lon="3.06559">
        <ele>294</ele>
        <time>2016-06-11T05:22:30Z</time>
      </trkpt>
      <trkpt lat="43.50822" lon="3.06574">
        <ele>294</ele>
        <time>2016-06-11T05:22:36Z</time>
      </trkpt>
      <trkpt lat="43.5082" lon="3.0659">
        <ele>293</ele>
        <time>2016-06-11T05:22:42Z</time>
      </trkpt>
      <trkpt lat="43.50818" lon="3.06604">
        <ele>293</ele>
        <time>2016-06-11T05:22:48Z</time>
      </trkpt>
      <trkpt lat="43.50816" lon="3.06616">
        <ele>292</ele>
        <time>2016-06-11T05:22:52Z</time>
      </trkpt>
      <trkpt lat="43.50815" lon="3.06627">
        <ele>291</ele>
        <time>2016-06-11T05:22:57Z</time>
      </trkpt>
      <trkpt lat="43.50816" lon="3.06639">
        <ele>290</ele>
        <time>2016-06-11T05:23:01Z</time>
      </trkpt>
      <trkpt lat="43.50816" lon="3.0665">
        <ele>289</ele>
        <time>2016-06-11T05:23:05Z</time>
      </trkpt>
      <trkpt lat="43.50822" lon="3.06661">
        <ele>288</ele>
        <time>2016-06-11T05:23:10Z</time>
      </trkpt>
      <trkpt lat="43.50826" lon="3.06672">
        <ele>286</ele>
        <time>2016-06-11T05:23:17Z</time>
      </trkpt>
      <trkpt lat="43.50829" lon="3.06685">
        <ele>284</ele>
        <time>2016-06-11T05:23:24Z</time>
      </trkpt>
      <trkpt lat="43.5083" lon="3.06701">
        <ele>282</ele>
        <time>2016-06-11T05:23:31Z</time>
      </trkpt>
      <trkpt lat="43.50831" lon="3.06719">
        <ele>280</ele>
        <time>2016-06-11T05:23:39Z</time>
      </trkpt>
      <trkpt lat="43.50833" lon="3.06735">
        <ele>277</ele>
        <time>2016-06-11T05:23:49Z</time>
      </trkpt>
      <trkpt lat="43.50833" lon="3.06748">
        <ele>276</ele>
        <time>2016-06-11T05:23:54Z</time>
      </trkpt>
      <trkpt lat="43.50835" lon="3.0676">
        <ele>274</ele>
        <time>2016-06-11T05:24:00Z</time>
      </trkpt>
      <trkpt lat="43.50836" lon="3.06771">
        <ele>272</ele>
        <time>2016-06-11T05:24:07Z</time>
      </trkpt>
      <trkpt lat="43.50838" lon="3.06786">
        <ele>270</ele>
        <time>2016-06-11T05:24:14Z</time>
      </trkpt>
      <trkpt lat="43.50838" lon="3.06798">
        <ele>268</ele>
        <time>2016-06-11T05:24:21Z</time>
      </trkpt>
      <trkpt lat="43.50839" lon="3.06814">
        <ele>267</ele>
        <time>2016-06-11T05:24:26Z</time>
      </trkpt>
      <trkpt lat="43.50842" lon="3.06829">
        <ele>264</ele>
        <time>2016-06-11T05:24:36Z</time>
      </trkpt>
      <trkpt lat="43.50844" lon="3.06844">
        <ele>263</ele>
        <time>2016-06-11T05:24:42Z</time>
      </trkpt>
      <trkpt lat="43.50846" lon="3.0686">
        <ele>261</ele>
        <time>2016-06-11T05:24:49Z</time>
      </trkpt>
      <trkpt lat="43.50848" lon="3.06874">
        <ele>259</ele>
        <time>2016-06-11T05:24:56Z</time>
      </trkpt>
      <trkpt lat="43.50855" lon="3.06884">
        <ele>259</ele>
        <time>2016-06-11T05:25:02Z</time>
      </trkpt>
      <trkpt lat="43.50862" lon="3.06893">
        <ele>257</ele>
        <time>2016-06-11T05:25:08Z</time>
      </trkpt>
      <trkpt lat="43.50865" lon="3.06907">
        <ele>256</ele>
        <time>2016-06-11T05:25:14Z</time>
      </trkpt>
      <trkpt lat="43.50866" lon="3.06921">
        <ele>254</ele>
        <time>2016-06-11T05:25:21Z</time>
      </trkpt>
      <trkpt lat="43.50865" lon="3.06936">
        <ele>253</ele>
        <time>2016-06-11T05:25:26Z</time>
      </trkpt>
      <trkpt lat="43.50864" lon="3.06949">
        <ele>251</ele>
        <time>2016-06-11T05:25:33Z</time>
      </trkpt>
      <trkpt lat="43.50862" lon="3.06964">
        <ele>250</ele>
        <time>2016-06-11T05:25:38Z</time>
      </trkpt>
      <trkpt lat="43.50861" lon="3.0698">
        <ele>247</ele>
        <time>2016-06-11T05:25:48Z</time>
      </trkpt>
      <trkpt lat="43.50858" lon="3.06996">
        <ele>245</ele>
        <time>2016-06-11T05:25:55Z</time>
      </trkpt>
      <trkpt lat="43.50855" lon="3.07011">
        <ele>242</ele>
        <time>2016-06-11T05:26:05Z</time>
      </trkpt>
      <trkpt lat="43.50854" lon="3.07026">
        <ele>240</ele>
        <time>2016-06-11T05:26:12Z</time>
      </trkpt>
      <trkpt lat="43.50864" lon="3.07021">
        <ele>239</ele>
        <time>2016-06-11T05:26:18Z</time>
      </trkpt>
      <trkpt lat="43.50873" lon="3.07012">
        <ele>239</ele>
        <time>2016-06-11T05:26:24Z</time>
      </trkpt>
      <trkpt lat="43.50877" lon="3.07027">
        <ele>235</ele>
        <time>2016-06-11T05:26:38Z</time>
      </trkpt>
      <trkpt lat="43.50873" lon="3.07041">
        <ele>234</ele>
        <time>2016-06-11T05:26:43Z</time>
      </trkpt>
      <trkpt lat="43.50866" lon="3.07056">
        <ele>233</ele>
        <time>2016-06-11T05:26:49Z</time>
      </trkpt>
      <trkpt lat="43.50859" lon="3.0707">
        <ele>231</ele>
        <time>2016-06-11T05:26:56Z</time>
      </trkpt>
      <trkpt lat="43.50855" lon="3.07085">
        <ele>231</ele>
        <time>2016-06-11T05:27:03Z</time>
      </trkpt>
      <trkpt lat="43.50854" lon="3.07099">
        <ele>229</ele>
        <time>2016-06-11T05:27:10Z</time>
      </trkpt>
      <trkpt lat="43.50853" lon="3.07113">
        <ele>227</ele>
        <time>2016-06-11T05:27:17Z</time>
      </trkpt>
      <trkpt lat="43.50852" lon="3.07129">
        <ele>224</ele>
        <time>2016-06-11T05:27:27Z</time>
      </trkpt>
      <trkpt lat="43.50851" lon="3.07145">
        <ele>222</ele>
        <time>2016-06-11T05:27:34Z</time>
      </trkpt>
      <trkpt lat="43.50848" lon="3.0716">
        <ele>220</ele>
        <time>2016-06-11T05:27:41Z</time>
      </trkpt>
      <trkpt lat="43.50845" lon="3.07174">
        <ele>218</ele>
        <time>2016-06-11T05:27:48Z</time>
      </trkpt>
      <trkpt lat="43.50842" lon="3.07189">
        <ele>216</ele>
        <time>2016-06-11T05:27:56Z</time>
      </trkpt>
      <trkpt lat="43.50841" lon="3.07205">
        <ele>214</ele>
        <time>2016-06-11T05:28:03Z</time>
      </trkpt>
      <trkpt lat="43.50839" lon="3.07219">
        <ele>212</ele>
        <time>2016-06-11T05:28:10Z</time>
      </trkpt>
      <trkpt lat="43.50835" lon="3.07231">
        <ele>211</ele>
        <time>2016-06-11T05:28:14Z</time>
      </trkpt>
      <trkpt lat="43.50833" lon="3.07246">
        <ele>209</ele>
        <time>2016-06-11T05:28:22Z</time>
      </trkpt>
      <trkpt lat="43.50831" lon="3.07261">
        <ele>207</ele>
        <time>2016-06-11T05:28:29Z</time>
      </trkpt>
      <trkpt lat="43.5083" lon="3.07277">
        <ele>206</ele>
        <time>2016-06-11T05:28:34Z</time>
      </trkpt>
      <trkpt lat="43.50829" lon="3.07293">
        <ele>204</ele>
        <time>2016-06-11T05:28:42Z</time>
      </trkpt>
      <trkpt lat="43.50827" lon="3.07307">
        <ele>204</ele>
        <time>2016-06-11T05:28:48Z</time>
      </trkpt>
      <trkpt lat="43.50827" lon="3.07323">
        <ele>202</ele>
        <time>2016-06-11T05:28:55Z</time>
      </trkpt>
      <trkpt lat="43.50825" lon="3.07338">
        <ele>201</ele>
        <time>2016-06-11T05:29:00Z</time>
      </trkpt>
      <trkpt lat="43.50824" lon="3.07352">
        <ele>199</ele>
        <time>2016-06-11T05:29:07Z</time>
      </trkpt>
      <trkpt lat="43.50825" lon="3.07366">
        <ele>198</ele>
        <time>2016-06-11T05:29:13Z</time>
      </trkpt>
      <trkpt lat="43.50826" lon="3.07383">
        <ele>196</ele>
        <time>2016-06-11T05:29:20Z</time>
      </trkpt>
      <trkpt lat="43.50829" lon="3.07398">
        <ele>195</ele>
        <time>2016-06-11T05:29:26Z</time>
      </trkpt>
      <trkpt lat="43.50831" lon="3.07412">
        <ele>193</ele>
        <time>2016-06-11T05:29:33Z</time>
      </trkpt>
      <trkpt lat="43.50834" lon="3.07426">
        <ele>192</ele>
        <time>2016-06-11T05:29:38Z</time>
      </trkpt>
      <trkpt lat="43.50842" lon="3.07417">
        <ele>191</ele>
        <time>2016-06-11T05:29:43Z</time>
      </trkpt>
      <trkpt lat="43.5085" lon="3.07426">
        <ele>191</ele>
        <time>2016-06-11T05:29:49Z</time>
      </trkpt>
      <trkpt lat="43.50853" lon="3.07441">
        <ele>190</ele>
        <time>2016-06-11T05:29:54Z</time>
      </trkpt>
      <trkpt lat="43.50854" lon="3.07457">
        <ele>188</ele>
        <time>2016-06-11T05:30:02Z</time>
      </trkpt>
      <trkpt lat="43.50848" lon="3.07475">
        <ele>186</ele>
        <time>2016-06-11T05:30:10Z</time>
      </trkpt>
      <trkpt lat="43.50847" lon="3.07491">
        <ele>185</ele>
        <time>2016-06-11T05:30:15Z</time>
      </trkpt>
      <trkpt lat="43.50846" lon="3.07507">
        <ele>185</ele>
        <time>2016-06-11T05:30:22Z</time>
      </trkpt>
      <trkpt lat="43.50847" lon="3.07525">
        <ele>183</ele>
        <time>2016-06-11T05:30:30Z</time>
      </trkpt>
      <trkpt lat="43.50847" lon="3.07539">
        <ele>183</ele>
        <time>2016-06-11T05:30:36Z</time>
      </trkpt>
      <trkpt lat="43.50846" lon="3.07553">
        <ele>183</ele>
        <time>2016-06-11T05:30:41Z</time>
      </trkpt>
      <trkpt lat="43.50849" lon="3.07569">
        <ele>183</ele>
        <time>2016-06-11T05:30:48Z</time>
      </trkpt>
      <trkpt lat="43.50854" lon="3.07582">
        <ele>183</ele>
        <time>2016-06-11T05:30:54Z</time>
      </trkpt>
      <trkpt lat="43.50861" lon="3.07594">
        <ele>183</ele>
        <time>2016-06-11T05:31:01Z</time>
      </trkpt>
      <trkpt lat="43.50869" lon="3.07602">
        <ele>183</ele>
        <time>2016-06-11T05:31:07Z</time>
      </trkpt>
      <trkpt lat="43.50878" lon="3.0761">
        <ele>183</ele>
        <time>2016-06-11T05:31:13Z</time>
      </trkpt>
      <trkpt lat="43.50889" lon="3.07617">
        <ele>184</ele>
        <time>2016-06-11T05:31:21Z</time>
      </trkpt>
      <trkpt lat="43.509" lon="3.07625">
        <ele>185</ele>
        <time>2016-06-11T05:31:30Z</time>
      </trkpt>
      <trkpt lat="43.50908" lon="3.07634">
        <ele>185</ele>
        <time>2016-06-11T05:31:36Z</time>
      </trkpt>
      <trkpt lat="43.50911" lon="3.0765">
        <ele>186</ele>
        <time>2016-06-11T05:31:45Z</time>
      </trkpt>
      <trkpt lat="43.5091" lon="3.07665">
        <ele>186</ele>
        <time>2016-06-11T05:31:51Z</time>
      </trkpt>
      <trkpt lat="43.50911" lon="3.07681">
        <ele>187</ele>
        <time>2016-06-11T05:32:00Z</time>
      </trkpt>
      <trkpt lat="43.50912" lon="3.07696">
        <ele>188</ele>
        <time>2016-06-11T05:32:08Z</time>
      </trkpt>
      <trkpt lat="43.50913" lon="3.07711">
        <ele>190</ele>
        <time>2016-06-11T05:32:20Z</time>
      </trkpt>
      <trkpt lat="43.50915" lon="3.07725">
        <ele>190</ele>
        <time>2016-06-11T05:32:26Z</time>
      </trkpt>
      <trkpt lat="43.50919" lon="3.0774">
        <ele>192</ele>
        <time>2016-06-11T05:32:38Z</time>
      </trkpt>
      <trkpt lat="43.50969" lon="3.07725">
        <ele>194</ele>
        <time>2016-06-11T05:33:10Z</time>
      </trkpt>
      <trkpt lat="43.51041" lon="3.07712">
        <ele>198</ele>
        <time>2016-06-11T05:33:57Z</time>
      </trkpt>
      <trkpt lat="43.51043" lon="3.0767">
        <ele>198</ele>
        <time>2016-06-11T05:34:15Z</time>
      </trkpt>
      <trkpt lat="43.51044" lon="3.07671">
        <ele>198</ele>
        <time>2016-06-11T05:34:16Z</time>
      </trkpt>
      <trkpt lat="43.51049" lon="3.07672">
        <ele>198</ele>
        <time>2016-06-11T05:34:19Z</time>
      </trkpt>
      <trkpt lat="43.51051" lon="3.07684">
        <ele>200</ele>
        <time>2016-06-11T05:34:31Z</time>
      </trkpt>
      <trkpt lat="43.51053" lon="3.07698">
        <ele>200</ele>
        <time>2016-06-11T05:34:37Z</time>
      </trkpt>
      <trkpt lat="43.51055" lon="3.07712">
        <ele>200</ele>
        <time>2016-06-11T05:34:43Z</time>
      </trkpt>
      <trkpt lat="43.51059" lon="3.07724">
        <ele>202</ele>
        <time>2016-06-11T05:34:55Z</time>
      </trkpt>
      <trkpt lat="43.51065" lon="3.07736">
        <ele>203</ele>
        <time>2016-06-11T05:35:03Z</time>
      </trkpt>
      <trkpt lat="43.51071" lon="3.07748">
        <ele>205</ele>
        <time>2016-06-11T05:35:15Z</time>
      </trkpt>
      <trkpt lat="43.51076" lon="3.07762">
        <ele>205</ele>
        <time>2016-06-11T05:35:21Z</time>
      </trkpt>
      <trkpt lat="43.51077" lon="3.07777">
        <ele>206</ele>
        <time>2016-06-11T05:35:30Z</time>
      </trkpt>
      <trkpt lat="43.5108" lon="3.0779">
        <ele>206</ele>
        <time>2016-06-11T05:35:35Z</time>
      </trkpt>
      <trkpt lat="43.51082" lon="3.07801">
        <ele>207</ele>
        <time>2016-06-11T05:35:42Z</time>
      </trkpt>
      <trkpt lat="43.51084" lon="3.07815">
        <ele>207</ele>
        <time>2016-06-11T05:35:48Z</time>
      </trkpt>
      <trkpt lat="43.51087" lon="3.07827">
        <ele>208</ele>
        <time>2016-06-11T05:35:56Z</time>
      </trkpt>
      <trkpt lat="43.51088" lon="3.07839">
        <ele>208</ele>
        <time>2016-06-11T05:36:01Z</time>
      </trkpt>
      <trkpt lat="43.5109" lon="3.07851">
        <ele>209</ele>
        <time>2016-06-11T05:36:08Z</time>
      </trkpt>
      <trkpt lat="43.5109" lon="3.07864">
        <ele>208</ele>
        <time>2016-06-11T05:36:13Z</time>
      </trkpt>
      <trkpt lat="43.5109" lon="3.07879">
        <ele>208</ele>
        <time>2016-06-11T05:36:19Z</time>
      </trkpt>
      <trkpt lat="43.51091" lon="3.07895">
        <ele>208</ele>
        <time>2016-06-11T05:36:25Z</time>
      </trkpt>
      <trkpt lat="43.51093" lon="3.07907">
        <ele>208</ele>
        <time>2016-06-11T05:36:31Z</time>
      </trkpt>
      <trkpt lat="43.51096" lon="3.07919">
        <ele>208</ele>
        <time>2016-06-11T05:36:36Z</time>
      </trkpt>
      <trkpt lat="43.51098" lon="3.07933">
        <ele>207</ele>
        <time>2016-06-11T05:36:41Z</time>
      </trkpt>
      <trkpt lat="43.51099" lon="3.07948">
        <ele>207</ele>
        <time>2016-06-11T05:36:47Z</time>
      </trkpt>
      <trkpt lat="43.51099" lon="3.0796">
        <ele>206</ele>
        <time>2016-06-11T05:36:52Z</time>
      </trkpt>
      <trkpt lat="43.51097" lon="3.07977">
        <ele>206</ele>
        <time>2016-06-11T05:36:59Z</time>
      </trkpt>
      <trkpt lat="43.51095" lon="3.0799">
        <ele>205</ele>
        <time>2016-06-11T05:37:04Z</time>
      </trkpt>
      <trkpt lat="43.51092" lon="3.08003">
        <ele>204</ele>
        <time>2016-06-11T05:37:09Z</time>
      </trkpt>
      <trkpt lat="43.51091" lon="3.08015">
        <ele>203</ele>
        <time>2016-06-11T05:37:13Z</time>
      </trkpt>
      <trkpt lat="43.5109" lon="3.08028">
        <ele>203</ele>
        <time>2016-06-11T05:37:19Z</time>
      </trkpt>
      <trkpt lat="43.51087" lon="3.08044">
        <ele>203</ele>
        <time>2016-06-11T05:37:26Z</time>
      </trkpt>
      <trkpt lat="43.51085" lon="3.08058">
        <ele>203</ele>
        <time>2016-06-11T05:37:32Z</time>
      </trkpt>
      <trkpt lat="43.5108" lon="3.08074">
        <ele>202</ele>
        <time>2016-06-11T05:37:38Z</time>
      </trkpt>
      <trkpt lat="43.51077" lon="3.0809">
        <ele>202</ele>
        <time>2016-06-11T05:37:45Z</time>
      </trkpt>
      <trkpt lat="43.51076" lon="3.08104">
        <ele>203</ele>
        <time>2016-06-11T05:37:53Z</time>
      </trkpt>
      <trkpt lat="43.51076" lon="3.0812">
        <ele>203</ele>
        <time>2016-06-11T05:37:59Z</time>
      </trkpt>
      <trkpt lat="43.51077" lon="3.08135">
        <ele>203</ele>
        <time>2016-06-11T05:38:05Z</time>
      </trkpt>
      <trkpt lat="43.51076" lon="3.08151">
        <ele>203</ele>
        <time>2016-06-11T05:38:12Z</time>
      </trkpt>
      <trkpt lat="43.51078" lon="3.08165">
        <ele>204</ele>
        <time>2016-06-11T05:38:20Z</time>
      </trkpt>
      <trkpt lat="43.51081" lon="3.08178">
        <ele>204</ele>
        <time>2016-06-11T05:38:26Z</time>
      </trkpt>
      <trkpt lat="43.51084" lon="3.08192">
        <ele>205</ele>
        <time>2016-06-11T05:38:34Z</time>
      </trkpt>
      <trkpt lat="43.51087" lon="3.08207">
        <ele>205</ele>
        <time>2016-06-11T05:38:40Z</time>
      </trkpt>
      <trkpt lat="43.51089" lon="3.08223">
        <ele>205</ele>
        <time>2016-06-11T05:38:47Z</time>
      </trkpt>
      <trkpt lat="43.51096" lon="3.08235">
        <ele>206</ele>
        <time>2016-06-11T05:38:55Z</time>
      </trkpt>
      <trkpt lat="43.51104" lon="3.08246">
        <ele>208</ele>
        <time>2016-06-11T05:39:07Z</time>
      </trkpt>
      <trkpt lat="43.51111" lon="3.08259">
        <ele>208</ele>
        <time>2016-06-11T05:39:14Z</time>
      </trkpt>
      <trkpt lat="43.51118" lon="3.08271">
        <ele>209</ele>
        <time>2016-06-11T05:39:22Z</time>
      </trkpt>
      <trkpt lat="43.51123" lon="3.08284">
        <ele>209</ele>
        <time>2016-06-11T05:39:29Z</time>
      </trkpt>
      <trkpt lat="43.51127" lon="3.08296">
        <ele>209</ele>
        <time>2016-06-11T05:39:34Z</time>
      </trkpt>
      <trkpt lat="43.51129" lon="3.0831">
        <ele>209</ele>
        <time>2016-06-11T05:39:40Z</time>
      </trkpt>
      <trkpt lat="43.51129" lon="3.08326">
        <ele>209</ele>
        <time>2016-06-11T05:39:46Z</time>
      </trkpt>
      <trkpt lat="43.5113" lon="3.08338">
        <ele>209</ele>
        <time>2016-06-11T05:39:52Z</time>
      </trkpt>
      <trkpt lat="43.51138" lon="3.08347">
        <ele>209</ele>
        <time>2016-06-11T05:39:57Z</time>
      </trkpt>
      <trkpt lat="43.5115" lon="3.0835">
        <ele>211</ele>
        <time>2016-06-11T05:40:10Z</time>
      </trkpt>
      <trkpt lat="43.5116" lon="3.08353">
        <ele>211</ele>
        <time>2016-06-11T05:40:16Z</time>
      </trkpt>
      <trkpt lat="43.51171" lon="3.08357">
        <ele>213</ele>
        <time>2016-06-11T05:40:28Z</time>
      </trkpt>
      <trkpt lat="43.51182" lon="3.08362">
        <ele>213</ele>
        <time>2016-06-11T05:40:34Z</time>
      </trkpt>
      <trkpt lat="43.51193" lon="3.08366">
        <ele>215</ele>
        <time>2016-06-11T05:40:46Z</time>
      </trkpt>
      <trkpt lat="43.51203" lon="3.08371">
        <ele>216</ele>
        <time>2016-06-11T05:40:54Z</time>
      </trkpt>
      <trkpt lat="43.51213" lon="3.08373">
        <ele>217</ele>
        <time>2016-06-11T05:41:02Z</time>
      </trkpt>
      <trkpt lat="43.51224" lon="3.0838">
        <ele>217</ele>
        <time>2016-06-11T05:41:09Z</time>
      </trkpt>
      <trkpt lat="43.51232" lon="3.08389">
        <ele>218</ele>
        <time>2016-06-11T05:41:17Z</time>
      </trkpt>
      <trkpt lat="43.51241" lon="3.08398">
        <ele>218</ele>
        <time>2016-06-11T05:41:23Z</time>
      </trkpt>
      <trkpt lat="43.51249" lon="3.08409">
        <ele>218</ele>
        <time>2016-06-11T05:41:30Z</time>
      </trkpt>
      <trkpt lat="43.51253" lon="3.08425">
        <ele>217</ele>
        <time>2016-06-11T05:41:36Z</time>
      </trkpt>
      <trkpt lat="43.5126" lon="3.08435">
        <ele>216</ele>
        <time>2016-06-11T05:41:41Z</time>
      </trkpt>
      <trkpt lat="43.51269" lon="3.08443">
        <ele>216</ele>
        <time>2016-06-11T05:41:47Z</time>
      </trkpt>
      <trkpt lat="43.51279" lon="3.08445">
        <ele>217</ele>
        <time>2016-06-11T05:41:55Z</time>
      </trkpt>
      <trkpt lat="43.51289" lon="3.08447">
        <ele>218</ele>
        <time>2016-06-11T05:42:03Z</time>
      </trkpt>
      <trkpt lat="43.513" lon="3.08446">
        <ele>218</ele>
        <time>2016-06-11T05:42:09Z</time>
      </trkpt>
      <trkpt lat="43.51311" lon="3.08446">
        <ele>219</ele>
        <time>2016-06-11T05:42:17Z</time>
      </trkpt>
      <trkpt lat="43.51322" lon="3.08443">
        <ele>220</ele>
        <time>2016-06-11T05:42:25Z</time>
      </trkpt>
      <trkpt lat="43.51332" lon="3.0844">
        <ele>221</ele>
        <time>2016-06-11T05:42:33Z</time>
      </trkpt>
      <trkpt lat="43.51342" lon="3.08439">
        <ele>221</ele>
        <time>2016-06-11T05:42:39Z</time>
      </trkpt>
      <trkpt lat="43.51352" lon="3.08439">
        <ele>222</ele>
        <time>2016-06-11T05:42:47Z</time>
      </trkpt>
      <trkpt lat="43.51363" lon="3.0844">
        <ele>222</ele>
        <time>2016-06-11T05:42:53Z</time>
      </trkpt>
      <trkpt lat="43.5137" lon="3.08449">
        <ele>223</ele>
        <time>2016-06-11T05:43:01Z</time>
      </trkpt>
      <trkpt lat="43.51372" lon="3.08463">
        <ele>222</ele>
        <time>2016-06-11T05:43:06Z</time>
      </trkpt>
      <trkpt lat="43.51375" lon="3.08477">
        <ele>222</ele>
        <time>2016-06-11T05:43:12Z</time>
      </trkpt>
      <trkpt lat="43.51377" lon="3.08492">
        <ele>222</ele>
        <time>2016-06-11T05:43:18Z</time>
      </trkpt>
      <trkpt lat="43.51378" lon="3.08506">
        <ele>223</ele>
        <time>2016-06-11T05:43:26Z</time>
      </trkpt>
      <trkpt lat="43.51383" lon="3.08518">
        <ele>224</ele>
        <time>2016-06-11T05:43:34Z</time>
      </trkpt>
      <trkpt lat="43.51387" lon="3.08532">
        <ele>225</ele>
        <time>2016-06-11T05:43:42Z</time>
      </trkpt>
      <trkpt lat="43.51392" lon="3.08545">
        <ele>228</ele>
        <time>2016-06-11T05:43:59Z</time>
      </trkpt>
      <trkpt lat="43.51397" lon="3.08559">
        <ele>230</ele>
        <time>2016-06-11T05:44:12Z</time>
      </trkpt>
      <trkpt lat="43.514" lon="3.08573">
        <ele>232</ele>
        <time>2016-06-11T05:44:24Z</time>
      </trkpt>
      <trkpt lat="43.51403" lon="3.08586">
        <ele>233</ele>
        <time>2016-06-11T05:44:32Z</time>
      </trkpt>
      <trkpt lat="43.51405" lon="3.08601">
        <ele>234</ele>
        <time>2016-06-11T05:44:40Z</time>
      </trkpt>
      <trkpt lat="43.51406" lon="3.08616">
        <ele>236</ele>
        <time>2016-06-11T05:44:52Z</time>
      </trkpt>
      <trkpt lat="43.51404" lon="3.08631">
        <ele>238</ele>
        <time>2016-06-11T05:45:04Z</time>
      </trkpt>
      <trkpt lat="43.51401" lon="3.08644">
        <ele>240</ele>
        <time>2016-06-11T05:45:16Z</time>
      </trkpt>
      <trkpt lat="43.51399" lon="3.0866">
        <ele>243</ele>
        <time>2016-06-11T05:45:33Z</time>
      </trkpt>
      <trkpt lat="43.51396" lon="3.08674">
        <ele>245</ele>
        <time>2016-06-11T05:45:46Z</time>
      </trkpt>
      <trkpt lat="43.51395" lon="3.08689">
        <ele>248</ele>
        <time>2016-06-11T05:46:03Z</time>
      </trkpt>
      <trkpt lat="43.51397" lon="3.08705">
        <ele>249</ele>
        <time>2016-06-11T05:46:12Z</time>
      </trkpt>
      <trkpt lat="43.514" lon="3.08721">
        <ele>250</ele>
        <time>2016-06-11T05:46:20Z</time>
      </trkpt>
      <trkpt lat="43.51398" lon="3.08735">
        <ele>252</ele>
        <time>2016-06-11T05:46:32Z</time>
      </trkpt>
      <trkpt lat="43.514" lon="3.0875">
        <ele>253</ele>
        <time>2016-06-11T05:46:40Z</time>
      </trkpt>
      <trkpt lat="43.51397" lon="3.08764">
        <ele>254</ele>
        <time>2016-06-11T05:46:48Z</time>
      </trkpt>
      <trkpt lat="43.51395" lon="3.08778">
        <ele>256</ele>
        <time>2016-06-11T05:47:01Z</time>
      </trkpt>
      <trkpt lat="43.51391" lon="3.08791">
        <ele>258</ele>
        <time>2016-06-11T05:47:13Z</time>
      </trkpt>
      <trkpt lat="43.51382" lon="3.08797">
        <ele>262</ele>
        <time>2016-06-11T05:47:36Z</time>
      </trkpt>
      <trkpt lat="43.51372" lon="3.08795">
        <ele>264</ele>
        <time>2016-06-11T05:47:48Z</time>
      </trkpt>
      <trkpt lat="43.51364" lon="3.08799">
        <ele>267</ele>
        <time>2016-06-11T05:48:06Z</time>
      </trkpt>
      <trkpt lat="43.51354" lon="3.08793">
        <ele>269</ele>
        <time>2016-06-11T05:48:18Z</time>
      </trkpt>
      <trkpt lat="43.51351" lon="3.0878">
        <ele>271</ele>
        <time>2016-06-11T05:48:30Z</time>
      </trkpt>
      <trkpt lat="43.51346" lon="3.08768">
        <ele>271</ele>
        <time>2016-06-11T05:48:36Z</time>
      </trkpt>
      <trkpt lat="43.51344" lon="3.08754">
        <ele>271</ele>
        <time>2016-06-11T05:48:42Z</time>
      </trkpt>
      <trkpt lat="43.51334" lon="3.08758">
        <ele>274</ele>
        <time>2016-06-11T05:48:59Z</time>
      </trkpt>
      <trkpt lat="43.51327" lon="3.08767">
        <ele>277</ele>
        <time>2016-06-11T05:49:17Z</time>
      </trkpt>
      <trkpt lat="43.51321" lon="3.0878">
        <ele>281</ele>
        <time>2016-06-11T05:49:40Z</time>
      </trkpt>
      <trkpt lat="43.5132" lon="3.08792">
        <ele>282</ele>
        <time>2016-06-11T05:49:48Z</time>
      </trkpt>
      <trkpt lat="43.51313" lon="3.08804">
        <ele>284</ele>
        <time>2016-06-11T05:50:00Z</time>
      </trkpt>
      <trkpt lat="43.5131" lon="3.08818">
        <ele>285</ele>
        <time>2016-06-11T05:50:08Z</time>
      </trkpt>
      <trkpt lat="43.51307" lon="3.0883">
        <ele>287</ele>
        <time>2016-06-11T05:50:20Z</time>
      </trkpt>
      <trkpt lat="43.51305" lon="3.08842">
        <ele>288</ele>
        <time>2016-06-11T05:50:27Z</time>
      </trkpt>
      <trkpt lat="43.51303" lon="3.08848">
        <ele>289</ele>
        <time>2016-06-11T05:50:33Z</time>
      </trkpt>
      <trkpt lat="43.51298" lon="3.08861">
        <ele>290</ele>
        <time>2016-06-11T05:50:41Z</time>
      </trkpt>
      <trkpt lat="43.51294" lon="3.08875">
        <ele>293</ele>
        <time>2016-06-11T05:50:59Z</time>
      </trkpt>
      <trkpt lat="43.51289" lon="3.0889">
        <ele>294</ele>
        <time>2016-06-11T05:51:07Z</time>
      </trkpt>
      <trkpt lat="43.51284" lon="3.08902">
        <ele>295</ele>
        <time>2016-06-11T05:51:15Z</time>
      </trkpt>
      <trkpt lat="43.51278" lon="3.08915">
        <ele>296</ele>
        <time>2016-06-11T05:51:23Z</time>
      </trkpt>
      <trkpt lat="43.51273" lon="3.0893">
        <ele>298</ele>
        <time>2016-06-11T05:51:36Z</time>
      </trkpt>
      <trkpt lat="43.51268" lon="3.08945">
        <ele>298</ele>
        <time>2016-06-11T05:51:42Z</time>
      </trkpt>
      <trkpt lat="43.51264" lon="3.08959">
        <ele>297</ele>
        <time>2016-06-11T05:51:48Z</time>
      </trkpt>
      <trkpt lat="43.5126" lon="3.08972">
        <ele>297</ele>
        <time>2016-06-11T05:51:54Z</time>
      </trkpt>
      <trkpt lat="43.51256" lon="3.08988">
        <ele>296</ele>
        <time>2016-06-11T05:52:00Z</time>
      </trkpt>
      <trkpt lat="43.51253" lon="3.09004">
        <ele>296</ele>
        <time>2016-06-11T05:52:07Z</time>
      </trkpt>
      <trkpt lat="43.51257" lon="3.09018">
        <ele>297</ele>
        <time>2016-06-11T05:52:15Z</time>
      </trkpt>
      <trkpt lat="43.51266" lon="3.09027">
        <ele>298</ele>
        <time>2016-06-11T05:52:24Z</time>
      </trkpt>
      <trkpt lat="43.51273" lon="3.0903">
        <ele>298</ele>
        <time>2016-06-11T05:52:28Z</time>
      </trkpt>
      <trkpt lat="43.5128" lon="3.09031">
        <ele>299</ele>
        <time>2016-06-11T05:52:34Z</time>
      </trkpt>
      <trkpt lat="43.5129" lon="3.09032">
        <ele>299</ele>
        <time>2016-06-11T05:52:40Z</time>
      </trkpt>
      <trkpt lat="43.51301" lon="3.09032">
        <ele>300</ele>
        <time>2016-06-11T05:52:48Z</time>
      </trkpt>
      <trkpt lat="43.51311" lon="3.09032">
        <ele>300</ele>
        <time>2016-06-11T05:52:54Z</time>
      </trkpt>
      <trkpt lat="43.5132" lon="3.0903">
        <ele>300</ele>
        <time>2016-06-11T05:52:59Z</time>
      </trkpt>
      <trkpt lat="43.5133" lon="3.09027">
        <ele>300</ele>
        <time>2016-06-11T05:53:05Z</time>
      </trkpt>
      <trkpt lat="43.51341" lon="3.09027">
        <ele>300</ele>
        <time>2016-06-11T05:53:11Z</time>
      </trkpt>
      <trkpt lat="43.51349" lon="3.09027">
        <ele>300</ele>
        <time>2016-06-11T05:53:16Z</time>
      </trkpt>
      <trkpt lat="43.51358" lon="3.09026">
        <ele>300</ele>
        <time>2016-06-11T05:53:21Z</time>
      </trkpt>
      <trkpt lat="43.51366" lon="3.09024">
        <ele>300</ele>
        <time>2016-06-11T05:53:25Z</time>
      </trkpt>
      <trkpt lat="43.51374" lon="3.09022">
        <ele>299</ele>
        <time>2016-06-11T05:53:30Z</time>
      </trkpt>
      <trkpt lat="43.51382" lon="3.09022">
        <ele>299</ele>
        <time>2016-06-11T05:53:35Z</time>
      </trkpt>
      <trkpt lat="43.51391" lon="3.09024">
        <ele>300</ele>
        <time>2016-06-11T05:53:42Z</time>
      </trkpt>
      <trkpt lat="43.51399" lon="3.09026">
        <ele>301</ele>
        <time>2016-06-11T05:53:49Z</time>
      </trkpt>
      <trkpt lat="43.51411" lon="3.09029">
        <ele>301</ele>
        <time>2016-06-11T05:53:56Z</time>
      </trkpt>
      <trkpt lat="43.51421" lon="3.09032">
        <ele>302</ele>
        <time>2016-06-11T05:54:04Z</time>
      </trkpt>
      <trkpt lat="43.51431" lon="3.09036">
        <ele>302</ele>
        <time>2016-06-11T05:54:10Z</time>
      </trkpt>
      <trkpt lat="43.51437" lon="3.0904">
        <ele>303</ele>
        <time>2016-06-11T05:54:16Z</time>
      </trkpt>
      <trkpt lat="43.51443" lon="3.09047">
        <ele>304</ele>
        <time>2016-06-11T05:54:23Z</time>
      </trkpt>
      <trkpt lat="43.51449" lon="3.09055">
        <ele>305</ele>
        <time>2016-06-11T05:54:30Z</time>
      </trkpt>
      <trkpt lat="43.51455" lon="3.09064">
        <ele>306</ele>
        <time>2016-06-11T05:54:37Z</time>
      </trkpt>
      <trkpt lat="43.5146" lon="3.09076">
        <ele>309</ele>
        <time>2016-06-11T05:54:55Z</time>
      </trkpt>
      <trkpt lat="43.51465" lon="3.09089">
        <ele>311</ele>
        <time>2016-06-11T05:55:07Z</time>
      </trkpt>
      <trkpt lat="43.5147" lon="3.09102">
        <ele>313</ele>
        <time>2016-06-11T05:55:19Z</time>
      </trkpt>
      <trkpt lat="43.51475" lon="3.09114">
        <ele>316</ele>
        <time>2016-06-11T05:55:36Z</time>
      </trkpt>
      <trkpt lat="43.51483" lon="3.09123">
        <ele>316</ele>
        <time>2016-06-11T05:55:42Z</time>
      </trkpt>
      <trkpt lat="43.51492" lon="3.09131">
        <ele>318</ele>
        <time>2016-06-11T05:55:54Z</time>
      </trkpt>
      <trkpt lat="43.51502" lon="3.09139">
        <ele>318</ele>
        <time>2016-06-11T05:56:01Z</time>
      </trkpt>
      <trkpt lat="43.51511" lon="3.09146">
        <ele>319</ele>
        <time>2016-06-11T05:56:09Z</time>
      </trkpt>
      <trkpt lat="43.51518" lon="3.09152">
        <ele>319</ele>
        <time>2016-06-11T05:56:14Z</time>
      </trkpt>
      <trkpt lat="43.51526" lon="3.09158">
        <ele>319</ele>
        <time>2016-06-11T05:56:18Z</time>
      </trkpt>
      <trkpt lat="43.51535" lon="3.09164">
        <ele>318</ele>
        <time>2016-06-11T05:56:24Z</time>
      </trkpt>
      <trkpt lat="43.51544" lon="3.09169">
        <ele>318</ele>
        <time>2016-06-11T05:56:29Z</time>
      </trkpt>
      <trkpt lat="43.51553" lon="3.09175">
        <ele>318</ele>
        <time>2016-06-11T05:56:35Z</time>
      </trkpt>
      <trkpt lat="43.51564" lon="3.09176">
        <ele>318</ele>
        <time>2016-06-11T05:56:41Z</time>
      </trkpt>
      <trkpt lat="43.51573" lon="3.09171">
        <ele>319</ele>
        <time>2016-06-11T05:56:49Z</time>
      </trkpt>
      <trkpt lat="43.51582" lon="3.09164">
        <ele>320</ele>
        <time>2016-06-11T05:56:57Z</time>
      </trkpt>
      <trkpt lat="43.51591" lon="3.09157">
        <ele>321</ele>
        <time>2016-06-11T05:57:05Z</time>
      </trkpt>
      <trkpt lat="43.51601" lon="3.09151">
        <ele>321</ele>
        <time>2016-06-11T05:57:11Z</time>
      </trkpt>
      <trkpt lat="43.51611" lon="3.09146">
        <ele>323</ele>
        <time>2016-06-11T05:57:23Z</time>
      </trkpt>
      <trkpt lat="43.51622" lon="3.09142">
        <ele>324</ele>
        <time>2016-06-11T05:57:31Z</time>
      </trkpt>
      <trkpt lat="43.51634" lon="3.09142">
        <ele>327</ele>
        <time>2016-06-11T05:57:49Z</time>
      </trkpt>
      <trkpt lat="43.51643" lon="3.0915">
        <ele>326</ele>
        <time>2016-06-11T05:57:54Z</time>
      </trkpt>
      <trkpt lat="43.51652" lon="3.09161">
        <ele>326</ele>
        <time>2016-06-11T05:58:01Z</time>
      </trkpt>
      <trkpt lat="43.51658" lon="3.09174">
        <ele>324</ele>
        <time>2016-06-11T05:58:08Z</time>
      </trkpt>
      <trkpt lat="43.51667" lon="3.09183">
        <ele>324</ele>
        <time>2016-06-11T05:58:14Z</time>
      </trkpt>
      <trkpt lat="43.51678" lon="3.09187">
        <ele>325</ele>
        <time>2016-06-11T05:58:23Z</time>
      </trkpt>
      <trkpt lat="43.51688" lon="3.09183">
        <ele>326</ele>
        <time>2016-06-11T05:58:31Z</time>
      </trkpt>
      <trkpt lat="43.51696" lon="3.09176">
        <ele>327</ele>
        <time>2016-06-11T05:58:38Z</time>
      </trkpt>
      <trkpt lat="43.51704" lon="3.09167">
        <ele>329</ele>
        <time>2016-06-11T05:58:50Z</time>
      </trkpt>
      <trkpt lat="43.51711" lon="3.09155">
        <ele>331</ele>
        <time>2016-06-11T05:59:02Z</time>
      </trkpt>
      <trkpt lat="43.51717" lon="3.09144">
        <ele>334</ele>
        <time>2016-06-11T05:59:20Z</time>
      </trkpt>
      <trkpt lat="43.51726" lon="3.09136">
        <ele>335</ele>
        <time>2016-06-11T05:59:28Z</time>
      </trkpt>
      <trkpt lat="43.51736" lon="3.09132">
        <ele>336</ele>
        <time>2016-06-11T05:59:36Z</time>
      </trkpt>
      <trkpt lat="43.51746" lon="3.09129">
        <ele>337</ele>
        <time>2016-06-11T05:59:44Z</time>
      </trkpt>
      <trkpt lat="43.51755" lon="3.09123">
        <ele>338</ele>
        <time>2016-06-11T05:59:52Z</time>
      </trkpt>
      <trkpt lat="43.51764" lon="3.09116">
        <ele>340</ele>
        <time>2016-06-11T06:00:04Z</time>
      </trkpt>
      <trkpt lat="43.51774" lon="3.0911">
        <ele>341</ele>
        <time>2016-06-11T06:00:12Z</time>
      </trkpt>
      <trkpt lat="43.51783" lon="3.09105">
        <ele>343</ele>
        <time>2016-06-11T06:00:24Z</time>
      </trkpt>
      <trkpt lat="43.51794" lon="3.09099">
        <ele>344</ele>
        <time>2016-06-11T06:00:33Z</time>
      </trkpt>
      <trkpt lat="43.51804" lon="3.09093">
        <ele>346</ele>
        <time>2016-06-11T06:00:45Z</time>
      </trkpt>
      <trkpt lat="43.51814" lon="3.09089">
        <ele>347</ele>
        <time>2016-06-11T06:00:53Z</time>
      </trkpt>
      <trkpt lat="43.51824" lon="3.09085">
        <ele>348</ele>
        <time>2016-06-11T06:01:01Z</time>
      </trkpt>
      <trkpt lat="43.51835" lon="3.0908">
        <ele>349</ele>
        <time>2016-06-11T06:01:09Z</time>
      </trkpt>
      <trkpt lat="43.51846" lon="3.09074">
        <ele>351</ele>
        <time>2016-06-11T06:01:21Z</time>
      </trkpt>
      <trkpt lat="43.51857" lon="3.0907">
        <ele>352</ele>
        <time>2016-06-11T06:01:30Z</time>
      </trkpt>
      <trkpt lat="43.51867" lon="3.09065">
        <ele>353</ele>
        <time>2016-06-11T06:01:38Z</time>
      </trkpt>
      <trkpt lat="43.51878" lon="3.0906">
        <ele>354</ele>
        <time>2016-06-11T06:01:46Z</time>
      </trkpt>
      <trkpt lat="43.51889" lon="3.09056">
        <ele>355</ele>
        <time>2016-06-11T06:01:54Z</time>
      </trkpt>
      <trkpt lat="43.519" lon="3.09054">
        <ele>356</ele>
        <time>2016-06-11T06:02:03Z</time>
      </trkpt>
      <trkpt lat="43.51911" lon="3.09052">
        <ele>356</ele>
        <time>2016-06-11T06:02:09Z</time>
      </trkpt>
      <trkpt lat="43.51921" lon="3.0905">
        <ele>357</ele>
        <time>2016-06-11T06:02:17Z</time>
      </trkpt>
      <trkpt lat="43.51932" lon="3.09048">
        <ele>357</ele>
        <time>2016-06-11T06:02:23Z</time>
      </trkpt>
      <trkpt lat="43.51942" lon="3.09046">
        <ele>357</ele>
        <time>2016-06-11T06:02:29Z</time>
      </trkpt>
      <trkpt lat="43.51953" lon="3.09042">
        <ele>357</ele>
        <time>2016-06-11T06:02:36Z</time>
      </trkpt>
      <trkpt lat="43.51964" lon="3.09041">
        <ele>358</ele>
        <time>2016-06-11T06:02:44Z</time>
      </trkpt>
      <trkpt lat="43.51975" lon="3.09039">
        <ele>358</ele>
        <time>2016-06-11T06:02:50Z</time>
      </trkpt>
      <trkpt lat="43.51986" lon="3.0904">
        <ele>358</ele>
        <time>2016-06-11T06:02:56Z</time>
      </trkpt>
      <trkpt lat="43.51996" lon="3.09044">
        <ele>358</ele>
        <time>2016-06-11T06:03:03Z</time>
      </trkpt>
      <trkpt lat="43.52006" lon="3.09049">
        <ele>359</ele>
        <time>2016-06-11T06:03:10Z</time>
      </trkpt>
      <trkpt lat="43.52015" lon="3.09055">
        <ele>360</ele>
        <time>2016-06-11T06:03:18Z</time>
      </trkpt>
      <trkpt lat="43.52024" lon="3.09062">
        <ele>361</ele>
        <time>2016-06-11T06:03:26Z</time>
      </trkpt>
      <trkpt lat="43.52034" lon="3.09068">
        <ele>362</ele>
        <time>2016-06-11T06:03:34Z</time>
      </trkpt>
      <trkpt lat="43.52042" lon="3.09073">
        <ele>362</ele>
        <time>2016-06-11T06:03:40Z</time>
      </trkpt>
      <trkpt lat="43.52051" lon="3.09077">
        <ele>362</ele>
        <time>2016-06-11T06:03:45Z</time>
      </trkpt>
      <trkpt lat="43.52061" lon="3.09079">
        <ele>362</ele>
        <time>2016-06-11T06:03:50Z</time>
      </trkpt>
      <trkpt lat="43.52071" lon="3.09082">
        <ele>362</ele>
        <time>2016-06-11T06:03:56Z</time>
      </trkpt>
      <trkpt lat="43.5208" lon="3.09085">
        <ele>362</ele>
        <time>2016-06-11T06:04:02Z</time>
      </trkpt>
      <trkpt lat="43.5209" lon="3.09089">
        <ele>362</ele>
        <time>2016-06-11T06:04:08Z</time>
      </trkpt>
      <trkpt lat="43.52099" lon="3.09094">
        <ele>363</ele>
        <time>2016-06-11T06:04:15Z</time>
      </trkpt>
      <trkpt lat="43.52109" lon="3.091">
        <ele>363</ele>
        <time>2016-06-11T06:04:22Z</time>
      </trkpt>
      <trkpt lat="43.52119" lon="3.09105">
        <ele>364</ele>
        <time>2016-06-11T06:04:30Z</time>
      </trkpt>
      <trkpt lat="43.52129" lon="3.0911">
        <ele>364</ele>
        <time>2016-06-11T06:04:36Z</time>
      </trkpt>
      <trkpt lat="43.52138" lon="3.09117">
        <ele>365</ele>
        <time>2016-06-11T06:04:44Z</time>
      </trkpt>
      <trkpt lat="43.52147" lon="3.09124">
        <ele>366</ele>
        <time>2016-06-11T06:04:52Z</time>
      </trkpt>
      <trkpt lat="43.52156" lon="3.09133">
        <ele>367</ele>
        <time>2016-06-11T06:05:00Z</time>
      </trkpt>
      <trkpt lat="43.52162" lon="3.09144">
        <ele>368</ele>
        <time>2016-06-11T06:05:08Z</time>
      </trkpt>
      <trkpt lat="43.5217" lon="3.09153">
        <ele>368</ele>
        <time>2016-06-11T06:05:14Z</time>
      </trkpt>
      <trkpt lat="43.52177" lon="3.09165">
        <ele>370</ele>
        <time>2016-06-11T06:05:26Z</time>
      </trkpt>
      <trkpt lat="43.52183" lon="3.09178">
        <ele>371</ele>
        <time>2016-06-11T06:05:34Z</time>
      </trkpt>
      <trkpt lat="43.52188" lon="3.09192">
        <ele>373</ele>
        <time>2016-06-11T06:05:46Z</time>
      </trkpt>
      <trkpt lat="43.52193" lon="3.09205">
        <ele>373</ele>
        <time>2016-06-11T06:05:52Z</time>
      </trkpt>
      <trkpt lat="43.52199" lon="3.09217">
        <ele>374</ele>
        <time>2016-06-11T06:06:00Z</time>
      </trkpt>
      <trkpt lat="43.52205" lon="3.0923">
        <ele>374</ele>
        <time>2016-06-11T06:06:06Z</time>
      </trkpt>
      <trkpt lat="43.52209" lon="3.09242">
        <ele>375</ele>
        <time>2016-06-11T06:06:14Z</time>
      </trkpt>
      <trkpt lat="43.52219" lon="3.0925">
        <ele>376</ele>
        <time>2016-06-11T06:06:23Z</time>
      </trkpt>
      <trkpt lat="43.5223" lon="3.09249">
        <ele>377</ele>
        <time>2016-06-11T06:06:31Z</time>
      </trkpt>
      <trkpt lat="43.52241" lon="3.09248">
        <ele>378</ele>
        <time>2016-06-11T06:06:39Z</time>
      </trkpt>
      <trkpt lat="43.52252" lon="3.09248">
        <ele>379</ele>
        <time>2016-06-11T06:06:47Z</time>
      </trkpt>
      <trkpt lat="43.52263" lon="3.09247">
        <ele>380</ele>
        <time>2016-06-11T06:06:55Z</time>
      </trkpt>
      <trkpt lat="43.52274" lon="3.09249">
        <ele>381</ele>
        <time>2016-06-11T06:07:04Z</time>
      </trkpt>
      <trkpt lat="43.52285" lon="3.09252">
        <ele>382</ele>
        <time>2016-06-11T06:07:12Z</time>
      </trkpt>
      <trkpt lat="43.52295" lon="3.09255">
        <ele>383</ele>
        <time>2016-06-11T06:07:20Z</time>
      </trkpt>
      <trkpt lat="43.52303" lon="3.09259">
        <ele>384</ele>
        <time>2016-06-11T06:07:27Z</time>
      </trkpt>
      <trkpt lat="43.52311" lon="3.09258">
        <ele>384</ele>
        <time>2016-06-11T06:07:32Z</time>
      </trkpt>
      <trkpt lat="43.52322" lon="3.09261">
        <ele>386</ele>
        <time>2016-06-11T06:07:44Z</time>
      </trkpt>
      <trkpt lat="43.5233" lon="3.09262">
        <ele>386</ele>
        <time>2016-06-11T06:07:49Z</time>
      </trkpt>
      <trkpt lat="43.52339" lon="3.09265">
        <ele>387</ele>
        <time>2016-06-11T06:07:56Z</time>
      </trkpt>
      <trkpt lat="43.52346" lon="3.09267">
        <ele>387</ele>
        <time>2016-06-11T06:08:00Z</time>
      </trkpt>
      <trkpt lat="43.52356" lon="3.0927">
        <ele>388</ele>
        <time>2016-06-11T06:08:08Z</time>
      </trkpt>
      <trkpt lat="43.52363" lon="3.09277">
        <ele>388</ele>
        <time>2016-06-11T06:08:13Z</time>
      </trkpt>
      <trkpt lat="43.52372" lon="3.09285">
        <ele>390</ele>
        <time>2016-06-11T06:08:25Z</time>
      </trkpt>
      <trkpt lat="43.5238" lon="3.09293">
        <ele>391</ele>
        <time>2016-06-11T06:08:33Z</time>
      </trkpt>
      <trkpt lat="43.52388" lon="3.09301">
        <ele>392</ele>
        <time>2016-06-11T06:08:41Z</time>
      </trkpt>
      <trkpt lat="43.52398" lon="3.09307">
        <ele>394</ele>
        <time>2016-06-11T06:08:53Z</time>
      </trkpt>
      <trkpt lat="43.52406" lon="3.09315">
        <ele>396</ele>
        <time>2016-06-11T06:09:05Z</time>
      </trkpt>
      <trkpt lat="43.52415" lon="3.09323">
        <ele>398</ele>
        <time>2016-06-11T06:09:17Z</time>
      </trkpt>
      <trkpt lat="43.52423" lon="3.09332">
        <ele>399</ele>
        <time>2016-06-11T06:09:25Z</time>
      </trkpt>
      <trkpt lat="43.52431" lon="3.09341">
        <ele>401</ele>
        <time>2016-06-11T06:09:37Z</time>
      </trkpt>
      <trkpt lat="43.52439" lon="3.09351">
        <ele>402</ele>
        <time>2016-06-11T06:09:45Z</time>
      </trkpt>
      <trkpt lat="43.52449" lon="3.09357">
        <ele>404</ele>
        <time>2016-06-11T06:09:57Z</time>
      </trkpt>
      <trkpt lat="43.52459" lon="3.09362">
        <ele>405</ele>
        <time>2016-06-11T06:10:05Z</time>
      </trkpt>
      <trkpt lat="43.5247" lon="3.09366">
        <ele>406</ele>
        <time>2016-06-11T06:10:13Z</time>
      </trkpt>
      <trkpt lat="43.52481" lon="3.09369">
        <ele>407</ele>
        <time>2016-06-11T06:10:22Z</time>
      </trkpt>
      <trkpt lat="43.52492" lon="3.09372">
        <ele>409</ele>
        <time>2016-06-11T06:10:34Z</time>
      </trkpt>
      <trkpt lat="43.52502" lon="3.09374">
        <ele>410</ele>
        <time>2016-06-11T06:10:42Z</time>
      </trkpt>
      <trkpt lat="43.52512" lon="3.0938">
        <ele>412</ele>
        <time>2016-06-11T06:10:54Z</time>
      </trkpt>
      <trkpt lat="43.52521" lon="3.09385">
        <ele>413</ele>
        <time>2016-06-11T06:11:02Z</time>
      </trkpt>
      <trkpt lat="43.5253" lon="3.09391">
        <ele>415</ele>
        <time>2016-06-11T06:11:14Z</time>
      </trkpt>
      <trkpt lat="43.5254" lon="3.09399">
        <ele>416</ele>
        <time>2016-06-11T06:11:22Z</time>
      </trkpt>
      <trkpt lat="43.5255" lon="3.09405">
        <ele>418</ele>
        <time>2016-06-11T06:11:34Z</time>
      </trkpt>
      <trkpt lat="43.5256" lon="3.0941">
        <ele>420</ele>
        <time>2016-06-11T06:11:46Z</time>
      </trkpt>
      <trkpt lat="43.5257" lon="3.09415">
        <ele>421</ele>
        <time>2016-06-11T06:11:54Z</time>
      </trkpt>
      <trkpt lat="43.52579" lon="3.09419">
        <ele>422</ele>
        <time>2016-06-11T06:12:01Z</time>
      </trkpt>
      <trkpt lat="43.52589" lon="3.09419">
        <ele>424</ele>
        <time>2016-06-11T06:12:13Z</time>
      </trkpt>
      <trkpt lat="43.52598" lon="3.09413">
        <ele>426</ele>
        <time>2016-06-11T06:12:25Z</time>
      </trkpt>
      <trkpt lat="43.52607" lon="3.09406">
        <ele>427</ele>
        <time>2016-06-11T06:12:33Z</time>
      </trkpt>
      <trkpt lat="43.52616" lon="3.09398">
        <ele>430</ele>
        <time>2016-06-11T06:12:51Z</time>
      </trkpt>
      <trkpt lat="43.52625" lon="3.09391">
        <ele>431</ele>
        <time>2016-06-11T06:12:59Z</time>
      </trkpt>
      <trkpt lat="43.52633" lon="3.09382">
        <ele>433</ele>
        <time>2016-06-11T06:13:11Z</time>
      </trkpt>
      <trkpt lat="43.52641" lon="3.09373">
        <ele>434</ele>
        <time>2016-06-11T06:13:19Z</time>
      </trkpt>
      <trkpt lat="43.5265" lon="3.09367">
        <ele>435</ele>
        <time>2016-06-11T06:13:27Z</time>
      </trkpt>
      <trkpt lat="43.5266" lon="3.09362">
        <ele>436</ele>
        <time>2016-06-11T06:13:35Z</time>
      </trkpt>
      <trkpt lat="43.5267" lon="3.09357">
        <ele>438</ele>
        <time>2016-06-11T06:13:47Z</time>
      </trkpt>
      <trkpt lat="43.5268" lon="3.09353">
        <ele>439</ele>
        <time>2016-06-11T06:13:54Z</time>
      </trkpt>
      <trkpt lat="43.5269" lon="3.09348">
        <ele>441</ele>
        <time>2016-06-11T06:14:07Z</time>
      </trkpt>
      <trkpt lat="43.52699" lon="3.0934">
        <ele>443</ele>
        <time>2016-06-11T06:14:19Z</time>
      </trkpt>
      <trkpt lat="43.52709" lon="3.09332">
        <ele>444</ele>
        <time>2016-06-11T06:14:27Z</time>
      </trkpt>
      <trkpt lat="43.52718" lon="3.09326">
        <ele>446</ele>
        <time>2016-06-11T06:14:39Z</time>
      </trkpt>
      <trkpt lat="43.52729" lon="3.09324">
        <ele>446</ele>
        <time>2016-06-11T06:14:45Z</time>
      </trkpt>
      <trkpt lat="43.52739" lon="3.09319">
        <ele>447</ele>
        <time>2016-06-11T06:14:53Z</time>
      </trkpt>
      <trkpt lat="43.52749" lon="3.09314">
        <ele>448</ele>
        <time>2016-06-11T06:15:01Z</time>
      </trkpt>
      <trkpt lat="43.52758" lon="3.09308">
        <ele>449</ele>
        <time>2016-06-11T06:15:09Z</time>
      </trkpt>
      <trkpt lat="43.52767" lon="3.09303">
        <ele>450</ele>
        <time>2016-06-11T06:15:17Z</time>
      </trkpt>
      <trkpt lat="43.52776" lon="3.09299">
        <ele>452</ele>
        <time>2016-06-11T06:15:29Z</time>
      </trkpt>
      <trkpt lat="43.52786" lon="3.09294">
        <ele>453</ele>
        <time>2016-06-11T06:15:37Z</time>
      </trkpt>
      <trkpt lat="43.52796" lon="3.0929">
        <ele>455</ele>
        <time>2016-06-11T06:15:49Z</time>
      </trkpt>
      <trkpt lat="43.52806" lon="3.09288">
        <ele>455</ele>
        <time>2016-06-11T06:15:54Z</time>
      </trkpt>
      <trkpt lat="43.52816" lon="3.09286">
        <ele>456</ele>
        <time>2016-06-11T06:16:02Z</time>
      </trkpt>
      <trkpt lat="43.52826" lon="3.09284">
        <ele>457</ele>
        <time>2016-06-11T06:16:10Z</time>
      </trkpt>
      <trkpt lat="43.52836" lon="3.09281">
        <ele>458</ele>
        <time>2016-06-11T06:16:18Z</time>
      </trkpt>
      <trkpt lat="43.52847" lon="3.09275">
        <ele>461</ele>
        <time>2016-06-11T06:16:36Z</time>
      </trkpt>
      <trkpt lat="43.52856" lon="3.09271">
        <ele>462</ele>
        <time>2016-06-11T06:16:43Z</time>
      </trkpt>
      <trkpt lat="43.52866" lon="3.09266">
        <ele>464</ele>
        <time>2016-06-11T06:16:56Z</time>
      </trkpt>
      <trkpt lat="43.52875" lon="3.09259">
        <ele>465</ele>
        <time>2016-06-11T06:17:03Z</time>
      </trkpt>
      <trkpt lat="43.52884" lon="3.09252">
        <ele>467</ele>
        <time>2016-06-11T06:17:15Z</time>
      </trkpt>
      <trkpt lat="43.52893" lon="3.09248">
        <ele>468</ele>
        <time>2016-06-11T06:17:23Z</time>
      </trkpt>
      <trkpt lat="43.52903" lon="3.09244">
        <ele>469</ele>
        <time>2016-06-11T06:17:31Z</time>
      </trkpt>
      <trkpt lat="43.52913" lon="3.09239">
        <ele>469</ele>
        <time>2016-06-11T06:17:37Z</time>
      </trkpt>
      <trkpt lat="43.52924" lon="3.09237">
        <ele>470</ele>
        <time>2016-06-11T06:17:45Z</time>
      </trkpt>
      <trkpt lat="43.52935" lon="3.09234">
        <ele>470</ele>
        <time>2016-06-11T06:17:51Z</time>
      </trkpt>
      <trkpt lat="43.52945" lon="3.0923">
        <ele>471</ele>
        <time>2016-06-11T06:18:00Z</time>
      </trkpt>
      <trkpt lat="43.52956" lon="3.09227">
        <ele>471</ele>
        <time>2016-06-11T06:18:06Z</time>
      </trkpt>
      <trkpt lat="43.52966" lon="3.09224">
        <ele>472</ele>
        <time>2016-06-11T06:18:14Z</time>
      </trkpt>
      <trkpt lat="43.52977" lon="3.09222">
        <ele>472</ele>
        <time>2016-06-11T06:18:20Z</time>
      </trkpt>
      <trkpt lat="43.52987" lon="3.09219">
        <ele>473</ele>
        <time>2016-06-11T06:18:28Z</time>
      </trkpt>
      <trkpt lat="43.52996" lon="3.09213">
        <ele>475</ele>
        <time>2016-06-11T06:18:40Z</time>
      </trkpt>
      <trkpt lat="43.53006" lon="3.0921">
        <ele>476</ele>
        <time>2016-06-11T06:18:48Z</time>
      </trkpt>
      <trkpt lat="43.53016" lon="3.09205">
        <ele>478</ele>
        <time>2016-06-11T06:19:00Z</time>
      </trkpt>
      <trkpt lat="43.53026" lon="3.09201">
        <ele>479</ele>
        <time>2016-06-11T06:19:08Z</time>
      </trkpt>
      <trkpt lat="43.53037" lon="3.09197">
        <ele>481</ele>
        <time>2016-06-11T06:19:20Z</time>
      </trkpt>
      <trkpt lat="43.53046" lon="3.09192">
        <ele>481</ele>
        <time>2016-06-11T06:19:26Z</time>
      </trkpt>
      <trkpt lat="43.53056" lon="3.09187">
        <ele>482</ele>
        <time>2016-06-11T06:19:34Z</time>
      </trkpt>
      <trkpt lat="43.53066" lon="3.09182">
        <ele>482</ele>
        <time>2016-06-11T06:19:40Z</time>
      </trkpt>
      <trkpt lat="43.53076" lon="3.09178">
        <ele>483</ele>
        <time>2016-06-11T06:19:48Z</time>
      </trkpt>
      <trkpt lat="43.53087" lon="3.09173">
        <ele>483</ele>
        <time>2016-06-11T06:19:54Z</time>
      </trkpt>
      <trkpt lat="43.53097" lon="3.09169">
        <ele>484</ele>
        <time>2016-06-11T06:20:02Z</time>
      </trkpt>
      <trkpt lat="43.53107" lon="3.09165">
        <ele>483</ele>
        <time>2016-06-11T06:20:08Z</time>
      </trkpt>
      <trkpt lat="43.53117" lon="3.09159">
        <ele>483</ele>
        <time>2016-06-11T06:20:14Z</time>
      </trkpt>
      <trkpt lat="43.53126" lon="3.09151">
        <ele>483</ele>
        <time>2016-06-11T06:20:20Z</time>
      </trkpt>
      <trkpt lat="43.53137" lon="3.09149">
        <ele>483</ele>
        <time>2016-06-11T06:20:26Z</time>
      </trkpt>
      <trkpt lat="43.53148" lon="3.09148">
        <ele>482</ele>
        <time>2016-06-11T06:20:32Z</time>
      </trkpt>
      <trkpt lat="43.53159" lon="3.09147">
        <ele>481</ele>
        <time>2016-06-11T06:20:37Z</time>
      </trkpt>
      <trkpt lat="43.5317" lon="3.09148">
        <ele>481</ele>
        <time>2016-06-11T06:20:44Z</time>
      </trkpt>
      <trkpt lat="43.53181" lon="3.09146">
        <ele>480</ele>
        <time>2016-06-11T06:20:49Z</time>
      </trkpt>
      <trkpt lat="43.53193" lon="3.09146">
        <ele>480</ele>
        <time>2016-06-11T06:20:56Z</time>
      </trkpt>
      <trkpt lat="43.53204" lon="3.09145">
        <ele>479</ele>
        <time>2016-06-11T06:21:01Z</time>
      </trkpt>
      <trkpt lat="43.53214" lon="3.09144">
        <ele>479</ele>
        <time>2016-06-11T06:21:07Z</time>
      </trkpt>
      <trkpt lat="43.53225" lon="3.09141">
        <ele>478</ele>
        <time>2016-06-11T06:21:12Z</time>
      </trkpt>
      <trkpt lat="43.53235" lon="3.09139">
        <ele>478</ele>
        <time>2016-06-11T06:21:18Z</time>
      </trkpt>
      <trkpt lat="43.53246" lon="3.09136">
        <ele>478</ele>
        <time>2016-06-11T06:21:25Z</time>
      </trkpt>
      <trkpt lat="43.53256" lon="3.09134">
        <ele>477</ele>
        <time>2016-06-11T06:21:30Z</time>
      </trkpt>
      <trkpt lat="43.5327" lon="3.0913">
        <ele>477</ele>
        <time>2016-06-11T06:21:38Z</time>
      </trkpt>
      <trkpt lat="43.53281" lon="3.09122">
        <ele>478</ele>
        <time>2016-06-11T06:21:47Z</time>
      </trkpt>
      <trkpt lat="43.53292" lon="3.09115">
        <ele>479</ele>
        <time>2016-06-11T06:21:55Z</time>
      </trkpt>
      <trkpt lat="43.53301" lon="3.0911">
        <ele>479</ele>
        <time>2016-06-11T06:22:01Z</time>
      </trkpt>
      <trkpt lat="43.5331" lon="3.09103">
        <ele>480</ele>
        <time>2016-06-11T06:22:09Z</time>
      </trkpt>
      <trkpt lat="43.53321" lon="3.09098">
        <ele>482</ele>
        <time>2016-06-11T06:22:21Z</time>
      </trkpt>
      <trkpt lat="43.53331" lon="3.09091">
        <ele>483</ele>
        <time>2016-06-11T06:22:29Z</time>
      </trkpt>
      <trkpt lat="43.5334" lon="3.09087">
        <ele>485</ele>
        <time>2016-06-11T06:22:41Z</time>
      </trkpt>
      <trkpt lat="43.5335" lon="3.09081">
        <ele>487</ele>
        <time>2016-06-11T06:22:54Z</time>
      </trkpt>
      <trkpt lat="43.53357" lon="3.0907">
        <ele>489</ele>
        <time>2016-06-11T06:23:06Z</time>
      </trkpt>
      <trkpt lat="43.53365" lon="3.09063">
        <ele>491</ele>
        <time>2016-06-11T06:23:18Z</time>
      </trkpt>
      <trkpt lat="43.53371" lon="3.09055">
        <ele>493</ele>
        <time>2016-06-11T06:23:30Z</time>
      </trkpt>
      <trkpt lat="43.53377" lon="3.09048">
        <ele>494</ele>
        <time>2016-06-11T06:23:37Z</time>
      </trkpt>
      <trkpt lat="43.53383" lon="3.0904">
        <ele>495</ele>
        <time>2016-06-11T06:23:44Z</time>
      </trkpt>
      <trkpt lat="43.53389" lon="3.0903">
        <ele>495</ele>
        <time>2016-06-11T06:23:49Z</time>
      </trkpt>
      <trkpt lat="43.53399" lon="3.09024">
        <ele>497</ele>
        <time>2016-06-11T06:24:01Z</time>
      </trkpt>
      <trkpt lat="43.53407" lon="3.09015">
        <ele>498</ele>
        <time>2016-06-11T06:24:09Z</time>
      </trkpt>
      <trkpt lat="43.53418" lon="3.09009">
        <ele>500</ele>
        <time>2016-06-11T06:24:21Z</time>
      </trkpt>
      <trkpt lat="43.53428" lon="3.09003">
        <ele>502</ele>
        <time>2016-06-11T06:24:33Z</time>
      </trkpt>
      <trkpt lat="43.53438" lon="3.08998">
        <ele>503</ele>
        <time>2016-06-11T06:24:41Z</time>
      </trkpt>
      <trkpt lat="43.53447" lon="3.08993">
        <ele>505</ele>
        <time>2016-06-11T06:24:54Z</time>
      </trkpt>
      <trkpt lat="43.53457" lon="3.08991">
        <ele>507</ele>
        <time>2016-06-11T06:25:06Z</time>
      </trkpt>
      <trkpt lat="43.53467" lon="3.0899">
        <ele>509</ele>
        <time>2016-06-11T06:25:18Z</time>
      </trkpt>
      <trkpt lat="43.53477" lon="3.08985">
        <ele>509</ele>
        <time>2016-06-11T06:25:23Z</time>
      </trkpt>
      <trkpt lat="43.53487" lon="3.08981">
        <ele>511</ele>
        <time>2016-06-11T06:25:35Z</time>
      </trkpt>
      <trkpt lat="43.53497" lon="3.08977">
        <ele>511</ele>
        <time>2016-06-11T06:25:41Z</time>
      </trkpt>
      <trkpt lat="43.53506" lon="3.08969">
        <ele>511</ele>
        <time>2016-06-11T06:25:47Z</time>
      </trkpt>
      <trkpt lat="43.53516" lon="3.08965">
        <ele>512</ele>
        <time>2016-06-11T06:25:56Z</time>
      </trkpt>
      <trkpt lat="43.53526" lon="3.0896">
        <ele>513</ele>
        <time>2016-06-11T06:26:04Z</time>
      </trkpt>
      <trkpt lat="43.53536" lon="3.08954">
        <ele>514</ele>
        <time>2016-06-11T06:26:12Z</time>
      </trkpt>
      <trkpt lat="43.53546" lon="3.08948">
        <ele>515</ele>
        <time>2016-06-11T06:26:20Z</time>
      </trkpt>
      <trkpt lat="43.53556" lon="3.08944">
        <ele>515</ele>
        <time>2016-06-11T06:26:26Z</time>
      </trkpt>
      <trkpt lat="43.53565" lon="3.08936">
        <ele>516</ele>
        <time>2016-06-11T06:26:34Z</time>
      </trkpt>
      <trkpt lat="43.53574" lon="3.08931">
        <ele>516</ele>
        <time>2016-06-11T06:26:39Z</time>
      </trkpt>
      <trkpt lat="43.53583" lon="3.0893">
        <ele>516</ele>
        <time>2016-06-11T06:26:45Z</time>
      </trkpt>
      <trkpt lat="43.53594" lon="3.0893">
        <ele>518</ele>
        <time>2016-06-11T06:26:57Z</time>
      </trkpt>
      <trkpt lat="43.53604" lon="3.08925">
        <ele>518</ele>
        <time>2016-06-11T06:27:03Z</time>
      </trkpt>
      <trkpt lat="43.53616" lon="3.08925">
        <ele>520</ele>
        <time>2016-06-11T06:27:15Z</time>
      </trkpt>
      <trkpt lat="43.53627" lon="3.08924">
        <ele>519</ele>
        <time>2016-06-11T06:27:21Z</time>
      </trkpt>
      <trkpt lat="43.53638" lon="3.0892">
        <ele>519</ele>
        <time>2016-06-11T06:27:27Z</time>
      </trkpt>
      <trkpt lat="43.53646" lon="3.08916">
        <ele>519</ele>
        <time>2016-06-11T06:27:32Z</time>
      </trkpt>
      <trkpt lat="43.53656" lon="3.0891">
        <ele>519</ele>
        <time>2016-06-11T06:27:38Z</time>
      </trkpt>
      <trkpt lat="43.53664" lon="3.08906">
        <ele>519</ele>
        <time>2016-06-11T06:27:43Z</time>
      </trkpt>
      <trkpt lat="43.53673" lon="3.08901">
        <ele>520</ele>
        <time>2016-06-11T06:27:51Z</time>
      </trkpt>
      <trkpt lat="43.53684" lon="3.08896">
        <ele>519</ele>
        <time>2016-06-11T06:27:57Z</time>
      </trkpt>
      <trkpt lat="43.53695" lon="3.08889">
        <ele>519</ele>
        <time>2016-06-11T06:28:03Z</time>
      </trkpt>
      <trkpt lat="43.53822" lon="3.08827">
        <ele>515</ele>
        <time>2016-06-11T06:29:14Z</time>
      </trkpt>
      <trkpt lat="43.53853" lon="3.08794">
        <ele>515</ele>
        <time>2016-06-11T06:29:36Z</time>
      </trkpt>
      <trkpt lat="43.53861" lon="3.08765">
        <ele>516</ele>
        <time>2016-06-11T06:29:50Z</time>
      </trkpt>
      <trkpt lat="43.53882" lon="3.08687">
        <ele>520</ele>
        <time>2016-06-11T06:30:31Z</time>
      </trkpt>
      <trkpt lat="43.54036" lon="3.08476">
        <ele>537</ele>
        <time>2016-06-11T06:33:05Z</time>
      </trkpt>
      <trkpt lat="43.54043" lon="3.08443">
        <ele>537</ele>
        <time>2016-06-11T06:33:19Z</time>
      </trkpt>
      <trkpt lat="43.54052" lon="3.08424">
        <ele>538</ele>
        <time>2016-06-11T06:33:30Z</time>
      </trkpt>
      <trkpt lat="43.5407" lon="3.08409">
        <ele>538</ele>
        <time>2016-06-11T06:33:42Z</time>
      </trkpt>
      <trkpt lat="43.54095" lon="3.08389">
        <ele>540</ele>
        <time>2016-06-11T06:34:02Z</time>
      </trkpt>
      <trkpt lat="43.54116" lon="3.08388">
        <ele>543</ele>
        <time>2016-06-11T06:34:21Z</time>
      </trkpt>
      <trkpt lat="43.5414" lon="3.08373">
        <ele>546</ele>
        <time>2016-06-11T06:34:43Z</time>
      </trkpt>
      <trkpt lat="43.54162" lon="3.08379">
        <ele>550</ele>
        <time>2016-06-11T06:35:07Z</time>
      </trkpt>
      <trkpt lat="43.54175" lon="3.08382">
        <ele>551</ele>
        <time>2016-06-11T06:35:16Z</time>
      </trkpt>
      <trkpt lat="43.54183" lon="3.08374">
        <ele>553</ele>
        <time>2016-06-11T06:35:28Z</time>
      </trkpt>
      <trkpt lat="43.54179" lon="3.08331">
        <ele>556</ele>
        <time>2016-06-11T06:35:52Z</time>
      </trkpt>
      <trkpt lat="43.54183" lon="3.08298">
        <ele>559</ele>
        <time>2016-06-11T06:36:13Z</time>
      </trkpt>
      <trkpt lat="43.54249" lon="3.08276">
        <ele>573</ele>
        <time>2016-06-11T06:37:37Z</time>
      </trkpt>
      <trkpt lat="43.54279" lon="3.0829">
        <ele>576</ele>
        <time>2016-06-11T06:38:01Z</time>
      </trkpt>
      <trkpt lat="43.54343" lon="3.08361">
        <ele>585</ele>
        <time>2016-06-11T06:39:08Z</time>
      </trkpt>
      <trkpt lat="43.54357" lon="3.08357">
        <ele>586</ele>
        <time>2016-06-11T06:39:18Z</time>
      </trkpt>
      <trkpt lat="43.54355" lon="3.08328">
        <ele>589</ele>
        <time>2016-06-11T06:39:38Z</time>
      </trkpt>
      <trkpt lat="43.54363" lon="3.08311">
        <ele>591</ele>
        <time>2016-06-11T06:39:51Z</time>
      </trkpt>
      <trkpt lat="43.54425" lon="3.08256">
        <ele>605</ele>
        <time>2016-06-11T06:41:15Z</time>
      </trkpt>
      <trkpt lat="43.54524" lon="3.08189">
        <ele>613</ele>
        <time>2016-06-11T06:42:32Z</time>
      </trkpt>
      <trkpt lat="43.54563" lon="3.08186">
        <ele>617</ele>
        <time>2016-06-11T06:43:03Z</time>
      </trkpt>
      <trkpt lat="43.54627" lon="3.08164">
        <ele>618</ele>
        <time>2016-06-11T06:43:42Z</time>
      </trkpt>
      <trkpt lat="43.54695" lon="3.08192">
        <ele>621</ele>
        <time>2016-06-11T06:44:26Z</time>
      </trkpt>
      <trkpt lat="43.5476" lon="3.08183">
        <ele>622</ele>
        <time>2016-06-11T06:45:05Z</time>
      </trkpt>
      <trkpt lat="43.54792" lon="3.08145">
        <ele>623</ele>
        <time>2016-06-11T06:45:30Z</time>
      </trkpt>
      <trkpt lat="43.54871" lon="3.08191">
        <ele>623</ele>
        <time>2016-06-11T06:46:19Z</time>
      </trkpt>
      <trkpt lat="43.54886" lon="3.08239">
        <ele>623</ele>
        <time>2016-06-11T06:46:41Z</time>
      </trkpt>
      <trkpt lat="43.54924" lon="3.08252">
        <ele>623</ele>
        <time>2016-06-11T06:47:04Z</time>
      </trkpt>
      <trkpt lat="43.54998" lon="3.0825">
        <ele>622</ele>
        <time>2016-06-11T06:47:44Z</time>
      </trkpt>
      <trkpt lat="43.55064" lon="3.0834">
        <ele>622</ele>
        <time>2016-06-11T06:48:37Z</time>
      </trkpt>
      <trkpt lat="43.55118" lon="3.08363">
        <ele>622</ele>
        <time>2016-06-11T06:49:09Z</time>
      </trkpt>
      <trkpt lat="43.55097" lon="3.08384">
        <ele>623</ele>
        <time>2016-06-11T06:49:26Z</time>
      </trkpt>
      <trkpt lat="43.55089" lon="3.08448">
        <ele>623</ele>
        <time>2016-06-11T06:49:53Z</time>
      </trkpt>
      <trkpt lat="43.55074" lon="3.08471">
        <ele>624</ele>
        <time>2016-06-11T06:50:07Z</time>
      </trkpt>
      <trkpt lat="43.55055" lon="3.08498">
        <ele>625</ele>
        <time>2016-06-11T06:50:24Z</time>
      </trkpt>
      <trkpt lat="43.55037" lon="3.08586">
        <ele>629</ele>
        <time>2016-06-11T06:51:08Z</time>
      </trkpt>
      <trkpt lat="43.55047" lon="3.08642">
        <ele>629</ele>
        <time>2016-06-11T06:51:31Z</time>
      </trkpt>
      <trkpt lat="43.55053" lon="3.08672">
        <ele>630</ele>
        <time>2016-06-11T06:51:46Z</time>
      </trkpt>
      <trkpt lat="43.55067" lon="3.08696">
        <ele>628</ele>
        <time>2016-06-11T06:51:57Z</time>
      </trkpt>
      <trkpt lat="43.55072" lon="3.08865">
        <ele>619</ele>
        <time>2016-06-11T06:52:56Z</time>
      </trkpt>
      <trkpt lat="43.55088" lon="3.08889">
        <ele>618</ele>
        <time>2016-06-11T06:53:08Z</time>
      </trkpt>
      <trkpt lat="43.55155" lon="3.08937">
        <ele>615</ele>
        <time>2016-06-11T06:53:46Z</time>
      </trkpt>
      <trkpt lat="43.55179" lon="3.08979">
        <ele>606</ele>
        <time>2016-06-11T06:54:16Z</time>
      </trkpt>
      <trkpt lat="43.55189" lon="3.09036">
        <ele>608</ele>
        <time>2016-06-11T06:54:44Z</time>
      </trkpt>
      <trkpt lat="43.55084" lon="3.09356">
        <ele>626</ele>
        <time>2016-06-11T06:57:38Z</time>
      </trkpt>
      <trkpt lat="43.55068" lon="3.09435">
        <ele>633</ele>
        <time>2016-06-11T06:58:28Z</time>
      </trkpt>
      <trkpt lat="43.55081" lon="3.09525">
        <ele>641</ele>
        <time>2016-06-11T06:59:25Z</time>
      </trkpt>
      <trkpt lat="43.55045" lon="3.09643">
        <ele>647</ele>
        <time>2016-06-11T07:00:27Z</time>
      </trkpt>
      <trkpt lat="43.55044" lon="3.09759">
        <ele>653</ele>
        <time>2016-06-11T07:01:25Z</time>
      </trkpt>
      <trkpt lat="43.55032" lon="3.09873">
        <ele>652</ele>
        <time>2016-06-11T07:02:11Z</time>
      </trkpt>
      <trkpt lat="43.5502" lon="3.09924">
        <ele>652</ele>
        <time>2016-06-11T07:02:33Z</time>
      </trkpt>
      <trkpt lat="43.54994" lon="3.10085">
        <ele>667</ele>
        <time>2016-06-11T07:04:16Z</time>
      </trkpt>
      <trkpt lat="43.54937" lon="3.10176">
        <ele>679</ele>
        <time>2016-06-11T07:05:36Z</time>
      </trkpt>
      <trkpt lat="43.54915" lon="3.10243">
        <ele>679</ele>
        <time>2016-06-11T07:06:06Z</time>
      </trkpt>
      <trkpt lat="43.5489" lon="3.10312">
        <ele>679</ele>
        <time>2016-06-11T07:06:38Z</time>
      </trkpt>
      <trkpt lat="43.54911" lon="3.10417">
        <ele>667</ele>
        <time>2016-06-11T07:07:24Z</time>
      </trkpt>
      <trkpt lat="43.54879" lon="3.10564">
        <ele>651</ele>
        <time>2016-06-11T07:08:27Z</time>
      </trkpt>
      <trkpt lat="43.54899" lon="3.10615">
        <ele>641</ele>
        <time>2016-06-11T07:09:00Z</time>
      </trkpt>
      <trkpt lat="43.54923" lon="3.10666">
        <ele>635</ele>
        <time>2016-06-11T07:09:25Z</time>
      </trkpt>
      <trkpt lat="43.54911" lon="3.10786">
        <ele>625</ele>
        <time>2016-06-11T07:10:10Z</time>
      </trkpt>
      <trkpt lat="43.54919" lon="3.10814">
        <ele>620</ele>
        <time>2016-06-11T07:10:27Z</time>
      </trkpt>
      <trkpt lat="43.54936" lon="3.10841">
        <ele>615</ele>
        <time>2016-06-11T07:10:44Z</time>
      </trkpt>
      <trkpt lat="43.54974" lon="3.1085">
        <ele>607</ele>
        <time>2016-06-11T07:11:12Z</time>
      </trkpt>
      <trkpt lat="43.54949" lon="3.10913">
        <ele>596</ele>
        <time>2016-06-11T07:11:49Z</time>
      </trkpt>
      <trkpt lat="43.54936" lon="3.11168">
        <ele>563</ele>
        <time>2016-06-11T07:13:48Z</time>
      </trkpt>
      <trkpt lat="43.54889" lon="3.11231">
        <ele>546</ele>
        <time>2016-06-11T07:14:44Z</time>
      </trkpt>
      <trkpt lat="43.54849" lon="3.11349">
        <ele>524</ele>
        <time>2016-06-11T07:15:58Z</time>
      </trkpt>
      <trkpt lat="43.54788" lon="3.11422">
        <ele>510</ele>
        <time>2016-06-11T07:16:48Z</time>
      </trkpt>
      <trkpt lat="43.54836" lon="3.11442">
        <ele>502</ele>
        <time>2016-06-11T07:17:18Z</time>
      </trkpt>
      <trkpt lat="43.54865" lon="3.11499">
        <ele>486</ele>
        <time>2016-06-11T07:18:13Z</time>
      </trkpt>
      <trkpt lat="43.54874" lon="3.11557">
        <ele>473</ele>
        <time>2016-06-11T07:18:56Z</time>
      </trkpt>
      <trkpt lat="43.54861" lon="3.11623">
        <ele>457</ele>
        <time>2016-06-11T07:19:51Z</time>
      </trkpt>
      <trkpt lat="43.54837" lon="3.11749">
        <ele>435</ele>
        <time>2016-06-11T07:21:04Z</time>
      </trkpt>
      <trkpt lat="43.54762" lon="3.11855">
        <ele>411</ele>
        <time>2016-06-11T07:22:26Z</time>
      </trkpt>
      <trkpt lat="43.54738" lon="3.11867">
        <ele>407</ele>
        <time>2016-06-11T07:22:41Z</time>
      </trkpt>
      <trkpt lat="43.54677" lon="3.11888">
        <ele>398</ele>
        <time>2016-06-11T07:23:16Z</time>
      </trkpt>
      <trkpt lat="43.5462" lon="3.11878">
        <ele>390</ele>
        <time>2016-06-11T07:23:48Z</time>
      </trkpt>
      <trkpt lat="43.5455" lon="3.11926">
        <ele>379</ele>
        <time>2016-06-11T07:24:32Z</time>
      </trkpt>
      <trkpt lat="43.54505" lon="3.11941">
        <ele>371</ele>
        <time>2016-06-11T07:25:01Z</time>
      </trkpt>
      <trkpt lat="43.54469" lon="3.11942">
        <ele>366</ele>
        <time>2016-06-11T07:25:21Z</time>
      </trkpt>
      <trkpt lat="43.54398" lon="3.11971">
        <ele>354</ele>
        <time>2016-06-11T07:26:06Z</time>
      </trkpt>
      <trkpt lat="43.54376" lon="3.12013">
        <ele>349</ele>
        <time>2016-06-11T07:26:27Z</time>
      </trkpt>
      <trkpt lat="43.54381" lon="3.12054">
        <ele>349</ele>
        <time>2016-06-11T07:26:44Z</time>
      </trkpt>
      <trkpt lat="43.54393" lon="3.12095">
        <ele>349</ele>
        <time>2016-06-11T07:27:02Z</time>
      </trkpt>
      <trkpt lat="43.54393" lon="3.12188">
        <ele>341</ele>
        <time>2016-06-11T07:27:38Z</time>
      </trkpt>
      <trkpt lat="43.54376" lon="3.12211">
        <ele>339</ele>
        <time>2016-06-11T07:27:49Z</time>
      </trkpt>
      <trkpt lat="43.54379" lon="3.12253">
        <ele>336</ele>
        <time>2016-06-11T07:28:04Z</time>
      </trkpt>
      <trkpt lat="43.54401" lon="3.12344">
        <ele>328</ele>
        <time>2016-06-11T07:28:40Z</time>
      </trkpt>
      <trkpt lat="43.54407" lon="3.12397">
        <ele>325</ele>
        <time>2016-06-11T07:28:59Z</time>
      </trkpt>
      <trkpt lat="43.54428" lon="3.12436">
        <ele>324</ele>
        <time>2016-06-11T07:29:17Z</time>
      </trkpt>
      <trkpt lat="43.54495" lon="3.12462">
        <ele>324</ele>
        <time>2016-06-11T07:29:58Z</time>
      </trkpt>
      <trkpt lat="43.54437" lon="3.12495">
        <ele>312</ele>
        <time>2016-06-11T07:30:40Z</time>
      </trkpt>
      <trkpt lat="43.54444" lon="3.12505">
        <ele>311</ele>
        <time>2016-06-11T07:30:45Z</time>
      </trkpt>
      <trkpt lat="43.5445" lon="3.12518">
        <ele>312</ele>
        <time>2016-06-11T07:30:53Z</time>
      </trkpt>
      <trkpt lat="43.54458" lon="3.12527">
        <ele>313</ele>
        <time>2016-06-11T07:31:01Z</time>
      </trkpt>
      <trkpt lat="43.54466" lon="3.12534">
        <ele>314</ele>
        <time>2016-06-11T07:31:09Z</time>
      </trkpt>
      <trkpt lat="43.54473" lon="3.12539">
        <ele>316</ele>
        <time>2016-06-11T07:36:20Z</time>
      </trkpt>
      <trkpt lat="43.54483" lon="3.12545">
        <ele>317</ele>
        <time>2016-06-11T07:36:28Z</time>
      </trkpt>
      <trkpt lat="43.54492" lon="3.12546">
        <ele>319</ele>
        <time>2016-06-11T07:36:41Z</time>
      </trkpt>
      <trkpt lat="43.54502" lon="3.12548">
        <ele>321</ele>
        <time>2016-06-11T07:36:53Z</time>
      </trkpt>
      <trkpt lat="43.54511" lon="3.12549">
        <ele>323</ele>
        <time>2016-06-11T07:37:05Z</time>
      </trkpt>
      <trkpt lat="43.54512" lon="3.12535">
        <ele>322</ele>
        <time>2016-06-11T07:37:10Z</time>
      </trkpt>
      <trkpt lat="43.5452" lon="3.12527">
        <ele>323</ele>
        <time>2016-06-11T07:37:18Z</time>
      </trkpt>
      <trkpt lat="43.54531" lon="3.12529">
        <ele>325</ele>
        <time>2016-06-11T07:37:30Z</time>
      </trkpt>
      <trkpt lat="43.54541" lon="3.12526">
        <ele>326</ele>
        <time>2016-06-11T07:37:38Z</time>
      </trkpt>
      <trkpt lat="43.5455" lon="3.1252">
        <ele>327</ele>
        <time>2016-06-11T07:37:46Z</time>
      </trkpt>
      <trkpt lat="43.5456" lon="3.12518">
        <ele>328</ele>
        <time>2016-06-11T07:37:54Z</time>
      </trkpt>
      <trkpt lat="43.54571" lon="3.12517">
        <ele>330</ele>
        <time>2016-06-11T07:38:06Z</time>
      </trkpt>
      <trkpt lat="43.5458" lon="3.12512">
        <ele>330</ele>
        <time>2016-06-11T07:38:11Z</time>
      </trkpt>
      <trkpt lat="43.5459" lon="3.12505">
        <ele>332</ele>
        <time>2016-06-11T07:38:23Z</time>
      </trkpt>
      <trkpt lat="43.54598" lon="3.12496">
        <ele>332</ele>
        <time>2016-06-11T07:38:29Z</time>
      </trkpt>
      <trkpt lat="43.54603" lon="3.12488">
        <ele>333</ele>
        <time>2016-06-11T07:38:36Z</time>
      </trkpt>
      <trkpt lat="43.54613" lon="3.12494">
        <ele>335</ele>
        <time>2016-06-11T07:38:48Z</time>
      </trkpt>
      <trkpt lat="43.54623" lon="3.12499">
        <ele>337</ele>
        <time>2016-06-11T07:39:00Z</time>
      </trkpt>
      <trkpt lat="43.54633" lon="3.12504">
        <ele>338</ele>
        <time>2016-06-11T07:39:08Z</time>
      </trkpt>
      <trkpt lat="43.54641" lon="3.12496">
        <ele>339</ele>
        <time>2016-06-11T07:39:16Z</time>
      </trkpt>
      <trkpt lat="43.5465" lon="3.12489">
        <ele>340</ele>
        <time>2016-06-11T07:39:24Z</time>
      </trkpt>
      <trkpt lat="43.5466" lon="3.12482">
        <ele>341</ele>
        <time>2016-06-11T07:39:32Z</time>
      </trkpt>
      <trkpt lat="43.54667" lon="3.12472">
        <ele>343</ele>
        <time>2016-06-11T07:39:44Z</time>
      </trkpt>
      <trkpt lat="43.54675" lon="3.12464">
        <ele>344</ele>
        <time>2016-06-11T07:39:52Z</time>
      </trkpt>
      <trkpt lat="43.54683" lon="3.12455">
        <ele>345</ele>
        <time>2016-06-11T07:40:00Z</time>
      </trkpt>
      <trkpt lat="43.54689" lon="3.12449">
        <ele>345</ele>
        <time>2016-06-11T07:40:04Z</time>
      </trkpt>
      <trkpt lat="43.54694" lon="3.12445">
        <ele>346</ele>
        <time>2016-06-11T07:40:10Z</time>
      </trkpt>
      <trkpt lat="43.54702" lon="3.12439">
        <ele>346</ele>
        <time>2016-06-11T07:40:15Z</time>
      </trkpt>
      <trkpt lat="43.54711" lon="3.12432">
        <ele>348</ele>
        <time>2016-06-11T07:40:27Z</time>
      </trkpt>
      <trkpt lat="43.54721" lon="3.12431">
        <ele>350</ele>
        <time>2016-06-11T07:40:39Z</time>
      </trkpt>
      <trkpt lat="43.54731" lon="3.12428">
        <ele>353</ele>
        <time>2016-06-11T07:40:57Z</time>
      </trkpt>
      <trkpt lat="43.5474" lon="3.12421">
        <ele>354</ele>
        <time>2016-06-11T07:41:05Z</time>
      </trkpt>
      <trkpt lat="43.5475" lon="3.1242">
        <ele>356</ele>
        <time>2016-06-11T07:41:17Z</time>
      </trkpt>
      <trkpt lat="43.54758" lon="3.12425">
        <ele>358</ele>
        <time>2016-06-11T07:41:29Z</time>
      </trkpt>
      <trkpt lat="43.54766" lon="3.12425">
        <ele>360</ele>
        <time>2016-06-11T07:41:41Z</time>
      </trkpt>
      <trkpt lat="43.54772" lon="3.12423">
        <ele>361</ele>
        <time>2016-06-11T07:41:47Z</time>
      </trkpt>
      <trkpt lat="43.5478" lon="3.12421">
        <ele>363</ele>
        <time>2016-06-11T07:41:59Z</time>
      </trkpt>
      <trkpt lat="43.5479" lon="3.12422">
        <ele>366</ele>
        <time>2016-06-11T07:42:16Z</time>
      </trkpt>
      <trkpt lat="43.54799" lon="3.12423">
        <ele>368</ele>
        <time>2016-06-11T07:42:28Z</time>
      </trkpt>
      <trkpt lat="43.54805" lon="3.12423">
        <ele>370</ele>
        <time>2016-06-11T07:42:40Z</time>
      </trkpt>
      <trkpt lat="43.54811" lon="3.1242">
        <ele>371</ele>
        <time>2016-06-11T07:42:46Z</time>
      </trkpt>
      <trkpt lat="43.54817" lon="3.1242">
        <ele>373</ele>
        <time>2016-06-11T07:42:58Z</time>
      </trkpt>
      <trkpt lat="43.54823" lon="3.12419">
        <ele>374</ele>
        <time>2016-06-11T07:43:04Z</time>
      </trkpt>
      <trkpt lat="43.54833" lon="3.12423">
        <ele>378</ele>
        <time>2016-06-11T07:43:27Z</time>
      </trkpt>
      <trkpt lat="43.54842" lon="3.12429">
        <ele>380</ele>
        <time>2016-06-11T07:43:39Z</time>
      </trkpt>
      <trkpt lat="43.54853" lon="3.12434">
        <ele>383</ele>
        <time>2016-06-11T07:43:57Z</time>
      </trkpt>
      <trkpt lat="43.54862" lon="3.12443">
        <ele>384</ele>
        <time>2016-06-11T07:44:05Z</time>
      </trkpt>
      <trkpt lat="43.54872" lon="3.1245">
        <ele>386</ele>
        <time>2016-06-11T07:44:17Z</time>
      </trkpt>
      <trkpt lat="43.54882" lon="3.12451">
        <ele>388</ele>
        <time>2016-06-11T07:44:29Z</time>
      </trkpt>
      <trkpt lat="43.54892" lon="3.12448">
        <ele>391</ele>
        <time>2016-06-11T07:44:47Z</time>
      </trkpt>
      <trkpt lat="43.54903" lon="3.12444">
        <ele>393</ele>
        <time>2016-06-11T07:44:59Z</time>
      </trkpt>
      <trkpt lat="43.54913" lon="3.1244">
        <ele>394</ele>
        <time>2016-06-11T07:45:07Z</time>
      </trkpt>
      <trkpt lat="43.54923" lon="3.12436">
        <ele>396</ele>
        <time>2016-06-11T07:45:19Z</time>
      </trkpt>
      <trkpt lat="43.54934" lon="3.12436">
        <ele>396</ele>
        <time>2016-06-11T07:45:25Z</time>
      </trkpt>
      <trkpt lat="43.54944" lon="3.12435">
        <ele>396</ele>
        <time>2016-06-11T07:45:31Z</time>
      </trkpt>
      <trkpt lat="43.54955" lon="3.12437">
        <ele>396</ele>
        <time>2016-06-11T07:45:37Z</time>
      </trkpt>
      <trkpt lat="43.54963" lon="3.12439">
        <ele>396</ele>
        <time>2016-06-11T07:45:42Z</time>
      </trkpt>
      <trkpt lat="43.54974" lon="3.1244">
        <ele>396</ele>
        <time>2016-06-11T07:45:48Z</time>
      </trkpt>
      <trkpt lat="43.54983" lon="3.12451">
        <ele>397</ele>
        <time>2016-06-11T07:45:57Z</time>
      </trkpt>
      <trkpt lat="43.54989" lon="3.12463">
        <ele>398</ele>
        <time>2016-06-11T07:46:05Z</time>
      </trkpt>
      <trkpt lat="43.54997" lon="3.12472">
        <ele>399</ele>
        <time>2016-06-11T07:46:13Z</time>
      </trkpt>
      <trkpt lat="43.55005" lon="3.12482">
        <ele>400</ele>
        <time>2016-06-11T07:46:21Z</time>
      </trkpt>
      <trkpt lat="43.55014" lon="3.12488">
        <ele>401</ele>
        <time>2016-06-11T07:46:29Z</time>
      </trkpt>
      <trkpt lat="43.55024" lon="3.12487">
        <ele>402</ele>
        <time>2016-06-11T07:46:37Z</time>
      </trkpt>
      <trkpt lat="43.55034" lon="3.12487">
        <ele>403</ele>
        <time>2016-06-11T07:46:45Z</time>
      </trkpt>
      <trkpt lat="43.55045" lon="3.12489">
        <ele>404</ele>
        <time>2016-06-11T07:46:53Z</time>
      </trkpt>
      <trkpt lat="43.55053" lon="3.12497">
        <ele>406</ele>
        <time>2016-06-11T07:47:05Z</time>
      </trkpt>
      <trkpt lat="43.55063" lon="3.12498">
        <ele>408</ele>
        <time>2016-06-11T07:47:17Z</time>
      </trkpt>
      <trkpt lat="43.55073" lon="3.12502">
        <ele>410</ele>
        <time>2016-06-11T07:47:29Z</time>
      </trkpt>
      <trkpt lat="43.55083" lon="3.12504">
        <ele>413</ele>
        <time>2016-06-11T07:47:46Z</time>
      </trkpt>
      <trkpt lat="43.55093" lon="3.12505">
        <ele>414</ele>
        <time>2016-06-11T07:47:54Z</time>
      </trkpt>
      <trkpt lat="43.55101" lon="3.1251">
        <ele>416</ele>
        <time>2016-06-11T07:48:06Z</time>
      </trkpt>
      <trkpt lat="43.5511" lon="3.12517">
        <ele>417</ele>
        <time>2016-06-11T07:48:14Z</time>
      </trkpt>
      <trkpt lat="43.55119" lon="3.12523">
        <ele>420</ele>
        <time>2016-06-11T07:48:31Z</time>
      </trkpt>
      <trkpt lat="43.55124" lon="3.12531">
        <ele>421</ele>
        <time>2016-06-11T07:48:38Z</time>
      </trkpt>
      <trkpt lat="43.55132" lon="3.12535">
        <ele>424</ele>
        <time>2016-06-11T07:48:56Z</time>
      </trkpt>
      <trkpt lat="43.5514" lon="3.12544">
        <ele>426</ele>
        <time>2016-06-11T07:49:08Z</time>
      </trkpt>
      <trkpt lat="43.55149" lon="3.12551">
        <ele>428</ele>
        <time>2016-06-11T07:49:20Z</time>
      </trkpt>
      <trkpt lat="43.55158" lon="3.12557">
        <ele>430</ele>
        <time>2016-06-11T07:49:32Z</time>
      </trkpt>
      <trkpt lat="43.55166" lon="3.12564">
        <ele>433</ele>
        <time>2016-06-11T07:49:50Z</time>
      </trkpt>
      <trkpt lat="43.55173" lon="3.1257">
        <ele>435</ele>
        <time>2016-06-11T07:50:02Z</time>
      </trkpt>
      <trkpt lat="43.55178" lon="3.1258">
        <ele>436</ele>
        <time>2016-06-11T07:50:09Z</time>
      </trkpt>
      <trkpt lat="43.55186" lon="3.1259">
        <ele>439</ele>
        <time>2016-06-11T07:50:27Z</time>
      </trkpt>
      <trkpt lat="43.55194" lon="3.12599">
        <ele>441</ele>
        <time>2016-06-11T07:50:39Z</time>
      </trkpt>
      <trkpt lat="43.55202" lon="3.12609">
        <ele>443</ele>
        <time>2016-06-11T07:50:51Z</time>
      </trkpt>
      <trkpt lat="43.5521" lon="3.12616">
        <ele>445</ele>
        <time>2016-06-11T07:51:03Z</time>
      </trkpt>
      <trkpt lat="43.55216" lon="3.12627">
        <ele>447</ele>
        <time>2016-06-11T07:51:15Z</time>
      </trkpt>
      <trkpt lat="43.55221" lon="3.1264">
        <ele>448</ele>
        <time>2016-06-11T07:51:23Z</time>
      </trkpt>
      <trkpt lat="43.55229" lon="3.12649">
        <ele>449</ele>
        <time>2016-06-11T07:51:31Z</time>
      </trkpt>
      <trkpt lat="43.55235" lon="3.1266">
        <ele>451</ele>
        <time>2016-06-11T07:51:43Z</time>
      </trkpt>
      <trkpt lat="43.55239" lon="3.12672">
        <ele>451</ele>
        <time>2016-06-11T07:51:48Z</time>
      </trkpt>
      <trkpt lat="43.55245" lon="3.12684">
        <ele>452</ele>
        <time>2016-06-11T07:51:56Z</time>
      </trkpt>
      <trkpt lat="43.55247" lon="3.12697">
        <ele>452</ele>
        <time>2016-06-11T07:52:02Z</time>
      </trkpt>
      <trkpt lat="43.5525" lon="3.12711">
        <ele>452</ele>
        <time>2016-06-11T07:52:08Z</time>
      </trkpt>
      <trkpt lat="43.55255" lon="3.12721">
        <ele>452</ele>
        <time>2016-06-11T07:52:13Z</time>
      </trkpt>
      <trkpt lat="43.55259" lon="3.12728">
        <ele>451</ele>
        <time>2016-06-11T07:52:17Z</time>
      </trkpt>
      <trkpt lat="43.5526" lon="3.12733">
        <ele>451</ele>
        <time>2016-06-11T07:52:19Z</time>
      </trkpt>
      <trkpt lat="43.55269" lon="3.12732">
        <ele>452</ele>
        <time>2016-06-11T07:52:26Z</time>
      </trkpt>
      <trkpt lat="43.55273" lon="3.12731">
        <ele>453</ele>
        <time>2016-06-11T07:52:32Z</time>
      </trkpt>
      <trkpt lat="43.55279" lon="3.12729">
        <ele>453</ele>
        <time>2016-06-11T07:52:36Z</time>
      </trkpt>
      <trkpt lat="43.55286" lon="3.12728">
        <ele>454</ele>
        <time>2016-06-11T07:52:43Z</time>
      </trkpt>
      <trkpt lat="43.55293" lon="3.12727">
        <ele>454</ele>
        <time>2016-06-11T07:52:47Z</time>
      </trkpt>
      <trkpt lat="43.55305" lon="3.12728">
        <ele>456</ele>
        <time>2016-06-11T07:52:59Z</time>
      </trkpt>
      <trkpt lat="43.55313" lon="3.12729">
        <ele>456</ele>
        <time>2016-06-11T07:53:04Z</time>
      </trkpt>
      <trkpt lat="43.55323" lon="3.12729">
        <ele>458</ele>
        <time>2016-06-11T07:53:16Z</time>
      </trkpt>
      <trkpt lat="43.55332" lon="3.1273">
        <ele>458</ele>
        <time>2016-06-11T07:53:21Z</time>
      </trkpt>
      <trkpt lat="43.5534" lon="3.12731">
        <ele>458</ele>
        <time>2016-06-11T07:53:25Z</time>
      </trkpt>
      <trkpt lat="43.55349" lon="3.12731">
        <ele>458</ele>
        <time>2016-06-11T07:53:30Z</time>
      </trkpt>
      <trkpt lat="43.55358" lon="3.1273">
        <ele>459</ele>
        <time>2016-06-11T07:53:38Z</time>
      </trkpt>
      <trkpt lat="43.55367" lon="3.12727">
        <ele>460</ele>
        <time>2016-06-11T07:53:45Z</time>
      </trkpt>
      <trkpt lat="43.55376" lon="3.12724">
        <ele>461</ele>
        <time>2016-06-11T07:53:53Z</time>
      </trkpt>
      <trkpt lat="43.55387" lon="3.12718">
        <ele>463</ele>
        <time>2016-06-11T07:54:05Z</time>
      </trkpt>
      <trkpt lat="43.55396" lon="3.12713">
        <ele>464</ele>
        <time>2016-06-11T07:54:13Z</time>
      </trkpt>
      <trkpt lat="43.55406" lon="3.12707">
        <ele>465</ele>
        <time>2016-06-11T07:54:21Z</time>
      </trkpt>
      <trkpt lat="43.55416" lon="3.12701">
        <ele>465</ele>
        <time>2016-06-11T07:54:27Z</time>
      </trkpt>
      <trkpt lat="43.55427" lon="3.12697">
        <ele>466</ele>
        <time>2016-06-11T07:54:36Z</time>
      </trkpt>
      <trkpt lat="43.55438" lon="3.12693">
        <ele>466</ele>
        <time>2016-06-11T07:54:42Z</time>
      </trkpt>
      <trkpt lat="43.55449" lon="3.12691">
        <ele>467</ele>
        <time>2016-06-11T07:54:50Z</time>
      </trkpt>
      <trkpt lat="43.55461" lon="3.12686">
        <ele>467</ele>
        <time>2016-06-11T07:54:58Z</time>
      </trkpt>
      <trkpt lat="43.5547" lon="3.12682">
        <ele>468</ele>
        <time>2016-06-11T07:55:05Z</time>
      </trkpt>
      <trkpt lat="43.55481" lon="3.12676">
        <ele>468</ele>
        <time>2016-06-11T07:55:12Z</time>
      </trkpt>
      <trkpt lat="43.55492" lon="3.12671">
        <ele>469</ele>
        <time>2016-06-11T07:55:20Z</time>
      </trkpt>
      <trkpt lat="43.555" lon="3.12663">
        <ele>470</ele>
        <time>2016-06-11T07:55:28Z</time>
      </trkpt>
      <trkpt lat="43.55509" lon="3.12655">
        <ele>471</ele>
        <time>2016-06-11T07:55:36Z</time>
      </trkpt>
      <trkpt lat="43.55518" lon="3.12649">
        <ele>472</ele>
        <time>2016-06-11T07:55:44Z</time>
      </trkpt>
      <trkpt lat="43.55527" lon="3.12642">
        <ele>472</ele>
        <time>2016-06-11T07:55:50Z</time>
      </trkpt>
      <trkpt lat="43.55538" lon="3.12635">
        <ele>473</ele>
        <time>2016-06-11T07:55:58Z</time>
      </trkpt>
      <trkpt lat="43.55547" lon="3.12628">
        <ele>474</ele>
        <time>2016-06-11T07:56:07Z</time>
      </trkpt>
      <trkpt lat="43.55556" lon="3.12621">
        <ele>475</ele>
        <time>2016-06-11T07:56:15Z</time>
      </trkpt>
      <trkpt lat="43.55565" lon="3.12614">
        <ele>475</ele>
        <time>2016-06-11T07:56:21Z</time>
      </trkpt>
      <trkpt lat="43.55576" lon="3.12609">
        <ele>475</ele>
        <time>2016-06-11T07:56:27Z</time>
      </trkpt>
      <trkpt lat="43.55586" lon="3.12604">
        <ele>475</ele>
        <time>2016-06-11T07:56:33Z</time>
      </trkpt>
      <trkpt lat="43.55598" lon="3.12598">
        <ele>476</ele>
        <time>2016-06-11T07:56:42Z</time>
      </trkpt>
      <trkpt lat="43.55605" lon="3.12592">
        <ele>477</ele>
        <time>2016-06-11T07:56:49Z</time>
      </trkpt>
      <trkpt lat="43.55614" lon="3.12584">
        <ele>479</ele>
        <time>2016-06-11T07:57:01Z</time>
      </trkpt>
      <trkpt lat="43.55621" lon="3.12576">
        <ele>480</ele>
        <time>2016-06-11T07:57:09Z</time>
      </trkpt>
      <trkpt lat="43.55628" lon="3.12567">
        <ele>483</ele>
        <time>2016-06-11T07:57:26Z</time>
      </trkpt>
      <trkpt lat="43.55635" lon="3.1256">
        <ele>484</ele>
        <time>2016-06-11T07:57:34Z</time>
      </trkpt>
      <trkpt lat="43.55642" lon="3.1255">
        <ele>486</ele>
        <time>2016-06-11T07:57:46Z</time>
      </trkpt>
      <trkpt lat="43.5565" lon="3.1254">
        <ele>487</ele>
        <time>2016-06-11T07:57:54Z</time>
      </trkpt>
      <trkpt lat="43.55658" lon="3.1253">
        <ele>487</ele>
        <time>2016-06-11T07:58:00Z</time>
      </trkpt>
      <trkpt lat="43.55668" lon="3.12531">
        <ele>488</ele>
        <time>2016-06-11T07:58:08Z</time>
      </trkpt>
      <trkpt lat="43.55676" lon="3.12539">
        <ele>488</ele>
        <time>2016-06-11T07:58:13Z</time>
      </trkpt>
      <trkpt lat="43.55678" lon="3.12553">
        <ele>489</ele>
        <time>2016-06-11T07:58:21Z</time>
      </trkpt>
      <trkpt lat="43.55683" lon="3.12564">
        <ele>489</ele>
        <time>2016-06-11T07:58:27Z</time>
      </trkpt>
      <trkpt lat="43.55688" lon="3.12571">
        <ele>490</ele>
        <time>2016-06-11T07:58:33Z</time>
      </trkpt>
      <trkpt lat="43.55693" lon="3.12577">
        <ele>490</ele>
        <time>2016-06-11T07:58:37Z</time>
      </trkpt>
      <trkpt lat="43.55699" lon="3.12584">
        <ele>492</ele>
        <time>2016-06-11T07:58:49Z</time>
      </trkpt>
      <trkpt lat="43.55702" lon="3.12599">
        <ele>490</ele>
        <time>2016-06-11T07:58:56Z</time>
      </trkpt>
      <trkpt lat="43.55702" lon="3.12613">
        <ele>490</ele>
        <time>2016-06-11T07:59:02Z</time>
      </trkpt>
      <trkpt lat="43.55699" lon="3.12628">
        <ele>488</ele>
        <time>2016-06-11T07:59:09Z</time>
      </trkpt>
      <trkpt lat="43.55697" lon="3.12643">
        <ele>486</ele>
        <time>2016-06-11T07:59:16Z</time>
      </trkpt>
      <trkpt lat="43.557" lon="3.12657">
        <ele>487</ele>
        <time>2016-06-11T07:59:24Z</time>
      </trkpt>
      <trkpt lat="43.55707" lon="3.12667">
        <ele>488</ele>
        <time>2016-06-11T07:59:32Z</time>
      </trkpt>
      <trkpt lat="43.5571" lon="3.12681">
        <ele>488</ele>
        <time>2016-06-11T07:59:38Z</time>
      </trkpt>
      <trkpt lat="43.55714" lon="3.12695">
        <ele>488</ele>
        <time>2016-06-11T07:59:44Z</time>
      </trkpt>
      <trkpt lat="43.55718" lon="3.12709">
        <ele>490</ele>
        <time>2016-06-11T07:59:56Z</time>
      </trkpt>
      <trkpt lat="43.55719" lon="3.12724">
        <ele>491</ele>
        <time>2016-06-11T08:00:04Z</time>
      </trkpt>
      <trkpt lat="43.55723" lon="3.12738">
        <ele>492</ele>
        <time>2016-06-11T08:00:13Z</time>
      </trkpt>
      <trkpt lat="43.55727" lon="3.12752">
        <ele>493</ele>
        <time>2016-06-11T08:00:21Z</time>
      </trkpt>
      <trkpt lat="43.55732" lon="3.12764">
        <ele>495</ele>
        <time>2016-06-11T08:00:33Z</time>
      </trkpt>
      <trkpt lat="43.55735" lon="3.12778">
        <ele>496</ele>
        <time>2016-06-11T08:00:41Z</time>
      </trkpt>
      <trkpt lat="43.5574" lon="3.1279">
        <ele>497</ele>
        <time>2016-06-11T08:00:49Z</time>
      </trkpt>
      <trkpt lat="43.55745" lon="3.12804">
        <ele>498</ele>
        <time>2016-06-11T08:00:57Z</time>
      </trkpt>
      <trkpt lat="43.5575" lon="3.12818">
        <ele>499</ele>
        <time>2016-06-11T08:01:05Z</time>
      </trkpt>
      <trkpt lat="43.55755" lon="3.1283">
        <ele>499</ele>
        <time>2016-06-11T08:01:11Z</time>
      </trkpt>
      <trkpt lat="43.55762" lon="3.12842">
        <ele>500</ele>
        <time>2016-06-11T08:01:19Z</time>
      </trkpt>
      <trkpt lat="43.55768" lon="3.12852">
        <ele>500</ele>
        <time>2016-06-11T08:01:25Z</time>
      </trkpt>
      <trkpt lat="43.55775" lon="3.12864">
        <ele>500</ele>
        <time>2016-06-11T08:01:31Z</time>
      </trkpt>
      <trkpt lat="43.55782" lon="3.12871">
        <ele>500</ele>
        <time>2016-06-11T08:01:36Z</time>
      </trkpt>
      <trkpt lat="43.55793" lon="3.12872">
        <ele>501</ele>
        <time>2016-06-11T08:01:44Z</time>
      </trkpt>
      <trkpt lat="43.55804" lon="3.12875">
        <ele>503</ele>
        <time>2016-06-11T08:01:56Z</time>
      </trkpt>
      <trkpt lat="43.55814" lon="3.12876">
        <ele>503</ele>
        <time>2016-06-11T08:02:02Z</time>
      </trkpt>
      <trkpt lat="43.55825" lon="3.12875">
        <ele>503</ele>
        <time>2016-06-11T08:02:08Z</time>
      </trkpt>
      <trkpt lat="43.55835" lon="3.12875">
        <ele>503</ele>
        <time>2016-06-11T08:02:14Z</time>
      </trkpt>
      <trkpt lat="43.55845" lon="3.12873">
        <ele>504</ele>
        <time>2016-06-11T08:02:22Z</time>
      </trkpt>
      <trkpt lat="43.55856" lon="3.12872">
        <ele>504</ele>
        <time>2016-06-11T08:02:28Z</time>
      </trkpt>
      <trkpt lat="43.55867" lon="3.12869">
        <ele>506</ele>
        <time>2016-06-11T08:02:40Z</time>
      </trkpt>
      <trkpt lat="43.55877" lon="3.12866">
        <ele>506</ele>
        <time>2016-06-11T08:02:46Z</time>
      </trkpt>
      <trkpt lat="43.55888" lon="3.12864">
        <ele>507</ele>
        <time>2016-06-11T08:02:54Z</time>
      </trkpt>
      <trkpt lat="43.55898" lon="3.12861">
        <ele>508</ele>
        <time>2016-06-11T08:03:02Z</time>
      </trkpt>
      <trkpt lat="43.55908" lon="3.12858">
        <ele>509</ele>
        <time>2016-06-11T08:03:10Z</time>
      </trkpt>
      <trkpt lat="43.55919" lon="3.12859">
        <ele>508</ele>
        <time>2016-06-11T08:03:16Z</time>
      </trkpt>
      <trkpt lat="43.55932" lon="3.12859">
        <ele>508</ele>
        <time>2016-06-11T08:03:23Z</time>
      </trkpt>
      <trkpt lat="43.55942" lon="3.12857">
        <ele>508</ele>
        <time>2016-06-11T08:03:29Z</time>
      </trkpt>
      <trkpt lat="43.55952" lon="3.12854">
        <ele>509</ele>
        <time>2016-06-11T08:03:37Z</time>
      </trkpt>
      <trkpt lat="43.55963" lon="3.12849">
        <ele>511</ele>
        <time>2016-06-11T08:03:49Z</time>
      </trkpt>
      <trkpt lat="43.55974" lon="3.12842">
        <ele>512</ele>
        <time>2016-06-11T08:03:57Z</time>
      </trkpt>
      <trkpt lat="43.55984" lon="3.1284">
        <ele>514</ele>
        <time>2016-06-11T08:04:09Z</time>
      </trkpt>
      <trkpt lat="43.55994" lon="3.1284">
        <ele>514</ele>
        <time>2016-06-11T08:04:15Z</time>
      </trkpt>
      <trkpt lat="43.56004" lon="3.12838">
        <ele>514</ele>
        <time>2016-06-11T08:04:21Z</time>
      </trkpt>
      <trkpt lat="43.56014" lon="3.12837">
        <ele>515</ele>
        <time>2016-06-11T08:04:29Z</time>
      </trkpt>
      <trkpt lat="43.56024" lon="3.12835">
        <ele>516</ele>
        <time>2016-06-11T08:04:37Z</time>
      </trkpt>
      <trkpt lat="43.56034" lon="3.12833">
        <ele>518</ele>
        <time>2016-06-11T08:04:49Z</time>
      </trkpt>
      <trkpt lat="43.56044" lon="3.12828">
        <ele>521</ele>
        <time>2016-06-11T08:05:06Z</time>
      </trkpt>
      <trkpt lat="43.56054" lon="3.12824">
        <ele>522</ele>
        <time>2016-06-11T08:05:15Z</time>
      </trkpt>
      <trkpt lat="43.56065" lon="3.12822">
        <ele>524</ele>
        <time>2016-06-11T08:05:27Z</time>
      </trkpt>
      <trkpt lat="43.56076" lon="3.1282">
        <ele>525</ele>
        <time>2016-06-11T08:05:35Z</time>
      </trkpt>
      <trkpt lat="43.56087" lon="3.12821">
        <ele>526</ele>
        <time>2016-06-11T08:05:43Z</time>
      </trkpt>
      <trkpt lat="43.56097" lon="3.12828">
        <ele>524</ele>
        <time>2016-06-11T08:05:50Z</time>
      </trkpt>
      <trkpt lat="43.56107" lon="3.1283">
        <ele>523</ele>
        <time>2016-06-11T08:05:55Z</time>
      </trkpt>
      <trkpt lat="43.56117" lon="3.12833">
        <ele>522</ele>
        <time>2016-06-11T08:06:01Z</time>
      </trkpt>
      <trkpt lat="43.56128" lon="3.12834">
        <ele>522</ele>
        <time>2016-06-11T08:06:07Z</time>
      </trkpt>
      <trkpt lat="43.56138" lon="3.12834">
        <ele>522</ele>
        <time>2016-06-11T08:06:13Z</time>
      </trkpt>
      <trkpt lat="43.56148" lon="3.12829">
        <ele>524</ele>
        <time>2016-06-11T08:06:25Z</time>
      </trkpt>
      <trkpt lat="43.56158" lon="3.12824">
        <ele>526</ele>
        <time>2016-06-11T08:06:37Z</time>
      </trkpt>
      <trkpt lat="43.56168" lon="3.12819">
        <ele>528</ele>
        <time>2016-06-11T08:06:49Z</time>
      </trkpt>
      <trkpt lat="43.56177" lon="3.1281">
        <ele>532</ele>
        <time>2016-06-11T08:07:12Z</time>
      </trkpt>
      <trkpt lat="43.56186" lon="3.12801">
        <ele>536</ele>
        <time>2016-06-11T08:07:36Z</time>
      </trkpt>
      <trkpt lat="43.56197" lon="3.12798">
        <ele>536</ele>
        <time>2016-06-11T08:07:42Z</time>
      </trkpt>
      <trkpt lat="43.56208" lon="3.128">
        <ele>537</ele>
        <time>2016-06-11T08:07:50Z</time>
      </trkpt>
      <trkpt lat="43.56217" lon="3.12805">
        <ele>537</ele>
        <time>2016-06-11T08:07:56Z</time>
      </trkpt>
      <trkpt lat="43.56228" lon="3.1281">
        <ele>537</ele>
        <time>2016-06-11T08:08:03Z</time>
      </trkpt>
      <trkpt lat="43.56238" lon="3.12811">
        <ele>538</ele>
        <time>2016-06-11T08:08:11Z</time>
      </trkpt>
      <trkpt lat="43.56249" lon="3.12816">
        <ele>537</ele>
        <time>2016-06-11T08:08:16Z</time>
      </trkpt>
      <trkpt lat="43.56258" lon="3.12825">
        <ele>537</ele>
        <time>2016-06-11T08:08:23Z</time>
      </trkpt>
      <trkpt lat="43.56266" lon="3.12834">
        <ele>536</ele>
        <time>2016-06-11T08:08:28Z</time>
      </trkpt>
      <trkpt lat="43.56274" lon="3.12842">
        <ele>535</ele>
        <time>2016-06-11T08:08:33Z</time>
      </trkpt>
      <trkpt lat="43.56284" lon="3.12845">
        <ele>536</ele>
        <time>2016-06-11T08:08:41Z</time>
      </trkpt>
      <trkpt lat="43.56294" lon="3.12848">
        <ele>538</ele>
        <time>2016-06-11T08:08:53Z</time>
      </trkpt>
      <trkpt lat="43.56305" lon="3.12847">
        <ele>540</ele>
        <time>2016-06-11T08:09:05Z</time>
      </trkpt>
      <trkpt lat="43.56315" lon="3.12843">
        <ele>544</ele>
        <time>2016-06-11T08:09:28Z</time>
      </trkpt>
      <trkpt lat="43.56325" lon="3.12837">
        <ele>547</ele>
        <time>2016-06-11T08:09:46Z</time>
      </trkpt>
      <trkpt lat="43.56335" lon="3.12834">
        <ele>551</ele>
        <time>2016-06-11T08:10:09Z</time>
      </trkpt>
      <trkpt lat="43.56345" lon="3.12836">
        <ele>551</ele>
        <time>2016-06-11T08:10:16Z</time>
      </trkpt>
      <trkpt lat="43.56356" lon="3.12841">
        <ele>553</ele>
        <time>2016-06-11T08:10:28Z</time>
      </trkpt>
      <trkpt lat="43.56366" lon="3.12844">
        <ele>554</ele>
        <time>2016-06-11T08:10:36Z</time>
      </trkpt>
      <trkpt lat="43.56376" lon="3.1285">
        <ele>555</ele>
        <time>2016-06-11T08:10:44Z</time>
      </trkpt>
      <trkpt lat="43.56383" lon="3.12861">
        <ele>554</ele>
        <time>2016-06-11T08:10:49Z</time>
      </trkpt>
      <trkpt lat="43.56391" lon="3.12871">
        <ele>553</ele>
        <time>2016-06-11T08:10:54Z</time>
      </trkpt>
      <trkpt lat="43.564" lon="3.12881">
        <ele>553</ele>
        <time>2016-06-11T08:11:01Z</time>
      </trkpt>
      <trkpt lat="43.56408" lon="3.12888">
        <ele>553</ele>
        <time>2016-06-11T08:11:06Z</time>
      </trkpt>
      <trkpt lat="43.56417" lon="3.12894">
        <ele>554</ele>
        <time>2016-06-11T08:11:14Z</time>
      </trkpt>
      <trkpt lat="43.56427" lon="3.12899">
        <ele>554</ele>
        <time>2016-06-11T08:11:20Z</time>
      </trkpt>
      <trkpt lat="43.56437" lon="3.12906">
        <ele>554</ele>
        <time>2016-06-11T08:11:27Z</time>
      </trkpt>
      <trkpt lat="43.56447" lon="3.12912">
        <ele>554</ele>
        <time>2016-06-11T08:11:33Z</time>
      </trkpt>
      <trkpt lat="43.56458" lon="3.12918">
        <ele>554</ele>
        <time>2016-06-11T08:11:39Z</time>
      </trkpt>
      <trkpt lat="43.56467" lon="3.12923">
        <ele>553</ele>
        <time>2016-06-11T08:11:44Z</time>
      </trkpt>
      <trkpt lat="43.56478" lon="3.1293">
        <ele>553</ele>
        <time>2016-06-11T08:11:51Z</time>
      </trkpt>
      <trkpt lat="43.56488" lon="3.12937">
        <ele>553</ele>
        <time>2016-06-11T08:11:57Z</time>
      </trkpt>
      <trkpt lat="43.56498" lon="3.12942">
        <ele>553</ele>
        <time>2016-06-11T08:12:04Z</time>
      </trkpt>
      <trkpt lat="43.56509" lon="3.12948">
        <ele>553</ele>
        <time>2016-06-11T08:12:10Z</time>
      </trkpt>
      <trkpt lat="43.5652" lon="3.12953">
        <ele>553</ele>
        <time>2016-06-11T08:12:17Z</time>
      </trkpt>
      <trkpt lat="43.56531" lon="3.12956">
        <ele>554</ele>
        <time>2016-06-11T08:12:25Z</time>
      </trkpt>
      <trkpt lat="43.5654" lon="3.12962">
        <ele>554</ele>
        <time>2016-06-11T08:12:31Z</time>
      </trkpt>
      <trkpt lat="43.5655" lon="3.12965">
        <ele>554</ele>
        <time>2016-06-11T08:12:37Z</time>
      </trkpt>
      <trkpt lat="43.5656" lon="3.1297">
        <ele>554</ele>
        <time>2016-06-11T08:12:43Z</time>
      </trkpt>
      <trkpt lat="43.56571" lon="3.12972">
        <ele>555</ele>
        <time>2016-06-11T08:12:52Z</time>
      </trkpt>
      <trkpt lat="43.56582" lon="3.12976">
        <ele>554</ele>
        <time>2016-06-11T08:12:57Z</time>
      </trkpt>
      <trkpt lat="43.56592" lon="3.12981">
        <ele>554</ele>
        <time>2016-06-11T08:13:03Z</time>
      </trkpt>
      <trkpt lat="43.56592" lon="3.1298">
        <ele>554</ele>
        <time>2016-06-11T08:13:04Z</time>
      </trkpt>
      <trkpt lat="43.56598" lon="3.12984">
        <ele>554</ele>
        <time>2016-06-11T08:13:08Z</time>
      </trkpt>
      <trkpt lat="43.566" lon="3.12986">
        <ele>554</ele>
        <time>2016-06-11T08:13:10Z</time>
      </trkpt>
      <trkpt lat="43.56604" lon="3.12986">
        <ele>554</ele>
        <time>2016-06-11T08:13:12Z</time>
      </trkpt>
      <trkpt lat="43.56607" lon="3.12987">
        <ele>554</ele>
        <time>2016-06-11T08:13:13Z</time>
      </trkpt>
      <trkpt lat="43.56612" lon="3.12986">
        <ele>554</ele>
        <time>2016-06-11T08:13:16Z</time>
      </trkpt>
      <trkpt lat="43.56632" lon="3.1299">
        <ele>555</ele>
        <time>2016-06-11T08:13:29Z</time>
      </trkpt>
      <trkpt lat="43.56642" lon="3.12975">
        <ele>556</ele>
        <time>2016-06-11T08:13:39Z</time>
      </trkpt>
      <trkpt lat="43.56653" lon="3.12958">
        <ele>556</ele>
        <time>2016-06-11T08:13:49Z</time>
      </trkpt>
      <trkpt lat="43.56654" lon="3.12934">
        <ele>556</ele>
        <time>2016-06-11T08:13:58Z</time>
      </trkpt>
      <trkpt lat="43.56659" lon="3.12894">
        <ele>557</ele>
        <time>2016-06-11T08:14:17Z</time>
      </trkpt>
      <trkpt lat="43.56663" lon="3.12866">
        <ele>553</ele>
        <time>2016-06-11T08:14:31Z</time>
      </trkpt>
      <trkpt lat="43.56691" lon="3.12831">
        <ele>546</ele>
        <time>2016-06-11T08:14:55Z</time>
      </trkpt>
      <trkpt lat="43.56657" lon="3.12823">
        <ele>548</ele>
        <time>2016-06-11T08:15:18Z</time>
      </trkpt>
      <trkpt lat="43.56634" lon="3.12808">
        <ele>551</ele>
        <time>2016-06-11T08:15:39Z</time>
      </trkpt>
      <trkpt lat="43.5662" lon="3.12778">
        <ele>548</ele>
        <time>2016-06-11T08:15:53Z</time>
      </trkpt>
      <trkpt lat="43.56589" lon="3.12737">
        <ele>544</ele>
        <time>2016-06-11T08:16:14Z</time>
      </trkpt>
      <trkpt lat="43.56539" lon="3.12593">
        <ele>543</ele>
        <time>2016-06-11T08:17:18Z</time>
      </trkpt>
      <trkpt lat="43.56517" lon="3.12505">
        <ele>543</ele>
        <time>2016-06-11T08:17:57Z</time>
      </trkpt>
      <trkpt lat="43.56514" lon="3.12353">
        <ele>559</ele>
        <time>2016-06-11T08:19:40Z</time>
      </trkpt>
      <trkpt lat="43.56469" lon="3.12244">
        <ele>573</ele>
        <time>2016-06-11T08:21:08Z</time>
      </trkpt>
      <trkpt lat="43.56397" lon="3.12162">
        <ele>593</ele>
        <time>2016-06-11T08:23:09Z</time>
      </trkpt>
      <trkpt lat="43.56348" lon="3.12141">
        <ele>605</ele>
        <time>2016-06-11T08:24:21Z</time>
      </trkpt>
      <trkpt lat="43.56313" lon="3.1216">
        <ele>612</ele>
        <time>2016-06-11T08:25:04Z</time>
      </trkpt>
      <trkpt lat="43.56267" lon="3.12136">
        <ele>622</ele>
        <time>2016-06-11T08:26:04Z</time>
      </trkpt>
      <trkpt lat="43.56245" lon="3.121">
        <ele>629</ele>
        <time>2016-06-11T08:26:46Z</time>
      </trkpt>
      <trkpt lat="43.56223" lon="3.12093">
        <ele>633</ele>
        <time>2016-06-11T08:27:10Z</time>
      </trkpt>
      <trkpt lat="43.56212" lon="3.12076">
        <ele>636</ele>
        <time>2016-06-11T08:27:28Z</time>
      </trkpt>
      <trkpt lat="43.56197" lon="3.12068">
        <ele>638</ele>
        <time>2016-06-11T08:27:42Z</time>
      </trkpt>
      <trkpt lat="43.56194" lon="3.12038">
        <ele>641</ele>
        <time>2016-06-11T08:28:02Z</time>
      </trkpt>
      <trkpt lat="43.56063" lon="3.11907">
        <ele>649</ele>
        <time>2016-06-11T08:29:45Z</time>
      </trkpt>
      <trkpt lat="43.56026" lon="3.11853">
        <ele>652</ele>
        <time>2016-06-11T08:30:20Z</time>
      </trkpt>
      <trkpt lat="43.55951" lon="3.11812">
        <ele>642</ele>
        <time>2016-06-11T08:31:03Z</time>
      </trkpt>
      <trkpt lat="43.55911" lon="3.1169">
        <ele>630</ele>
        <time>2016-06-11T08:31:54Z</time>
      </trkpt>
      <trkpt lat="43.55875" lon="3.11619">
        <ele>639</ele>
        <time>2016-06-11T08:32:53Z</time>
      </trkpt>
      <trkpt lat="43.55817" lon="3.11578">
        <ele>650</ele>
        <time>2016-06-11T08:34:00Z</time>
      </trkpt>
      <trkpt lat="43.55782" lon="3.11557">
        <ele>649</ele>
        <time>2016-06-11T08:34:20Z</time>
      </trkpt>
      <trkpt lat="43.55744" lon="3.1152">
        <ele>649</ele>
        <time>2016-06-11T08:34:47Z</time>
      </trkpt>
      <trkpt lat="43.55754" lon="3.11447">
        <ele>657</ele>
        <time>2016-06-11T08:35:38Z</time>
      </trkpt>
      <trkpt lat="43.55779" lon="3.11415">
        <ele>655</ele>
        <time>2016-06-11T08:35:54Z</time>
      </trkpt>
      <trkpt lat="43.55735" lon="3.11342">
        <ele>653</ele>
        <time>2016-06-11T08:36:30Z</time>
      </trkpt>
      <trkpt lat="43.55737" lon="3.11244">
        <ele>659</ele>
        <time>2016-06-11T08:37:22Z</time>
      </trkpt>
      <trkpt lat="43.55695" lon="3.1119">
        <ele>665</ele>
        <time>2016-06-11T08:38:08Z</time>
      </trkpt>
      <trkpt lat="43.55679" lon="3.11117">
        <ele>674</ele>
        <time>2016-06-11T08:39:03Z</time>
      </trkpt>
      <trkpt lat="43.55688" lon="3.10995">
        <ele>689</ele>
        <time>2016-06-11T08:40:35Z</time>
      </trkpt>
      <trkpt lat="43.55673" lon="3.10965">
        <ele>689</ele>
        <time>2016-06-11T08:40:50Z</time>
      </trkpt>
      <trkpt lat="43.55657" lon="3.10892">
        <ele>689</ele>
        <time>2016-06-11T08:41:22Z</time>
      </trkpt>
      <trkpt lat="43.55645" lon="3.10842">
        <ele>682</ele>
        <time>2016-06-11T08:41:47Z</time>
      </trkpt>
      <trkpt lat="43.55648" lon="3.10804">
        <ele>678</ele>
        <time>2016-06-11T08:42:02Z</time>
      </trkpt>
      <trkpt lat="43.55626" lon="3.10711">
        <ele>667</ele>
        <time>2016-06-11T08:42:44Z</time>
      </trkpt>
      <trkpt lat="43.55632" lon="3.10673">
        <ele>664</ele>
        <time>2016-06-11T08:42:58Z</time>
      </trkpt>
      <trkpt lat="43.55789" lon="3.10681">
        <ele>641</ele>
        <time>2016-06-11T08:44:28Z</time>
      </trkpt>
      <trkpt lat="43.55836" lon="3.10664">
        <ele>634</ele>
        <time>2016-06-11T08:44:56Z</time>
      </trkpt>
      <trkpt lat="43.55892" lon="3.10656">
        <ele>625</ele>
        <time>2016-06-11T08:45:29Z</time>
      </trkpt>
      <trkpt lat="43.55943" lon="3.10638">
        <ele>619</ele>
        <time>2016-06-11T08:45:56Z</time>
      </trkpt>
      <trkpt lat="43.55992" lon="3.10604">
        <ele>614</ele>
        <time>2016-06-11T08:46:23Z</time>
      </trkpt>
      <trkpt lat="43.56027" lon="3.10598">
        <ele>610</ele>
        <time>2016-06-11T08:46:41Z</time>
      </trkpt>
      <trkpt lat="43.56069" lon="3.10535">
        <ele>605</ele>
        <time>2016-06-11T08:47:12Z</time>
      </trkpt>
      <trkpt lat="43.56099" lon="3.10478">
        <ele>591</ele>
        <time>2016-06-11T08:47:58Z</time>
      </trkpt>
      <trkpt lat="43.56138" lon="3.10394">
        <ele>572</ele>
        <time>2016-06-11T08:49:00Z</time>
      </trkpt>
      <trkpt lat="43.56113" lon="3.10239">
        <ele>537</ele>
        <time>2016-06-11T08:50:58Z</time>
      </trkpt>
      <trkpt lat="43.56124" lon="3.10199">
        <ele>528</ele>
        <time>2016-06-11T08:51:27Z</time>
      </trkpt>
      <trkpt lat="43.56186" lon="3.1022">
        <ele>523</ele>
        <time>2016-06-11T08:51:58Z</time>
      </trkpt>
      <trkpt lat="43.56279" lon="3.10216">
        <ele>518</ele>
        <time>2016-06-11T08:52:44Z</time>
      </trkpt>
      <trkpt lat="43.5631" lon="3.10199">
        <ele>512</ele>
        <time>2016-06-11T08:53:05Z</time>
      </trkpt>
      <trkpt lat="43.56408" lon="3.10181">
        <ele>496</ele>
        <time>2016-06-11T08:54:05Z</time>
      </trkpt>
      <trkpt lat="43.56452" lon="3.10179">
        <ele>491</ele>
        <time>2016-06-11T08:54:27Z</time>
      </trkpt>
      <trkpt lat="43.56497" lon="3.10166">
        <ele>487</ele>
        <time>2016-06-11T08:54:50Z</time>
      </trkpt>
      <trkpt lat="43.56545" lon="3.10171">
        <ele>471</ele>
        <time>2016-06-11T08:55:45Z</time>
      </trkpt>
      <trkpt lat="43.56564" lon="3.10113">
        <ele>474</ele>
        <time>2016-06-11T08:56:16Z</time>
      </trkpt>
      <trkpt lat="43.56589" lon="3.10074">
        <ele>478</ele>
        <time>2016-06-11T08:56:46Z</time>
      </trkpt>
      <trkpt lat="43.56638" lon="3.10057">
        <ele>469</ele>
        <time>2016-06-11T08:57:19Z</time>
      </trkpt>
      <trkpt lat="43.5668" lon="3.10063">
        <ele>463</ele>
        <time>2016-06-11T08:57:42Z</time>
      </trkpt>
      <trkpt lat="43.56724" lon="3.10085">
        <ele>457</ele>
        <time>2016-06-11T08:58:08Z</time>
      </trkpt>
      <trkpt lat="43.56763" lon="3.10087">
        <ele>453</ele>
        <time>2016-06-11T08:58:27Z</time>
      </trkpt>
      <trkpt lat="43.568" lon="3.10117">
        <ele>436</ele>
        <time>2016-06-11T08:59:26Z</time>
      </trkpt>
      <trkpt lat="43.56831" lon="3.101">
        <ele>434</ele>
        <time>2016-06-11T08:59:42Z</time>
      </trkpt>
      <trkpt lat="43.56872" lon="3.10059">
        <ele>431</ele>
        <time>2016-06-11T09:00:07Z</time>
      </trkpt>
      <trkpt lat="43.56897" lon="3.10074">
        <ele>429</ele>
        <time>2016-06-11T09:00:20Z</time>
      </trkpt>
      <trkpt lat="43.56932" lon="3.10091">
        <ele>428</ele>
        <time>2016-06-11T09:00:39Z</time>
      </trkpt>
      <trkpt lat="43.56974" lon="3.10117">
        <ele>419</ele>
        <time>2016-06-11T09:01:11Z</time>
      </trkpt>
      <trkpt lat="43.56998" lon="3.10151">
        <ele>413</ele>
        <time>2016-06-11T09:01:32Z</time>
      </trkpt>
      <trkpt lat="43.57027" lon="3.10169">
        <ele>406</ele>
        <time>2016-06-11T09:01:56Z</time>
      </trkpt>
      <trkpt lat="43.5706" lon="3.10132">
        <ele>410</ele>
        <time>2016-06-11T09:02:28Z</time>
      </trkpt>
      <trkpt lat="43.57088" lon="3.10081">
        <ele>416</ele>
        <time>2016-06-11T09:03:09Z</time>
      </trkpt>
      <trkpt lat="43.57117" lon="3.1007">
        <ele>410</ele>
        <time>2016-06-11T09:03:30Z</time>
      </trkpt>
      <trkpt lat="43.57152" lon="3.10048">
        <ele>403</ele>
        <time>2016-06-11T09:03:55Z</time>
      </trkpt>
      <trkpt lat="43.57189" lon="3.1002">
        <ele>399</ele>
        <time>2016-06-11T09:04:16Z</time>
      </trkpt>
      <trkpt lat="43.57212" lon="3.09999">
        <ele>397</ele>
        <time>2016-06-11T09:04:29Z</time>
      </trkpt>
      <trkpt lat="43.5722" lon="3.09959">
        <ele>394</ele>
        <time>2016-06-11T09:04:44Z</time>
      </trkpt>
      <trkpt lat="43.57246" lon="3.09921">
        <ele>390</ele>
        <time>2016-06-11T09:05:03Z</time>
      </trkpt>
      <trkpt lat="43.57272" lon="3.09865">
        <ele>386</ele>
        <time>2016-06-11T09:05:27Z</time>
      </trkpt>
      <trkpt lat="43.57287" lon="3.09838">
        <ele>384</ele>
        <time>2016-06-11T09:05:39Z</time>
      </trkpt>
      <trkpt lat="43.57346" lon="3.09671">
        <ele>370</ele>
        <time>2016-06-11T09:06:47Z</time>
      </trkpt>
      <trkpt lat="43.57362" lon="3.09611">
        <ele>366</ele>
        <time>2016-06-11T09:07:09Z</time>
      </trkpt>
      <trkpt lat="43.5739" lon="3.09524">
        <ele>359</ele>
        <time>2016-06-11T09:07:44Z</time>
      </trkpt>
      <trkpt lat="43.57418" lon="3.09402">
        <ele>350</ele>
        <time>2016-06-11T09:08:30Z</time>
      </trkpt>
      <trkpt lat="43.57455" lon="3.09418">
        <ele>346</ele>
        <time>2016-06-11T09:08:50Z</time>
      </trkpt>
      <trkpt lat="43.57489" lon="3.09418">
        <ele>343</ele>
        <time>2016-06-11T09:09:06Z</time>
      </trkpt>
      <trkpt lat="43.57537" lon="3.09435">
        <ele>330</ele>
        <time>2016-06-11T09:09:49Z</time>
      </trkpt>
      <trkpt lat="43.57577" lon="3.09437">
        <ele>320</ele>
        <time>2016-06-11T09:10:22Z</time>
      </trkpt>
      <trkpt lat="43.57604" lon="3.09458">
        <ele>312</ele>
        <time>2016-06-11T09:10:49Z</time>
      </trkpt>
      <trkpt lat="43.57624" lon="3.0951">
        <ele>300</ele>
        <time>2016-06-11T09:11:28Z</time>
      </trkpt>
      <trkpt lat="43.57655" lon="3.09514">
        <ele>292</ele>
        <time>2016-06-11T09:11:55Z</time>
      </trkpt>
      <trkpt lat="43.57672" lon="3.09465">
        <ele>288</ele>
        <time>2016-06-11T09:12:15Z</time>
      </trkpt>
      <trkpt lat="43.57716" lon="3.09448">
        <ele>284</ele>
        <time>2016-06-11T09:12:37Z</time>
      </trkpt>
      <trkpt lat="43.5773" lon="3.0944">
        <ele>282</ele>
        <time>2016-06-11T09:12:45Z</time>
      </trkpt>
      <trkpt lat="43.57743" lon="3.09431">
        <ele>281</ele>
        <time>2016-06-11T09:12:52Z</time>
      </trkpt>
      <trkpt lat="43.57751" lon="3.09421">
        <ele>281</ele>
        <time>2016-06-11T09:12:58Z</time>
      </trkpt>
      <trkpt lat="43.57762" lon="3.09406">
        <ele>282</ele>
        <time>2016-06-11T09:13:09Z</time>
      </trkpt>
      <trkpt lat="43.57811" lon="3.0939">
        <ele>277</ele>
        <time>2016-06-11T09:13:34Z</time>
      </trkpt>
      <trkpt lat="43.57839" lon="3.09379">
        <ele>275</ele>
        <time>2016-06-11T09:13:48Z</time>
      </trkpt>
      <trkpt lat="43.57861" lon="3.09354">
        <ele>273</ele>
        <time>2016-06-11T09:14:02Z</time>
      </trkpt>
      <trkpt lat="43.57901" lon="3.09323">
        <ele>270</ele>
        <time>2016-06-11T09:14:24Z</time>
      </trkpt>
      <trkpt lat="43.57937" lon="3.09294">
        <ele>263</ele>
        <time>2016-06-11T09:14:50Z</time>
      </trkpt>
      <trkpt lat="43.57952" lon="3.09296">
        <ele>261</ele>
        <time>2016-06-11T09:14:58Z</time>
      </trkpt>
      <trkpt lat="43.57962" lon="3.09305">
        <ele>260</ele>
        <time>2016-06-11T09:15:04Z</time>
      </trkpt>
      <trkpt lat="43.57971" lon="3.09304">
        <ele>259</ele>
        <time>2016-06-11T09:15:08Z</time>
      </trkpt>
      <trkpt lat="43.57984" lon="3.09278">
        <ele>258</ele>
        <time>2016-06-11T09:15:20Z</time>
      </trkpt>
      <trkpt lat="43.57997" lon="3.09227">
        <ele>254</ele>
        <time>2016-06-11T09:15:39Z</time>
      </trkpt>
      <trkpt lat="43.58006" lon="3.09171">
        <ele>250</ele>
        <time>2016-06-11T09:16:00Z</time>
      </trkpt>
      <trkpt lat="43.58011" lon="3.09164">
        <ele>248</ele>
        <time>2016-06-11T09:16:07Z</time>
      </trkpt>
      <trkpt lat="43.58016" lon="3.09167">
        <ele>247</ele>
        <time>2016-06-11T09:16:10Z</time>
      </trkpt>
      <trkpt lat="43.58026" lon="3.09247">
        <ele>247</ele>
        <time>2016-06-11T09:16:44Z</time>
      </trkpt>
      <trkpt lat="43.5803" lon="3.09272">
        <ele>248</ele>
        <time>2016-06-11T09:16:56Z</time>
      </trkpt>
      <trkpt lat="43.58034" lon="3.09267">
        <ele>247</ele>
        <time>2016-06-11T09:16:59Z</time>
      </trkpt>
      <trkpt lat="43.58041" lon="3.09218">
        <ele>245</ele>
        <time>2016-06-11T09:17:17Z</time>
      </trkpt>
      <trkpt lat="43.58051" lon="3.09187">
        <ele>240</ele>
        <time>2016-06-11T09:17:34Z</time>
      </trkpt>
      <trkpt lat="43.58053" lon="3.0917">
        <ele>239</ele>
        <time>2016-06-11T09:17:40Z</time>
      </trkpt>
      <trkpt lat="43.58054" lon="3.09129">
        <ele>233</ele>
        <time>2016-06-11T09:18:01Z</time>
      </trkpt>
      <trkpt lat="43.58058" lon="3.09126">
        <ele>233</ele>
        <time>2016-06-11T09:18:04Z</time>
      </trkpt>
      <trkpt lat="43.58067" lon="3.09167">
        <ele>235</ele>
        <time>2016-06-11T09:18:24Z</time>
      </trkpt>
      <trkpt lat="43.5807" lon="3.09193">
        <ele>235</ele>
        <time>2016-06-11T09:18:35Z</time>
      </trkpt>
      <trkpt lat="43.58074" lon="3.09247">
        <ele>235</ele>
        <time>2016-06-11T09:18:58Z</time>
      </trkpt>
      <trkpt lat="43.58074" lon="3.09275">
        <ele>236</ele>
        <time>2016-06-11T09:19:11Z</time>
      </trkpt>
      <trkpt lat="43.58065" lon="3.09296">
        <ele>237</ele>
        <time>2016-06-11T09:19:22Z</time>
      </trkpt>
      <trkpt lat="43.58067" lon="3.09305">
        <ele>235</ele>
        <time>2016-06-11T09:19:29Z</time>
      </trkpt>
      <trkpt lat="43.58077" lon="3.09319">
        <ele>233</ele>
        <time>2016-06-11T09:19:37Z</time>
      </trkpt>
      <trkpt lat="43.58088" lon="3.09353">
        <ele>227</ele>
        <time>2016-06-11T09:19:57Z</time>
      </trkpt>
      <trkpt lat="43.58089" lon="3.09367">
        <ele>226</ele>
        <time>2016-06-11T09:20:02Z</time>
      </trkpt>
      <trkpt lat="43.5808" lon="3.09405">
        <ele>224</ele>
        <time>2016-06-11T09:20:16Z</time>
      </trkpt>
      <trkpt lat="43.58083" lon="3.09411">
        <ele>223</ele>
        <time>2016-06-11T09:20:20Z</time>
      </trkpt>
      <trkpt lat="43.58087" lon="3.09406">
        <ele>222</ele>
        <time>2016-06-11T09:20:23Z</time>
      </trkpt>
      <trkpt lat="43.58093" lon="3.09386">
        <ele>221</ele>
        <time>2016-06-11T09:20:31Z</time>
      </trkpt>
      <trkpt lat="43.58105" lon="3.09366">
        <ele>221</ele>
        <time>2016-06-11T09:20:42Z</time>
      </trkpt>
      <trkpt lat="43.58112" lon="3.09343">
        <ele>222</ele>
        <time>2016-06-11T09:20:53Z</time>
      </trkpt>
      <trkpt lat="43.58112" lon="3.09334">
        <ele>222</ele>
        <time>2016-06-11T09:20:57Z</time>
      </trkpt>
      <trkpt lat="43.58102" lon="3.09307">
        <ele>226</ele>
        <time>2016-06-11T09:21:21Z</time>
      </trkpt>
      <trkpt lat="43.58103" lon="3.09296">
        <ele>225</ele>
        <time>2016-06-11T09:21:26Z</time>
      </trkpt>
      <trkpt lat="43.58109" lon="3.09289">
        <ele>225</ele>
        <time>2016-06-11T09:21:30Z</time>
      </trkpt>
      <trkpt lat="43.58138" lon="3.09279">
        <ele>219</ele>
        <time>2016-06-11T09:21:51Z</time>
      </trkpt>
      <trkpt lat="43.58174" lon="3.09274">
        <ele>212</ele>
        <time>2016-06-11T09:22:15Z</time>
      </trkpt>
      <trkpt lat="43.58189" lon="3.09276">
        <ele>209</ele>
        <time>2016-06-11T09:22:26Z</time>
      </trkpt>
      <trkpt lat="43.582" lon="3.09289">
        <ele>207</ele>
        <time>2016-06-11T09:22:34Z</time>
      </trkpt>
      <trkpt lat="43.58211" lon="3.0931">
        <ele>204</ele>
        <time>2016-06-11T09:22:45Z</time>
      </trkpt>
      <trkpt lat="43.58218" lon="3.0934">
        <ele>202</ele>
        <time>2016-06-11T09:22:56Z</time>
      </trkpt>
      <trkpt lat="43.58224" lon="3.09352">
        <ele>200</ele>
        <time>2016-06-11T09:23:03Z</time>
      </trkpt>
      <trkpt lat="43.58231" lon="3.09347">
        <ele>199</ele>
        <time>2016-06-11T09:23:07Z</time>
      </trkpt>
      <trkpt lat="43.58245" lon="3.09323">
        <ele>198</ele>
        <time>2016-06-11T09:23:18Z</time>
      </trkpt>
      <trkpt lat="43.58251" lon="3.09313">
        <ele>198</ele>
        <time>2016-06-11T09:23:24Z</time>
      </trkpt>
      <trkpt lat="43.58259" lon="3.09309">
        <ele>197</ele>
        <time>2016-06-11T09:23:28Z</time>
      </trkpt>
      <trkpt lat="43.58263" lon="3.09316">
        <ele>196</ele>
        <time>2016-06-11T09:23:32Z</time>
      </trkpt>
      <trkpt lat="43.58256" lon="3.09344">
        <ele>195</ele>
        <time>2016-06-11T09:23:43Z</time>
      </trkpt>
      <trkpt lat="43.58251" lon="3.09393">
        <ele>191</ele>
        <time>2016-06-11T09:24:01Z</time>
      </trkpt>
      <trkpt lat="43.58251" lon="3.09414">
        <ele>190</ele>
        <time>2016-06-11T09:24:08Z</time>
      </trkpt>
      <trkpt lat="43.58255" lon="3.09415">
        <ele>190</ele>
        <time>2016-06-11T09:24:11Z</time>
      </trkpt>
      <trkpt lat="43.58268" lon="3.09386">
        <ele>190</ele>
        <time>2016-06-11T09:24:25Z</time>
      </trkpt>
      <trkpt lat="43.5829" lon="3.09348">
        <ele>188</ele>
        <time>2016-06-11T09:24:42Z</time>
      </trkpt>
      <trkpt lat="43.58323" lon="3.09252">
        <ele>185</ele>
        <time>2016-06-11T09:25:21Z</time>
      </trkpt>
      <trkpt lat="43.58336" lon="3.09192">
        <ele>181</ele>
        <time>2016-06-11T09:25:43Z</time>
      </trkpt>
      <trkpt lat="43.58344" lon="3.09148">
        <ele>179</ele>
        <time>2016-06-11T09:25:59Z</time>
      </trkpt>
      <trkpt lat="43.58351" lon="3.09136">
        <ele>178</ele>
        <time>2016-06-11T09:26:04Z</time>
      </trkpt>
      <trkpt lat="43.58344" lon="3.08975">
        <ele>175</ele>
        <time>2016-06-11T09:27:06Z</time>
      </trkpt>
      <trkpt lat="43.58347" lon="3.08946">
        <ele>175</ele>
        <time>2016-06-11T09:27:18Z</time>
      </trkpt>
      <trkpt lat="43.5836" lon="3.0889">
        <ele>175</ele>
        <time>2016-06-11T09:27:43Z</time>
      </trkpt>
      <trkpt lat="43.58376" lon="3.08812">
        <ele>175</ele>
        <time>2016-06-11T09:28:16Z</time>
      </trkpt>
      <trkpt lat="43.58375" lon="3.08778">
        <ele>175</ele>
        <time>2016-06-11T09:28:30Z</time>
      </trkpt>
      <trkpt lat="43.58369" lon="3.08717">
        <ele>176</ele>
        <time>2016-06-11T09:28:57Z</time>
      </trkpt>
      <trkpt lat="43.58367" lon="3.08682">
        <ele>176</ele>
        <time>2016-06-11T09:29:12Z</time>
      </trkpt>
      <trkpt lat="43.58378" lon="3.08633">
        <ele>177</ele>
        <time>2016-06-11T09:29:34Z</time>
      </trkpt>
      <trkpt lat="43.5839" lon="3.08591">
        <ele>177</ele>
        <time>2016-06-11T09:29:53Z</time>
      </trkpt>
      <trkpt lat="43.58406" lon="3.08522">
        <ele>178</ele>
        <time>2016-06-11T09:30:24Z</time>
      </trkpt>
      <trkpt lat="43.58433" lon="3.08435">
        <ele>178</ele>
        <time>2016-06-11T09:31:03Z</time>
      </trkpt>
      <trkpt lat="43.58469" lon="3.08348">
        <ele>179</ele>
        <time>2016-06-11T09:31:46Z</time>
      </trkpt>
      <trkpt lat="43.58561" lon="3.08351">
        <ele>171</ele>
        <time>2016-06-11T09:32:31Z</time>
      </trkpt>
      <trkpt lat="43.58585" lon="3.08349">
        <ele>170</ele>
        <time>2016-06-11T09:32:43Z</time>
      </trkpt>
      <trkpt lat="43.58627" lon="3.08346">
        <ele>170</ele>
        <time>2016-06-11T09:33:08Z</time>
      </trkpt>
      <trkpt lat="43.5863" lon="3.08341">
        <ele>171</ele>
        <time>2016-06-11T09:33:14Z</time>
      </trkpt>
      <trkpt lat="43.58636" lon="3.08334">
        <ele>171</ele>
        <time>2016-06-11T09:33:18Z</time>
      </trkpt>
      <trkpt lat="43.5865" lon="3.08332">
        <ele>172</ele>
        <time>2016-06-11T09:33:28Z</time>
      </trkpt>
      <trkpt lat="43.58677" lon="3.08324">
        <ele>173</ele>
        <time>2016-06-11T09:33:45Z</time>
      </trkpt>
      <trkpt lat="43.58681" lon="3.08319">
        <ele>173</ele>
        <time>2016-06-11T09:33:48Z</time>
      </trkpt>
      <trkpt lat="43.58726" lon="3.08314">
        <ele>177</ele>
        <time>2016-06-11T09:34:21Z</time>
      </trkpt>
      <trkpt lat="43.58737" lon="3.08314">
        <ele>177</ele>
        <time>2016-06-11T09:34:28Z</time>
      </trkpt>
      <trkpt lat="43.58754" lon="3.08314">
        <ele>179</ele>
        <time>2016-06-11T09:34:42Z</time>
      </trkpt>
      <trkpt lat="43.58789" lon="3.08314">
        <ele>179</ele>
        <time>2016-06-11T09:35:02Z</time>
      </trkpt>
      <trkpt lat="43.58792" lon="3.08303">
        <ele>180</ele>
        <time>2016-06-11T09:35:09Z</time>
      </trkpt>
      <trkpt lat="43.58797" lon="3.08295">
        <ele>180</ele>
        <time>2016-06-11T09:35:14Z</time>
      </trkpt>
      <trkpt lat="43.58822" lon="3.0829">
        <ele>181</ele>
        <time>2016-06-11T09:35:29Z</time>
      </trkpt>
      <trkpt lat="43.58847" lon="3.08292">
        <ele>183</ele>
        <time>2016-06-11T09:35:47Z</time>
      </trkpt>
      <trkpt lat="43.5887" lon="3.08307">
        <ele>183</ele>
        <time>2016-06-11T09:36:02Z</time>
      </trkpt>
      <trkpt lat="43.58902" lon="3.08317">
        <ele>184</ele>
        <time>2016-06-11T09:36:22Z</time>
      </trkpt>
      <trkpt lat="43.58931" lon="3.08318">
        <ele>184</ele>
        <time>2016-06-11T09:36:38Z</time>
      </trkpt>
      <trkpt lat="43.5895" lon="3.08309">
        <ele>185</ele>
        <time>2016-06-11T09:36:51Z</time>
      </trkpt>
      <trkpt lat="43.58972" lon="3.08304">
        <ele>186</ele>
        <time>2016-06-11T09:37:05Z</time>
      </trkpt>
      <trkpt lat="43.58994" lon="3.08303">
        <ele>186</ele>
        <time>2016-06-11T09:37:18Z</time>
      </trkpt>
      <trkpt lat="43.5904" lon="3.08297">
        <ele>187</ele>
        <time>2016-06-11T09:37:46Z</time>
      </trkpt>
      <trkpt lat="43.5907" lon="3.08292">
        <ele>187</ele>
        <time>2016-06-11T09:38:03Z</time>
      </trkpt>
      <trkpt lat="43.59092" lon="3.08287">
        <ele>188</ele>
        <time>2016-06-11T09:38:17Z</time>
      </trkpt>
      <trkpt lat="43.59113" lon="3.08289">
        <ele>187</ele>
        <time>2016-06-11T09:38:27Z</time>
      </trkpt>
      <trkpt lat="43.59151" lon="3.08291">
        <ele>186</ele>
        <time>2016-06-11T09:38:47Z</time>
      </trkpt>
      <trkpt lat="43.59174" lon="3.08283">
        <ele>187</ele>
        <time>2016-06-11T09:39:02Z</time>
      </trkpt>
      <trkpt lat="43.59227" lon="3.08231">
        <ele>190</ele>
        <time>2016-06-11T09:39:43Z</time>
      </trkpt>
      <trkpt lat="43.59279" lon="3.08207">
        <ele>190</ele>
        <time>2016-06-11T09:40:15Z</time>
      </trkpt>
      <trkpt lat="43.5929" lon="3.08209">
        <ele>190</ele>
        <time>2016-06-11T09:40:21Z</time>
      </trkpt>
      <trkpt lat="43.593" lon="3.08205">
        <ele>190</ele>
        <time>2016-06-11T09:40:27Z</time>
      </trkpt>
      <trkpt lat="43.59304" lon="3.08201">
        <ele>190</ele>
        <time>2016-06-11T09:40:30Z</time>
      </trkpt>
      <trkpt lat="43.59312" lon="3.08197">
        <ele>189</ele>
        <time>2016-06-11T09:40:34Z</time>
      </trkpt>
      <trkpt lat="43.59325" lon="3.08196">
        <ele>189</ele>
        <time>2016-06-11T09:40:42Z</time>
      </trkpt>
      <trkpt lat="43.5934" lon="3.08198">
        <ele>188</ele>
        <time>2016-06-11T09:40:49Z</time>
      </trkpt>
      <trkpt lat="43.59362" lon="3.08185">
        <ele>188</ele>
        <time>2016-06-11T10:01:03Z</time>
      </trkpt>
      <trkpt lat="43.59367" lon="3.08179">
        <ele>188</ele>
        <time>2016-06-11T10:01:07Z</time>
      </trkpt>
      <trkpt lat="43.59378" lon="3.08159">
        <ele>188</ele>
        <time>2016-06-11T10:01:17Z</time>
      </trkpt>
      <trkpt lat="43.59373" lon="3.0815">
        <ele>189</ele>
        <time>2016-06-11T10:01:24Z</time>
      </trkpt>
      <trkpt lat="43.5939" lon="3.08153">
        <ele>189</ele>
        <time>2016-06-11T10:01:34Z</time>
      </trkpt>
      <trkpt lat="43.59392" lon="3.08119">
        <ele>191</ele>
        <time>2016-06-11T10:01:52Z</time>
      </trkpt>
      <trkpt lat="43.59396" lon="3.08094">
        <ele>191</ele>
        <time>2016-06-11T10:02:02Z</time>
      </trkpt>
      <trkpt lat="43.59452" lon="3.08091">
        <ele>194</ele>
        <time>2016-06-11T10:02:38Z</time>
      </trkpt>
      <trkpt lat="43.5945" lon="3.08056">
        <ele>196</ele>
        <time>2016-06-11T10:02:56Z</time>
      </trkpt>
      <trkpt lat="43.5946" lon="3.08045">
        <ele>198</ele>
        <time>2016-06-11T10:03:09Z</time>
      </trkpt>
      <trkpt lat="43.59476" lon="3.08021">
        <ele>201</ele>
        <time>2016-06-11T10:03:29Z</time>
      </trkpt>
      <trkpt lat="43.59486" lon="3.07994">
        <ele>204</ele>
        <time>2016-06-11T10:03:49Z</time>
      </trkpt>
      <trkpt lat="43.59481" lon="3.07955">
        <ele>211</ele>
        <time>2016-06-11T10:04:31Z</time>
      </trkpt>
      <trkpt lat="43.59472" lon="3.07915">
        <ele>219</ele>
        <time>2016-06-11T10:05:18Z</time>
      </trkpt>
      <trkpt lat="43.59465" lon="3.07902">
        <ele>222</ele>
        <time>2016-06-11T10:05:35Z</time>
      </trkpt>
      <trkpt lat="43.59446" lon="3.0789">
        <ele>225</ele>
        <time>2016-06-11T10:05:55Z</time>
      </trkpt>
      <trkpt lat="43.59433" lon="3.07887">
        <ele>228</ele>
        <time>2016-06-11T10:06:13Z</time>
      </trkpt>
      <trkpt lat="43.59427" lon="3.07882">
        <ele>230</ele>
        <time>2016-06-11T10:06:25Z</time>
      </trkpt>
      <trkpt lat="43.59426" lon="3.07863">
        <ele>236</ele>
        <time>2016-06-11T10:07:01Z</time>
      </trkpt>
      <trkpt lat="43.59424" lon="3.07851">
        <ele>239</ele>
        <time>2016-06-11T10:07:18Z</time>
      </trkpt>
      <trkpt lat="43.59413" lon="3.07807">
        <ele>253</ele>
        <time>2016-06-11T10:08:42Z</time>
      </trkpt>
      <trkpt lat="43.59399" lon="3.07772">
        <ele>262</ele>
        <time>2016-06-11T10:09:34Z</time>
      </trkpt>
      <trkpt lat="43.59384" lon="3.07729">
        <ele>273</ele>
        <time>2016-06-11T10:10:39Z</time>
      </trkpt>
      <trkpt lat="43.59368" lon="3.07694">
        <ele>276</ele>
        <time>2016-06-11T10:11:02Z</time>
      </trkpt>
      <trkpt lat="43.5937" lon="3.07654">
        <ele>279</ele>
        <time>2016-06-11T10:11:25Z</time>
      </trkpt>
      <trkpt lat="43.5938" lon="3.07619">
        <ele>276</ele>
        <time>2016-06-11T10:11:39Z</time>
      </trkpt>
      <trkpt lat="43.59394" lon="3.07572">
        <ele>274</ele>
        <time>2016-06-11T10:11:57Z</time>
      </trkpt>
      <trkpt lat="43.59337" lon="3.07555">
        <ele>280</ele>
        <time>2016-06-11T10:12:43Z</time>
      </trkpt>
      <trkpt lat="43.59307" lon="3.07529">
        <ele>284</ele>
        <time>2016-06-11T10:13:12Z</time>
      </trkpt>
      <trkpt lat="43.59281" lon="3.07467">
        <ele>281</ele>
        <time>2016-06-11T10:13:37Z</time>
      </trkpt>
      <trkpt lat="43.59309" lon="3.07411">
        <ele>284</ele>
        <time>2016-06-11T10:14:10Z</time>
      </trkpt>
      <trkpt lat="43.59349" lon="3.07364">
        <ele>289</ele>
        <time>2016-06-11T10:14:50Z</time>
      </trkpt>
      <trkpt lat="43.59412" lon="3.07246">
        <ele>303</ele>
        <time>2016-06-11T10:16:24Z</time>
      </trkpt>
      <trkpt lat="43.59466" lon="3.07201">
        <ele>312</ele>
        <time>2016-06-11T10:17:23Z</time>
      </trkpt>
      <trkpt lat="43.59511" lon="3.07006">
        <ele>331</ele>
        <time>2016-06-11T10:19:32Z</time>
      </trkpt>
      <trkpt lat="43.59509" lon="3.06976">
        <ele>334</ele>
        <time>2016-06-11T10:19:52Z</time>
      </trkpt>
      <trkpt lat="43.59539" lon="3.06922">
        <ele>341</ele>
        <time>2016-06-11T10:20:38Z</time>
      </trkpt>
      <trkpt lat="43.59528" lon="3.06828">
        <ele>353</ele>
        <time>2016-06-11T10:21:51Z</time>
      </trkpt>
      <trkpt lat="43.59509" lon="3.06798">
        <ele>355</ele>
        <time>2016-06-11T10:22:10Z</time>
      </trkpt>
      <trkpt lat="43.59544" lon="3.06772">
        <ele>358</ele>
        <time>2016-06-11T10:22:38Z</time>
      </trkpt>
      <trkpt lat="43.59609" lon="3.06768">
        <ele>364</ele>
        <time>2016-06-11T10:23:27Z</time>
      </trkpt>
      <trkpt lat="43.59693" lon="3.06725">
        <ele>373</ele>
        <time>2016-06-11T10:24:37Z</time>
      </trkpt>
      <trkpt lat="43.5976" lon="3.06658">
        <ele>377</ele>
        <time>2016-06-11T10:25:30Z</time>
      </trkpt>
      <trkpt lat="43.59837" lon="3.06611">
        <ele>382</ele>
        <time>2016-06-11T10:26:25Z</time>
      </trkpt>
      <trkpt lat="43.59868" lon="3.06568">
        <ele>385</ele>
        <time>2016-06-11T10:26:55Z</time>
      </trkpt>
      <trkpt lat="43.59895" lon="3.06489">
        <ele>396</ele>
        <time>2016-06-11T10:28:02Z</time>
      </trkpt>
      <trkpt lat="43.59904" lon="3.06422">
        <ele>406</ele>
        <time>2016-06-11T10:29:02Z</time>
      </trkpt>
      <trkpt lat="43.59917" lon="3.06373">
        <ele>414</ele>
        <time>2016-06-11T10:29:50Z</time>
      </trkpt>
      <trkpt lat="43.59923" lon="3.063">
        <ele>426</ele>
        <time>2016-06-11T10:31:03Z</time>
      </trkpt>
      <trkpt lat="43.59909" lon="3.06265">
        <ele>432</ele>
        <time>2016-06-11T10:31:40Z</time>
      </trkpt>
      <trkpt lat="43.59865" lon="3.06242">
        <ele>442</ele>
        <time>2016-06-11T10:32:40Z</time>
      </trkpt>
      <trkpt lat="43.59831" lon="3.06227">
        <ele>450</ele>
        <time>2016-06-11T10:33:29Z</time>
      </trkpt>
      <trkpt lat="43.59822" lon="3.06186">
        <ele>458</ele>
        <time>2016-06-11T10:34:16Z</time>
      </trkpt>
      <trkpt lat="43.59826" lon="3.06152">
        <ele>462</ele>
        <time>2016-06-11T10:34:41Z</time>
      </trkpt>
      <trkpt lat="43.5982" lon="3.06124">
        <ele>466</ele>
        <time>2016-06-11T10:35:05Z</time>
      </trkpt>
      <trkpt lat="43.59812" lon="3.06066">
        <ele>467</ele>
        <time>2016-06-11T10:35:30Z</time>
      </trkpt>
      <trkpt lat="43.59814" lon="3.06008">
        <ele>469</ele>
        <time>2016-06-11T10:35:57Z</time>
      </trkpt>
      <trkpt lat="43.59811" lon="3.05956">
        <ele>467</ele>
        <time>2016-06-11T10:36:16Z</time>
      </trkpt>
      <trkpt lat="43.59819" lon="3.05845">
        <ele>465</ele>
        <time>2016-06-11T10:36:58Z</time>
      </trkpt>
      <trkpt lat="43.59822" lon="3.05746">
        <ele>459</ele>
        <time>2016-06-11T10:37:33Z</time>
      </trkpt>
      <trkpt lat="43.59836" lon="3.05594">
        <ele>454</ele>
        <time>2016-06-11T10:38:29Z</time>
      </trkpt>
      <trkpt lat="43.59876" lon="3.05557">
        <ele>452</ele>
        <time>2016-06-11T10:38:53Z</time>
      </trkpt>
      <trkpt lat="43.59895" lon="3.0551">
        <ele>450</ele>
        <time>2016-06-11T10:39:12Z</time>
      </trkpt>
      <trkpt lat="43.59932" lon="3.05326">
        <ele>445</ele>
        <time>2016-06-11T10:40:23Z</time>
      </trkpt>
      <trkpt lat="43.59907" lon="3.05298">
        <ele>442</ele>
        <time>2016-06-11T10:40:39Z</time>
      </trkpt>
      <trkpt lat="43.59904" lon="3.05255">
        <ele>441</ele>
        <time>2016-06-11T10:40:55Z</time>
      </trkpt>
      <trkpt lat="43.59915" lon="3.05216">
        <ele>440</ele>
        <time>2016-06-11T10:41:10Z</time>
      </trkpt>
      <trkpt lat="43.59957" lon="3.05165">
        <ele>440</ele>
        <time>2016-06-11T10:41:42Z</time>
      </trkpt>
      <trkpt lat="43.60016" lon="3.05139">
        <ele>438</ele>
        <time>2016-06-11T10:42:14Z</time>
      </trkpt>
      <trkpt lat="43.60061" lon="3.05109">
        <ele>438</ele>
        <time>2016-06-11T10:42:43Z</time>
      </trkpt>
      <trkpt lat="43.60136" lon="3.05092">
        <ele>436</ele>
        <time>2016-06-11T10:43:23Z</time>
      </trkpt>
      <trkpt lat="43.6019" lon="3.0509">
        <ele>436</ele>
        <time>2016-06-11T10:43:54Z</time>
      </trkpt>
      <trkpt lat="43.60333" lon="3.05064">
        <ele>442</ele>
        <time>2016-06-11T10:45:24Z</time>
      </trkpt>
      <trkpt lat="43.6038" lon="3.05077">
        <ele>444</ele>
        <time>2016-06-11T10:45:54Z</time>
      </trkpt>
      <trkpt lat="43.6042" lon="3.05027">
        <ele>437</ele>
        <time>2016-06-11T10:46:24Z</time>
      </trkpt>
      <trkpt lat="43.60464" lon="3.05012">
        <ele>443</ele>
        <time>2016-06-11T10:47:04Z</time>
      </trkpt>
      <trkpt lat="43.60507" lon="3.05004">
        <ele>449</ele>
        <time>2016-06-11T10:47:43Z</time>
      </trkpt>
      <trkpt lat="43.60454" lon="3.04946">
        <ele>452</ele>
        <time>2016-06-11T10:48:26Z</time>
      </trkpt>
      <trkpt lat="43.60454" lon="3.04911">
        <ele>454</ele>
        <time>2016-06-11T10:48:44Z</time>
      </trkpt>
      <trkpt lat="43.60425" lon="3.04877">
        <ele>458</ele>
        <time>2016-06-11T10:49:14Z</time>
      </trkpt>
      <trkpt lat="43.6038" lon="3.04832">
        <ele>464</ele>
        <time>2016-06-11T10:49:59Z</time>
      </trkpt>
      <trkpt lat="43.60328" lon="3.04796">
        <ele>468</ele>
        <time>2016-06-11T10:50:39Z</time>
      </trkpt>
      <trkpt lat="43.60283" lon="3.04744">
        <ele>474</ele>
        <time>2016-06-11T10:51:25Z</time>
      </trkpt>
      <trkpt lat="43.60283" lon="3.04734">
        <ele>476</ele>
        <time>2016-06-11T10:51:37Z</time>
      </trkpt>
      <trkpt lat="43.60297" lon="3.04718">
        <ele>482</ele>
        <time>2016-06-11T10:52:12Z</time>
      </trkpt>
      <trkpt lat="43.60303" lon="3.04709">
        <ele>484</ele>
        <time>2016-06-11T10:52:24Z</time>
      </trkpt>
      <trkpt lat="43.6031" lon="3.04703">
        <ele>487</ele>
        <time>2016-06-11T10:52:42Z</time>
      </trkpt>
      <trkpt lat="43.60309" lon="3.04687">
        <ele>490</ele>
        <time>2016-06-11T10:53:00Z</time>
      </trkpt>
      <trkpt lat="43.60308" lon="3.04671">
        <ele>494</ele>
        <time>2016-06-11T10:53:24Z</time>
      </trkpt>
      <trkpt lat="43.60308" lon="3.04655">
        <ele>497</ele>
        <time>2016-06-11T10:53:41Z</time>
      </trkpt>
      <trkpt lat="43.60314" lon="3.04634">
        <ele>502</ele>
        <time>2016-06-11T10:54:10Z</time>
      </trkpt>
      <trkpt lat="43.60314" lon="3.04616">
        <ele>507</ele>
        <time>2016-06-11T10:54:40Z</time>
      </trkpt>
      <trkpt lat="43.6031" lon="3.04606">
        <ele>509</ele>
        <time>2016-06-11T10:54:52Z</time>
      </trkpt>
      <trkpt lat="43.60307" lon="3.04573">
        <ele>516</ele>
        <time>2016-06-11T10:55:32Z</time>
      </trkpt>
      <trkpt lat="43.60312" lon="3.04564">
        <ele>518</ele>
        <time>2016-06-11T10:55:44Z</time>
      </trkpt>
      <trkpt lat="43.60323" lon="3.04562">
        <ele>521</ele>
        <time>2016-06-11T10:56:02Z</time>
      </trkpt>
      <trkpt lat="43.60336" lon="3.04555">
        <ele>526</ele>
        <time>2016-06-11T10:56:31Z</time>
      </trkpt>
      <trkpt lat="43.60345" lon="3.04547">
        <ele>529</ele>
        <time>2016-06-11T10:56:49Z</time>
      </trkpt>
      <trkpt lat="43.60371" lon="3.04542">
        <ele>539</ele>
        <time>2016-06-11T10:57:48Z</time>
      </trkpt>
      <trkpt lat="43.6039" lon="3.04538">
        <ele>545</ele>
        <time>2016-06-11T10:58:23Z</time>
      </trkpt>
      <trkpt lat="43.6041" lon="3.04536">
        <ele>552</ele>
        <time>2016-06-11T10:59:04Z</time>
      </trkpt>
      <trkpt lat="43.60449" lon="3.04561">
        <ele>555</ele>
        <time>2016-06-11T10:59:34Z</time>
      </trkpt>
      <trkpt lat="43.60527" lon="3.04615">
        <ele>564</ele>
        <time>2016-06-11T11:00:43Z</time>
      </trkpt>
      <trkpt lat="43.60526" lon="3.04564">
        <ele>579</ele>
        <time>2016-06-11T11:02:11Z</time>
      </trkpt>
      <trkpt lat="43.60547" lon="3.04583">
        <ele>582</ele>
        <time>2016-06-11T11:02:33Z</time>
      </trkpt>
      <trkpt lat="43.60566" lon="3.04579">
        <ele>585</ele>
        <time>2016-06-11T11:02:51Z</time>
      </trkpt>
      <trkpt lat="43.6058" lon="3.04553">
        <ele>592</ele>
        <time>2016-06-11T11:03:32Z</time>
      </trkpt>
      <trkpt lat="43.60645" lon="3.04525">
        <ele>614</ele>
        <time>2016-06-11T11:05:42Z</time>
      </trkpt>
      <trkpt lat="43.60675" lon="3.04499">
        <ele>618</ele>
        <time>2016-06-11T11:06:11Z</time>
      </trkpt>
      <trkpt lat="43.6065" lon="3.04459">
        <ele>623</ele>
        <time>2016-06-11T11:06:45Z</time>
      </trkpt>
      <trkpt lat="43.60624" lon="3.04373">
        <ele>626</ele>
        <time>2016-06-11T11:07:28Z</time>
      </trkpt>
      <trkpt lat="43.60625" lon="3.04291">
        <ele>630</ele>
        <time>2016-06-11T11:08:08Z</time>
      </trkpt>
      <trkpt lat="43.60639" lon="3.04214">
        <ele>623</ele>
        <time>2016-06-11T11:08:38Z</time>
      </trkpt>
      <trkpt lat="43.60678" lon="3.04175">
        <ele>618</ele>
        <time>2016-06-11T11:09:02Z</time>
      </trkpt>
      <trkpt lat="43.60746" lon="3.0413">
        <ele>619</ele>
        <time>2016-06-11T11:09:47Z</time>
      </trkpt>
      <trkpt lat="43.60768" lon="3.04081">
        <ele>620</ele>
        <time>2016-06-11T11:10:12Z</time>
      </trkpt>
      <trkpt lat="43.60798" lon="3.04049">
        <ele>624</ele>
        <time>2016-06-11T11:10:42Z</time>
      </trkpt>
      <trkpt lat="43.60832" lon="3.04034">
        <ele>629</ele>
        <time>2016-06-11T11:11:15Z</time>
      </trkpt>
      <trkpt lat="43.60867" lon="3.04042">
        <ele>633</ele>
        <time>2016-06-11T11:11:44Z</time>
      </trkpt>
      <trkpt lat="43.60881" lon="3.04012">
        <ele>636</ele>
        <time>2016-06-11T11:12:06Z</time>
      </trkpt>
      <trkpt lat="43.60902" lon="3.03999">
        <ele>640</ele>
        <time>2016-06-11T11:12:30Z</time>
      </trkpt>
      <trkpt lat="43.6092" lon="3.04006">
        <ele>643</ele>
        <time>2016-06-11T11:12:49Z</time>
      </trkpt>
      <trkpt lat="43.60937" lon="3.03989">
        <ele>648</ele>
        <time>2016-06-11T11:13:19Z</time>
      </trkpt>
      <trkpt lat="43.60958" lon="3.03997">
        <ele>652</ele>
        <time>2016-06-11T11:13:43Z</time>
      </trkpt>
      <trkpt lat="43.60972" lon="3.03978">
        <ele>656</ele>
        <time>2016-06-11T11:14:07Z</time>
      </trkpt>
      <trkpt lat="43.60995" lon="3.03993">
        <ele>662</ele>
        <time>2016-06-11T11:14:43Z</time>
      </trkpt>
      <trkpt lat="43.61009" lon="3.03963">
        <ele>668</ele>
        <time>2016-06-11T11:15:19Z</time>
      </trkpt>
      <trkpt lat="43.61007" lon="3.03935">
        <ele>673</ele>
        <time>2016-06-11T11:15:49Z</time>
      </trkpt>
      <trkpt lat="43.61004" lon="3.03911">
        <ele>678</ele>
        <time>2016-06-11T11:16:18Z</time>
      </trkpt>
      <trkpt lat="43.60998" lon="3.03886">
        <ele>680</ele>
        <time>2016-06-11T11:16:33Z</time>
      </trkpt>
      <trkpt lat="43.60989" lon="3.03851">
        <ele>684</ele>
        <time>2016-06-11T11:16:59Z</time>
      </trkpt>
      <trkpt lat="43.6099" lon="3.03813">
        <ele>689</ele>
        <time>2016-06-11T11:17:29Z</time>
      </trkpt>
      <trkpt lat="43.60995" lon="3.03783">
        <ele>693</ele>
        <time>2016-06-11T11:17:53Z</time>
      </trkpt>
      <trkpt lat="43.61" lon="3.03746">
        <ele>698</ele>
        <time>2016-06-11T11:18:23Z</time>
      </trkpt>
      <trkpt lat="43.61023" lon="3.03725">
        <ele>702</ele>
        <time>2016-06-11T11:18:49Z</time>
      </trkpt>
      <trkpt lat="43.61031" lon="3.03701">
        <ele>706</ele>
        <time>2016-06-11T11:19:13Z</time>
      </trkpt>
      <trkpt lat="43.61051" lon="3.0369">
        <ele>708</ele>
        <time>2016-06-11T11:19:29Z</time>
      </trkpt>
      <trkpt lat="43.61052" lon="3.03656">
        <ele>712</ele>
        <time>2016-06-11T11:19:54Z</time>
      </trkpt>
      <trkpt lat="43.61051" lon="3.03622">
        <ele>715</ele>
        <time>2016-06-11T11:20:15Z</time>
      </trkpt>
      <trkpt lat="43.61057" lon="3.036">
        <ele>717</ele>
        <time>2016-06-11T11:20:30Z</time>
      </trkpt>
      <trkpt lat="43.61068" lon="3.03568">
        <ele>720</ele>
        <time>2016-06-11T11:20:51Z</time>
      </trkpt>
      <trkpt lat="43.61073" lon="3.03534">
        <ele>724</ele>
        <time>2016-06-11T11:21:16Z</time>
      </trkpt>
      <trkpt lat="43.61076" lon="3.035">
        <ele>727</ele>
        <time>2016-06-11T11:21:37Z</time>
      </trkpt>
      <trkpt lat="43.61093" lon="3.03476">
        <ele>731</ele>
        <time>2016-06-11T11:22:02Z</time>
      </trkpt>
      <trkpt lat="43.6109" lon="3.03446">
        <ele>734</ele>
        <time>2016-06-11T11:22:22Z</time>
      </trkpt>
      <trkpt lat="43.61093" lon="3.03394">
        <ele>733</ele>
        <time>2016-06-11T11:22:42Z</time>
      </trkpt>
      <trkpt lat="43.61111" lon="3.03383">
        <ele>733</ele>
        <time>2016-06-11T11:22:53Z</time>
      </trkpt>
      <trkpt lat="43.61127" lon="3.03392">
        <ele>732</ele>
        <time>2016-06-11T11:23:01Z</time>
      </trkpt>
      <trkpt lat="43.61144" lon="3.03439">
        <ele>732</ele>
        <time>2016-06-11T11:23:23Z</time>
      </trkpt>
      <trkpt lat="43.61171" lon="3.03409">
        <ele>731</ele>
        <time>2016-06-11T11:23:41Z</time>
      </trkpt>
      <trkpt lat="43.61191" lon="3.03377">
        <ele>731</ele>
        <time>2016-06-11T11:23:59Z</time>
      </trkpt>
      <trkpt lat="43.6121" lon="3.03293">
        <ele>730</ele>
        <time>2016-06-11T11:24:34Z</time>
      </trkpt>
      <trkpt lat="43.61207" lon="3.0327">
        <ele>730</ele>
        <time>2016-06-11T11:24:43Z</time>
      </trkpt>
      <trkpt lat="43.61213" lon="3.03256">
        <ele>730</ele>
        <time>2016-06-11T11:24:50Z</time>
      </trkpt>
      <trkpt lat="43.61189" lon="3.03184">
        <ele>729</ele>
        <time>2016-06-11T11:25:21Z</time>
      </trkpt>
      <trkpt lat="43.61206" lon="3.03119">
        <ele>728</ele>
        <time>2016-06-11T11:25:48Z</time>
      </trkpt>
      <trkpt lat="43.61279" lon="3.02894">
        <ele>725</ele>
        <time>2016-06-11T11:27:24Z</time>
      </trkpt>
      <trkpt lat="43.61299" lon="3.02755">
        <ele>717</ele>
        <time>2016-06-11T11:28:14Z</time>
      </trkpt>
      <trkpt lat="43.61292" lon="3.02693">
        <ele>714</ele>
        <time>2016-06-11T11:28:36Z</time>
      </trkpt>
      <trkpt lat="43.61304" lon="3.02626">
        <ele>705</ele>
        <time>2016-06-11T11:29:08Z</time>
      </trkpt>
      <trkpt lat="43.61321" lon="3.02609">
        <ele>702</ele>
        <time>2016-06-11T11:29:20Z</time>
      </trkpt>
      <trkpt lat="43.61327" lon="3.02564">
        <ele>693</ele>
        <time>2016-06-11T11:29:50Z</time>
      </trkpt>
      <trkpt lat="43.61335" lon="3.02538">
        <ele>688</ele>
        <time>2016-06-11T11:30:06Z</time>
      </trkpt>
      <trkpt lat="43.61338" lon="3.02508">
        <ele>683</ele>
        <time>2016-06-11T11:30:23Z</time>
      </trkpt>
      <trkpt lat="43.61352" lon="3.0248">
        <ele>678</ele>
        <time>2016-06-11T11:30:40Z</time>
      </trkpt>
      <trkpt lat="43.61376" lon="3.0247">
        <ele>675</ele>
        <time>2016-06-11T11:30:53Z</time>
      </trkpt>
      <trkpt lat="43.61394" lon="3.02452">
        <ele>673</ele>
        <time>2016-06-11T11:31:04Z</time>
      </trkpt>
      <trkpt lat="43.6141" lon="3.02476">
        <ele>674</ele>
        <time>2016-06-11T11:31:19Z</time>
      </trkpt>
      <trkpt lat="43.61427" lon="3.02472">
        <ele>672</ele>
        <time>2016-06-11T11:31:28Z</time>
      </trkpt>
      <trkpt lat="43.61431" lon="3.02437">
        <ele>671</ele>
        <time>2016-06-11T11:31:41Z</time>
      </trkpt>
      <trkpt lat="43.61452" lon="3.02427">
        <ele>672</ele>
        <time>2016-06-11T11:31:55Z</time>
      </trkpt>
      <trkpt lat="43.61457" lon="3.02347">
        <ele>677</ele>
        <time>2016-06-11T11:32:38Z</time>
      </trkpt>
      <trkpt lat="43.61475" lon="3.02287">
        <ele>687</ele>
        <time>2016-06-11T11:33:38Z</time>
      </trkpt>
      <trkpt lat="43.61458" lon="3.02255">
        <ele>694</ele>
        <time>2016-06-11T11:34:20Z</time>
      </trkpt>
      <trkpt lat="43.61407" lon="3.02229">
        <ele>696</ele>
        <time>2016-06-11T11:34:54Z</time>
      </trkpt>
      <trkpt lat="43.61357" lon="3.02221">
        <ele>699</ele>
        <time>2016-06-11T11:35:27Z</time>
      </trkpt>
      <trkpt lat="43.61334" lon="3.02214">
        <ele>702</ele>
        <time>2016-06-11T11:35:47Z</time>
      </trkpt>
      <trkpt lat="43.61298" lon="3.02199">
        <ele>708</ele>
        <time>2016-06-11T11:36:24Z</time>
      </trkpt>
      <trkpt lat="43.6127" lon="3.02231">
        <ele>706</ele>
        <time>2016-06-11T11:36:42Z</time>
      </trkpt>
      <trkpt lat="43.61202" lon="3.0227">
        <ele>704</ele>
        <time>2016-06-11T11:37:21Z</time>
      </trkpt>
      <trkpt lat="43.61068" lon="3.02386">
        <ele>700</ele>
        <time>2016-06-11T11:38:44Z</time>
      </trkpt>
      <trkpt lat="43.60972" lon="3.02431">
        <ele>699</ele>
        <time>2016-06-11T11:39:40Z</time>
      </trkpt>
      <trkpt lat="43.60905" lon="3.02412">
        <ele>703</ele>
        <time>2016-06-11T11:40:25Z</time>
      </trkpt>
      <trkpt lat="43.60864" lon="3.02371">
        <ele>708</ele>
        <time>2016-06-11T11:41:04Z</time>
      </trkpt>
      <trkpt lat="43.60802" lon="3.02326">
        <ele>717</ele>
        <time>2016-06-11T11:42:06Z</time>
      </trkpt>
      <trkpt lat="43.60765" lon="3.02246">
        <ele>722</ele>
        <time>2016-06-11T11:42:53Z</time>
      </trkpt>
      <trkpt lat="43.60687" lon="3.02218">
        <ele>728</ele>
        <time>2016-06-11T11:43:50Z</time>
      </trkpt>
      <trkpt lat="43.60667" lon="3.02206">
        <ele>723</ele>
        <time>2016-06-11T11:44:06Z</time>
      </trkpt>
      <trkpt lat="43.60633" lon="3.02227">
        <ele>717</ele>
        <time>2016-06-11T11:44:29Z</time>
      </trkpt>
      <trkpt lat="43.60596" lon="3.02212">
        <ele>717</ele>
        <time>2016-06-11T11:44:51Z</time>
      </trkpt>
      <trkpt lat="43.60523" lon="3.02201">
        <ele>717</ele>
        <time>2016-06-11T11:45:33Z</time>
      </trkpt>
      <trkpt lat="43.60459" lon="3.02216">
        <ele>715</ele>
        <time>2016-06-11T11:46:07Z</time>
      </trkpt>
      <trkpt lat="43.60394" lon="3.02208">
        <ele>713</ele>
        <time>2016-06-11T11:46:41Z</time>
      </trkpt>
      <trkpt lat="43.60341" lon="3.02234">
        <ele>706</ele>
        <time>2016-06-11T11:47:10Z</time>
      </trkpt>
      <trkpt lat="43.60296" lon="3.02234">
        <ele>702</ele>
        <time>2016-06-11T11:47:33Z</time>
      </trkpt>
      <trkpt lat="43.60252" lon="3.02161">
        <ele>722</ele>
        <time>2016-06-11T11:49:29Z</time>
      </trkpt>
      <trkpt lat="43.60187" lon="3.02139">
        <ele>743</ele>
        <time>2016-06-11T11:51:32Z</time>
      </trkpt>
      <trkpt lat="43.60119" lon="3.02096">
        <ele>754</ele>
        <time>2016-06-11T11:52:42Z</time>
      </trkpt>
      <trkpt lat="43.60064" lon="3.02085">
        <ele>751</ele>
        <time>2016-06-11T11:53:09Z</time>
      </trkpt>
      <trkpt lat="43.60042" lon="3.02083">
        <ele>750</ele>
        <time>2016-06-11T11:53:20Z</time>
      </trkpt>
      <trkpt lat="43.59985" lon="3.02043">
        <ele>762</ele>
        <time>2016-06-11T11:54:33Z</time>
      </trkpt>
      <trkpt lat="43.59957" lon="3.02028">
        <ele>768</ele>
        <time>2016-06-11T11:55:09Z</time>
      </trkpt>
      <trkpt lat="43.59917" lon="3.0201">
        <ele>772</ele>
        <time>2016-06-11T11:55:41Z</time>
      </trkpt>
      <trkpt lat="43.59851" lon="3.01976">
        <ele>779</ele>
        <time>2016-06-11T11:56:36Z</time>
      </trkpt>
      <trkpt lat="43.59828" lon="3.01972">
        <ele>776</ele>
        <time>2016-06-11T11:56:48Z</time>
      </trkpt>
      <trkpt lat="43.59812" lon="3.01967">
        <ele>772</ele>
        <time>2016-06-11T11:57:01Z</time>
      </trkpt>
      <trkpt lat="43.59789" lon="3.01978">
        <ele>767</ele>
        <time>2016-06-11T11:57:19Z</time>
      </trkpt>
      <trkpt lat="43.5973" lon="3.01864">
        <ele>752</ele>
        <time>2016-06-11T11:58:17Z</time>
      </trkpt>
      <trkpt lat="43.59716" lon="3.01854">
        <ele>750</ele>
        <time>2016-06-11T11:58:25Z</time>
      </trkpt>
      <trkpt lat="43.59735" lon="3.02012">
        <ele>743</ele>
        <time>2016-06-11T11:59:21Z</time>
      </trkpt>
      <trkpt lat="43.59707" lon="3.0194">
        <ele>740</ele>
        <time>2016-06-11T11:59:50Z</time>
      </trkpt>
      <trkpt lat="43.59688" lon="3.01922">
        <ele>733</ele>
        <time>2016-06-11T12:00:14Z</time>
      </trkpt>
      <trkpt lat="43.5968" lon="3.01894">
        <ele>726</ele>
        <time>2016-06-11T12:00:38Z</time>
      </trkpt>
      <trkpt lat="43.5966" lon="3.01882">
        <ele>720</ele>
        <time>2016-06-11T12:00:57Z</time>
      </trkpt>
      <trkpt lat="43.59673" lon="3.0195">
        <ele>715</ele>
        <time>2016-06-11T12:01:23Z</time>
      </trkpt>
      <trkpt lat="43.59668" lon="3.02008">
        <ele>712</ele>
        <time>2016-06-11T12:01:43Z</time>
      </trkpt>
      <trkpt lat="43.59648" lon="3.01959">
        <ele>702</ele>
        <time>2016-06-11T12:02:16Z</time>
      </trkpt>
      <trkpt lat="43.59609" lon="3.0192">
        <ele>692</ele>
        <time>2016-06-11T12:02:51Z</time>
      </trkpt>
      <trkpt lat="43.59629" lon="3.01972">
        <ele>687</ele>
        <time>2016-06-11T12:03:13Z</time>
      </trkpt>
      <trkpt lat="43.59621" lon="3.0206">
        <ele>681</ele>
        <time>2016-06-11T12:03:45Z</time>
      </trkpt>
      <trkpt lat="43.59584" lon="3.01985">
        <ele>670</ele>
        <time>2016-06-11T12:04:25Z</time>
      </trkpt>
      <trkpt lat="43.59586" lon="3.02083">
        <ele>660</ele>
        <time>2016-06-11T12:05:05Z</time>
      </trkpt>
      <trkpt lat="43.5957" lon="3.02191">
        <ele>646</ele>
        <time>2016-06-11T12:05:55Z</time>
      </trkpt>
      <trkpt lat="43.59544" lon="3.02118">
        <ele>637</ele>
        <time>2016-06-11T12:06:30Z</time>
      </trkpt>
      <trkpt lat="43.59527" lon="3.02094">
        <ele>637</ele>
        <time>2016-06-11T12:06:44Z</time>
      </trkpt>
      <trkpt lat="43.5953" lon="3.02053">
        <ele>638</ele>
        <time>2016-06-11T12:07:02Z</time>
      </trkpt>
      <trkpt lat="43.59486" lon="3.02045">
        <ele>621</ele>
        <time>2016-06-11T12:08:01Z</time>
      </trkpt>
      <trkpt lat="43.59427" lon="3.02066">
        <ele>610</ele>
        <time>2016-06-11T12:08:40Z</time>
      </trkpt>
      <trkpt lat="43.59457" lon="3.02085">
        <ele>605</ele>
        <time>2016-06-11T12:08:59Z</time>
      </trkpt>
      <trkpt lat="43.5948" lon="3.0209">
        <ele>602</ele>
        <time>2016-06-11T12:09:12Z</time>
      </trkpt>
      <trkpt lat="43.5945" lon="3.02182">
        <ele>595</ele>
        <time>2016-06-11T12:09:48Z</time>
      </trkpt>
      <trkpt lat="43.59421" lon="3.02231">
        <ele>590</ele>
        <time>2016-06-11T12:10:11Z</time>
      </trkpt>
      <trkpt lat="43.59427" lon="3.02165">
        <ele>586</ele>
        <time>2016-06-11T12:10:35Z</time>
      </trkpt>
      <trkpt lat="43.59394" lon="3.0221">
        <ele>576</ele>
        <time>2016-06-11T12:11:09Z</time>
      </trkpt>
      <trkpt lat="43.59345" lon="3.02264">
        <ele>564</ele>
        <time>2016-06-11T12:11:51Z</time>
      </trkpt>
      <trkpt lat="43.59349" lon="3.02203">
        <ele>556</ele>
        <time>2016-06-11T12:12:19Z</time>
      </trkpt>
      <trkpt lat="43.59309" lon="3.0224">
        <ele>549</ele>
        <time>2016-06-11T12:12:47Z</time>
      </trkpt>
      <trkpt lat="43.59256" lon="3.02242">
        <ele>541</ele>
        <time>2016-06-11T12:13:18Z</time>
      </trkpt>
      <trkpt lat="43.59281" lon="3.02212">
        <ele>537</ele>
        <time>2016-06-11T12:13:35Z</time>
      </trkpt>
      <trkpt lat="43.59253" lon="3.0221">
        <ele>532</ele>
        <time>2016-06-11T12:13:53Z</time>
      </trkpt>
      <trkpt lat="43.59267" lon="3.02184">
        <ele>528</ele>
        <time>2016-06-11T12:14:07Z</time>
      </trkpt>
      <trkpt lat="43.59241" lon="3.02191">
        <ele>524</ele>
        <time>2016-06-11T12:14:23Z</time>
      </trkpt>
      <trkpt lat="43.59251" lon="3.02156">
        <ele>515</ele>
        <time>2016-06-11T12:14:54Z</time>
      </trkpt>
      <trkpt lat="43.59239" lon="3.02137">
        <ele>509</ele>
        <time>2016-06-11T12:15:15Z</time>
      </trkpt>
      <trkpt lat="43.59253" lon="3.02124">
        <ele>506</ele>
        <time>2016-06-11T12:15:25Z</time>
      </trkpt>
      <trkpt lat="43.5925" lon="3.0206">
        <ele>500</ele>
        <time>2016-06-11T12:15:50Z</time>
      </trkpt>
      <trkpt lat="43.5925" lon="3.02012">
        <ele>494</ele>
        <time>2016-06-11T12:16:12Z</time>
      </trkpt>
      <trkpt lat="43.59237" lon="3.0194">
        <ele>487</ele>
        <time>2016-06-11T12:16:41Z</time>
      </trkpt>
      <trkpt lat="43.59217" lon="3.01989">
        <ele>485</ele>
        <time>2016-06-11T12:17:01Z</time>
      </trkpt>
      <trkpt lat="43.5922" lon="3.02025">
        <ele>485</ele>
        <time>2016-06-11T12:17:16Z</time>
      </trkpt>
      <trkpt lat="43.59189" lon="3.02008">
        <ele>477</ele>
        <time>2016-06-11T12:17:43Z</time>
      </trkpt>
      <trkpt lat="43.59185" lon="3.01967">
        <ele>470</ele>
        <time>2016-06-11T12:18:07Z</time>
      </trkpt>
      <trkpt lat="43.5915" lon="3.01933">
        <ele>461</ele>
        <time>2016-06-11T12:18:37Z</time>
      </trkpt>
      <trkpt lat="43.59067" lon="3.01925">
        <ele>445</ele>
        <time>2016-06-11T12:19:33Z</time>
      </trkpt>
      <trkpt lat="43.59037" lon="3.01937">
        <ele>438</ele>
        <time>2016-06-11T12:19:57Z</time>
      </trkpt>
      <trkpt lat="43.5895" lon="3.01905">
        <ele>418</ele>
        <time>2016-06-11T12:21:05Z</time>
      </trkpt>
      <trkpt lat="43.5893" lon="3.01884">
        <ele>421</ele>
        <time>2016-06-11T12:21:26Z</time>
      </trkpt>
      <trkpt lat="43.58799" lon="3.01892">
        <ele>401</ele>
        <time>2016-06-11T12:22:43Z</time>
      </trkpt>
      <trkpt lat="43.58765" lon="3.01862">
        <ele>396</ele>
        <time>2016-06-11T12:23:04Z</time>
      </trkpt>
      <trkpt lat="43.58751" lon="3.01828">
        <ele>394</ele>
        <time>2016-06-11T12:23:18Z</time>
      </trkpt>
      <trkpt lat="43.5869" lon="3.01852">
        <ele>390</ele>
        <time>2016-06-11T12:23:48Z</time>
      </trkpt>
      <trkpt lat="43.58619" lon="3.01869">
        <ele>376</ele>
        <time>2016-06-11T12:24:37Z</time>
      </trkpt>
      <trkpt lat="43.58575" lon="3.01899">
        <ele>367</ele>
        <time>2016-06-11T12:25:09Z</time>
      </trkpt>
      <trkpt lat="43.58507" lon="3.01875">
        <ele>359</ele>
        <time>2016-06-11T12:25:45Z</time>
      </trkpt>
      <trkpt lat="43.58426" lon="3.01794">
        <ele>350</ele>
        <time>2016-06-11T12:26:35Z</time>
      </trkpt>
      <trkpt lat="43.5839" lon="3.01753">
        <ele>346</ele>
        <time>2016-06-11T12:26:57Z</time>
      </trkpt>
      <trkpt lat="43.58305" lon="3.01523">
        <ele>331</ele>
        <time>2016-06-11T12:28:28Z</time>
      </trkpt>
      <trkpt lat="43.58289" lon="3.01547">
        <ele>326</ele>
        <time>2016-06-11T12:28:45Z</time>
      </trkpt>
      <trkpt lat="43.58274" lon="3.01377">
        <ele>304</ele>
        <time>2016-06-11T12:30:04Z</time>
      </trkpt>
      <trkpt lat="43.58274" lon="3.01328">
        <ele>291</ele>
        <time>2016-06-11T12:30:49Z</time>
      </trkpt>
      <trkpt lat="43.5824" lon="3.01332">
        <ele>280</ele>
        <time>2016-06-11T12:31:27Z</time>
      </trkpt>
      <trkpt lat="43.58226" lon="3.01307">
        <ele>269</ele>
        <time>2016-06-11T12:32:04Z</time>
      </trkpt>
      <trkpt lat="43.58209" lon="3.01317">
        <ele>264</ele>
        <time>2016-06-11T12:32:20Z</time>
      </trkpt>
      <trkpt lat="43.58209" lon="3.01292">
        <ele>259</ele>
        <time>2016-06-11T12:32:37Z</time>
      </trkpt>
      <trkpt lat="43.58188" lon="3.01309">
        <ele>251</ele>
        <time>2016-06-11T12:33:04Z</time>
      </trkpt>
      <trkpt lat="43.58165" lon="3.01289">
        <ele>243</ele>
        <time>2016-06-11T12:33:31Z</time>
      </trkpt>
      <trkpt lat="43.58146" lon="3.01257">
        <ele>232</ele>
        <time>2016-06-11T12:34:09Z</time>
      </trkpt>
      <trkpt lat="43.58134" lon="3.0124">
        <ele>227</ele>
        <time>2016-06-11T12:34:25Z</time>
      </trkpt>
      <trkpt lat="43.58115" lon="3.01261">
        <ele>224</ele>
        <time>2016-06-11T12:34:38Z</time>
      </trkpt>
      <trkpt lat="43.58092" lon="3.01266">
        <ele>223</ele>
        <time>2016-06-11T12:34:50Z</time>
      </trkpt>
      <trkpt lat="43.58084" lon="3.01189">
        <ele>227</ele>
        <time>2016-06-11T12:35:29Z</time>
      </trkpt>
      <trkpt lat="43.58168" lon="3.0115">
        <ele>235</ele>
        <time>2016-06-11T12:36:35Z</time>
      </trkpt>
      <trkpt lat="43.58327" lon="3.01129">
        <ele>258</ele>
        <time>2016-06-11T12:39:03Z</time>
      </trkpt>
      <trkpt lat="43.58348" lon="3.01136">
        <ele>262</ele>
        <time>2016-06-11T12:39:27Z</time>
      </trkpt>
      <trkpt lat="43.58372" lon="3.01115">
        <ele>266</ele>
        <time>2016-06-11T12:39:54Z</time>
      </trkpt>
      <trkpt lat="43.58398" lon="3.01125">
        <ele>271</ele>
        <time>2016-06-11T12:40:24Z</time>
      </trkpt>
      <trkpt lat="43.58428" lon="3.01115">
        <ele>278</ele>
        <time>2016-06-11T12:41:06Z</time>
      </trkpt>
      <trkpt lat="43.58407" lon="3.01083">
        <ele>276</ele>
        <time>2016-06-11T12:41:21Z</time>
      </trkpt>
      <trkpt lat="43.58407" lon="3.0107">
        <ele>276</ele>
        <time>2016-06-11T12:41:27Z</time>
      </trkpt>
      <trkpt lat="43.58417" lon="3.01074">
        <ele>276</ele>
        <time>2016-06-11T12:41:32Z</time>
      </trkpt>
      <trkpt lat="43.58404" lon="3.01059">
        <ele>278</ele>
        <time>2016-06-11T12:41:46Z</time>
      </trkpt>
      <trkpt lat="43.58424" lon="3.01055">
        <ele>282</ele>
        <time>2016-06-11T12:42:10Z</time>
      </trkpt>
      <trkpt lat="43.58424" lon="3.01039">
        <ele>285</ele>
        <time>2016-06-11T12:42:28Z</time>
      </trkpt>
      <trkpt lat="43.58416" lon="3.01044">
        <ele>285</ele>
        <time>2016-06-11T12:42:33Z</time>
      </trkpt>
      <trkpt lat="43.58412" lon="3.01033">
        <ele>285</ele>
        <time>2016-06-11T12:42:38Z</time>
      </trkpt>
      <trkpt lat="43.58442" lon="3.01025">
        <ele>289</ele>
        <time>2016-06-11T12:43:05Z</time>
      </trkpt>
      <trkpt lat="43.58457" lon="3.01006">
        <ele>293</ele>
        <time>2016-06-11T12:43:29Z</time>
      </trkpt>
      <trkpt lat="43.58485" lon="3.00957">
        <ele>301</ele>
        <time>2016-06-11T12:44:18Z</time>
      </trkpt>
      <trkpt lat="43.58599" lon="3.00895">
        <ele>326</ele>
        <time>2016-06-11T12:46:48Z</time>
      </trkpt>
      <trkpt lat="43.58652" lon="3.00865">
        <ele>342</ele>
        <time>2016-06-11T12:48:22Z</time>
      </trkpt>
      <trkpt lat="43.58684" lon="3.00858">
        <ele>352</ele>
        <time>2016-06-11T12:49:20Z</time>
      </trkpt>
      <trkpt lat="43.58714" lon="3.00865">
        <ele>353</ele>
        <time>2016-06-11T12:49:39Z</time>
      </trkpt>
      <trkpt lat="43.58749" lon="3.00845">
        <ele>358</ele>
        <time>2016-06-11T12:50:12Z</time>
      </trkpt>
      <trkpt lat="43.58773" lon="3.00862">
        <ele>362</ele>
        <time>2016-06-11T12:50:38Z</time>
      </trkpt>
      <trkpt lat="43.58799" lon="3.00852">
        <ele>367</ele>
        <time>2016-06-11T12:51:08Z</time>
      </trkpt>
      <trkpt lat="43.58824" lon="3.0086">
        <ele>372</ele>
        <time>2016-06-11T12:51:38Z</time>
      </trkpt>
      <trkpt lat="43.5886" lon="3.00875">
        <ele>377</ele>
        <time>2016-06-11T12:52:12Z</time>
      </trkpt>
      <trkpt lat="43.58883" lon="3.00856">
        <ele>382</ele>
        <time>2016-06-11T12:52:42Z</time>
      </trkpt>
      <trkpt lat="43.58924" lon="3.00865">
        <ele>387</ele>
        <time>2016-06-11T12:53:17Z</time>
      </trkpt>
      <trkpt lat="43.58953" lon="3.00845">
        <ele>392</ele>
        <time>2016-06-11T12:53:48Z</time>
      </trkpt>
      <trkpt lat="43.58979" lon="3.00847">
        <ele>397</ele>
        <time>2016-06-11T12:54:19Z</time>
      </trkpt>
      <trkpt lat="43.59009" lon="3.00822">
        <ele>405</ele>
        <time>2016-06-11T12:55:07Z</time>
      </trkpt>
      <trkpt lat="43.59063" lon="3.00834">
        <ele>409</ele>
        <time>2016-06-11T12:55:45Z</time>
      </trkpt>
      <trkpt lat="43.59152" lon="3.00826">
        <ele>418</ele>
        <time>2016-06-11T12:56:55Z</time>
      </trkpt>
      <trkpt lat="43.59242" lon="3.00849">
        <ele>441</ele>
        <time>2016-06-11T12:59:11Z</time>
      </trkpt>
      <trkpt lat="43.593" lon="3.00856">
        <ele>456</ele>
        <time>2016-06-11T13:00:39Z</time>
      </trkpt>
      <trkpt lat="43.59337" lon="3.00852">
        <ele>472</ele>
        <time>2016-06-11T13:02:15Z</time>
      </trkpt>
      <trkpt lat="43.59412" lon="3.00865">
        <ele>495</ele>
        <time>2016-06-11T13:04:29Z</time>
      </trkpt>
      <trkpt lat="43.59446" lon="3.00854">
        <ele>511</ele>
        <time>2016-06-11T13:06:03Z</time>
      </trkpt>
      <trkpt lat="43.59525" lon="3.00882">
        <ele>527</ele>
        <time>2016-06-11T13:07:40Z</time>
      </trkpt>
      <trkpt lat="43.59561" lon="3.00901">
        <ele>528</ele>
        <time>2016-06-11T13:08:03Z</time>
      </trkpt>
      <trkpt lat="43.59601" lon="3.00867">
        <ele>548</ele>
        <time>2016-06-11T13:10:02Z</time>
      </trkpt>
      <trkpt lat="43.59645" lon="3.00854">
        <ele>555</ele>
        <time>2016-06-11T13:10:46Z</time>
      </trkpt>
      <trkpt lat="43.59719" lon="3.00837">
        <ele>563</ele>
        <time>2016-06-11T13:11:47Z</time>
      </trkpt>
      <trkpt lat="43.59747" lon="3.00783">
        <ele>586</ele>
        <time>2016-06-11T13:13:58Z</time>
      </trkpt>
      <trkpt lat="43.59784" lon="3.00762">
        <ele>595</ele>
        <time>2016-06-11T13:14:52Z</time>
      </trkpt>
      <trkpt lat="43.59772" lon="3.00744">
        <ele>602</ele>
        <time>2016-06-11T13:15:34Z</time>
      </trkpt>
      <trkpt lat="43.59791" lon="3.00734">
        <ele>607</ele>
        <time>2016-06-11T13:16:03Z</time>
      </trkpt>
      <trkpt lat="43.59767" lon="3.00721">
        <ele>612</ele>
        <time>2016-06-11T13:16:33Z</time>
      </trkpt>
      <trkpt lat="43.59786" lon="3.00706">
        <ele>618</ele>
        <time>2016-06-11T13:17:08Z</time>
      </trkpt>
      <trkpt lat="43.59767" lon="3.00693">
        <ele>624</ele>
        <time>2016-06-11T13:17:43Z</time>
      </trkpt>
      <trkpt lat="43.59802" lon="3.00663">
        <ele>638</ele>
        <time>2016-06-11T13:19:07Z</time>
      </trkpt>
      <trkpt lat="43.59831" lon="3.00656">
        <ele>644</ele>
        <time>2016-06-11T13:19:43Z</time>
      </trkpt>
      <trkpt lat="43.59878" lon="3.0065">
        <ele>653</ele>
        <time>2016-06-11T13:20:37Z</time>
      </trkpt>
      <trkpt lat="43.59917" lon="3.00678">
        <ele>650</ele>
        <time>2016-06-11T13:20:58Z</time>
      </trkpt>
      <trkpt lat="43.59915" lon="3.00704">
        <ele>640</ele>
        <time>2016-06-11T13:21:29Z</time>
      </trkpt>
      <trkpt lat="43.59935" lon="3.00742">
        <ele>632</ele>
        <time>2016-06-11T13:21:56Z</time>
      </trkpt>
      <trkpt lat="43.59959" lon="3.00751">
        <ele>636</ele>
        <time>2016-06-11T13:22:21Z</time>
      </trkpt>
      <trkpt lat="43.59993" lon="3.00746">
        <ele>649</ele>
        <time>2016-06-11T13:23:37Z</time>
      </trkpt>
      <trkpt lat="43.60077" lon="3.00768">
        <ele>656</ele>
        <time>2016-06-11T13:24:39Z</time>
      </trkpt>
      <trkpt lat="43.6012" lon="3.00753">
        <ele>670</ele>
        <time>2016-06-11T13:26:01Z</time>
      </trkpt>
      <trkpt lat="43.60175" lon="3.00807">
        <ele>662</ele>
        <time>2016-06-11T13:26:36Z</time>
      </trkpt>
      <trkpt lat="43.60223" lon="3.00837">
        <ele>661</ele>
        <time>2016-06-11T13:27:05Z</time>
      </trkpt>
      <trkpt lat="43.60286" lon="3.00834">
        <ele>673</ele>
        <time>2016-06-11T13:28:17Z</time>
      </trkpt>
      <trkpt lat="43.60345" lon="3.008">
        <ele>692</ele>
        <time>2016-06-11T13:30:07Z</time>
      </trkpt>
      <trkpt lat="43.6039" lon="3.00815">
        <ele>693</ele>
        <time>2016-06-11T13:30:35Z</time>
      </trkpt>
      <trkpt lat="43.60443" lon="3.00813">
        <ele>708</ele>
        <time>2016-06-11T13:32:02Z</time>
      </trkpt>
      <trkpt lat="43.60501" lon="3.00865">
        <ele>710</ele>
        <time>2016-06-11T13:32:44Z</time>
      </trkpt>
      <trkpt lat="43.60521" lon="3.00914">
        <ele>711</ele>
        <time>2016-06-11T13:33:09Z</time>
      </trkpt>
      <trkpt lat="43.60561" lon="3.0091">
        <ele>717</ele>
        <time>2016-06-11T13:33:47Z</time>
      </trkpt>
      <trkpt lat="43.60589" lon="3.00854">
        <ele>726</ele>
        <time>2016-06-11T13:34:42Z</time>
      </trkpt>
      <trkpt lat="43.60675" lon="3.00777">
        <ele>746</ele>
        <time>2016-06-11T13:36:42Z</time>
      </trkpt>
      <trkpt lat="43.60701" lon="3.00774">
        <ele>746</ele>
        <time>2016-06-11T13:36:57Z</time>
      </trkpt>
      <trkpt lat="43.60743" lon="3.00755">
        <ele>748</ele>
        <time>2016-06-11T13:37:25Z</time>
      </trkpt>
      <trkpt lat="43.60774" lon="3.0077">
        <ele>750</ele>
        <time>2016-06-11T13:37:46Z</time>
      </trkpt>
      <trkpt lat="43.60798" lon="3.00766">
        <ele>754</ele>
        <time>2016-06-11T13:38:11Z</time>
      </trkpt>
      <trkpt lat="43.60813" lon="3.00777">
        <ele>756</ele>
        <time>2016-06-11T13:38:25Z</time>
      </trkpt>
      <trkpt lat="43.60854" lon="3.00787">
        <ele>760</ele>
        <time>2016-06-11T13:38:57Z</time>
      </trkpt>
      <trkpt lat="43.60967" lon="3.00789">
        <ele>772</ele>
        <time>2016-06-11T13:40:28Z</time>
      </trkpt>
      <trkpt lat="43.61007" lon="3.00818">
        <ele>769</ele>
        <time>2016-06-11T13:40:50Z</time>
      </trkpt>
      <trkpt lat="43.61017" lon="3.00797">
        <ele>775</ele>
        <time>2016-06-11T13:41:25Z</time>
      </trkpt>
      <trkpt lat="43.6103" lon="3.00805">
        <ele>774</ele>
        <time>2016-06-11T13:41:32Z</time>
      </trkpt>
      <trkpt lat="43.61039" lon="3.00821">
        <ele>771</ele>
        <time>2016-06-11T13:41:42Z</time>
      </trkpt>
      <trkpt lat="43.61065" lon="3.00833">
        <ele>773</ele>
        <time>2016-06-11T13:42:01Z</time>
      </trkpt>
      <trkpt lat="43.61101" lon="3.00826">
        <ele>776</ele>
        <time>2016-06-11T13:42:27Z</time>
      </trkpt>
      <trkpt lat="43.61132" lon="3.00816">
        <ele>778</ele>
        <time>2016-06-11T13:42:48Z</time>
      </trkpt>
      <trkpt lat="43.61157" lon="3.00797">
        <ele>781</ele>
        <time>2016-06-11T13:43:11Z</time>
      </trkpt>
      <trkpt lat="43.61168" lon="3.00821">
        <ele>779</ele>
        <time>2016-06-11T13:43:22Z</time>
      </trkpt>
      <trkpt lat="43.61184" lon="3.00839">
        <ele>782</ele>
        <time>2016-06-11T13:43:41Z</time>
      </trkpt>
      <trkpt lat="43.61224" lon="3.00797">
        <ele>785</ele>
        <time>2016-06-11T13:44:13Z</time>
      </trkpt>
      <trkpt lat="43.61257" lon="3.00752">
        <ele>785</ele>
        <time>2016-06-11T13:44:40Z</time>
      </trkpt>
      <trkpt lat="43.61269" lon="3.00739">
        <ele>786</ele>
        <time>2016-06-11T13:44:51Z</time>
      </trkpt>
      <trkpt lat="43.61279" lon="3.0073">
        <ele>786</ele>
        <time>2016-06-11T13:44:57Z</time>
      </trkpt>
      <trkpt lat="43.6131" lon="3.00726">
        <ele>788</ele>
        <time>2016-06-11T13:45:18Z</time>
      </trkpt>
      <trkpt lat="43.61331" lon="3.00716">
        <ele>789</ele>
        <time>2016-06-11T13:45:32Z</time>
      </trkpt>
      <trkpt lat="43.61365" lon="3.00722">
        <ele>793</ele>
        <time>2016-06-11T13:46:01Z</time>
      </trkpt>
      <trkpt lat="43.61417" lon="3.00656">
        <ele>794</ele>
        <time>2016-06-11T13:46:42Z</time>
      </trkpt>
      <trkpt lat="43.61456" lon="3.00619">
        <ele>795</ele>
        <time>2016-06-11T13:47:11Z</time>
      </trkpt>
      <trkpt lat="43.61489" lon="3.00578">
        <ele>796</ele>
        <time>2016-06-11T13:47:38Z</time>
      </trkpt>
      <trkpt lat="43.61513" lon="3.0043">
        <ele>795</ele>
        <time>2016-06-11T13:48:38Z</time>
      </trkpt>
      <trkpt lat="43.61548" lon="3.00272">
        <ele>802</ele>
        <time>2016-06-11T13:49:57Z</time>
      </trkpt>
      <trkpt lat="43.61612" lon="3.00247">
        <ele>808</ele>
        <time>2016-06-11T13:50:46Z</time>
      </trkpt>
      <trkpt lat="43.61644" lon="3.00262">
        <ele>807</ele>
        <time>2016-06-11T13:51:04Z</time>
      </trkpt>
      <trkpt lat="43.61674" lon="3.00285">
        <ele>806</ele>
        <time>2016-06-11T13:51:22Z</time>
      </trkpt>
      <trkpt lat="43.61725" lon="3.0033">
        <ele>803</ele>
        <time>2016-06-11T13:51:52Z</time>
      </trkpt>
      <trkpt lat="43.61778" lon="3.00362">
        <ele>799</ele>
        <time>2016-06-11T13:52:20Z</time>
      </trkpt>
      <trkpt lat="43.61804" lon="3.00374">
        <ele>796</ele>
        <time>2016-06-11T13:52:34Z</time>
      </trkpt>
      <trkpt lat="43.61831" lon="3.0038">
        <ele>794</ele>
        <time>2016-06-11T13:52:47Z</time>
      </trkpt>
      <trkpt lat="43.61868" lon="3.00337">
        <ele>791</ele>
        <time>2016-06-11T13:53:10Z</time>
      </trkpt>
      <trkpt lat="43.6187" lon="3.00249">
        <ele>794</ele>
        <time>2016-06-11T13:53:51Z</time>
      </trkpt>
      <trkpt lat="43.61864" lon="3.0009">
        <ele>803</ele>
        <time>2016-06-11T13:55:12Z</time>
      </trkpt>
      <trkpt lat="43.6187" lon="3.0006">
        <ele>805</ele>
        <time>2016-06-11T13:55:29Z</time>
      </trkpt>
      <trkpt lat="43.61885" lon="3.00056">
        <ele>805</ele>
        <time>2016-06-11T13:55:38Z</time>
      </trkpt>
      <trkpt lat="43.61903" lon="3.00091">
        <ele>800</ele>
        <time>2016-06-11T13:55:57Z</time>
      </trkpt>
      <trkpt lat="43.61913" lon="3.00135">
        <ele>793</ele>
        <time>2016-06-11T13:56:21Z</time>
      </trkpt>
      <trkpt lat="43.61938" lon="3.00199">
        <ele>789</ele>
        <time>2016-06-11T13:56:46Z</time>
      </trkpt>
      <trkpt lat="43.61961" lon="3.00214">
        <ele>787</ele>
        <time>2016-06-11T13:56:59Z</time>
      </trkpt>
      <trkpt lat="43.61985" lon="3.00219">
        <ele>786</ele>
        <time>2016-06-11T13:57:11Z</time>
      </trkpt>
      <trkpt lat="43.6201" lon="3.00211">
        <ele>789</ele>
        <time>2016-06-11T13:57:32Z</time>
      </trkpt>
      <trkpt lat="43.62031" lon="3.00214">
        <ele>790</ele>
        <time>2016-06-11T13:57:46Z</time>
      </trkpt>
      <trkpt lat="43.62043" lon="3.00247">
        <ele>784</ele>
        <time>2016-06-11T13:58:06Z</time>
      </trkpt>
      <trkpt lat="43.62058" lon="3.00279">
        <ele>779</ele>
        <time>2016-06-11T13:58:24Z</time>
      </trkpt>
      <trkpt lat="43.62105" lon="3.00337">
        <ele>769</ele>
        <time>2016-06-11T13:59:01Z</time>
      </trkpt>
      <trkpt lat="43.62157" lon="3.00377">
        <ele>766</ele>
        <time>2016-06-11T13:59:31Z</time>
      </trkpt>
      <trkpt lat="43.62186" lon="3.00379">
        <ele>767</ele>
        <time>2016-06-11T13:59:48Z</time>
      </trkpt>
      <trkpt lat="43.62215" lon="3.00369">
        <ele>772</ele>
        <time>2016-06-11T14:00:19Z</time>
      </trkpt>
      <trkpt lat="43.62227" lon="3.00392">
        <ele>771</ele>
        <time>2016-06-11T14:00:29Z</time>
      </trkpt>
      <trkpt lat="43.62213" lon="3.00415">
        <ele>767</ele>
        <time>2016-06-11T14:00:44Z</time>
      </trkpt>
      <trkpt lat="43.62211" lon="3.00444">
        <ele>766</ele>
        <time>2016-06-11T14:00:54Z</time>
      </trkpt>
      <trkpt lat="43.62262" lon="3.00478">
        <ele>775</ele>
        <time>2016-06-11T14:01:50Z</time>
      </trkpt>
      <trkpt lat="43.6225" lon="3.00583">
        <ele>781</ele>
        <time>2016-06-11T14:02:45Z</time>
      </trkpt>
      <trkpt lat="43.62248" lon="3.00675">
        <ele>785</ele>
        <time>2016-06-11T14:03:28Z</time>
      </trkpt>
      <trkpt lat="43.62268" lon="3.00787">
        <ele>791</ele>
        <time>2016-06-11T14:04:26Z</time>
      </trkpt>
      <trkpt lat="43.6231" lon="3.00909">
        <ele>797</ele>
        <time>2016-06-11T14:05:31Z</time>
      </trkpt>
      <trkpt lat="43.62346" lon="3.01104">
        <ele>802</ele>
        <time>2016-06-11T14:07:01Z</time>
      </trkpt>
      <trkpt lat="43.62414" lon="3.01329">
        <ele>794</ele>
        <time>2016-06-11T14:08:29Z</time>
      </trkpt>
      <trkpt lat="43.62446" lon="3.01341">
        <ele>790</ele>
        <time>2016-06-11T14:08:46Z</time>
      </trkpt>
      <trkpt lat="43.62488" lon="3.013">
        <ele>785</ele>
        <time>2016-06-11T14:09:11Z</time>
      </trkpt>
      <trkpt lat="43.62474" lon="3.01371">
        <ele>783</ele>
        <time>2016-06-11T14:09:39Z</time>
      </trkpt>
      <trkpt lat="43.62491" lon="3.0141">
        <ele>778</ele>
        <time>2016-06-11T14:09:58Z</time>
      </trkpt>
      <trkpt lat="43.62541" lon="3.01463">
        <ele>765</ele>
        <time>2016-06-11T14:10:42Z</time>
      </trkpt>
      <trkpt lat="43.62615" lon="3.01626">
        <ele>746</ele>
        <time>2016-06-11T14:11:59Z</time>
      </trkpt>
      <trkpt lat="43.62623" lon="3.01686">
        <ele>741</ele>
        <time>2016-06-11T14:12:22Z</time>
      </trkpt>
      <trkpt lat="43.62615" lon="3.01734">
        <ele>740</ele>
        <time>2016-06-11T14:12:40Z</time>
      </trkpt>
      <trkpt lat="43.62665" lon="3.01701">
        <ele>726</ele>
        <time>2016-06-11T14:13:27Z</time>
      </trkpt>
      <trkpt lat="43.6267" lon="3.01725">
        <ele>723</ele>
        <time>2016-06-11T14:13:37Z</time>
      </trkpt>
      <trkpt lat="43.62648" lon="3.01776">
        <ele>725</ele>
        <time>2016-06-11T14:14:05Z</time>
      </trkpt>
      <trkpt lat="43.62679" lon="3.01766">
        <ele>716</ele>
        <time>2016-06-11T14:14:35Z</time>
      </trkpt>
      <trkpt lat="43.62769" lon="3.01772">
        <ele>692</ele>
        <time>2016-06-11T14:15:54Z</time>
      </trkpt>
      <trkpt lat="43.62789" lon="3.0174">
        <ele>687</ele>
        <time>2016-06-11T14:16:12Z</time>
      </trkpt>
      <trkpt lat="43.62794" lon="3.01688">
        <ele>684</ele>
        <time>2016-06-11T14:16:30Z</time>
      </trkpt>
      <trkpt lat="43.62853" lon="3.01798">
        <ele>666</ele>
        <time>2016-06-11T14:17:34Z</time>
      </trkpt>
      <trkpt lat="43.62853" lon="3.01879">
        <ele>661</ele>
        <time>2016-06-11T14:18:03Z</time>
      </trkpt>
      <trkpt lat="43.62932" lon="3.01854">
        <ele>644</ele>
        <time>2016-06-11T14:19:02Z</time>
      </trkpt>
      <trkpt lat="43.62954" lon="3.01841">
        <ele>637</ele>
        <time>2016-06-11T14:19:25Z</time>
      </trkpt>
      <trkpt lat="43.63005" lon="3.01916">
        <ele>623</ele>
        <time>2016-06-11T14:20:14Z</time>
      </trkpt>
      <trkpt lat="43.63027" lon="3.0194">
        <ele>616</ele>
        <time>2016-06-11T14:20:37Z</time>
      </trkpt>
      <trkpt lat="43.63033" lon="3.01987">
        <ele>613</ele>
        <time>2016-06-11T14:20:54Z</time>
      </trkpt>
      <trkpt lat="43.63098" lon="3.02025">
        <ele>598</ele>
        <time>2016-06-11T14:21:46Z</time>
      </trkpt>
      <trkpt lat="43.63119" lon="3.02081">
        <ele>590</ele>
        <time>2016-06-11T14:22:14Z</time>
      </trkpt>
      <trkpt lat="43.63157" lon="3.0204">
        <ele>579</ele>
        <time>2016-06-11T14:22:52Z</time>
      </trkpt>
      <trkpt lat="43.63162" lon="3.0201">
        <ele>575</ele>
        <time>2016-06-11T14:23:06Z</time>
      </trkpt>
      <trkpt lat="43.63178" lon="3.02017">
        <ele>568</ele>
        <time>2016-06-11T14:23:31Z</time>
      </trkpt>
      <trkpt lat="43.63184" lon="3.01995">
        <ele>564</ele>
        <time>2016-06-11T14:23:44Z</time>
      </trkpt>
      <trkpt lat="43.63199" lon="3.02002">
        <ele>558</ele>
        <time>2016-06-11T14:24:05Z</time>
      </trkpt>
      <trkpt lat="43.63215" lon="3.01976">
        <ele>548</ele>
        <time>2016-06-11T14:24:40Z</time>
      </trkpt>
      <trkpt lat="43.63207" lon="3.01937">
        <ele>548</ele>
        <time>2016-06-11T14:24:56Z</time>
      </trkpt>
      <trkpt lat="43.63187" lon="3.01903">
        <ele>555</ele>
        <time>2016-06-11T14:25:39Z</time>
      </trkpt>
      <trkpt lat="43.63187" lon="3.01875">
        <ele>556</ele>
        <time>2016-06-11T14:25:52Z</time>
      </trkpt>
      <trkpt lat="43.63226" lon="3.01873">
        <ele>546</ele>
        <time>2016-06-11T14:26:25Z</time>
      </trkpt>
      <trkpt lat="43.63243" lon="3.01886">
        <ele>541</ele>
        <time>2016-06-11T14:26:41Z</time>
      </trkpt>
      <trkpt lat="43.63279" lon="3.01907">
        <ele>530</ele>
        <time>2016-06-11T14:27:18Z</time>
      </trkpt>
      <trkpt lat="43.63308" lon="3.01942">
        <ele>524</ele>
        <time>2016-06-11T14:27:40Z</time>
      </trkpt>
      <trkpt lat="43.63338" lon="3.0198">
        <ele>520</ele>
        <time>2016-06-11T14:28:01Z</time>
      </trkpt>
      <trkpt lat="43.63355" lon="3.02062">
        <ele>507</ele>
        <time>2016-06-11T14:28:45Z</time>
      </trkpt>
      <trkpt lat="43.63367" lon="3.02088">
        <ele>506</ele>
        <time>2016-06-11T14:28:56Z</time>
      </trkpt>
      <trkpt lat="43.63372" lon="3.0212">
        <ele>503</ele>
        <time>2016-06-11T14:29:09Z</time>
      </trkpt>
      <trkpt lat="43.63387" lon="3.0215">
        <ele>502</ele>
        <time>2016-06-11T14:29:23Z</time>
      </trkpt>
      <trkpt lat="43.63448" lon="3.02268">
        <ele>485</ele>
        <time>2016-06-11T14:30:26Z</time>
      </trkpt>
      <trkpt lat="43.63501" lon="3.02253">
        <ele>490</ele>
        <time>2016-06-11T14:31:06Z</time>
      </trkpt>
      <trkpt lat="43.63535" lon="3.02294">
        <ele>483</ele>
        <time>2016-06-11T14:31:33Z</time>
      </trkpt>
      <trkpt lat="43.63572" lon="3.02326">
        <ele>474</ele>
        <time>2016-06-11T14:32:04Z</time>
      </trkpt>
      <trkpt lat="43.63609" lon="3.02337">
        <ele>474</ele>
        <time>2016-06-11T14:32:26Z</time>
      </trkpt>
      <trkpt lat="43.6372" lon="3.0247">
        <ele>446</ele>
        <time>2016-06-11T14:34:04Z</time>
      </trkpt>
      <trkpt lat="43.63715" lon="3.025">
        <ele>439</ele>
        <time>2016-06-11T14:34:27Z</time>
      </trkpt>
      <trkpt lat="43.63804" lon="3.0256">
        <ele>436</ele>
        <time>2016-06-11T14:35:19Z</time>
      </trkpt>
      <trkpt lat="43.63835" lon="3.02596">
        <ele>430</ele>
        <time>2016-06-11T14:35:42Z</time>
      </trkpt>
      <trkpt lat="43.63875" lon="3.02671">
        <ele>419</ele>
        <time>2016-06-11T14:36:23Z</time>
      </trkpt>
      <trkpt lat="43.63912" lon="3.02697">
        <ele>417</ele>
        <time>2016-06-11T14:36:44Z</time>
      </trkpt>
      <trkpt lat="43.63939" lon="3.02725">
        <ele>411</ele>
        <time>2016-06-11T14:37:05Z</time>
      </trkpt>
      <trkpt lat="43.6397" lon="3.02772">
        <ele>404</ele>
        <time>2016-06-11T14:37:32Z</time>
      </trkpt>
      <trkpt lat="43.63991" lon="3.02787">
        <ele>401</ele>
        <time>2016-06-11T14:37:45Z</time>
      </trkpt>
      <trkpt lat="43.64016" lon="3.02813">
        <ele>396</ele>
        <time>2016-06-11T14:38:03Z</time>
      </trkpt>
      <trkpt lat="43.64041" lon="3.02832">
        <ele>394</ele>
        <time>2016-06-11T14:38:17Z</time>
      </trkpt>
      <trkpt lat="43.64108" lon="3.02888">
        <ele>384</ele>
        <time>2016-06-11T14:38:59Z</time>
      </trkpt>
      <trkpt lat="43.6413" lon="3.02849">
        <ele>383</ele>
        <time>2016-06-11T14:39:18Z</time>
      </trkpt>
      <trkpt lat="43.64162" lon="3.02819">
        <ele>380</ele>
        <time>2016-06-11T14:39:37Z</time>
      </trkpt>
      <trkpt lat="43.64145" lon="3.02746">
        <ele>388</ele>
        <time>2016-06-11T14:40:28Z</time>
      </trkpt>
      <trkpt lat="43.64123" lon="3.02721">
        <ele>397</ele>
        <time>2016-06-11T14:41:21Z</time>
      </trkpt>
      <trkpt lat="43.64116" lon="3.02682">
        <ele>401</ele>
        <time>2016-06-11T14:41:47Z</time>
      </trkpt>
      <trkpt lat="43.64137" lon="3.02538">
        <ele>409</ele>
        <time>2016-06-11T14:43:02Z</time>
      </trkpt>
      <trkpt lat="43.64131" lon="3.02508">
        <ele>416</ele>
        <time>2016-06-11T14:43:43Z</time>
      </trkpt>
      <trkpt lat="43.64131" lon="3.02476">
        <ele>421</ele>
        <time>2016-06-11T14:44:13Z</time>
      </trkpt>
      <trkpt lat="43.64154" lon="3.02401">
        <ele>421</ele>
        <time>2016-06-11T14:44:47Z</time>
      </trkpt>
      <trkpt lat="43.64173" lon="3.02377">
        <ele>415</ele>
        <time>2016-06-11T14:45:07Z</time>
      </trkpt>
      <trkpt lat="43.6417" lon="3.02332">
        <ele>425</ele>
        <time>2016-06-11T14:46:05Z</time>
      </trkpt>
      <trkpt lat="43.64182" lon="3.02229">
        <ele>433</ele>
        <time>2016-06-11T14:47:06Z</time>
      </trkpt>
      <trkpt lat="43.64173" lon="3.02178">
        <ele>445</ele>
        <time>2016-06-11T14:48:16Z</time>
      </trkpt>
      <trkpt lat="43.64196" lon="3.02176">
        <ele>448</ele>
        <time>2016-06-11T14:48:36Z</time>
      </trkpt>
      <trkpt lat="43.6422" lon="3.02231">
        <ele>437</ele>
        <time>2016-06-11T14:49:13Z</time>
      </trkpt>
      <trkpt lat="43.64255" lon="3.02266">
        <ele>428</ele>
        <time>2016-06-11T14:49:44Z</time>
      </trkpt>
      <trkpt lat="43.64339" lon="3.02251">
        <ele>461</ele>
        <time>2016-06-11T14:52:59Z</time>
      </trkpt>
      <trkpt lat="43.64363" lon="3.02261">
        <ele>463</ele>
        <time>2016-06-11T14:53:16Z</time>
      </trkpt>
      <trkpt lat="43.64369" lon="3.02199">
        <ele>477</ele>
        <time>2016-06-11T14:54:38Z</time>
      </trkpt>
      <trkpt lat="43.64389" lon="3.02182">
        <ele>480</ele>
        <time>2016-06-11T14:54:59Z</time>
      </trkpt>
      <trkpt lat="43.64446" lon="3.02053">
        <ele>492</ele>
        <time>2016-06-11T14:56:28Z</time>
      </trkpt>
      <trkpt lat="43.64484" lon="3.02002">
        <ele>489</ele>
        <time>2016-06-11T14:56:53Z</time>
      </trkpt>
      <trkpt lat="43.64485" lon="3.01931">
        <ele>508</ele>
        <time>2016-06-11T14:58:45Z</time>
      </trkpt>
      <trkpt lat="43.64501" lon="3.01899">
        <ele>511</ele>
        <time>2016-06-11T14:59:08Z</time>
      </trkpt>
      <trkpt lat="43.64522" lon="3.01882">
        <ele>507</ele>
        <time>2016-06-11T14:59:23Z</time>
      </trkpt>
      <trkpt lat="43.64549" lon="3.01847">
        <ele>512</ele>
        <time>2016-06-11T14:59:56Z</time>
      </trkpt>
      <trkpt lat="43.64599" lon="3.01839">
        <ele>502</ele>
        <time>2016-06-11T15:00:30Z</time>
      </trkpt>
      <trkpt lat="43.64664" lon="3.01862">
        <ele>484</ele>
        <time>2016-06-11T15:01:30Z</time>
      </trkpt>
      <trkpt lat="43.64706" lon="3.01858">
        <ele>480</ele>
        <time>2016-06-11T15:01:51Z</time>
      </trkpt>
      <trkpt lat="43.64723" lon="3.01845">
        <ele>478</ele>
        <time>2016-06-11T15:02:00Z</time>
      </trkpt>
      <trkpt lat="43.64732" lon="3.01822">
        <ele>477</ele>
        <time>2016-06-11T15:02:10Z</time>
      </trkpt>
      <trkpt lat="43.64727" lon="3.018">
        <ele>477</ele>
        <time>2016-06-11T15:02:19Z</time>
      </trkpt>
      <trkpt lat="43.6476" lon="3.01759">
        <ele>479</ele>
        <time>2016-06-11T15:02:47Z</time>
      </trkpt>
      <trkpt lat="43.64749" lon="3.01742">
        <ele>482</ele>
        <time>2016-06-11T15:03:05Z</time>
      </trkpt>
      <trkpt lat="43.64765" lon="3.01723">
        <ele>486</ele>
        <time>2016-06-11T15:03:29Z</time>
      </trkpt>
      <trkpt lat="43.64748" lon="3.01693">
        <ele>489</ele>
        <time>2016-06-11T15:03:52Z</time>
      </trkpt>
      <trkpt lat="43.64769" lon="3.01639">
        <ele>501</ele>
        <time>2016-06-11T15:05:02Z</time>
      </trkpt>
      <trkpt lat="43.64811" lon="3.01633">
        <ele>509</ele>
        <time>2016-06-11T15:05:50Z</time>
      </trkpt>
      <trkpt lat="43.6485" lon="3.01618">
        <ele>521</ele>
        <time>2016-06-11T15:07:00Z</time>
      </trkpt>
      <trkpt lat="43.64878" lon="3.01607">
        <ele>531</ele>
        <time>2016-06-11T15:07:59Z</time>
      </trkpt>
      <trkpt lat="43.64897" lon="3.01607">
        <ele>537</ele>
        <time>2016-06-11T15:08:34Z</time>
      </trkpt>
      <trkpt lat="43.64909" lon="3.0159">
        <ele>543</ele>
        <time>2016-06-11T15:09:10Z</time>
      </trkpt>
      <trkpt lat="43.64926" lon="3.01596">
        <ele>548</ele>
        <time>2016-06-11T15:09:39Z</time>
      </trkpt>
      <trkpt lat="43.64949" lon="3.01594">
        <ele>557</ele>
        <time>2016-06-11T15:10:32Z</time>
      </trkpt>
      <trkpt lat="43.6503" lon="3.01682">
        <ele>581</ele>
        <time>2016-06-11T15:12:57Z</time>
      </trkpt>
      <trkpt lat="43.65032" lon="3.01704">
        <ele>580</ele>
        <time>2016-06-11T15:13:04Z</time>
      </trkpt>
      <trkpt lat="43.65044" lon="3.01723">
        <ele>586</ele>
        <time>2016-06-11T15:13:39Z</time>
      </trkpt>
      <trkpt lat="43.6503" lon="3.01817">
        <ele>581</ele>
        <time>2016-06-11T15:14:13Z</time>
      </trkpt>
      <trkpt lat="43.65029" lon="3.01862">
        <ele>584</ele>
        <time>2016-06-11T15:14:38Z</time>
      </trkpt>
      <trkpt lat="43.65019" lon="3.01933">
        <ele>584</ele>
        <time>2016-06-11T15:15:08Z</time>
      </trkpt>
      <trkpt lat="43.65005" lon="3.01963">
        <ele>577</ele>
        <time>2016-06-11T15:15:31Z</time>
      </trkpt>
      <trkpt lat="43.65002" lon="3.02">
        <ele>576</ele>
        <time>2016-06-11T15:15:44Z</time>
      </trkpt>
      <trkpt lat="43.64998" lon="3.02049">
        <ele>574</ele>
        <time>2016-06-11T15:16:02Z</time>
      </trkpt>
      <trkpt lat="43.64998" lon="3.02075">
        <ele>574</ele>
        <time>2016-06-11T15:16:12Z</time>
      </trkpt>
      <trkpt lat="43.64991" lon="3.0212">
        <ele>571</ele>
        <time>2016-06-11T15:16:29Z</time>
      </trkpt>
      <trkpt lat="43.64981" lon="3.02154">
        <ele>565</ele>
        <time>2016-06-11T15:16:49Z</time>
      </trkpt>
      <trkpt lat="43.6497" lon="3.02193">
        <ele>561</ele>
        <time>2016-06-11T15:17:05Z</time>
      </trkpt>
      <trkpt lat="43.64954" lon="3.02234">
        <ele>557</ele>
        <time>2016-06-11T15:17:23Z</time>
      </trkpt>
      <trkpt lat="43.64965" lon="3.02255">
        <ele>562</ele>
        <time>2016-06-11T15:17:52Z</time>
      </trkpt>
      <trkpt lat="43.64985" lon="3.02238">
        <ele>568</ele>
        <time>2016-06-11T15:18:27Z</time>
      </trkpt>
      <trkpt lat="43.65021" lon="3.02206">
        <ele>580</ele>
        <time>2016-06-11T15:19:37Z</time>
      </trkpt>
      <trkpt lat="43.65047" lon="3.02156">
        <ele>592</ele>
        <time>2016-06-11T15:20:47Z</time>
      </trkpt>
      <trkpt lat="43.65088" lon="3.02126">
        <ele>608</ele>
        <time>2016-06-11T15:22:22Z</time>
      </trkpt>
      <trkpt lat="43.65112" lon="3.02081">
        <ele>620</ele>
        <time>2016-06-11T15:23:32Z</time>
      </trkpt>
      <trkpt lat="43.65139" lon="3.01995">
        <ele>644</ele>
        <time>2016-06-11T15:25:54Z</time>
      </trkpt>
      <trkpt lat="43.6515" lon="3.01952">
        <ele>653</ele>
        <time>2016-06-11T15:26:46Z</time>
      </trkpt>
      <trkpt lat="43.65279" lon="3.01712">
        <ele>715</ele>
        <time>2016-06-11T15:32:47Z</time>
      </trkpt>
      <trkpt lat="43.65321" lon="3.01624">
        <ele>726</ele>
        <time>2016-06-11T15:33:58Z</time>
      </trkpt>
      <trkpt lat="43.65345" lon="3.01577">
        <ele>733</ele>
        <time>2016-06-11T15:34:41Z</time>
      </trkpt>
      <trkpt lat="43.65369" lon="3.01467">
        <ele>741</ele>
        <time>2016-06-11T15:35:44Z</time>
      </trkpt>
      <trkpt lat="43.65389" lon="3.01334">
        <ele>755</ele>
        <time>2016-06-11T15:37:15Z</time>
      </trkpt>
      <trkpt lat="43.65409" lon="3.01264">
        <ele>764</ele>
        <time>2016-06-11T15:38:11Z</time>
      </trkpt>
      <trkpt lat="43.65443" lon="3.01191">
        <ele>771</ele>
        <time>2016-06-11T15:39:02Z</time>
      </trkpt>
      <trkpt lat="43.65457" lon="3.01107">
        <ele>780</ele>
        <time>2016-06-11T15:40:00Z</time>
      </trkpt>
      <trkpt lat="43.65453" lon="3.00972">
        <ele>777</ele>
        <time>2016-06-11T15:40:51Z</time>
      </trkpt>
      <trkpt lat="43.65443" lon="3.00914">
        <ele>773</ele>
        <time>2016-06-11T15:41:13Z</time>
      </trkpt>
      <trkpt lat="43.65421" lon="3.00862">
        <ele>772</ele>
        <time>2016-06-11T15:41:35Z</time>
      </trkpt>
      <trkpt lat="43.65414" lon="3.00822">
        <ele>769</ele>
        <time>2016-06-11T15:41:51Z</time>
      </trkpt>
      <trkpt lat="43.65386" lon="3.0077">
        <ele>755</ele>
        <time>2016-06-11T15:42:37Z</time>
      </trkpt>
      <trkpt lat="43.65369" lon="3.00751">
        <ele>751</ele>
        <time>2016-06-11T15:42:52Z</time>
      </trkpt>
      <trkpt lat="43.6535" lon="3.00725">
        <ele>748</ele>
        <time>2016-06-11T15:43:05Z</time>
      </trkpt>
      <trkpt lat="43.65335" lon="3.00693">
        <ele>742</ele>
        <time>2016-06-11T15:43:26Z</time>
      </trkpt>
      <trkpt lat="43.65313" lon="3.00693">
        <ele>739</ele>
        <time>2016-06-11T15:43:38Z</time>
      </trkpt>
      <trkpt lat="43.65307" lon="3.00646">
        <ele>738</ele>
        <time>2016-06-11T15:43:56Z</time>
      </trkpt>
      <trkpt lat="43.65289" lon="3.0062">
        <ele>738</ele>
        <time>2016-06-11T15:44:10Z</time>
      </trkpt>
      <trkpt lat="43.65272" lon="3.00598">
        <ele>736</ele>
        <time>2016-06-11T15:44:22Z</time>
      </trkpt>
      <trkpt lat="43.65258" lon="3.00564">
        <ele>732</ele>
        <time>2016-06-11T15:44:38Z</time>
      </trkpt>
      <trkpt lat="43.65249" lon="3.00525">
        <ele>728</ele>
        <time>2016-06-11T15:44:54Z</time>
      </trkpt>
      <trkpt lat="43.65254" lon="3.0042">
        <ele>705</ele>
        <time>2016-06-11T15:46:11Z</time>
      </trkpt>
      <trkpt lat="43.65255" lon="3.00354">
        <ele>692</ele>
        <time>2016-06-11T15:46:53Z</time>
      </trkpt>
      <trkpt lat="43.65246" lon="3.00294">
        <ele>685</ele>
        <time>2016-06-11T15:47:20Z</time>
      </trkpt>
      <trkpt lat="43.65241" lon="3.00128">
        <ele>669</ele>
        <time>2016-06-11T15:48:25Z</time>
      </trkpt>
      <trkpt lat="43.65307" lon="3.00115">
        <ele>664</ele>
        <time>2016-06-11T15:48:58Z</time>
      </trkpt>
      <trkpt lat="43.65354" lon="3.00147">
        <ele>643</ele>
        <time>2016-06-11T15:50:11Z</time>
      </trkpt>
      <trkpt lat="43.6546" lon="3.00228">
        <ele>594</ele>
        <time>2016-06-11T15:53:02Z</time>
      </trkpt>
      <trkpt lat="43.65485" lon="3.00258">
        <ele>581</ele>
        <time>2016-06-11T15:53:47Z</time>
      </trkpt>
      <trkpt lat="43.65535" lon="3.00266">
        <ele>562</ele>
        <time>2016-06-11T15:54:52Z</time>
      </trkpt>
      <trkpt lat="43.65554" lon="3.00289">
        <ele>553</ele>
        <time>2016-06-11T15:55:23Z</time>
      </trkpt>
      <trkpt lat="43.65624" lon="3.00288">
        <ele>531</ele>
        <time>2016-06-11T15:56:38Z</time>
      </trkpt>
      <trkpt lat="43.65621" lon="3.00302">
        <ele>531</ele>
        <time>2016-06-11T15:56:44Z</time>
      </trkpt>
      <trkpt lat="43.65632" lon="3.00304">
        <ele>532</ele>
        <time>2016-06-11T15:56:52Z</time>
      </trkpt>
      <trkpt lat="43.6563" lon="3.0031">
        <ele>530</ele>
        <time>2016-06-11T15:56:59Z</time>
      </trkpt>
      <trkpt lat="43.65686" lon="3.003">
        <ele>513</ele>
        <time>2016-06-11T15:57:56Z</time>
      </trkpt>
      <trkpt lat="43.65702" lon="3.00322">
        <ele>508</ele>
        <time>2016-06-11T15:58:13Z</time>
      </trkpt>
      <trkpt lat="43.6572" lon="3.00327">
        <ele>505</ele>
        <time>2016-06-11T15:58:24Z</time>
      </trkpt>
      <trkpt lat="43.65729" lon="3.00352">
        <ele>501</ele>
        <time>2016-06-11T15:58:38Z</time>
      </trkpt>
      <trkpt lat="43.65764" lon="3.0036">
        <ele>495</ele>
        <time>2016-06-11T15:59:00Z</time>
      </trkpt>
      <trkpt lat="43.65854" lon="3.00392">
        <ele>477</ele>
        <time>2016-06-11T16:00:02Z</time>
      </trkpt>
      <trkpt lat="43.65852" lon="3.00404">
        <ele>479</ele>
        <time>2016-06-11T16:00:14Z</time>
      </trkpt>
      <trkpt lat="43.65839" lon="3.00412">
        <ele>484</ele>
        <time>2016-06-11T16:00:44Z</time>
      </trkpt>
      <trkpt lat="43.65874" lon="3.00422">
        <ele>475</ele>
        <time>2016-06-11T16:01:14Z</time>
      </trkpt>
      <trkpt lat="43.65897" lon="3.00406">
        <ele>469</ele>
        <time>2016-06-11T16:01:34Z</time>
      </trkpt>
      <trkpt lat="43.65924" lon="3.004">
        <ele>463</ele>
        <time>2016-06-11T16:01:55Z</time>
      </trkpt>
      <trkpt lat="43.65984" lon="3.00418">
        <ele>452</ele>
        <time>2016-06-11T16:02:34Z</time>
      </trkpt>
      <trkpt lat="43.66065" lon="3.00458">
        <ele>443</ele>
        <time>2016-06-11T16:03:18Z</time>
      </trkpt>
      <trkpt lat="43.66147" lon="3.0054">
        <ele>433</ele>
        <time>2016-06-11T16:04:08Z</time>
      </trkpt>
      <trkpt lat="43.66213" lon="3.00545">
        <ele>421</ele>
        <time>2016-06-11T16:04:51Z</time>
      </trkpt>
      <trkpt lat="43.66247" lon="3.00545">
        <ele>416</ele>
        <time>2016-06-11T16:05:10Z</time>
      </trkpt>
      <trkpt lat="43.66275" lon="3.00531">
        <ele>412</ele>
        <time>2016-06-11T16:05:26Z</time>
      </trkpt>
      <trkpt lat="43.6631" lon="3.00522">
        <ele>407</ele>
        <time>2016-06-11T16:05:46Z</time>
      </trkpt>
      <trkpt lat="43.66337" lon="3.00505">
        <ele>401</ele>
        <time>2016-06-11T16:06:07Z</time>
      </trkpt>
      <trkpt lat="43.6637" lon="3.00485">
        <ele>395</ele>
        <time>2016-06-11T16:06:29Z</time>
      </trkpt>
      <trkpt lat="43.66383" lon="3.00484">
        <ele>393</ele>
        <time>2016-06-11T16:06:37Z</time>
      </trkpt>
      <trkpt lat="43.6651" lon="3.00517">
        <ele>377</ele>
        <time>2016-06-11T16:07:45Z</time>
      </trkpt>
      <trkpt lat="43.66526" lon="3.00485">
        <ele>374</ele>
        <time>2016-06-11T16:08:00Z</time>
      </trkpt>
      <trkpt lat="43.66564" lon="3.00485">
        <ele>370</ele>
        <time>2016-06-11T16:08:19Z</time>
      </trkpt>
      <trkpt lat="43.66588" lon="3.00481">
        <ele>368</ele>
        <time>2016-06-11T16:08:31Z</time>
      </trkpt>
      <trkpt lat="43.66573" lon="3.00357">
        <ele>373</ele>
        <time>2016-06-11T16:09:29Z</time>
      </trkpt>
      <trkpt lat="43.66577" lon="3.00245">
        <ele>379</ele>
        <time>2016-06-11T16:10:26Z</time>
      </trkpt>
      <trkpt lat="43.66535" lon="3.00102">
        <ele>383</ele>
        <time>2016-06-11T16:11:35Z</time>
      </trkpt>
      <trkpt lat="43.66529" lon="2.99995">
        <ele>387</ele>
        <time>2016-06-11T16:12:24Z</time>
      </trkpt>
      <trkpt lat="43.66519" lon="2.99891">
        <ele>390</ele>
        <time>2016-06-11T16:13:12Z</time>
      </trkpt>
      <trkpt lat="43.66512" lon="2.99877">
        <ele>391</ele>
        <time>2016-06-11T16:13:21Z</time>
      </trkpt>
      <trkpt lat="43.66511" lon="2.99853">
        <ele>391</ele>
        <time>2016-06-11T16:13:31Z</time>
      </trkpt>
      <trkpt lat="43.66514" lon="2.99779">
        <ele>394</ele>
        <time>2016-06-11T16:14:05Z</time>
      </trkpt>
      <trkpt lat="43.66531" lon="2.99729">
        <ele>395</ele>
        <time>2016-06-11T16:14:29Z</time>
      </trkpt>
      <trkpt lat="43.66535" lon="2.99687">
        <ele>397</ele>
        <time>2016-06-11T16:14:50Z</time>
      </trkpt>
      <trkpt lat="43.66547" lon="2.99658">
        <ele>396</ele>
        <time>2016-06-11T16:15:02Z</time>
      </trkpt>
      <trkpt lat="43.66554" lon="2.99595">
        <ele>399</ele>
        <time>2016-06-11T16:15:33Z</time>
      </trkpt>
      <trkpt lat="43.66573" lon="2.99472">
        <ele>405</ele>
        <time>2016-06-11T16:16:34Z</time>
      </trkpt>
      <trkpt lat="43.66595" lon="2.99367">
        <ele>402</ele>
        <time>2016-06-11T16:17:15Z</time>
      </trkpt>
      <trkpt lat="43.66596" lon="2.99327">
        <ele>402</ele>
        <time>2016-06-11T16:17:31Z</time>
      </trkpt>
      <trkpt lat="43.66586" lon="2.9929">
        <ele>405</ele>
        <time>2016-06-11T16:17:54Z</time>
      </trkpt>
      <trkpt lat="43.66535" lon="2.99277">
        <ele>411</ele>
        <time>2016-06-11T16:18:38Z</time>
      </trkpt>
      <trkpt lat="43.66526" lon="2.9927">
        <ele>411</ele>
        <time>2016-06-11T16:18:43Z</time>
      </trkpt>
      <trkpt lat="43.66523" lon="2.99258">
        <ele>412</ele>
        <time>2016-06-11T16:18:51Z</time>
      </trkpt>
      <trkpt lat="43.66528" lon="2.9925">
        <ele>410</ele>
        <time>2016-06-11T16:18:57Z</time>
      </trkpt>
      <trkpt lat="43.66554" lon="2.9925">
        <ele>405</ele>
        <time>2016-06-11T16:19:15Z</time>
      </trkpt>
      <trkpt lat="43.66552" lon="2.99241">
        <ele>405</ele>
        <time>2016-06-11T16:19:19Z</time>
      </trkpt>
      <trkpt lat="43.66529" lon="2.99183">
        <ele>410</ele>
        <time>2016-06-11T16:19:57Z</time>
      </trkpt>
      <trkpt lat="43.66517" lon="2.99146">
        <ele>414</ele>
        <time>2016-06-11T16:20:23Z</time>
      </trkpt>
      <trkpt lat="43.66511" lon="2.9912">
        <ele>417</ele>
        <time>2016-06-11T16:20:42Z</time>
      </trkpt>
      <trkpt lat="43.66514" lon="2.99097">
        <ele>417</ele>
        <time>2016-06-11T16:20:52Z</time>
      </trkpt>
      <trkpt lat="43.66521" lon="2.98956">
        <ele>425</ele>
        <time>2016-06-11T16:22:04Z</time>
      </trkpt>
      <trkpt lat="43.66498" lon="2.98861">
        <ele>431</ele>
        <time>2016-06-11T16:22:57Z</time>
      </trkpt>
      <trkpt lat="43.66515" lon="2.98826">
        <ele>428</ele>
        <time>2016-06-11T16:23:12Z</time>
      </trkpt>
      <trkpt lat="43.66524" lon="2.98741">
        <ele>424</ele>
        <time>2016-06-11T16:23:42Z</time>
      </trkpt>
      <trkpt lat="43.66531" lon="2.98642">
        <ele>428</ele>
        <time>2016-06-11T16:24:28Z</time>
      </trkpt>
      <trkpt lat="43.66505" lon="2.98716">
        <ele>433</ele>
        <time>2016-06-11T16:25:11Z</time>
      </trkpt>
      <trkpt lat="43.66461" lon="2.98796">
        <ele>446</ele>
        <time>2016-06-11T16:26:30Z</time>
      </trkpt>
      <trkpt lat="43.66446" lon="2.98777">
        <ele>451</ele>
        <time>2016-06-11T16:27:00Z</time>
      </trkpt>
      <trkpt lat="43.66416" lon="2.98778">
        <ele>462</ele>
        <time>2016-06-11T16:28:05Z</time>
      </trkpt>
      <trkpt lat="43.66394" lon="2.98781">
        <ele>470</ele>
        <time>2016-06-11T16:28:52Z</time>
      </trkpt>
      <trkpt lat="43.66384" lon="2.98791">
        <ele>470</ele>
        <time>2016-06-11T16:28:59Z</time>
      </trkpt>
      <trkpt lat="43.66386" lon="2.98806">
        <ele>471</ele>
        <time>2016-06-11T16:29:07Z</time>
      </trkpt>
      <trkpt lat="43.66384" lon="2.98829">
        <ele>468</ele>
        <time>2016-06-11T16:29:18Z</time>
      </trkpt>
      <trkpt lat="43.66395" lon="2.9884">
        <ele>467</ele>
        <time>2016-06-11T16:29:24Z</time>
      </trkpt>
      <trkpt lat="43.66411" lon="2.98866">
        <ele>463</ele>
        <time>2016-06-11T16:29:39Z</time>
      </trkpt>
      <trkpt lat="43.66409" lon="2.98903">
        <ele>467</ele>
        <time>2016-06-11T16:30:05Z</time>
      </trkpt>
      <trkpt lat="43.664" lon="2.9894">
        <ele>472</ele>
        <time>2016-06-11T16:30:35Z</time>
      </trkpt>
      <trkpt lat="43.66361" lon="2.99051">
        <ele>483</ele>
        <time>2016-06-11T16:31:52Z</time>
      </trkpt>
      <trkpt lat="43.66353" lon="2.99028">
        <ele>486</ele>
        <time>2016-06-11T16:32:10Z</time>
      </trkpt>
      <trkpt lat="43.66335" lon="2.99017">
        <ele>493</ele>
        <time>2016-06-11T16:32:52Z</time>
      </trkpt>
      <trkpt lat="43.66329" lon="2.99001">
        <ele>498</ele>
        <time>2016-06-11T16:33:21Z</time>
      </trkpt>
      <trkpt lat="43.66312" lon="2.98931">
        <ele>513</ele>
        <time>2016-06-11T16:34:48Z</time>
      </trkpt>
      <trkpt lat="43.66299" lon="2.98912">
        <ele>518</ele>
        <time>2016-06-11T16:35:18Z</time>
      </trkpt>
      <trkpt lat="43.66283" lon="2.98948">
        <ele>525</ele>
        <time>2016-06-11T16:36:00Z</time>
      </trkpt>
      <trkpt lat="43.66273" lon="2.98918">
        <ele>531</ele>
        <time>2016-06-11T16:36:35Z</time>
      </trkpt>
      <trkpt lat="43.66249" lon="2.98913">
        <ele>542</ele>
        <time>2016-06-11T16:37:39Z</time>
      </trkpt>
      <trkpt lat="43.66221" lon="2.98893">
        <ele>558</ele>
        <time>2016-06-11T16:39:07Z</time>
      </trkpt>
      <trkpt lat="43.66215" lon="2.98899">
        <ele>558</ele>
        <time>2016-06-11T16:39:11Z</time>
      </trkpt>
      <trkpt lat="43.66209" lon="2.98922">
        <ele>560</ele>
        <time>2016-06-11T16:39:26Z</time>
      </trkpt>
      <trkpt lat="43.66205" lon="2.98932">
        <ele>560</ele>
        <time>2016-06-11T16:39:30Z</time>
      </trkpt>
      <trkpt lat="43.66167" lon="2.98954">
        <ele>574</ele>
        <time>2016-06-11T16:40:53Z</time>
      </trkpt>
      <trkpt lat="43.66156" lon="2.98933">
        <ele>581</ele>
        <time>2016-06-11T16:41:35Z</time>
      </trkpt>
      <trkpt lat="43.66143" lon="2.9892">
        <ele>589</ele>
        <time>2016-06-11T16:42:18Z</time>
      </trkpt>
      <trkpt lat="43.66111" lon="2.98922">
        <ele>606</ele>
        <time>2016-06-11T16:43:46Z</time>
      </trkpt>
      <trkpt lat="43.66093" lon="2.98914">
        <ele>616</ele>
        <time>2016-06-11T16:44:39Z</time>
      </trkpt>
      <trkpt lat="43.66086" lon="2.98908">
        <ele>621</ele>
        <time>2016-06-11T16:45:03Z</time>
      </trkpt>
      <trkpt lat="43.6608" lon="2.98895">
        <ele>625</ele>
        <time>2016-06-11T16:45:26Z</time>
      </trkpt>
      <trkpt lat="43.66061" lon="2.98902">
        <ele>632</ele>
        <time>2016-06-11T16:46:08Z</time>
      </trkpt>
      <trkpt lat="43.66042" lon="2.98903">
        <ele>639</ele>
        <time>2016-06-11T16:46:49Z</time>
      </trkpt>
      <trkpt lat="43.66037" lon="2.98896">
        <ele>642</ele>
        <time>2016-06-11T16:47:07Z</time>
      </trkpt>
      <trkpt lat="43.66003" lon="2.98893">
        <ele>648</ele>
        <time>2016-06-11T16:47:43Z</time>
      </trkpt>
      <trkpt lat="43.65972" lon="2.98874">
        <ele>656</ele>
        <time>2016-06-11T16:48:31Z</time>
      </trkpt>
      <trkpt lat="43.65929" lon="2.9887">
        <ele>666</ele>
        <time>2016-06-11T16:49:31Z</time>
      </trkpt>
      <trkpt lat="43.65917" lon="2.9886">
        <ele>670</ele>
        <time>2016-06-11T16:49:55Z</time>
      </trkpt>
      <trkpt lat="43.65904" lon="2.98849">
        <ele>674</ele>
        <time>2016-06-11T16:50:18Z</time>
      </trkpt>
      <trkpt lat="43.65895" lon="2.98849">
        <ele>677</ele>
        <time>2016-06-11T16:50:36Z</time>
      </trkpt>
      <trkpt lat="43.6589" lon="2.98849">
        <ele>679</ele>
        <time>2016-06-11T16:50:48Z</time>
      </trkpt>
      <trkpt lat="43.6588" lon="2.98839">
        <ele>685</ele>
        <time>2016-06-11T16:51:21Z</time>
      </trkpt>
      <trkpt lat="43.6586" lon="2.98839">
        <ele>693</ele>
        <time>2016-06-11T16:52:09Z</time>
      </trkpt>
      <trkpt lat="43.65858" lon="2.98843">
        <ele>693</ele>
        <time>2016-06-11T16:52:11Z</time>
      </trkpt>
      <trkpt lat="43.65851" lon="2.98844">
        <ele>696</ele>
        <time>2016-06-11T16:52:28Z</time>
      </trkpt>
      <trkpt lat="43.65845" lon="2.98848">
        <ele>697</ele>
        <time>2016-06-11T16:52:35Z</time>
      </trkpt>
      <trkpt lat="43.65843" lon="2.98843">
        <ele>699</ele>
        <time>2016-06-11T16:52:46Z</time>
      </trkpt>
      <trkpt lat="43.65839" lon="2.98852">
        <ele>699</ele>
        <time>2016-06-11T16:52:50Z</time>
      </trkpt>
      <trkpt lat="43.6583" lon="2.98839">
        <ele>705</ele>
        <time>2016-06-11T16:53:26Z</time>
      </trkpt>
      <trkpt lat="43.65821" lon="2.98847">
        <ele>707</ele>
        <time>2016-06-11T16:53:38Z</time>
      </trkpt>
      <trkpt lat="43.65817" lon="2.98851">
        <ele>708</ele>
        <time>2016-06-11T16:53:44Z</time>
      </trkpt>
      <trkpt lat="43.65792" lon="2.9884">
        <ele>722</ele>
        <time>2016-06-11T16:54:57Z</time>
      </trkpt>
      <trkpt lat="43.6577" lon="2.98824">
        <ele>736</ele>
        <time>2016-06-11T16:56:07Z</time>
      </trkpt>
      <trkpt lat="43.65741" lon="2.98818">
        <ele>748</ele>
        <time>2016-06-11T16:57:18Z</time>
      </trkpt>
      <trkpt lat="43.65706" lon="2.98815">
        <ele>762</ele>
        <time>2016-06-11T16:58:40Z</time>
      </trkpt>
      <trkpt lat="43.65681" lon="2.98798">
        <ele>773</ele>
        <time>2016-06-11T16:59:45Z</time>
      </trkpt>
      <trkpt lat="43.65661" lon="2.98792">
        <ele>780</ele>
        <time>2016-06-11T17:00:27Z</time>
      </trkpt>
      <trkpt lat="43.65655" lon="2.98771">
        <ele>787</ele>
        <time>2016-06-11T17:01:08Z</time>
      </trkpt>
      <trkpt lat="43.65595" lon="2.98656">
        <ele>831</ele>
        <time>2016-06-11T17:05:31Z</time>
      </trkpt>
      <trkpt lat="43.65564" lon="2.98633">
        <ele>847</ele>
        <time>2016-06-11T17:07:06Z</time>
      </trkpt>
      <trkpt lat="43.65556" lon="2.98624">
        <ele>852</ele>
        <time>2016-06-11T17:07:33Z</time>
      </trkpt>
      <trkpt lat="43.65548" lon="2.98611">
        <ele>855</ele>
        <time>2016-06-11T17:07:51Z</time>
      </trkpt>
      <trkpt lat="43.65537" lon="2.98604">
        <ele>858</ele>
        <time>2016-06-11T17:08:09Z</time>
      </trkpt>
      <trkpt lat="43.6552" lon="2.98598">
        <ele>862</ele>
        <time>2016-06-11T17:08:34Z</time>
      </trkpt>
      <trkpt lat="43.65503" lon="2.98596">
        <ele>866</ele>
        <time>2016-06-11T17:08:58Z</time>
      </trkpt>
      <trkpt lat="43.65501" lon="2.98594">
        <ele>867</ele>
        <time>2016-06-11T17:09:03Z</time>
      </trkpt>
      <trkpt lat="43.65501" lon="2.98585">
        <ele>869</ele>
        <time>2016-06-11T17:09:15Z</time>
      </trkpt>
      <trkpt lat="43.65488" lon="2.9856">
        <ele>879</ele>
        <time>2016-06-11T17:10:15Z</time>
      </trkpt>
      <trkpt lat="43.65491" lon="2.98546">
        <ele>880</ele>
        <time>2016-06-11T17:10:23Z</time>
      </trkpt>
      <trkpt lat="43.65485" lon="2.98538">
        <ele>883</ele>
        <time>2016-06-11T17:10:41Z</time>
      </trkpt>
      <trkpt lat="43.65476" lon="2.9852">
        <ele>887</ele>
        <time>2016-06-11T17:11:05Z</time>
      </trkpt>
      <trkpt lat="43.65458" lon="2.98507">
        <ele>893</ele>
        <time>2016-06-11T17:11:40Z</time>
      </trkpt>
      <trkpt lat="43.6545" lon="2.98483">
        <ele>901</ele>
        <time>2016-06-11T17:12:27Z</time>
      </trkpt>
      <trkpt lat="43.65439" lon="2.98471">
        <ele>908</ele>
        <time>2016-06-11T17:13:05Z</time>
      </trkpt>
      <trkpt lat="43.65436" lon="2.98457">
        <ele>913</ele>
        <time>2016-06-11T17:13:33Z</time>
      </trkpt>
      <trkpt lat="43.65428" lon="2.98447">
        <ele>920</ele>
        <time>2016-06-11T17:14:04Z</time>
      </trkpt>
      <trkpt lat="43.65427" lon="2.98435">
        <ele>924</ele>
        <time>2016-06-11T17:14:28Z</time>
      </trkpt>
      <trkpt lat="43.65424" lon="2.98419">
        <ele>931</ele>
        <time>2016-06-11T17:15:02Z</time>
      </trkpt>
      <trkpt lat="43.65416" lon="2.98398">
        <ele>940</ele>
        <time>2016-06-11T17:15:48Z</time>
      </trkpt>
      <trkpt lat="43.6542" lon="2.98377">
        <ele>943</ele>
        <time>2016-06-11T17:16:06Z</time>
      </trkpt>
      <trkpt lat="43.65386" lon="2.98384">
        <ele>949</ele>
        <time>2016-06-11T17:16:43Z</time>
      </trkpt>
      <trkpt lat="43.65277" lon="2.98335">
        <ele>986</ele>
        <time>2016-06-11T17:20:21Z</time>
      </trkpt>
      <trkpt lat="43.65218" lon="2.98313">
        <ele>1002</ele>
        <time>2016-06-11T17:21:55Z</time>
      </trkpt>
      <trkpt lat="43.65191" lon="2.98321">
        <ele>1008</ele>
        <time>2016-06-11T17:22:32Z</time>
      </trkpt>
      <trkpt lat="43.65193" lon="2.98311">
        <ele>1008</ele>
        <time>2016-06-11T17:22:36Z</time>
      </trkpt>
      <trkpt lat="43.65178" lon="2.98264">
        <ele>1011</ele>
        <time>2016-06-11T17:23:03Z</time>
      </trkpt>
      <trkpt lat="43.65114" lon="2.98217">
        <ele>1028</ele>
        <time>2016-06-11T17:24:45Z</time>
      </trkpt>
      <trkpt lat="43.65058" lon="2.98176">
        <ele>1037</ele>
        <time>2016-06-11T17:25:43Z</time>
      </trkpt>
      <trkpt lat="43.65046" lon="2.98148">
        <ele>1036</ele>
        <time>2016-06-11T17:25:55Z</time>
      </trkpt>
      <trkpt lat="43.65022" lon="2.98111">
        <ele>1033</ele>
        <time>2016-06-11T17:26:12Z</time>
      </trkpt>
      <trkpt lat="43.6503" lon="2.9803">
        <ele>1025</ele>
        <time>2016-06-11T17:26:45Z</time>
      </trkpt>
      <trkpt lat="43.65024" lon="2.97966">
        <ele>1023</ele>
        <time>2016-06-11T17:27:09Z</time>
      </trkpt>
      <trkpt lat="43.65015" lon="2.97914">
        <ele>1024</ele>
        <time>2016-06-11T17:27:32Z</time>
      </trkpt>
      <trkpt lat="43.65004" lon="2.97882">
        <ele>1027</ele>
        <time>2016-06-11T17:27:53Z</time>
      </trkpt>
      <trkpt lat="43.6501" lon="2.97824">
        <ele>1031</ele>
        <time>2016-06-11T17:28:26Z</time>
      </trkpt>
      <trkpt lat="43.64993" lon="2.97734">
        <ele>1044</ele>
        <time>2016-06-11T17:29:44Z</time>
      </trkpt>
      <trkpt lat="43.65016" lon="2.97672">
        <ele>1050</ele>
        <time>2016-06-11T17:30:27Z</time>
      </trkpt>
      <trkpt lat="43.65005" lon="2.97646">
        <ele>1054</ele>
        <time>2016-06-11T17:30:51Z</time>
      </trkpt>
      <trkpt lat="43.64962" lon="2.97652">
        <ele>1058</ele>
        <time>2016-06-11T17:31:23Z</time>
      </trkpt>
      <trkpt lat="43.64889" lon="2.97704">
        <ele>1058</ele>
        <time>2016-06-11T17:32:10Z</time>
      </trkpt>
      <trkpt lat="43.64825" lon="2.97734">
        <ele>1062</ele>
        <time>2016-06-11T17:32:54Z</time>
      </trkpt>
      <trkpt lat="43.64717" lon="2.97841">
        <ele>1059</ele>
        <time>2016-06-11T17:34:06Z</time>
      </trkpt>
      <trkpt lat="43.64673" lon="2.97867">
        <ele>1058</ele>
        <time>2016-06-11T17:34:31Z</time>
      </trkpt>
      <trkpt lat="43.64665" lon="2.97843">
        <ele>1060</ele>
        <time>2016-06-11T17:34:46Z</time>
      </trkpt>
      <trkpt lat="43.64673" lon="2.97813">
        <ele>1062</ele>
        <time>2016-06-11T17:35:03Z</time>
      </trkpt>
      <trkpt lat="43.64654" lon="2.97768">
        <ele>1060</ele>
        <time>2016-06-11T17:35:21Z</time>
      </trkpt>
      <trkpt lat="43.64636" lon="2.97745">
        <ele>1053</ele>
        <time>2016-06-11T17:35:44Z</time>
      </trkpt>
      <trkpt lat="43.64627" lon="2.97674">
        <ele>1059</ele>
        <time>2016-06-11T17:36:28Z</time>
      </trkpt>
      <trkpt lat="43.64592" lon="2.97577">
        <ele>1071</ele>
        <time>2016-06-11T17:37:43Z</time>
      </trkpt>
      <trkpt lat="43.64544" lon="2.97504">
        <ele>1080</ele>
        <time>2016-06-11T17:38:45Z</time>
      </trkpt>
      <trkpt lat="43.64459" lon="2.97536">
        <ele>1071</ele>
        <time>2016-06-11T17:39:30Z</time>
      </trkpt>
      <trkpt lat="43.64436" lon="2.97554">
        <ele>1064</ele>
        <time>2016-06-11T17:39:53Z</time>
      </trkpt>
      <trkpt lat="43.64367" lon="2.97506">
        <ele>1063</ele>
        <time>2016-06-11T17:40:35Z</time>
      </trkpt>
      <trkpt lat="43.64347" lon="2.97472">
        <ele>1060</ele>
        <time>2016-06-11T17:40:50Z</time>
      </trkpt>
      <trkpt lat="43.64339" lon="2.97339">
        <ele>1065</ele>
        <time>2016-06-11T17:41:52Z</time>
      </trkpt>
      <trkpt lat="43.64286" lon="2.97294">
        <ele>1056</ele>
        <time>2016-06-11T17:42:28Z</time>
      </trkpt>
      <trkpt lat="43.6426" lon="2.97285">
        <ele>1052</ele>
        <time>2016-06-11T17:42:43Z</time>
      </trkpt>
      <trkpt lat="43.64238" lon="2.97249">
        <ele>1049</ele>
        <time>2016-06-11T17:43:00Z</time>
      </trkpt>
      <trkpt lat="43.64212" lon="2.97221">
        <ele>1041</ele>
        <time>2016-06-11T17:43:27Z</time>
      </trkpt>
      <trkpt lat="43.64186" lon="2.97172">
        <ele>1035</ele>
        <time>2016-06-11T17:43:51Z</time>
      </trkpt>
      <trkpt lat="43.64136" lon="2.97146">
        <ele>1014</ele>
        <time>2016-06-11T17:45:04Z</time>
      </trkpt>
      <trkpt lat="43.64111" lon="2.97101">
        <ele>1012</ele>
        <time>2016-06-11T17:45:24Z</time>
      </trkpt>
      <trkpt lat="43.64068" lon="2.97062">
        <ele>1003</ele>
        <time>2016-06-11T17:45:57Z</time>
      </trkpt>
      <trkpt lat="43.6405" lon="2.97009">
        <ele>1006</ele>
        <time>2016-06-11T17:46:26Z</time>
      </trkpt>
      <trkpt lat="43.63981" lon="2.96961">
        <ele>996</ele>
        <time>2016-06-11T17:47:08Z</time>
      </trkpt>
      <trkpt lat="43.6392" lon="2.96987">
        <ele>996</ele>
        <time>2016-06-11T17:47:44Z</time>
      </trkpt>
      <trkpt lat="43.63872" lon="2.97028">
        <ele>999</ele>
        <time>2016-06-11T17:48:20Z</time>
      </trkpt>
      <trkpt lat="43.63821" lon="2.97049">
        <ele>1011</ele>
        <time>2016-06-11T17:49:33Z</time>
      </trkpt>
      <trkpt lat="43.63791" lon="2.97069">
        <ele>1013</ele>
        <time>2016-06-11T17:49:55Z</time>
      </trkpt>
      <trkpt lat="43.63762" lon="2.97064">
        <ele>1022</ele>
        <time>2016-06-11T17:50:47Z</time>
      </trkpt>
      <trkpt lat="43.63707" lon="2.97103">
        <ele>1030</ele>
        <time>2016-06-11T17:51:41Z</time>
      </trkpt>
      <trkpt lat="43.63686" lon="2.97124">
        <ele>1030</ele>
        <time>2016-06-11T17:51:57Z</time>
      </trkpt>
      <trkpt lat="43.63642" lon="2.97142">
        <ele>1036</ele>
        <time>2016-06-11T17:52:37Z</time>
      </trkpt>
      <trkpt lat="43.63616" lon="2.97167">
        <ele>1036</ele>
        <time>2016-06-11T17:52:55Z</time>
      </trkpt>
      <trkpt lat="43.6355" lon="2.97182">
        <ele>1045</ele>
        <time>2016-06-11T17:53:55Z</time>
      </trkpt>
      <trkpt lat="43.6347" lon="2.97339">
        <ele>1037</ele>
        <time>2016-06-11T17:55:02Z</time>
      </trkpt>
      <trkpt lat="43.63446" lon="2.9736">
        <ele>1035</ele>
        <time>2016-06-11T17:55:16Z</time>
      </trkpt>
      <trkpt lat="43.63426" lon="2.9723">
        <ele>1052</ele>
        <time>2016-06-11T17:56:59Z</time>
      </trkpt>
      <trkpt lat="43.63435" lon="2.97051">
        <ele>1059</ele>
        <time>2016-06-11T17:58:23Z</time>
      </trkpt>
      <trkpt lat="43.63344" lon="2.96996">
        <ele>1056</ele>
        <time>2016-06-11T17:59:15Z</time>
      </trkpt>
      <trkpt lat="43.63212" lon="2.97017">
        <ele>1050</ele>
        <time>2016-06-11T18:00:21Z</time>
      </trkpt>
      <trkpt lat="43.63041" lon="2.97034">
        <ele>1052</ele>
        <time>2016-06-11T18:02:01Z</time>
      </trkpt>
      <trkpt lat="43.62925" lon="2.96931">
        <ele>1043</ele>
        <time>2016-06-11T18:03:08Z</time>
      </trkpt>
      <trkpt lat="43.62718" lon="2.96742">
        <ele>1045</ele>
        <time>2016-06-11T18:05:33Z</time>
      </trkpt>
      <trkpt lat="43.62693" lon="2.96652">
        <ele>1038</ele>
        <time>2016-06-11T18:06:08Z</time>
      </trkpt>
      <trkpt lat="43.62583" lon="2.96609">
        <ele>1025</ele>
        <time>2016-06-11T18:07:06Z</time>
      </trkpt>
      <trkpt lat="43.62477" lon="2.96594">
        <ele>1025</ele>
        <time>2016-06-11T18:08:07Z</time>
      </trkpt>
      <trkpt lat="43.62382" lon="2.96461">
        <ele>1030</ele>
        <time>2016-06-11T18:09:31Z</time>
      </trkpt>
      <trkpt lat="43.62356" lon="2.96431">
        <ele>1028</ele>
        <time>2016-06-11T18:09:47Z</time>
      </trkpt>
      <trkpt lat="43.6232" lon="2.96406">
        <ele>1022</ele>
        <time>2016-06-11T18:10:11Z</time>
      </trkpt>
      <trkpt lat="43.62274" lon="2.96354">
        <ele>1010</ele>
        <time>2016-06-11T18:10:52Z</time>
      </trkpt>
      <trkpt lat="43.62249" lon="2.96333">
        <ele>1007</ele>
        <time>2016-06-11T18:11:07Z</time>
      </trkpt>
      <trkpt lat="43.62215" lon="2.96307">
        <ele>1005</ele>
        <time>2016-06-11T18:11:26Z</time>
      </trkpt>
      <trkpt lat="43.62135" lon="2.96262">
        <ele>1006</ele>
        <time>2016-06-11T18:12:16Z</time>
      </trkpt>
      <trkpt lat="43.62086" lon="2.96279">
        <ele>1006</ele>
        <time>2016-06-11T18:12:45Z</time>
      </trkpt>
      <trkpt lat="43.62053" lon="2.96298">
        <ele>1007</ele>
        <time>2016-06-11T18:13:07Z</time>
      </trkpt>
      <trkpt lat="43.61934" lon="2.96335">
        <ele>1022</ele>
        <time>2016-06-11T18:14:52Z</time>
      </trkpt>
      <trkpt lat="43.61862" lon="2.96371">
        <ele>1023</ele>
        <time>2016-06-11T18:15:37Z</time>
      </trkpt>
      <trkpt lat="43.61795" lon="2.96408">
        <ele>1016</ele>
        <time>2016-06-11T18:16:12Z</time>
      </trkpt>
      <trkpt lat="43.61755" lon="2.96421">
        <ele>1011</ele>
        <time>2016-06-11T18:16:34Z</time>
      </trkpt>
      <trkpt lat="43.61705" lon="2.96455">
        <ele>997</ele>
        <time>2016-06-11T18:17:21Z</time>
      </trkpt>
      <trkpt lat="43.61652" lon="2.96457">
        <ele>984</ele>
        <time>2016-06-11T18:18:04Z</time>
      </trkpt>
      <trkpt lat="43.61606" lon="2.96498">
        <ele>972</ele>
        <time>2016-06-11T18:18:45Z</time>
      </trkpt>
      <trkpt lat="43.61582" lon="2.96521">
        <ele>966</ele>
        <time>2016-06-11T18:19:05Z</time>
      </trkpt>
      <trkpt lat="43.61554" lon="2.96562">
        <ele>961</ele>
        <time>2016-06-11T18:19:27Z</time>
      </trkpt>
      <trkpt lat="43.61531" lon="2.96627">
        <ele>965</ele>
        <time>2016-06-11T18:20:03Z</time>
      </trkpt>
      <trkpt lat="43.61494" lon="2.96637">
        <ele>970</ele>
        <time>2016-06-11T18:20:37Z</time>
      </trkpt>
      <trkpt lat="43.61426" lon="2.96704">
        <ele>984</ele>
        <time>2016-06-11T18:22:03Z</time>
      </trkpt>
      <trkpt lat="43.61405" lon="2.96719">
        <ele>987</ele>
        <time>2016-06-11T18:22:23Z</time>
      </trkpt>
      <trkpt lat="43.61401" lon="2.96745">
        <ele>989</ele>
        <time>2016-06-11T18:22:39Z</time>
      </trkpt>
      <trkpt lat="43.61382" lon="2.96768">
        <ele>991</ele>
        <time>2016-06-11T18:22:57Z</time>
      </trkpt>
      <trkpt lat="43.61379" lon="2.96824">
        <ele>988</ele>
        <time>2016-06-11T18:23:16Z</time>
      </trkpt>
      <trkpt lat="43.61363" lon="2.96895">
        <ele>981</ele>
        <time>2016-06-11T18:23:45Z</time>
      </trkpt>
      <trkpt lat="43.61342" lon="2.96948">
        <ele>973</ele>
        <time>2016-06-11T18:24:14Z</time>
      </trkpt>
      <trkpt lat="43.61329" lon="2.97034">
        <ele>962</ele>
        <time>2016-06-11T18:24:54Z</time>
      </trkpt>
      <trkpt lat="43.61311" lon="2.97062">
        <ele>954</ele>
        <time>2016-06-11T18:25:20Z</time>
      </trkpt>
      <trkpt lat="43.61292" lon="2.97103">
        <ele>945</ele>
        <time>2016-06-11T18:25:50Z</time>
      </trkpt>
      <trkpt lat="43.61293" lon="2.97137">
        <ele>941</ele>
        <time>2016-06-11T18:26:05Z</time>
      </trkpt>
      <trkpt lat="43.61272" lon="2.97187">
        <ele>930</ele>
        <time>2016-06-11T18:26:41Z</time>
      </trkpt>
      <trkpt lat="43.61242" lon="2.97232">
        <ele>922</ele>
        <time>2016-06-11T18:27:09Z</time>
      </trkpt>
      <trkpt lat="43.61216" lon="2.97281">
        <ele>915</ele>
        <time>2016-06-11T18:27:36Z</time>
      </trkpt>
      <trkpt lat="43.61177" lon="2.97313">
        <ele>909</ele>
        <time>2016-06-11T18:28:01Z</time>
      </trkpt>
      <trkpt lat="43.61171" lon="2.97337">
        <ele>905</ele>
        <time>2016-06-11T18:28:14Z</time>
      </trkpt>
      <trkpt lat="43.61127" lon="2.97354">
        <ele>901</ele>
        <time>2016-06-11T18:28:36Z</time>
      </trkpt>
      <trkpt lat="43.61104" lon="2.97337">
        <ele>902</ele>
        <time>2016-06-11T18:28:53Z</time>
      </trkpt>
      <trkpt lat="43.61104" lon="2.97298">
        <ele>906</ele>
        <time>2016-06-11T18:29:19Z</time>
      </trkpt>
      <trkpt lat="43.61074" lon="2.97311">
        <ele>905</ele>
        <time>2016-06-11T18:29:35Z</time>
      </trkpt>
      <trkpt lat="43.61037" lon="2.97294">
        <ele>908</ele>
        <time>2016-06-11T18:30:02Z</time>
      </trkpt>
      <trkpt lat="43.61006" lon="2.97255">
        <ele>914</ele>
        <time>2016-06-11T18:30:41Z</time>
      </trkpt>
      <trkpt lat="43.60899" lon="2.97307">
        <ele>933</ele>
        <time>2016-06-11T18:32:38Z</time>
      </trkpt>
      <trkpt lat="43.60829" lon="2.97326">
        <ele>953</ele>
        <time>2016-06-11T18:34:34Z</time>
      </trkpt>
      <trkpt lat="43.60761" lon="2.97328">
        <ele>975</ele>
        <time>2016-06-11T18:36:44Z</time>
      </trkpt>
      <trkpt lat="43.60664" lon="2.97388">
        <ele>1009</ele>
        <time>2016-06-11T18:40:04Z</time>
      </trkpt>
      <trkpt lat="43.60622" lon="2.97406">
        <ele>1021</ele>
        <time>2016-06-11T18:41:14Z</time>
      </trkpt>
      <trkpt lat="43.60574" lon="2.97429">
        <ele>1032</ele>
        <time>2016-06-11T18:42:21Z</time>
      </trkpt>
      <trkpt lat="43.6051" lon="2.9741">
        <ele>1044</ele>
        <time>2016-06-11T18:43:33Z</time>
      </trkpt>
      <trkpt lat="43.60481" lon="2.97401">
        <ele>1048</ele>
        <time>2016-06-11T18:44:00Z</time>
      </trkpt>
      <trkpt lat="43.60431" lon="2.97408">
        <ele>1053</ele>
        <time>2016-06-11T18:44:39Z</time>
      </trkpt>
      <trkpt lat="43.60367" lon="2.97391">
        <ele>1054</ele>
        <time>2016-06-11T18:45:18Z</time>
      </trkpt>
      <trkpt lat="43.60276" lon="2.97391">
        <ele>1052</ele>
        <time>2016-06-11T18:46:06Z</time>
      </trkpt>
      <trkpt lat="43.60183" lon="2.97397">
        <ele>1050</ele>
        <time>2016-06-11T18:46:56Z</time>
      </trkpt>
      <trkpt lat="43.60024" lon="2.97425">
        <ele>1049</ele>
        <time>2016-06-11T18:48:26Z</time>
      </trkpt>
      <trkpt lat="43.5996" lon="2.97459">
        <ele>1051</ele>
        <time>2016-06-11T18:49:08Z</time>
      </trkpt>
      <trkpt lat="43.59884" lon="2.97519">
        <ele>1056</ele>
        <time>2016-06-11T18:50:05Z</time>
      </trkpt>
      <trkpt lat="43.59757" lon="2.97599">
        <ele>1061</ele>
        <time>2016-06-11T18:51:31Z</time>
      </trkpt>
      <trkpt lat="43.59592" lon="2.97712">
        <ele>1063</ele>
        <time>2016-06-11T18:53:19Z</time>
      </trkpt>
      <trkpt lat="43.59542" lon="2.97757">
        <ele>1062</ele>
        <time>2016-06-11T18:53:51Z</time>
      </trkpt>
      <trkpt lat="43.59479" lon="2.97794">
        <ele>1061</ele>
        <time>2016-06-11T18:54:29Z</time>
      </trkpt>
      <trkpt lat="43.59451" lon="2.97802">
        <ele>1061</ele>
        <time>2016-06-11T18:54:45Z</time>
      </trkpt>
      <trkpt lat="43.59438" lon="2.97828">
        <ele>1061</ele>
        <time>2016-06-11T18:54:58Z</time>
      </trkpt>
      <trkpt lat="43.59432" lon="2.9803">
        <ele>1058</ele>
        <time>2016-06-11T18:56:16Z</time>
      </trkpt>
      <trkpt lat="43.59435" lon="2.98099">
        <ele>1055</ele>
        <time>2016-06-11T18:56:41Z</time>
      </trkpt>
      <trkpt lat="43.59449" lon="2.98294">
        <ele>1039</ele>
        <time>2016-06-11T18:57:53Z</time>
      </trkpt>
      <trkpt lat="43.59437" lon="2.98365">
        <ele>1028</ele>
        <time>2016-06-11T18:58:31Z</time>
      </trkpt>
      <trkpt lat="43.59446" lon="2.98425">
        <ele>1020</ele>
        <time>2016-06-11T18:59:00Z</time>
      </trkpt>
      <trkpt lat="43.59446" lon="2.985">
        <ele>1011</ele>
        <time>2016-06-11T18:59:33Z</time>
      </trkpt>
      <trkpt lat="43.59452" lon="2.98551">
        <ele>1006</ele>
        <time>2016-06-11T18:59:53Z</time>
      </trkpt>
      <trkpt lat="43.59452" lon="2.98629">
        <ele>998</ele>
        <time>2016-06-11T19:00:25Z</time>
      </trkpt>
      <trkpt lat="43.5948" lon="2.98609">
        <ele>1001</ele>
        <time>2016-06-11T19:00:49Z</time>
      </trkpt>
      <trkpt lat="43.59516" lon="2.98577">
        <ele>1005</ele>
        <time>2016-06-11T19:01:21Z</time>
      </trkpt>
      <trkpt lat="43.59535" lon="2.98571">
        <ele>1007</ele>
        <time>2016-06-11T19:01:36Z</time>
      </trkpt>
      <trkpt lat="43.5955" lon="2.98556">
        <ele>1009</ele>
        <time>2016-06-11T19:01:52Z</time>
      </trkpt>
      <trkpt lat="43.59569" lon="2.9853">
        <ele>1012</ele>
        <time>2016-06-11T19:02:13Z</time>
      </trkpt>
      <trkpt lat="43.59615" lon="2.98554">
        <ele>1014</ele>
        <time>2016-06-11T19:02:44Z</time>
      </trkpt>
      <trkpt lat="43.59605" lon="2.98584">
        <ele>1014</ele>
        <time>2016-06-11T19:02:58Z</time>
      </trkpt>
      <trkpt lat="43.59626" lon="2.98609">
        <ele>1017</ele>
        <time>2016-06-11T19:03:21Z</time>
      </trkpt>
      <trkpt lat="43.59659" lon="2.98609">
        <ele>1021</ele>
        <time>2016-06-11T19:03:49Z</time>
      </trkpt>
      <trkpt lat="43.5967" lon="2.98633">
        <ele>1024</ele>
        <time>2016-06-11T19:04:08Z</time>
      </trkpt>
      <trkpt lat="43.59687" lon="2.98648">
        <ele>1027</ele>
        <time>2016-06-11T19:04:27Z</time>
      </trkpt>
      <trkpt lat="43.59664" lon="2.98682">
        <ele>1025</ele>
        <time>2016-06-11T19:04:44Z</time>
      </trkpt>
      <trkpt lat="43.59664" lon="2.98768">
        <ele>1017</ele>
        <time>2016-06-11T19:05:17Z</time>
      </trkpt>
      <trkpt lat="43.59687" lon="2.988">
        <ele>1014</ele>
        <time>2016-06-11T19:05:34Z</time>
      </trkpt>
      <trkpt lat="43.59712" lon="2.98835">
        <ele>1012</ele>
        <time>2016-06-11T19:05:51Z</time>
      </trkpt>
      <trkpt lat="43.5974" lon="2.98916">
        <ele>1015</ele>
        <time>2016-06-11T19:06:32Z</time>
      </trkpt>
      <trkpt lat="43.59721" lon="2.98923">
        <ele>1012</ele>
        <time>2016-06-11T19:06:43Z</time>
      </trkpt>
      <trkpt lat="43.59702" lon="2.98955">
        <ele>1012</ele>
        <time>2016-06-11T19:07:00Z</time>
      </trkpt>
      <trkpt lat="43.59699" lon="2.98976">
        <ele>1014</ele>
        <time>2016-06-11T19:07:14Z</time>
      </trkpt>
      <trkpt lat="43.59674" lon="2.98996">
        <ele>1013</ele>
        <time>2016-06-11T19:07:29Z</time>
      </trkpt>
      <trkpt lat="43.59646" lon="2.98985">
        <ele>1009</ele>
        <time>2016-06-11T19:07:45Z</time>
      </trkpt>
      <trkpt lat="43.59592" lon="2.98989">
        <ele>1003</ele>
        <time>2016-06-11T19:08:13Z</time>
      </trkpt>
      <trkpt lat="43.59553" lon="2.98985">
        <ele>995</ele>
        <time>2016-06-11T19:08:40Z</time>
      </trkpt>
      <trkpt lat="43.59525" lon="2.99008">
        <ele>993</ele>
        <time>2016-06-11T19:08:56Z</time>
      </trkpt>
      <trkpt lat="43.59496" lon="2.99026">
        <ele>987</ele>
        <time>2016-06-11T19:09:17Z</time>
      </trkpt>
      <trkpt lat="43.59472" lon="2.99079">
        <ele>983</ele>
        <time>2016-06-11T19:09:39Z</time>
      </trkpt>
      <trkpt lat="43.59452" lon="2.99135">
        <ele>979</ele>
        <time>2016-06-11T19:10:02Z</time>
      </trkpt>
      <trkpt lat="43.5942" lon="2.99236">
        <ele>977</ele>
        <time>2016-06-11T19:10:44Z</time>
      </trkpt>
      <trkpt lat="43.59389" lon="2.99249">
        <ele>971</ele>
        <time>2016-06-11T19:11:05Z</time>
      </trkpt>
      <trkpt lat="43.59351" lon="2.99274">
        <ele>965</ele>
        <time>2016-06-11T19:11:29Z</time>
      </trkpt>
      <trkpt lat="43.59345" lon="2.99294">
        <ele>967</ele>
        <time>2016-06-11T19:11:42Z</time>
      </trkpt>
      <trkpt lat="43.59317" lon="2.99317">
        <ele>964</ele>
        <time>2016-06-11T19:11:58Z</time>
      </trkpt>
      <trkpt lat="43.59284" lon="2.99339">
        <ele>958</ele>
        <time>2016-06-11T19:12:21Z</time>
      </trkpt>
      <trkpt lat="43.5925" lon="2.99367">
        <ele>954</ele>
        <time>2016-06-11T19:12:41Z</time>
      </trkpt>
      <trkpt lat="43.59222" lon="2.99438">
        <ele>955</ele>
        <time>2016-06-11T19:13:15Z</time>
      </trkpt>
      <trkpt lat="43.59233" lon="2.99457">
        <ele>957</ele>
        <time>2016-06-11T19:13:30Z</time>
      </trkpt>
      <trkpt lat="43.59228" lon="2.99483">
        <ele>954</ele>
        <time>2016-06-11T19:13:41Z</time>
      </trkpt>
      <trkpt lat="43.59214" lon="2.99511">
        <ele>949</ele>
        <time>2016-06-11T19:13:58Z</time>
      </trkpt>
      <trkpt lat="43.59186" lon="2.99534">
        <ele>940</ele>
        <time>2016-06-11T19:14:28Z</time>
      </trkpt>
      <trkpt lat="43.59166" lon="2.99573">
        <ele>930</ele>
        <time>2016-06-11T19:15:01Z</time>
      </trkpt>
      <trkpt lat="43.59141" lon="2.99607">
        <ele>920</ele>
        <time>2016-06-11T19:15:34Z</time>
      </trkpt>
      <trkpt lat="43.5912" lon="2.9962">
        <ele>914</ele>
        <time>2016-06-11T19:15:54Z</time>
      </trkpt>
      <trkpt lat="43.59103" lon="2.99633">
        <ele>908</ele>
        <time>2016-06-11T19:16:14Z</time>
      </trkpt>
      <trkpt lat="43.59095" lon="2.9965">
        <ele>903</ele>
        <time>2016-06-11T19:16:32Z</time>
      </trkpt>
      <trkpt lat="43.59031" lon="2.99697">
        <ele>883</ele>
        <time>2016-06-11T19:17:38Z</time>
      </trkpt>
      <trkpt lat="43.58998" lon="2.99725">
        <ele>865</ele>
        <time>2016-06-11T19:18:39Z</time>
      </trkpt>
      <trkpt lat="43.58969" lon="2.99751">
        <ele>850</ele>
        <time>2016-06-11T19:19:32Z</time>
      </trkpt>
      <trkpt lat="43.58944" lon="2.99807">
        <ele>825</ele>
        <time>2016-06-11T19:20:50Z</time>
      </trkpt>
      <trkpt lat="43.58927" lon="2.99828">
        <ele>813</ele>
        <time>2016-06-11T19:21:28Z</time>
      </trkpt>
      <trkpt lat="43.58904" lon="2.9983">
        <ele>805</ele>
        <time>2016-06-11T19:21:56Z</time>
      </trkpt>
      <trkpt lat="43.58887" lon="2.9986">
        <ele>793</ele>
        <time>2016-06-11T19:22:38Z</time>
      </trkpt>
      <trkpt lat="43.5886" lon="2.9989">
        <ele>773</ele>
        <time>2016-06-11T19:23:36Z</time>
      </trkpt>
      <trkpt lat="43.58866" lon="2.99912">
        <ele>774</ele>
        <time>2016-06-11T19:23:47Z</time>
      </trkpt>
      <trkpt lat="43.58851" lon="2.99925">
        <ele>768</ele>
        <time>2016-06-11T19:24:08Z</time>
      </trkpt>
      <trkpt lat="43.58866" lon="2.99968">
        <ele>762</ele>
        <time>2016-06-11T19:24:29Z</time>
      </trkpt>
      <trkpt lat="43.58835" lon="2.99965">
        <ele>759</ele>
        <time>2016-06-11T19:24:45Z</time>
      </trkpt>
      <trkpt lat="43.58821" lon="2.99985">
        <ele>754</ele>
        <time>2016-06-11T19:25:01Z</time>
      </trkpt>
      <trkpt lat="43.58809" lon="3.00021">
        <ele>741</ele>
        <time>2016-06-11T19:25:48Z</time>
      </trkpt>
      <trkpt lat="43.58793" lon="3.00053">
        <ele>729</ele>
        <time>2016-06-11T19:26:31Z</time>
      </trkpt>
      <trkpt lat="43.58767" lon="3.00092">
        <ele>713</ele>
        <time>2016-06-11T19:27:27Z</time>
      </trkpt>
      <trkpt lat="43.5872" lon="3.00129">
        <ele>684</ele>
        <time>2016-06-11T19:28:56Z</time>
      </trkpt>
      <trkpt lat="43.58701" lon="3.00144">
        <ele>671</ele>
        <time>2016-06-11T19:29:33Z</time>
      </trkpt>
      <trkpt lat="43.58697" lon="3.00166">
        <ele>666</ele>
        <time>2016-06-11T19:29:50Z</time>
      </trkpt>
      <trkpt lat="43.58686" lon="3.00178">
        <ele>659</ele>
        <time>2016-06-11T19:30:13Z</time>
      </trkpt>
      <trkpt lat="43.58678" lon="3.00161">
        <ele>656</ele>
        <time>2016-06-11T19:30:23Z</time>
      </trkpt>
      <trkpt lat="43.58634" lon="3.00188">
        <ele>627</ele>
        <time>2016-06-11T19:31:44Z</time>
      </trkpt>
      <trkpt lat="43.58621" lon="3.00216">
        <ele>619</ele>
        <time>2016-06-11T19:32:12Z</time>
      </trkpt>
      <trkpt lat="43.5862" lon="3.00244">
        <ele>617</ele>
        <time>2016-06-11T19:32:22Z</time>
      </trkpt>
      <trkpt lat="43.58615" lon="3.00271">
        <ele>614</ele>
        <time>2016-06-11T19:32:34Z</time>
      </trkpt>
      <trkpt lat="43.58599" lon="3.00299">
        <ele>602</ele>
        <time>2016-06-11T19:33:15Z</time>
      </trkpt>
      <trkpt lat="43.58565" lon="3.00329">
        <ele>586</ele>
        <time>2016-06-11T19:34:11Z</time>
      </trkpt>
      <trkpt lat="43.58545" lon="3.00309">
        <ele>578</ele>
        <time>2016-06-11T19:34:38Z</time>
      </trkpt>
      <trkpt lat="43.5852" lon="3.0027">
        <ele>566</ele>
        <time>2016-06-11T19:35:19Z</time>
      </trkpt>
      <trkpt lat="43.58464" lon="3.0027">
        <ele>536</ele>
        <time>2016-06-11T19:36:51Z</time>
      </trkpt>
      <trkpt lat="43.58436" lon="3.00247">
        <ele>516</ele>
        <time>2016-06-11T19:37:46Z</time>
      </trkpt>
      <trkpt lat="43.58406" lon="3.00272">
        <ele>503</ele>
        <time>2016-06-11T19:38:31Z</time>
      </trkpt>
      <trkpt lat="43.58371" lon="3.00249">
        <ele>481</ele>
        <time>2016-06-11T19:39:37Z</time>
      </trkpt>
      <trkpt lat="43.58367" lon="3.00221">
        <ele>475</ele>
        <time>2016-06-11T19:39:57Z</time>
      </trkpt>
      <trkpt lat="43.58344" lon="3.00227">
        <ele>464</ele>
        <time>2016-06-11T19:40:35Z</time>
      </trkpt>
      <trkpt lat="43.58336" lon="3.00206">
        <ele>457</ele>
        <time>2016-06-11T19:40:59Z</time>
      </trkpt>
      <trkpt lat="43.58311" lon="3.00234">
        <ele>448</ele>
        <time>2016-06-11T19:41:29Z</time>
      </trkpt>
      <trkpt lat="43.58288" lon="3.00219">
        <ele>435</ele>
        <time>2016-06-11T19:42:11Z</time>
      </trkpt>
      <trkpt lat="43.58282" lon="3.00193">
        <ele>430</ele>
        <time>2016-06-11T19:42:28Z</time>
      </trkpt>
      <trkpt lat="43.58246" lon="3.0015">
        <ele>404</ele>
        <time>2016-06-11T19:43:46Z</time>
      </trkpt>
      <trkpt lat="43.58226" lon="3.00144">
        <ele>394</ele>
        <time>2016-06-11T19:44:20Z</time>
      </trkpt>
      <trkpt lat="43.58212" lon="3.00133">
        <ele>386</ele>
        <time>2016-06-11T19:44:46Z</time>
      </trkpt>
      <trkpt lat="43.58196" lon="3.00071">
        <ele>361</ele>
        <time>2016-06-11T19:46:04Z</time>
      </trkpt>
      <trkpt lat="43.5819" lon="3.00047">
        <ele>351</ele>
        <time>2016-06-11T19:46:34Z</time>
      </trkpt>
      <trkpt lat="43.5819" lon="3.00015">
        <ele>341</ele>
        <time>2016-06-11T19:47:09Z</time>
      </trkpt>
      <trkpt lat="43.58215" lon="3.00026">
        <ele>354</ele>
        <time>2016-06-11T19:48:21Z</time>
      </trkpt>
      <trkpt lat="43.58245" lon="3.00015">
        <ele>362</ele>
        <time>2016-06-11T19:49:08Z</time>
      </trkpt>
      <trkpt lat="43.58266" lon="3.00015">
        <ele>371</ele>
        <time>2016-06-11T19:50:01Z</time>
      </trkpt>
      <trkpt lat="43.58299" lon="2.99993">
        <ele>381</ele>
        <time>2016-06-11T19:50:59Z</time>
      </trkpt>
      <trkpt lat="43.58324" lon="2.99961">
        <ele>391</ele>
        <time>2016-06-11T19:51:57Z</time>
      </trkpt>
      <trkpt lat="43.58341" lon="2.99927">
        <ele>396</ele>
        <time>2016-06-11T19:52:28Z</time>
      </trkpt>
      <trkpt lat="43.58367" lon="2.9991">
        <ele>411</ele>
        <time>2016-06-11T19:53:49Z</time>
      </trkpt>
      <trkpt lat="43.58398" lon="2.99873">
        <ele>427</ele>
        <time>2016-06-11T19:55:23Z</time>
      </trkpt>
      <trkpt lat="43.58425" lon="2.9983">
        <ele>440</ele>
        <time>2016-06-11T19:56:39Z</time>
      </trkpt>
      <trkpt lat="43.58447" lon="2.99774">
        <ele>449</ele>
        <time>2016-06-11T19:57:34Z</time>
      </trkpt>
      <trkpt lat="43.58462" lon="2.99719">
        <ele>454</ele>
        <time>2016-06-11T19:58:10Z</time>
      </trkpt>
      <trkpt lat="43.58493" lon="2.9971">
        <ele>473</ele>
        <time>2016-06-11T19:59:40Z</time>
      </trkpt>
      <trkpt lat="43.58501" lon="2.99674">
        <ele>477</ele>
        <time>2016-06-11T20:00:05Z</time>
      </trkpt>
      <trkpt lat="43.58524" lon="2.99646">
        <ele>492</ele>
        <time>2016-06-11T20:01:30Z</time>
      </trkpt>
      <trkpt lat="43.58538" lon="2.99601">
        <ele>506</ele>
        <time>2016-06-11T20:02:52Z</time>
      </trkpt>
      <trkpt lat="43.58559" lon="2.99583">
        <ele>520</ele>
        <time>2016-06-11T20:04:00Z</time>
      </trkpt>
      <trkpt lat="43.58545" lon="2.99558">
        <ele>514</ele>
        <time>2016-06-11T20:04:19Z</time>
      </trkpt>
      <trkpt lat="43.58591" lon="2.99538">
        <ele>542</ele>
        <time>2016-06-11T20:06:37Z</time>
      </trkpt>
      <trkpt lat="43.58638" lon="2.99508">
        <ele>570</ele>
        <time>2016-06-11T20:09:00Z</time>
      </trkpt>
      <trkpt lat="43.5867" lon="2.99468">
        <ele>588</ele>
        <time>2016-06-11T20:10:47Z</time>
      </trkpt>
      <trkpt lat="43.58692" lon="2.99427">
        <ele>603</ele>
        <time>2016-06-11T20:12:16Z</time>
      </trkpt>
      <trkpt lat="43.58669" lon="2.9942">
        <ele>590</ele>
        <time>2016-06-11T20:12:55Z</time>
      </trkpt>
      <trkpt lat="43.58646" lon="2.99382">
        <ele>581</ele>
        <time>2016-06-11T20:13:25Z</time>
      </trkpt>
      <trkpt lat="43.58602" lon="2.99373">
        <ele>559</ele>
        <time>2016-06-11T20:14:36Z</time>
      </trkpt>
      <trkpt lat="43.58569" lon="2.99377">
        <ele>541</ele>
        <time>2016-06-11T20:15:31Z</time>
      </trkpt>
      <trkpt lat="43.58551" lon="2.99399">
        <ele>528</ele>
        <time>2016-06-11T20:16:11Z</time>
      </trkpt>
      <trkpt lat="43.58543" lon="2.9938">
        <ele>527</ele>
        <time>2016-06-11T20:16:18Z</time>
      </trkpt>
      <trkpt lat="43.58526" lon="2.99354">
        <ele>529</ele>
        <time>2016-06-11T20:16:36Z</time>
      </trkpt>
      <trkpt lat="43.58489" lon="2.99375">
        <ele>506</ele>
        <time>2016-06-11T20:17:44Z</time>
      </trkpt>
      <trkpt lat="43.58461" lon="2.99384">
        <ele>497</ele>
        <time>2016-06-11T20:18:14Z</time>
      </trkpt>
      <trkpt lat="43.58422" lon="2.99377">
        <ele>492</ele>
        <time>2016-06-11T20:18:35Z</time>
      </trkpt>
      <trkpt lat="43.58388" lon="2.9939">
        <ele>487</ele>
        <time>2016-06-11T20:18:55Z</time>
      </trkpt>
      <trkpt lat="43.58372" lon="2.9938">
        <ele>492</ele>
        <time>2016-06-11T20:19:24Z</time>
      </trkpt>
      <trkpt lat="43.58305" lon="2.99416">
        <ele>484</ele>
        <time>2016-06-11T20:20:01Z</time>
      </trkpt>
      <trkpt lat="43.58259" lon="2.99455">
        <ele>481</ele>
        <time>2016-06-11T20:20:27Z</time>
      </trkpt>
      <trkpt lat="43.5824" lon="2.99433">
        <ele>480</ele>
        <time>2016-06-11T20:20:39Z</time>
      </trkpt>
      <trkpt lat="43.58241" lon="2.99401">
        <ele>481</ele>
        <time>2016-06-11T20:20:54Z</time>
      </trkpt>
      <trkpt lat="43.58228" lon="2.9936">
        <ele>480</ele>
        <time>2016-06-11T20:21:11Z</time>
      </trkpt>
      <trkpt lat="43.58186" lon="2.99305">
        <ele>464</ele>
        <time>2016-06-11T20:22:04Z</time>
      </trkpt>
      <trkpt lat="43.58167" lon="2.99285">
        <ele>456</ele>
        <time>2016-06-11T20:22:31Z</time>
      </trkpt>
      <trkpt lat="43.58147" lon="2.99266">
        <ele>447</ele>
        <time>2016-06-11T20:23:02Z</time>
      </trkpt>
      <trkpt lat="43.58125" lon="2.99214">
        <ele>443</ele>
        <time>2016-06-11T20:23:24Z</time>
      </trkpt>
      <trkpt lat="43.58088" lon="2.99178">
        <ele>428</ele>
        <time>2016-06-11T20:24:15Z</time>
      </trkpt>
      <trkpt lat="43.58071" lon="2.99154">
        <ele>424</ele>
        <time>2016-06-11T20:24:30Z</time>
      </trkpt>
      <trkpt lat="43.58053" lon="2.99099">
        <ele>431</ele>
        <time>2016-06-11T20:25:14Z</time>
      </trkpt>
      <trkpt lat="43.57974" lon="2.99019">
        <ele>416</ele>
        <time>2016-06-11T20:26:11Z</time>
      </trkpt>
      <trkpt lat="43.57923" lon="2.98944">
        <ele>396</ele>
        <time>2016-06-11T20:27:17Z</time>
      </trkpt>
      <trkpt lat="43.579" lon="2.98867">
        <ele>377</ele>
        <time>2016-06-11T20:28:21Z</time>
      </trkpt>
      <trkpt lat="43.57901" lon="2.98815">
        <ele>372</ele>
        <time>2016-06-11T20:28:42Z</time>
      </trkpt>
      <trkpt lat="43.57893" lon="2.98779">
        <ele>367</ele>
        <time>2016-06-11T20:28:59Z</time>
      </trkpt>
      <trkpt lat="43.57884" lon="2.98747">
        <ele>365</ele>
        <time>2016-06-11T20:29:12Z</time>
      </trkpt>
      <trkpt lat="43.57861" lon="2.98719">
        <ele>363</ele>
        <time>2016-06-11T20:29:26Z</time>
      </trkpt>
      <trkpt lat="43.57822" lon="2.98725">
        <ele>358</ele>
        <time>2016-06-11T20:29:47Z</time>
      </trkpt>
      <trkpt lat="43.578" lon="2.98725">
        <ele>355</ele>
        <time>2016-06-11T20:30:00Z</time>
      </trkpt>
      <trkpt lat="43.57733" lon="2.98757">
        <ele>341</ele>
        <time>2016-06-11T20:30:48Z</time>
      </trkpt>
      <trkpt lat="43.57696" lon="2.98742">
        <ele>339</ele>
        <time>2016-06-11T20:31:07Z</time>
      </trkpt>
      <trkpt lat="43.57655" lon="2.98693">
        <ele>343</ele>
        <time>2016-06-11T20:31:45Z</time>
      </trkpt>
      <trkpt lat="43.5764" lon="2.98674">
        <ele>342</ele>
        <time>2016-06-11T20:31:55Z</time>
      </trkpt>
      <trkpt lat="43.57612" lon="2.98633">
        <ele>338</ele>
        <time>2016-06-11T20:32:15Z</time>
      </trkpt>
      <trkpt lat="43.57551" lon="2.98556">
        <ele>321</ele>
        <time>2016-06-11T20:33:14Z</time>
      </trkpt>
      <trkpt lat="43.57575" lon="2.98504">
        <ele>321</ele>
        <time>2016-06-11T20:33:39Z</time>
      </trkpt>
      <trkpt lat="43.57592" lon="2.98461">
        <ele>321</ele>
        <time>2016-06-11T20:33:59Z</time>
      </trkpt>
      <trkpt lat="43.57593" lon="2.98425">
        <ele>316</ele>
        <time>2016-06-11T20:34:17Z</time>
      </trkpt>
      <trkpt lat="43.576" lon="2.98388">
        <ele>315</ele>
        <time>2016-06-11T20:34:31Z</time>
      </trkpt>
      <trkpt lat="43.57618" lon="2.98359">
        <ele>318</ele>
        <time>2016-06-11T20:34:53Z</time>
      </trkpt>
      <trkpt lat="43.57611" lon="2.98324">
        <ele>312</ele>
        <time>2016-06-11T20:35:14Z</time>
      </trkpt>
      <trkpt lat="43.57602" lon="2.98305">
        <ele>308</ele>
        <time>2016-06-11T20:35:27Z</time>
      </trkpt>
      <trkpt lat="43.57621" lon="2.98298">
        <ele>313</ele>
        <time>2016-06-11T20:35:56Z</time>
      </trkpt>
      <trkpt lat="43.57642" lon="2.98296">
        <ele>320</ele>
        <time>2016-06-11T20:36:38Z</time>
      </trkpt>
      <trkpt lat="43.57677" lon="2.98277">
        <ele>329</ele>
        <time>2016-06-11T20:37:32Z</time>
      </trkpt>
      <trkpt lat="43.57749" lon="2.9824">
        <ele>355</ele>
        <time>2016-06-11T20:40:07Z</time>
      </trkpt>
      <trkpt lat="43.57724" lon="2.98217">
        <ele>349</ele>
        <time>2016-06-11T20:40:27Z</time>
      </trkpt>
      <trkpt lat="43.57718" lon="2.98159">
        <ele>363</ele>
        <time>2016-06-11T20:41:50Z</time>
      </trkpt>
      <trkpt lat="43.57708" lon="2.98129">
        <ele>367</ele>
        <time>2016-06-11T20:42:15Z</time>
      </trkpt>
      <trkpt lat="43.57725" lon="2.98099">
        <ele>382</ele>
        <time>2016-06-11T20:43:32Z</time>
      </trkpt>
      <trkpt lat="43.57707" lon="2.98079">
        <ele>379</ele>
        <time>2016-06-11T20:43:45Z</time>
      </trkpt>
      <trkpt lat="43.57729" lon="2.98058">
        <ele>390</ele>
        <time>2016-06-11T20:44:50Z</time>
      </trkpt>
      <trkpt lat="43.57755" lon="2.98047">
        <ele>401</ele>
        <time>2016-06-11T20:45:55Z</time>
      </trkpt>
      <trkpt lat="43.578" lon="2.97987">
        <ele>421</ele>
        <time>2016-06-11T20:47:52Z</time>
      </trkpt>
      <trkpt lat="43.57837" lon="2.97918">
        <ele>433</ele>
        <time>2016-06-11T20:49:04Z</time>
      </trkpt>
      <trkpt lat="43.57875" lon="2.97854">
        <ele>451</ele>
        <time>2016-06-11T20:50:49Z</time>
      </trkpt>
      <trkpt lat="43.57875" lon="2.97826">
        <ele>453</ele>
        <time>2016-06-11T20:51:05Z</time>
      </trkpt>
      <trkpt lat="43.57888" lon="2.97786">
        <ele>463</ele>
        <time>2016-06-11T20:52:04Z</time>
      </trkpt>
      <trkpt lat="43.57879" lon="2.97762">
        <ele>462</ele>
        <time>2016-06-11T20:52:14Z</time>
      </trkpt>
      <trkpt lat="43.57882" lon="2.97723">
        <ele>470</ele>
        <time>2016-06-11T20:53:00Z</time>
      </trkpt>
      <trkpt lat="43.57889" lon="2.9771">
        <ele>475</ele>
        <time>2016-06-11T20:53:30Z</time>
      </trkpt>
      <trkpt lat="43.57887" lon="2.97689">
        <ele>478</ele>
        <time>2016-06-11T20:53:48Z</time>
      </trkpt>
      <trkpt lat="43.57902" lon="2.97686">
        <ele>485</ele>
        <time>2016-06-11T20:54:29Z</time>
      </trkpt>
      <trkpt lat="43.57906" lon="2.97675">
        <ele>489</ele>
        <time>2016-06-11T20:54:53Z</time>
      </trkpt>
      <trkpt lat="43.57908" lon="2.97662">
        <ele>492</ele>
        <time>2016-06-11T20:55:11Z</time>
      </trkpt>
      <trkpt lat="43.57933" lon="2.97658">
        <ele>503</ele>
        <time>2016-06-11T20:56:17Z</time>
      </trkpt>
      <trkpt lat="43.5798" lon="2.97628">
        <ele>524</ele>
        <time>2016-06-11T20:58:21Z</time>
      </trkpt>
      <trkpt lat="43.58011" lon="2.97586">
        <ele>540</ele>
        <time>2016-06-11T20:59:55Z</time>
      </trkpt>
      <trkpt lat="43.58072" lon="2.97545">
        <ele>564</ele>
        <time>2016-06-11T21:02:17Z</time>
      </trkpt>
      <trkpt lat="43.58093" lon="2.97549">
        <ele>575</ele>
        <time>2016-06-11T21:03:16Z</time>
      </trkpt>
      <trkpt lat="43.58121" lon="2.97588">
        <ele>592</ele>
        <time>2016-06-11T21:04:57Z</time>
      </trkpt>
      <trkpt lat="43.58133" lon="2.9761">
        <ele>599</ele>
        <time>2016-06-11T21:05:39Z</time>
      </trkpt>
      <trkpt lat="43.58139" lon="2.97627">
        <ele>602</ele>
        <time>2016-06-11T21:05:57Z</time>
      </trkpt>
      <trkpt lat="43.58161" lon="2.97636">
        <ele>615</ele>
        <time>2016-06-11T21:07:03Z</time>
      </trkpt>
      <trkpt lat="43.58171" lon="2.97629">
        <ele>620</ele>
        <time>2016-06-11T21:07:33Z</time>
      </trkpt>
      <trkpt lat="43.58193" lon="2.97565">
        <ele>629</ele>
        <time>2016-06-11T21:08:28Z</time>
      </trkpt>
      <trkpt lat="43.58207" lon="2.97563">
        <ele>636</ele>
        <time>2016-06-11T21:09:06Z</time>
      </trkpt>
      <trkpt lat="43.58272" lon="2.97559">
        <ele>670</ele>
        <time>2016-06-11T21:12:07Z</time>
      </trkpt>
      <trkpt lat="43.58279" lon="2.97545">
        <ele>672</ele>
        <time>2016-06-11T21:12:19Z</time>
      </trkpt>
      <trkpt lat="43.58296" lon="2.9753">
        <ele>678</ele>
        <time>2016-06-11T21:12:54Z</time>
      </trkpt>
      <trkpt lat="43.58307" lon="2.97495">
        <ele>680</ele>
        <time>2016-06-11T21:13:14Z</time>
      </trkpt>
      <trkpt lat="43.58306" lon="2.97461">
        <ele>675</ele>
        <time>2016-06-11T21:13:31Z</time>
      </trkpt>
      <trkpt lat="43.58338" lon="2.97458">
        <ele>691</ele>
        <time>2016-06-11T21:15:00Z</time>
      </trkpt>
      <trkpt lat="43.58335" lon="2.97437">
        <ele>686</ele>
        <time>2016-06-11T21:15:17Z</time>
      </trkpt>
      <trkpt lat="43.58341" lon="2.97407">
        <ele>684</ele>
        <time>2016-06-11T21:15:28Z</time>
      </trkpt>
      <trkpt lat="43.58354" lon="2.97384">
        <ele>687</ele>
        <time>2016-06-11T21:15:48Z</time>
      </trkpt>
      <trkpt lat="43.58367" lon="2.97359">
        <ele>690</ele>
        <time>2016-06-11T21:16:08Z</time>
      </trkpt>
      <trkpt lat="43.58372" lon="2.97333">
        <ele>688</ele>
        <time>2016-06-11T21:16:18Z</time>
      </trkpt>
      <trkpt lat="43.5839" lon="2.97313">
        <ele>694</ele>
        <time>2016-06-11T21:16:53Z</time>
      </trkpt>
      <trkpt lat="43.58388" lon="2.97288">
        <ele>690</ele>
        <time>2016-06-11T21:17:06Z</time>
      </trkpt>
      <trkpt lat="43.5838" lon="2.97264">
        <ele>682</ele>
        <time>2016-06-11T21:17:35Z</time>
      </trkpt>
      <trkpt lat="43.58381" lon="2.97225">
        <ele>680</ele>
        <time>2016-06-11T21:17:48Z</time>
      </trkpt>
      <trkpt lat="43.58384" lon="2.97178">
        <ele>679</ele>
        <time>2016-06-11T21:18:06Z</time>
      </trkpt>
      <trkpt lat="43.58384" lon="2.9715">
        <ele>677</ele>
        <time>2016-06-11T21:18:16Z</time>
      </trkpt>
      <trkpt lat="43.5838" lon="2.97114">
        <ele>673</ele>
        <time>2016-06-11T21:18:32Z</time>
      </trkpt>
      <trkpt lat="43.58386" lon="2.97099">
        <ele>672</ele>
        <time>2016-06-11T21:18:38Z</time>
      </trkpt>
      <trkpt lat="43.58401" lon="2.97095">
        <ele>676</ele>
        <time>2016-06-11T21:19:01Z</time>
      </trkpt>
      <trkpt lat="43.58391" lon="2.97083">
        <ele>670</ele>
        <time>2016-06-11T21:19:22Z</time>
      </trkpt>
      <trkpt lat="43.58393" lon="2.9707">
        <ele>669</ele>
        <time>2016-06-11T21:19:27Z</time>
      </trkpt>
      <trkpt lat="43.5838" lon="2.97058">
        <ele>663</ele>
        <time>2016-06-11T21:19:48Z</time>
      </trkpt>
      <trkpt lat="43.58384" lon="2.97043">
        <ele>661</ele>
        <time>2016-06-11T21:19:55Z</time>
      </trkpt>
      <trkpt lat="43.58376" lon="2.97035">
        <ele>656</ele>
        <time>2016-06-11T21:20:11Z</time>
      </trkpt>
      <trkpt lat="43.5838" lon="2.97025">
        <ele>654</ele>
        <time>2016-06-11T21:20:18Z</time>
      </trkpt>
      <trkpt lat="43.58373" lon="2.97014">
        <ele>648</ele>
        <time>2016-06-11T21:20:35Z</time>
      </trkpt>
      <trkpt lat="43.58366" lon="2.96998">
        <ele>640</ele>
        <time>2016-06-11T21:20:58Z</time>
      </trkpt>
      <trkpt lat="43.58383" lon="2.96995">
        <ele>645</ele>
        <time>2016-06-11T21:21:27Z</time>
      </trkpt>
      <trkpt lat="43.58393" lon="2.9698">
        <ele>643</ele>
        <time>2016-06-11T21:21:35Z</time>
      </trkpt>
      <trkpt lat="43.58401" lon="2.96944">
        <ele>633</ele>
        <time>2016-06-11T21:22:10Z</time>
      </trkpt>
      <trkpt lat="43.58358" lon="2.96969">
        <ele>624</ele>
        <time>2016-06-11T21:22:41Z</time>
      </trkpt>
      <trkpt lat="43.58363" lon="2.96954">
        <ele>619</ele>
        <time>2016-06-11T21:22:59Z</time>
      </trkpt>
      <trkpt lat="43.58355" lon="2.96946">
        <ele>610</ele>
        <time>2016-06-11T21:23:17Z</time>
      </trkpt>
      <trkpt lat="43.58351" lon="2.96937">
        <ele>603</ele>
        <time>2016-06-11T21:23:32Z</time>
      </trkpt>
      <trkpt lat="43.5834" lon="2.96938">
        <ele>598</ele>
        <time>2016-06-11T21:23:50Z</time>
      </trkpt>
      <trkpt lat="43.58332" lon="2.96931">
        <ele>590</ele>
        <time>2016-06-11T21:24:07Z</time>
      </trkpt>
      <trkpt lat="43.58332" lon="2.96915">
        <ele>580</ele>
        <time>2016-06-11T21:24:29Z</time>
      </trkpt>
      <trkpt lat="43.58321" lon="2.96918">
        <ele>576</ele>
        <time>2016-06-11T21:24:43Z</time>
      </trkpt>
      <trkpt lat="43.58314" lon="2.9691">
        <ele>568</ele>
        <time>2016-06-11T21:25:00Z</time>
      </trkpt>
      <trkpt lat="43.5826" lon="2.96911">
        <ele>544</ele>
        <time>2016-06-11T21:26:26Z</time>
      </trkpt>
      <trkpt lat="43.58271" lon="2.96899">
        <ele>542</ele>
        <time>2016-06-11T21:26:34Z</time>
      </trkpt>
      <trkpt lat="43.58246" lon="2.96903">
        <ele>534</ele>
        <time>2016-06-11T21:27:01Z</time>
      </trkpt>
      <trkpt lat="43.58212" lon="2.96921">
        <ele>531</ele>
        <time>2016-06-11T21:27:19Z</time>
      </trkpt>
      <trkpt lat="43.58187" lon="2.96926">
        <ele>527</ele>
        <time>2016-06-11T21:27:34Z</time>
      </trkpt>
      <trkpt lat="43.58186" lon="2.96914">
        <ele>520</ele>
        <time>2016-06-11T21:27:50Z</time>
      </trkpt>
      <trkpt lat="43.58173" lon="2.96913">
        <ele>516</ele>
        <time>2016-06-11T21:28:03Z</time>
      </trkpt>
      <trkpt lat="43.58107" lon="2.96913">
        <ele>503</ele>
        <time>2016-06-11T21:28:48Z</time>
      </trkpt>
      <trkpt lat="43.58121" lon="2.969">
        <ele>497</ele>
        <time>2016-06-11T21:29:09Z</time>
      </trkpt>
      <trkpt lat="43.58101" lon="2.96902">
        <ele>495</ele>
        <time>2016-06-11T21:29:19Z</time>
      </trkpt>
      <trkpt lat="43.58115" lon="2.96889">
        <ele>491</ele>
        <time>2016-06-11T21:29:32Z</time>
      </trkpt>
      <trkpt lat="43.58103" lon="2.96885">
        <ele>487</ele>
        <time>2016-06-11T21:29:46Z</time>
      </trkpt>
      <trkpt lat="43.58109" lon="2.96873">
        <ele>481</ele>
        <time>2016-06-11T21:30:04Z</time>
      </trkpt>
      <trkpt lat="43.58066" lon="2.96858">
        <ele>465</ele>
        <time>2016-06-11T21:30:59Z</time>
      </trkpt>
      <trkpt lat="43.58094" lon="2.96855">
        <ele>469</ele>
        <time>2016-06-11T21:31:25Z</time>
      </trkpt>
      <trkpt lat="43.58061" lon="2.96847">
        <ele>458</ele>
        <time>2016-06-11T21:32:03Z</time>
      </trkpt>
      <trkpt lat="43.58045" lon="2.96836">
        <ele>446</ele>
        <time>2016-06-11T21:32:33Z</time>
      </trkpt>
      <trkpt lat="43.58061" lon="2.9683">
        <ele>449</ele>
        <time>2016-06-11T21:32:51Z</time>
      </trkpt>
      <trkpt lat="43.58042" lon="2.96824">
        <ele>440</ele>
        <time>2016-06-11T21:33:22Z</time>
      </trkpt>
      <trkpt lat="43.58018" lon="2.9684">
        <ele>440</ele>
        <time>2016-06-11T21:33:38Z</time>
      </trkpt>
      <trkpt lat="43.57993" lon="2.96858">
        <ele>442</ele>
        <time>2016-06-11T21:33:57Z</time>
      </trkpt>
      <trkpt lat="43.57997" lon="2.96842">
        <ele>434</ele>
        <time>2016-06-11T21:34:18Z</time>
      </trkpt>
      <trkpt lat="43.57975" lon="2.96863">
        <ele>438</ele>
        <time>2016-06-11T21:34:44Z</time>
      </trkpt>
      <trkpt lat="43.57938" lon="2.96871">
        <ele>429</ele>
        <time>2016-06-11T21:35:14Z</time>
      </trkpt>
      <trkpt lat="43.57953" lon="2.96856">
        <ele>426</ele>
        <time>2016-06-11T21:35:25Z</time>
      </trkpt>
      <trkpt lat="43.57933" lon="2.96855">
        <ele>418</ele>
        <time>2016-06-11T21:35:53Z</time>
      </trkpt>
      <trkpt lat="43.5793" lon="2.96839">
        <ele>407</ele>
        <time>2016-06-11T21:36:15Z</time>
      </trkpt>
      <trkpt lat="43.57889" lon="2.96834">
        <ele>391</ele>
        <time>2016-06-11T21:37:11Z</time>
      </trkpt>
      <trkpt lat="43.5786" lon="2.96818">
        <ele>372</ele>
        <time>2016-06-11T21:38:04Z</time>
      </trkpt>
      <trkpt lat="43.57844" lon="2.96806">
        <ele>360</ele>
        <time>2016-06-11T21:38:35Z</time>
      </trkpt>
      <trkpt lat="43.57838" lon="2.96797">
        <ele>353</ele>
        <time>2016-06-11T21:38:51Z</time>
      </trkpt>
      <trkpt lat="43.57832" lon="2.96789">
        <ele>346</ele>
        <time>2016-06-11T21:39:07Z</time>
      </trkpt>
      <trkpt lat="43.57809" lon="2.96803">
        <ele>344</ele>
        <time>2016-06-11T21:39:19Z</time>
      </trkpt>
      <trkpt lat="43.57801" lon="2.96821">
        <ele>351</ele>
        <time>2016-06-11T21:40:01Z</time>
      </trkpt>
      <trkpt lat="43.57792" lon="2.96834">
        <ele>355</ele>
        <time>2016-06-11T21:40:25Z</time>
      </trkpt>
      <trkpt lat="43.57775" lon="2.96828">
        <ele>346</ele>
        <time>2016-06-11T21:40:54Z</time>
      </trkpt>
      <trkpt lat="43.57787" lon="2.96817">
        <ele>344</ele>
        <time>2016-06-11T21:41:02Z</time>
      </trkpt>
      <trkpt lat="43.57773" lon="2.96811">
        <ele>336</ele>
        <time>2016-06-11T21:41:25Z</time>
      </trkpt>
      <trkpt lat="43.57784" lon="2.96803">
        <ele>336</ele>
        <time>2016-06-11T21:41:32Z</time>
      </trkpt>
      <trkpt lat="43.57781" lon="2.96791">
        <ele>328</ele>
        <time>2016-06-11T21:41:49Z</time>
      </trkpt>
      <trkpt lat="43.57759" lon="2.96791">
        <ele>321</ele>
        <time>2016-06-11T21:42:13Z</time>
      </trkpt>
      <trkpt lat="43.57697" lon="2.96794">
        <ele>308</ele>
        <time>2016-06-11T21:42:58Z</time>
      </trkpt>
      <trkpt lat="43.57707" lon="2.96782">
        <ele>304</ele>
        <time>2016-06-11T21:43:11Z</time>
      </trkpt>
      <trkpt lat="43.57671" lon="2.96776">
        <ele>295</ele>
        <time>2016-06-11T21:43:41Z</time>
      </trkpt>
      <trkpt lat="43.57677" lon="2.9676">
        <ele>288</ele>
        <time>2016-06-11T21:44:03Z</time>
      </trkpt>
      <trkpt lat="43.57651" lon="2.96745">
        <ele>276</ele>
        <time>2016-06-11T21:44:45Z</time>
      </trkpt>
      <trkpt lat="43.57671" lon="2.96714">
        <ele>264</ele>
        <time>2016-06-11T21:45:27Z</time>
      </trkpt>
      <trkpt lat="43.57662" lon="2.96701">
        <ele>257</ele>
        <time>2016-06-11T21:45:48Z</time>
      </trkpt>
      <trkpt lat="43.57668" lon="2.96688">
        <ele>253</ele>
        <time>2016-06-11T21:46:02Z</time>
      </trkpt>
      <trkpt lat="43.57651" lon="2.96687">
        <ele>250</ele>
        <time>2016-06-11T21:46:13Z</time>
      </trkpt>
      <trkpt lat="43.57655" lon="2.96674">
        <ele>247</ele>
        <time>2016-06-11T21:46:23Z</time>
      </trkpt>
      <trkpt lat="43.57644" lon="2.96678">
        <ele>246</ele>
        <time>2016-06-11T21:46:28Z</time>
      </trkpt>
      <trkpt lat="43.57675" lon="2.96641">
        <ele>238</ele>
        <time>2016-06-11T21:46:56Z</time>
      </trkpt>
      <trkpt lat="43.57614" lon="2.96637">
        <ele>230</ele>
        <time>2016-06-11T21:47:29Z</time>
      </trkpt>
      <trkpt lat="43.57547" lon="2.96651">
        <ele>227</ele>
        <time>2016-06-11T21:48:03Z</time>
      </trkpt>
      <trkpt lat="43.57532" lon="2.96624">
        <ele>228</ele>
        <time>2016-06-11T21:48:18Z</time>
      </trkpt>
      <trkpt lat="43.57505" lon="2.96629">
        <ele>227</ele>
        <time>2016-06-11T21:48:32Z</time>
      </trkpt>
      <trkpt lat="43.57479" lon="2.96641">
        <ele>226</ele>
        <time>2016-06-11T21:48:46Z</time>
      </trkpt>
      <trkpt lat="43.57466" lon="2.96652">
        <ele>224</ele>
        <time>2016-06-11T21:48:54Z</time>
      </trkpt>
      <trkpt lat="43.57443" lon="2.96667">
        <ele>220</ele>
        <time>2016-06-11T21:49:10Z</time>
      </trkpt>
      <trkpt lat="43.57416" lon="2.96704">
        <ele>211</ele>
        <time>2016-06-11T21:49:40Z</time>
      </trkpt>
      <trkpt lat="43.57335" lon="2.96722">
        <ele>203</ele>
        <time>2016-06-11T21:50:21Z</time>
      </trkpt>
      <trkpt lat="43.57276" lon="2.96701">
        <ele>203</ele>
        <time>2016-06-11T21:50:55Z</time>
      </trkpt>
      <trkpt lat="43.57222" lon="2.96656">
        <ele>208</ele>
        <time>2016-06-11T21:51:40Z</time>
      </trkpt>
      <trkpt lat="43.57198" lon="2.9665">
        <ele>206</ele>
        <time>2016-06-11T21:51:52Z</time>
      </trkpt>
      <trkpt lat="43.57166" lon="2.96661">
        <ele>201</ele>
        <time>2016-06-11T21:52:11Z</time>
      </trkpt>
      <trkpt lat="43.57091" lon="2.96632">
        <ele>200</ele>
        <time>2016-06-11T21:52:54Z</time>
      </trkpt>
      <trkpt lat="43.57064" lon="2.96662">
        <ele>196</ele>
        <time>2016-06-11T21:53:12Z</time>
      </trkpt>
      <trkpt lat="43.57017" lon="2.96694">
        <ele>193</ele>
        <time>2016-06-11T21:53:37Z</time>
      </trkpt>
      <trkpt lat="43.5704" lon="2.96734">
        <ele>192</ele>
        <time>2016-06-11T21:53:57Z</time>
      </trkpt>
      <trkpt lat="43.57021" lon="2.96763">
        <ele>190</ele>
        <time>2016-06-11T21:54:10Z</time>
      </trkpt>
      <trkpt lat="43.57009" lon="2.96748">
        <ele>191</ele>
        <time>2016-06-11T21:54:21Z</time>
      </trkpt>
      <trkpt lat="43.56956" lon="2.96678">
        <ele>189</ele>
        <time>2016-06-11T21:55:00Z</time>
      </trkpt>
      <trkpt lat="43.56897" lon="2.96622">
        <ele>186</ele>
        <time>2016-06-11T21:55:35Z</time>
      </trkpt>
      <trkpt lat="43.5687" lon="2.96586">
        <ele>185</ele>
        <time>2016-06-11T21:55:55Z</time>
      </trkpt>
      <trkpt lat="43.56857" lon="2.96593">
        <ele>184</ele>
        <time>2016-06-11T21:56:02Z</time>
      </trkpt>
      <trkpt lat="43.56859" lon="2.96572">
        <ele>184</ele>
        <time>2016-06-11T21:56:11Z</time>
      </trkpt>
      <trkpt lat="43.56832" lon="2.96513">
        <ele>184</ele>
        <time>2016-06-11T21:56:40Z</time>
      </trkpt>
      <trkpt lat="43.56807" lon="2.96446">
        <ele>183</ele>
        <time>2016-06-11T21:57:09Z</time>
      </trkpt>
      <trkpt lat="43.56777" lon="2.96361">
        <ele>184</ele>
        <time>2016-06-11T21:57:50Z</time>
      </trkpt>
      <trkpt lat="43.56746" lon="2.9627">
        <ele>184</ele>
        <time>2016-06-11T21:58:31Z</time>
      </trkpt>
      <trkpt lat="43.56721" lon="2.96185">
        <ele>184</ele>
        <time>2016-06-11T21:59:10Z</time>
      </trkpt>
      <trkpt lat="43.56695" lon="2.96092">
        <ele>186</ele>
        <time>2016-06-11T21:59:53Z</time>
      </trkpt>
      <trkpt lat="43.56674" lon="2.95976">
        <ele>186</ele>
        <time>2016-06-11T22:00:43Z</time>
      </trkpt>
      <trkpt lat="43.56661" lon="2.95891">
        <ele>184</ele>
        <time>2016-06-11T22:01:16Z</time>
      </trkpt>
      <trkpt lat="43.56668" lon="2.95524">
        <ele>179</ele>
        <time>2016-06-11T22:03:39Z</time>
      </trkpt>
      <trkpt lat="43.56653" lon="2.95208">
        <ele>173</ele>
        <time>2016-06-11T22:05:40Z</time>
      </trkpt>
      <trkpt lat="43.56654" lon="2.95107">
        <ele>170</ele>
        <time>2016-06-11T22:06:17Z</time>
      </trkpt>
      <trkpt lat="43.56702" lon="2.9488">
        <ele>175</ele>
        <time>2016-06-11T22:08:01Z</time>
      </trkpt>
      <trkpt lat="43.56702" lon="2.94775">
        <ele>180</ele>
        <time>2016-06-11T22:08:53Z</time>
      </trkpt>
      <trkpt lat="43.5667" lon="2.94657">
        <ele>177</ele>
        <time>2016-06-11T22:09:40Z</time>
      </trkpt>
      <trkpt lat="43.56598" lon="2.94479">
        <ele>175</ele>
        <time>2016-06-11T22:11:01Z</time>
      </trkpt>
      <trkpt lat="43.56556" lon="2.94309">
        <ele>178</ele>
        <time>2016-06-11T22:12:19Z</time>
      </trkpt>
      <trkpt lat="43.56544" lon="2.94157">
        <ele>169</ele>
        <time>2016-06-11T22:13:13Z</time>
      </trkpt>
      <trkpt lat="43.56508" lon="2.93981">
        <ele>170</ele>
        <time>2016-06-11T22:14:30Z</time>
      </trkpt>
      <trkpt lat="43.5648" lon="2.9379">
        <ele>169</ele>
        <time>2016-06-11T22:15:49Z</time>
      </trkpt>
      <trkpt lat="43.56434" lon="2.93653">
        <ele>166</ele>
        <time>2016-06-11T22:16:46Z</time>
      </trkpt>
      <trkpt lat="43.56343" lon="2.93539">
        <ele>173</ele>
        <time>2016-06-11T22:18:06Z</time>
      </trkpt>
      <trkpt lat="43.56231" lon="2.9344">
        <ele>172</ele>
        <time>2016-06-11T22:19:20Z</time>
      </trkpt>
      <trkpt lat="43.56109" lon="2.93279">
        <ele>173</ele>
        <time>2016-06-11T22:20:58Z</time>
      </trkpt>
      <trkpt lat="43.55996" lon="2.93092">
        <ele>178</ele>
        <time>2016-06-11T22:22:46Z</time>
      </trkpt>
      <trkpt lat="43.55947" lon="2.92957">
        <ele>178</ele>
        <time>2016-06-11T22:23:48Z</time>
      </trkpt>
      <trkpt lat="43.5588" lon="2.92626">
        <ele>179</ele>
        <time>2016-06-11T22:26:12Z</time>
      </trkpt>
      <trkpt lat="43.55832" lon="2.92475">
        <ele>179</ele>
        <time>2016-06-11T22:27:20Z</time>
      </trkpt>
      <trkpt lat="43.55796" lon="2.9231">
        <ele>180</ele>
        <time>2016-06-11T22:28:33Z</time>
      </trkpt>
      <trkpt lat="43.5577" lon="2.92105">
        <ele>185</ele>
        <time>2016-06-11T22:30:06Z</time>
      </trkpt>
      <trkpt lat="43.55709" lon="2.91949">
        <ele>170</ele>
        <time>2016-06-11T22:31:12Z</time>
      </trkpt>
      <trkpt lat="43.55699" lon="2.9191">
        <ele>171</ele>
        <time>2016-06-11T22:31:30Z</time>
      </trkpt>
      <trkpt lat="43.55677" lon="2.91899">
        <ele>171</ele>
        <time>2016-06-11T22:31:44Z</time>
      </trkpt>
      <trkpt lat="43.5565" lon="2.91861">
        <ele>173</ele>
        <time>2016-06-11T22:32:09Z</time>
      </trkpt>
      <trkpt lat="43.55619" lon="2.91737">
        <ele>179</ele>
        <time>2016-06-11T22:33:12Z</time>
      </trkpt>
      <trkpt lat="43.55614" lon="2.91673">
        <ele>182</ele>
        <time>2016-06-11T22:33:43Z</time>
      </trkpt>
      <trkpt lat="43.55599" lon="2.91609">
        <ele>185</ele>
        <time>2016-06-11T22:34:16Z</time>
      </trkpt>
      <trkpt lat="43.55564" lon="2.91655">
        <ele>184</ele>
        <time>2016-06-11T22:34:42Z</time>
      </trkpt>
      <trkpt lat="43.55538" lon="2.9168">
        <ele>183</ele>
        <time>2016-06-11T22:34:58Z</time>
      </trkpt>
      <trkpt lat="43.55497" lon="2.91709">
        <ele>186</ele>
        <time>2016-06-11T22:35:29Z</time>
      </trkpt>
      <trkpt lat="43.5547" lon="2.9173">
        <ele>188</ele>
        <time>2016-06-11T22:35:50Z</time>
      </trkpt>
      <trkpt lat="43.55454" lon="2.91751">
        <ele>187</ele>
        <time>2016-06-11T22:36:01Z</time>
      </trkpt>
      <trkpt lat="43.55415" lon="2.91772">
        <ele>190</ele>
        <time>2016-06-11T22:36:30Z</time>
      </trkpt>
      <trkpt lat="43.55392" lon="2.91764">
        <ele>193</ele>
        <time>2016-06-11T22:36:50Z</time>
      </trkpt>
      <trkpt lat="43.55353" lon="2.91741">
        <ele>199</ele>
        <time>2016-06-11T22:37:30Z</time>
      </trkpt>
      <trkpt lat="43.55343" lon="2.91769">
        <ele>198</ele>
        <time>2016-06-11T22:37:41Z</time>
      </trkpt>
      <trkpt lat="43.55357" lon="2.91838">
        <ele>196</ele>
        <time>2016-06-11T22:38:08Z</time>
      </trkpt>
      <trkpt lat="43.55337" lon="2.91879">
        <ele>199</ele>
        <time>2016-06-11T22:38:33Z</time>
      </trkpt>
      <trkpt lat="43.55317" lon="2.9193">
        <ele>205</ele>
        <time>2016-06-11T22:39:12Z</time>
      </trkpt>
      <trkpt lat="43.5535" lon="2.92037">
        <ele>207</ele>
        <time>2016-06-11T22:40:03Z</time>
      </trkpt>
      <trkpt lat="43.55359" lon="2.92095">
        <ele>211</ele>
        <time>2016-06-11T22:40:35Z</time>
      </trkpt>
      <trkpt lat="43.55281" lon="2.92161">
        <ele>239</ele>
        <time>2016-06-11T22:43:19Z</time>
      </trkpt>
      <trkpt lat="43.55273" lon="2.92187">
        <ele>245</ele>
        <time>2016-06-11T22:43:54Z</time>
      </trkpt>
      <trkpt lat="43.55315" lon="2.92206">
        <ele>234</ele>
        <time>2016-06-11T22:44:30Z</time>
      </trkpt>
      <trkpt lat="43.5534" lon="2.92271">
        <ele>236</ele>
        <time>2016-06-11T22:45:03Z</time>
      </trkpt>
      <trkpt lat="43.55333" lon="2.92346">
        <ele>246</ele>
        <time>2016-06-11T22:46:04Z</time>
      </trkpt>
      <trkpt lat="43.55311" lon="2.92378">
        <ele>253</ele>
        <time>2016-06-11T22:46:46Z</time>
      </trkpt>
      <trkpt lat="43.55297" lon="2.92331">
        <ele>256</ele>
        <time>2016-06-11T22:47:13Z</time>
      </trkpt>
      <trkpt lat="43.55277" lon="2.92348">
        <ele>263</ele>
        <time>2016-06-11T22:47:53Z</time>
      </trkpt>
      <trkpt lat="43.55259" lon="2.92324">
        <ele>267</ele>
        <time>2016-06-11T22:48:18Z</time>
      </trkpt>
      <trkpt lat="43.55158" lon="2.9226">
        <ele>295</ele>
        <time>2016-06-11T22:51:03Z</time>
      </trkpt>
      <trkpt lat="43.55157" lon="2.92281">
        <ele>297</ele>
        <time>2016-06-11T22:51:17Z</time>
      </trkpt>
      <trkpt lat="43.5513" lon="2.92254">
        <ele>305</ele>
        <time>2016-06-11T22:52:05Z</time>
      </trkpt>
      <trkpt lat="43.55138" lon="2.92307">
        <ele>306</ele>
        <time>2016-06-11T22:52:29Z</time>
      </trkpt>
      <trkpt lat="43.55107" lon="2.92277">
        <ele>315</ele>
        <time>2016-06-11T22:53:23Z</time>
      </trkpt>
      <trkpt lat="43.55113" lon="2.92316">
        <ele>314</ele>
        <time>2016-06-11T22:53:37Z</time>
      </trkpt>
      <trkpt lat="43.55109" lon="2.92337">
        <ele>314</ele>
        <time>2016-06-11T22:53:47Z</time>
      </trkpt>
      <trkpt lat="43.55092" lon="2.92346">
        <ele>319</ele>
        <time>2016-06-11T22:54:16Z</time>
      </trkpt>
      <trkpt lat="43.55087" lon="2.92318">
        <ele>323</ele>
        <time>2016-06-11T22:54:40Z</time>
      </trkpt>
      <trkpt lat="43.55071" lon="2.92316">
        <ele>328</ele>
        <time>2016-06-11T22:55:09Z</time>
      </trkpt>
      <trkpt lat="43.55034" lon="2.92363">
        <ele>333</ele>
        <time>2016-06-11T22:55:49Z</time>
      </trkpt>
      <trkpt lat="43.55014" lon="2.92359">
        <ele>338</ele>
        <time>2016-06-11T22:56:18Z</time>
      </trkpt>
      <trkpt lat="43.55" lon="2.92266">
        <ele>349</ele>
        <time>2016-06-11T22:57:27Z</time>
      </trkpt>
      <trkpt lat="43.5498" lon="2.92299">
        <ele>355</ele>
        <time>2016-06-11T22:58:03Z</time>
      </trkpt>
      <trkpt lat="43.54952" lon="2.92303">
        <ele>359</ele>
        <time>2016-06-11T22:58:29Z</time>
      </trkpt>
      <trkpt lat="43.54952" lon="2.92277">
        <ele>360</ele>
        <time>2016-06-11T22:58:41Z</time>
      </trkpt>
      <trkpt lat="43.54931" lon="2.92236">
        <ele>368</ele>
        <time>2016-06-11T22:59:30Z</time>
      </trkpt>
      <trkpt lat="43.54886" lon="2.9223">
        <ele>378</ele>
        <time>2016-06-11T23:00:31Z</time>
      </trkpt>
      <trkpt lat="43.54866" lon="2.92266">
        <ele>378</ele>
        <time>2016-06-11T23:00:50Z</time>
      </trkpt>
      <trkpt lat="43.54784" lon="2.92284">
        <ele>387</ele>
        <time>2016-06-11T23:01:57Z</time>
      </trkpt>
      <trkpt lat="43.54609" lon="2.92281">
        <ele>412</ele>
        <time>2016-06-11T23:04:39Z</time>
      </trkpt>
      <trkpt lat="43.54574" lon="2.92367">
        <ele>411</ele>
        <time>2016-06-11T23:05:18Z</time>
      </trkpt>
      <trkpt lat="43.54567" lon="2.92522">
        <ele>415</ele>
        <time>2016-06-11T23:06:27Z</time>
      </trkpt>
      <trkpt lat="43.54477" lon="2.92672">
        <ele>420</ele>
        <time>2016-06-11T23:07:55Z</time>
      </trkpt>
      <trkpt lat="43.5444" lon="2.92715">
        <ele>416</ele>
        <time>2016-06-11T23:08:18Z</time>
      </trkpt>
      <trkpt lat="43.54387" lon="2.92831">
        <ele>417</ele>
        <time>2016-06-11T23:09:16Z</time>
      </trkpt>
      <trkpt lat="43.54342" lon="2.92876">
        <ele>414</ele>
        <time>2016-06-11T23:09:44Z</time>
      </trkpt>
      <trkpt lat="43.54323" lon="2.92914">
        <ele>416</ele>
        <time>2016-06-11T23:10:06Z</time>
      </trkpt>
      <trkpt lat="43.54294" lon="2.92932">
        <ele>410</ele>
        <time>2016-06-11T23:10:27Z</time>
      </trkpt>
      <trkpt lat="43.54235" lon="2.93002">
        <ele>415</ele>
        <time>2016-06-11T23:11:19Z</time>
      </trkpt>
      <trkpt lat="43.54216" lon="2.93047">
        <ele>421</ele>
        <time>2016-06-11T23:11:56Z</time>
      </trkpt>
      <trkpt lat="43.54096" lon="2.93075">
        <ele>437</ele>
        <time>2016-06-11T23:13:44Z</time>
      </trkpt>
      <trkpt lat="43.54149" lon="2.92979">
        <ele>427</ele>
        <time>2016-06-11T23:14:29Z</time>
      </trkpt>
      <trkpt lat="43.54135" lon="2.92865">
        <ele>444</ele>
        <time>2016-06-11T23:16:11Z</time>
      </trkpt>
      <trkpt lat="43.54113" lon="2.92957">
        <ele>444</ele>
        <time>2016-06-11T23:16:52Z</time>
      </trkpt>
      <trkpt lat="43.54084" lon="2.92975">
        <ele>452</ele>
        <time>2016-06-11T23:17:39Z</time>
      </trkpt>
      <trkpt lat="43.54091" lon="2.92899">
        <ele>461</ele>
        <time>2016-06-11T23:18:35Z</time>
      </trkpt>
      <trkpt lat="43.54081" lon="2.92852">
        <ele>468</ele>
        <time>2016-06-11T23:19:17Z</time>
      </trkpt>
      <trkpt lat="43.54057" lon="2.92934">
        <ele>472</ele>
        <time>2016-06-11T23:19:59Z</time>
      </trkpt>
      <trkpt lat="43.5402" lon="2.92977">
        <ele>476</ele>
        <time>2016-06-11T23:20:34Z</time>
      </trkpt>
      <trkpt lat="43.54035" lon="2.92925">
        <ele>484</ele>
        <time>2016-06-11T23:21:22Z</time>
      </trkpt>
      <trkpt lat="43.53964" lon="2.92891">
        <ele>511</ele>
        <time>2016-06-11T23:24:02Z</time>
      </trkpt>
      <trkpt lat="43.53913" lon="2.92912">
        <ele>517</ele>
        <time>2016-06-11T23:24:46Z</time>
      </trkpt>
      <trkpt lat="43.53888" lon="2.92912">
        <ele>521</ele>
        <time>2016-06-11T23:25:11Z</time>
      </trkpt>
      <trkpt lat="43.53752" lon="2.92878">
        <ele>537</ele>
        <time>2016-06-11T23:27:06Z</time>
      </trkpt>
      <trkpt lat="43.53695" lon="2.92844">
        <ele>542</ele>
        <time>2016-06-11T23:27:50Z</time>
      </trkpt>
      <trkpt lat="43.53584" lon="2.92899">
        <ele>570</ele>
        <time>2016-06-11T23:30:38Z</time>
      </trkpt>
      <trkpt lat="43.5357" lon="2.92936">
        <ele>577</ele>
        <time>2016-06-11T23:31:20Z</time>
      </trkpt>
      <trkpt lat="43.53546" lon="2.92975">
        <ele>588</ele>
        <time>2016-06-11T23:32:24Z</time>
      </trkpt>
      <trkpt lat="43.53518" lon="2.92987">
        <ele>597</ele>
        <time>2016-06-11T23:33:17Z</time>
      </trkpt>
      <trkpt lat="43.53507" lon="2.93022">
        <ele>603</ele>
        <time>2016-06-11T23:33:53Z</time>
      </trkpt>
      <trkpt lat="43.53486" lon="2.93032">
        <ele>608</ele>
        <time>2016-06-11T23:34:24Z</time>
      </trkpt>
      <trkpt lat="43.53465" lon="2.93114">
        <ele>611</ele>
        <time>2016-06-11T23:35:03Z</time>
      </trkpt>
      <trkpt lat="43.5346" lon="2.93157">
        <ele>614</ele>
        <time>2016-06-11T23:35:28Z</time>
      </trkpt>
      <trkpt lat="43.53392" lon="2.93249">
        <ele>629</ele>
        <time>2016-06-11T23:37:01Z</time>
      </trkpt>
      <trkpt lat="43.53388" lon="2.93309">
        <ele>628</ele>
        <time>2016-06-11T23:37:25Z</time>
      </trkpt>
      <trkpt lat="43.53301" lon="2.9358">
        <ele>624</ele>
        <time>2016-06-11T23:39:20Z</time>
      </trkpt>
      <trkpt lat="43.53311" lon="2.9361">
        <ele>624</ele>
        <time>2016-06-11T23:39:34Z</time>
      </trkpt>
      <trkpt lat="43.53332" lon="2.93638">
        <ele>625</ele>
        <time>2016-06-11T23:39:52Z</time>
      </trkpt>
      <trkpt lat="43.53426" lon="2.93906">
        <ele>620</ele>
        <time>2016-06-11T23:41:47Z</time>
      </trkpt>
      <trkpt lat="43.53454" lon="2.93942">
        <ele>620</ele>
        <time>2016-06-11T23:42:09Z</time>
      </trkpt>
      <trkpt lat="43.53451" lon="2.94002">
        <ele>620</ele>
        <time>2016-06-11T23:42:34Z</time>
      </trkpt>
      <trkpt lat="43.53466" lon="2.94084">
        <ele>632</ele>
        <time>2016-06-11T23:43:46Z</time>
      </trkpt>
      <trkpt lat="43.53485" lon="2.94195">
        <ele>650</ele>
        <time>2016-06-11T23:45:35Z</time>
      </trkpt>
      <trkpt lat="43.535" lon="2.94279">
        <ele>666</ele>
        <time>2016-06-11T23:47:09Z</time>
      </trkpt>
      <trkpt lat="43.53577" lon="2.94502">
        <ele>713</ele>
        <time>2016-06-11T23:51:45Z</time>
      </trkpt>
      <trkpt lat="43.53594" lon="2.94552">
        <ele>721</ele>
        <time>2016-06-11T23:52:33Z</time>
      </trkpt>
      <trkpt lat="43.53619" lon="2.94588">
        <ele>730</ele>
        <time>2016-06-11T23:53:26Z</time>
      </trkpt>
      <trkpt lat="43.53696" lon="2.94655">
        <ele>737</ele>
        <time>2016-06-11T23:54:30Z</time>
      </trkpt>
      <trkpt lat="43.537" lon="2.947">
        <ele>740</ele>
        <time>2016-06-11T23:54:55Z</time>
      </trkpt>
      <trkpt lat="43.53665" lon="2.94781">
        <ele>732</ele>
        <time>2016-06-11T23:55:31Z</time>
      </trkpt>
      <trkpt lat="43.53653" lon="2.94893">
        <ele>723</ele>
        <time>2016-06-11T23:56:12Z</time>
      </trkpt>
      <trkpt lat="43.53645" lon="2.95024">
        <ele>718</ele>
        <time>2016-06-11T23:56:59Z</time>
      </trkpt>
      <trkpt lat="43.53659" lon="2.95118">
        <ele>715</ele>
        <time>2016-06-11T23:57:34Z</time>
      </trkpt>
      <trkpt lat="43.53633" lon="2.95193">
        <ele>705</ele>
        <time>2016-06-11T23:58:11Z</time>
      </trkpt>
      <trkpt lat="43.53653" lon="2.95208">
        <ele>702</ele>
        <time>2016-06-11T23:58:23Z</time>
      </trkpt>
      <trkpt lat="43.53665" lon="2.95238">
        <ele>696</ele>
        <time>2016-06-11T23:58:43Z</time>
      </trkpt>
      <trkpt lat="43.53686" lon="2.95234">
        <ele>690</ele>
        <time>2016-06-11T23:59:03Z</time>
      </trkpt>
      <trkpt lat="43.53696" lon="2.95255">
        <ele>685</ele>
        <time>2016-06-11T23:59:19Z</time>
      </trkpt>
      <trkpt lat="43.53717" lon="2.95251">
        <ele>677</ele>
        <time>2016-06-11T23:59:47Z</time>
      </trkpt>
      <trkpt lat="43.53729" lon="2.95268">
        <ele>671</ele>
        <time>2016-06-12T00:00:08Z</time>
      </trkpt>
      <trkpt lat="43.53746" lon="2.95255">
        <ele>665</ele>
        <time>2016-06-12T00:00:28Z</time>
      </trkpt>
      <trkpt lat="43.5376" lon="2.95281">
        <ele>660</ele>
        <time>2016-06-12T00:00:45Z</time>
      </trkpt>
      <trkpt lat="43.53785" lon="2.95279">
        <ele>655</ele>
        <time>2016-06-12T00:01:02Z</time>
      </trkpt>
      <trkpt lat="43.53798" lon="2.95301">
        <ele>651</ele>
        <time>2016-06-12T00:01:16Z</time>
      </trkpt>
      <trkpt lat="43.53818" lon="2.95316">
        <ele>643</ele>
        <time>2016-06-12T00:01:44Z</time>
      </trkpt>
      <trkpt lat="43.53838" lon="2.95335">
        <ele>636</ele>
        <time>2016-06-12T00:02:07Z</time>
      </trkpt>
      <trkpt lat="43.53864" lon="2.95348">
        <ele>626</ele>
        <time>2016-06-12T00:02:42Z</time>
      </trkpt>
      <trkpt lat="43.53869" lon="2.95371">
        <ele>620</ele>
        <time>2016-06-12T00:03:02Z</time>
      </trkpt>
      <trkpt lat="43.53889" lon="2.95399">
        <ele>609</ele>
        <time>2016-06-12T00:03:40Z</time>
      </trkpt>
      <trkpt lat="43.53934" lon="2.95466">
        <ele>586</ele>
        <time>2016-06-12T00:05:00Z</time>
      </trkpt>
      <trkpt lat="43.53975" lon="2.95496">
        <ele>571</ele>
        <time>2016-06-12T00:05:52Z</time>
      </trkpt>
      <trkpt lat="43.53981" lon="2.95543">
        <ele>560</ele>
        <time>2016-06-12T00:06:29Z</time>
      </trkpt>
      <trkpt lat="43.54006" lon="2.95554">
        <ele>552</ele>
        <time>2016-06-12T00:06:56Z</time>
      </trkpt>
      <trkpt lat="43.54025" lon="2.95575">
        <ele>543</ele>
        <time>2016-06-12T00:07:27Z</time>
      </trkpt>
      <trkpt lat="43.54028" lon="2.95607">
        <ele>535</ele>
        <time>2016-06-12T00:07:54Z</time>
      </trkpt>
      <trkpt lat="43.54054" lon="2.95618">
        <ele>525</ele>
        <time>2016-06-12T00:08:29Z</time>
      </trkpt>
      <trkpt lat="43.54079" lon="2.95652">
        <ele>512</ele>
        <time>2016-06-12T00:09:14Z</time>
      </trkpt>
      <trkpt lat="43.54112" lon="2.95691">
        <ele>493</ele>
        <time>2016-06-12T00:10:22Z</time>
      </trkpt>
      <trkpt lat="43.54124" lon="2.95738">
        <ele>477</ele>
        <time>2016-06-12T00:11:19Z</time>
      </trkpt>
      <trkpt lat="43.54158" lon="2.95755">
        <ele>463</ele>
        <time>2016-06-12T00:12:07Z</time>
      </trkpt>
      <trkpt lat="43.54196" lon="2.95794">
        <ele>447</ele>
        <time>2016-06-12T00:13:03Z</time>
      </trkpt>
      <trkpt lat="43.54273" lon="2.95871">
        <ele>426</ele>
        <time>2016-06-12T00:14:14Z</time>
      </trkpt>
      <trkpt lat="43.54283" lon="2.95893">
        <ele>423</ele>
        <time>2016-06-12T00:14:25Z</time>
      </trkpt>
      <trkpt lat="43.54308" lon="2.95946">
        <ele>420</ele>
        <time>2016-06-12T00:14:48Z</time>
      </trkpt>
      <trkpt lat="43.54289" lon="2.95949">
        <ele>420</ele>
        <time>2016-06-12T00:14:58Z</time>
      </trkpt>
      <trkpt lat="43.54242" lon="2.95929">
        <ele>419</ele>
        <time>2016-06-12T00:15:24Z</time>
      </trkpt>
      <trkpt lat="43.54202" lon="2.95966">
        <ele>414</ele>
        <time>2016-06-12T00:15:49Z</time>
      </trkpt>
      <trkpt lat="43.54068" lon="2.95938">
        <ele>403</ele>
        <time>2016-06-12T00:16:55Z</time>
      </trkpt>
      <trkpt lat="43.54003" lon="2.95925">
        <ele>397</ele>
        <time>2016-06-12T00:17:27Z</time>
      </trkpt>
      <trkpt lat="43.53958" lon="2.95901">
        <ele>393</ele>
        <time>2016-06-12T00:17:51Z</time>
      </trkpt>
      <trkpt lat="43.53903" lon="2.95893">
        <ele>390</ele>
        <time>2016-06-12T00:18:17Z</time>
      </trkpt>
      <trkpt lat="43.53801" lon="2.95811">
        <ele>385</ele>
        <time>2016-06-12T00:19:17Z</time>
      </trkpt>
      <trkpt lat="43.53746" lon="2.95805">
        <ele>384</ele>
        <time>2016-06-12T00:19:46Z</time>
      </trkpt>
      <trkpt lat="43.53735" lon="2.95882">
        <ele>366</ele>
        <time>2016-06-12T00:20:47Z</time>
      </trkpt>
      <trkpt lat="43.53667" lon="2.9606">
        <ele>323</ele>
        <time>2016-06-12T00:23:10Z</time>
      </trkpt>
      <trkpt lat="43.53612" lon="2.96101">
        <ele>323</ele>
        <time>2016-06-12T00:23:45Z</time>
      </trkpt>
      <trkpt lat="43.5358" lon="2.96125">
        <ele>324</ele>
        <time>2016-06-12T00:24:08Z</time>
      </trkpt>
      <trkpt lat="43.53527" lon="2.96191">
        <ele>323</ele>
        <time>2016-06-12T00:24:47Z</time>
      </trkpt>
      <trkpt lat="43.53468" lon="2.96178">
        <ele>323</ele>
        <time>2016-06-12T00:25:21Z</time>
      </trkpt>
      <trkpt lat="43.53438" lon="2.96133">
        <ele>334</ele>
        <time>2016-06-12T00:26:26Z</time>
      </trkpt>
      <trkpt lat="43.53413" lon="2.96131">
        <ele>329</ele>
        <time>2016-06-12T00:26:43Z</time>
      </trkpt>
      <trkpt lat="43.53381" lon="2.96161">
        <ele>322</ele>
        <time>2016-06-12T00:27:09Z</time>
      </trkpt>
      <trkpt lat="43.53353" lon="2.96137">
        <ele>324</ele>
        <time>2016-06-12T00:27:30Z</time>
      </trkpt>
      <trkpt lat="43.53281" lon="2.96155">
        <ele>330</ele>
        <time>2016-06-12T00:28:23Z</time>
      </trkpt>
      <trkpt lat="43.53241" lon="2.96223">
        <ele>324</ele>
        <time>2016-06-12T00:28:54Z</time>
      </trkpt>
      <trkpt lat="43.53202" lon="2.96234">
        <ele>321</ele>
        <time>2016-06-12T00:29:14Z</time>
      </trkpt>
      <trkpt lat="43.53172" lon="2.96253">
        <ele>313</ele>
        <time>2016-06-12T00:29:40Z</time>
      </trkpt>
      <trkpt lat="43.53138" lon="2.96324">
        <ele>300</ele>
        <time>2016-06-12T00:30:25Z</time>
      </trkpt>
      <trkpt lat="43.53108" lon="2.96328">
        <ele>304</ele>
        <time>2016-06-12T00:30:51Z</time>
      </trkpt>
      <trkpt lat="43.53074" lon="2.9632">
        <ele>309</ele>
        <time>2016-06-12T00:31:24Z</time>
      </trkpt>
      <trkpt lat="43.52993" lon="2.96421">
        <ele>298</ele>
        <time>2016-06-12T00:32:18Z</time>
      </trkpt>
      <trkpt lat="43.52998" lon="2.96528">
        <ele>291</ele>
        <time>2016-06-12T00:32:57Z</time>
      </trkpt>
      <trkpt lat="43.53023" lon="2.96676">
        <ele>281</ele>
        <time>2016-06-12T00:33:51Z</time>
      </trkpt>
      <trkpt lat="43.53032" lon="2.96749">
        <ele>277</ele>
        <time>2016-06-12T00:34:17Z</time>
      </trkpt>
      <trkpt lat="43.53004" lon="2.96856">
        <ele>280</ele>
        <time>2016-06-12T00:35:08Z</time>
      </trkpt>
      <trkpt lat="43.52956" lon="2.9688">
        <ele>284</ele>
        <time>2016-06-12T00:35:45Z</time>
      </trkpt>
      <trkpt lat="43.52936" lon="2.96936">
        <ele>289</ele>
        <time>2016-06-12T00:36:22Z</time>
      </trkpt>
      <trkpt lat="43.52915" lon="2.96953">
        <ele>286</ele>
        <time>2016-06-12T00:36:34Z</time>
      </trkpt>
      <trkpt lat="43.52887" lon="2.97039">
        <ele>278</ele>
        <time>2016-06-12T00:37:10Z</time>
      </trkpt>
      <trkpt lat="43.5287" lon="2.9706">
        <ele>276</ele>
        <time>2016-06-12T00:37:21Z</time>
      </trkpt>
      <trkpt lat="43.52844" lon="2.97067">
        <ele>274</ele>
        <time>2016-06-12T00:37:34Z</time>
      </trkpt>
      <trkpt lat="43.52835" lon="2.97112">
        <ele>270</ele>
        <time>2016-06-12T00:37:52Z</time>
      </trkpt>
      <trkpt lat="43.52858" lon="2.97157">
        <ele>267</ele>
        <time>2016-06-12T00:38:11Z</time>
      </trkpt>
      <trkpt lat="43.52861" lon="2.97251">
        <ele>260</ele>
        <time>2016-06-12T00:38:46Z</time>
      </trkpt>
      <trkpt lat="43.52889" lon="2.97298">
        <ele>256</ele>
        <time>2016-06-12T00:39:07Z</time>
      </trkpt>
      <trkpt lat="43.52889" lon="2.97335">
        <ele>250</ele>
        <time>2016-06-12T00:39:28Z</time>
      </trkpt>
      <trkpt lat="43.52853" lon="2.97408">
        <ele>236</ele>
        <time>2016-06-12T00:40:15Z</time>
      </trkpt>
      <trkpt lat="43.52839" lon="2.97451">
        <ele>233</ele>
        <time>2016-06-12T00:40:32Z</time>
      </trkpt>
      <trkpt lat="43.52884" lon="2.97474">
        <ele>230</ele>
        <time>2016-06-12T00:40:55Z</time>
      </trkpt>
      <trkpt lat="43.52923" lon="2.97524">
        <ele>222</ele>
        <time>2016-06-12T00:41:26Z</time>
      </trkpt>
      <trkpt lat="43.52943" lon="2.97556">
        <ele>218</ele>
        <time>2016-06-12T00:41:43Z</time>
      </trkpt>
      <trkpt lat="43.52996" lon="2.97605">
        <ele>212</ele>
        <time>2016-06-12T00:42:14Z</time>
      </trkpt>
      <trkpt lat="43.53102" lon="2.9765">
        <ele>198</ele>
        <time>2016-06-12T00:43:14Z</time>
      </trkpt>
      <trkpt lat="43.53132" lon="2.97678">
        <ele>194</ele>
        <time>2016-06-12T00:43:32Z</time>
      </trkpt>
      <trkpt lat="43.53172" lon="2.97684">
        <ele>189</ele>
        <time>2016-06-12T00:43:53Z</time>
      </trkpt>
      <trkpt lat="43.53217" lon="2.97738">
        <ele>182</ele>
        <time>2016-06-12T00:44:24Z</time>
      </trkpt>
      <trkpt lat="43.53335" lon="2.97798">
        <ele>162</ele>
        <time>2016-06-12T00:45:39Z</time>
      </trkpt>
      <trkpt lat="43.5339" lon="2.97828">
        <ele>154</ele>
        <time>2016-06-12T00:46:12Z</time>
      </trkpt>
      <trkpt lat="43.5342" lon="2.97865">
        <ele>150</ele>
        <time>2016-06-12T00:46:32Z</time>
      </trkpt>
      <trkpt lat="43.5344" lon="2.9791">
        <ele>148</ele>
        <time>2016-06-12T00:46:50Z</time>
      </trkpt>
      <trkpt lat="43.5349" lon="2.97936">
        <ele>142</ele>
        <time>2016-06-12T00:47:18Z</time>
      </trkpt>
      <trkpt lat="43.5355" lon="2.97955">
        <ele>137</ele>
        <time>2016-06-12T00:47:48Z</time>
      </trkpt>
      <trkpt lat="43.53583" lon="2.98015">
        <ele>133</ele>
        <time>2016-06-12T00:48:14Z</time>
      </trkpt>
      <trkpt lat="43.53623" lon="2.98">
        <ele>130</ele>
        <time>2016-06-12T00:48:35Z</time>
      </trkpt>
      <trkpt lat="43.53715" lon="2.97963">
        <ele>131</ele>
        <time>2016-06-12T00:49:30Z</time>
      </trkpt>
      <trkpt lat="43.5377" lon="2.97933">
        <ele>123</ele>
        <time>2016-06-12T00:50:03Z</time>
      </trkpt>
      <trkpt lat="43.53763" lon="2.98008">
        <ele>117</ele>
        <time>2016-06-12T00:50:31Z</time>
      </trkpt>
      <trkpt lat="43.53802" lon="2.97963">
        <ele>113</ele>
        <time>2016-06-12T00:50:55Z</time>
      </trkpt>
      <trkpt lat="43.53818" lon="2.97946">
        <ele>112</ele>
        <time>2016-06-12T00:51:05Z</time>
      </trkpt>
      <trkpt lat="43.53822" lon="2.97981">
        <ele>113</ele>
        <time>2016-06-12T00:51:21Z</time>
      </trkpt>
      <trkpt lat="43.53874" lon="2.97996">
        <ele>117</ele>
        <time>2016-06-12T00:51:58Z</time>
      </trkpt>
      <trkpt lat="43.53897" lon="2.97921">
        <ele>115</ele>
        <time>2016-06-12T00:52:28Z</time>
      </trkpt>
      <trkpt lat="43.53981" lon="2.97854">
        <ele>133</ele>
        <time>2016-06-12T00:54:17Z</time>
      </trkpt>
      <trkpt lat="43.54026" lon="2.97833">
        <ele>143</ele>
        <time>2016-06-12T00:55:17Z</time>
      </trkpt>
      <trkpt lat="43.54057" lon="2.97772">
        <ele>151</ele>
        <time>2016-06-12T00:56:08Z</time>
      </trkpt>
      <trkpt lat="43.5407" lon="2.97732">
        <ele>156</ele>
        <time>2016-06-12T00:56:39Z</time>
      </trkpt>
      <trkpt lat="43.54091" lon="2.97715">
        <ele>161</ele>
        <time>2016-06-12T00:57:09Z</time>
      </trkpt>
      <trkpt lat="43.54109" lon="2.97755">
        <ele>168</ele>
        <time>2016-06-12T00:57:52Z</time>
      </trkpt>
      <trkpt lat="43.54118" lon="2.9779">
        <ele>171</ele>
        <time>2016-06-12T00:58:14Z</time>
      </trkpt>
      <trkpt lat="43.54116" lon="2.97843">
        <ele>174</ele>
        <time>2016-06-12T00:58:41Z</time>
      </trkpt>
      <trkpt lat="43.54084" lon="2.97897">
        <ele>179</ele>
        <time>2016-06-12T00:59:20Z</time>
      </trkpt>
      <trkpt lat="43.54039" lon="2.97933">
        <ele>174</ele>
        <time>2016-06-12T00:59:46Z</time>
      </trkpt>
      <trkpt lat="43.54015" lon="2.97978">
        <ele>171</ele>
        <time>2016-06-12T01:00:06Z</time>
      </trkpt>
      <trkpt lat="43.53984" lon="2.98008">
        <ele>168</ele>
        <time>2016-06-12T01:00:24Z</time>
      </trkpt>
      <trkpt lat="43.53969" lon="2.98075">
        <ele>166</ele>
        <time>2016-06-12T01:00:50Z</time>
      </trkpt>
      <trkpt lat="43.53951" lon="2.98135">
        <ele>164</ele>
        <time>2016-06-12T01:01:13Z</time>
      </trkpt>
      <trkpt lat="43.53923" lon="2.98176">
        <ele>163</ele>
        <time>2016-06-12T01:01:35Z</time>
      </trkpt>
      <trkpt lat="43.53906" lon="2.98236">
        <ele>162</ele>
        <time>2016-06-12T01:02:00Z</time>
      </trkpt>
      <trkpt lat="43.53866" lon="2.98257">
        <ele>162</ele>
        <time>2016-06-12T01:02:25Z</time>
      </trkpt>
      <trkpt lat="43.5384" lon="2.98279">
        <ele>162</ele>
        <time>2016-06-12T01:02:42Z</time>
      </trkpt>
      <trkpt lat="43.53824" lon="2.9832">
        <ele>164</ele>
        <time>2016-06-12T01:03:04Z</time>
      </trkpt>
      <trkpt lat="43.53802" lon="2.9836">
        <ele>162</ele>
        <time>2016-06-12T01:03:22Z</time>
      </trkpt>
      <trkpt lat="43.53757" lon="2.9841">
        <ele>159</ele>
        <time>2016-06-12T01:03:50Z</time>
      </trkpt>
      <trkpt lat="43.53732" lon="2.98478">
        <ele>171</ele>
        <time>2016-06-12T01:05:03Z</time>
      </trkpt>
      <trkpt lat="43.53706" lon="2.98521">
        <ele>173</ele>
        <time>2016-06-12T01:05:29Z</time>
      </trkpt>
      <trkpt lat="43.5369" lon="2.98564">
        <ele>176</ele>
        <time>2016-06-12T01:05:54Z</time>
      </trkpt>
      <trkpt lat="43.53644" lon="2.98601">
        <ele>175</ele>
        <time>2016-06-12T01:06:23Z</time>
      </trkpt>
      <trkpt lat="43.53584" lon="2.98723">
        <ele>173</ele>
        <time>2016-06-12T01:07:21Z</time>
      </trkpt>
      <trkpt lat="43.53575" lon="2.98755">
        <ele>174</ele>
        <time>2016-06-12T01:07:36Z</time>
      </trkpt>
      <trkpt lat="43.53625" lon="2.98863">
        <ele>181</ele>
        <time>2016-06-12T01:08:41Z</time>
      </trkpt>
      <trkpt lat="43.5365" lon="2.98905">
        <ele>185</ele>
        <time>2016-06-12T01:09:12Z</time>
      </trkpt>
      <trkpt lat="43.53678" lon="2.98944">
        <ele>190</ele>
        <time>2016-06-12T01:09:47Z</time>
      </trkpt>
      <trkpt lat="43.53718" lon="2.98968">
        <ele>198</ele>
        <time>2016-06-12T01:10:35Z</time>
      </trkpt>
      <trkpt lat="43.5371" lon="2.99011">
        <ele>205</ele>
        <time>2016-06-12T01:11:17Z</time>
      </trkpt>
      <trkpt lat="43.53724" lon="2.99028">
        <ele>210</ele>
        <time>2016-06-12T01:11:47Z</time>
      </trkpt>
      <trkpt lat="43.53717" lon="2.9906">
        <ele>219</ele>
        <time>2016-06-12T01:12:40Z</time>
      </trkpt>
      <trkpt lat="43.53726" lon="2.99079">
        <ele>225</ele>
        <time>2016-06-12T01:13:15Z</time>
      </trkpt>
      <trkpt lat="43.53715" lon="2.99109">
        <ele>235</ele>
        <time>2016-06-12T01:14:14Z</time>
      </trkpt>
      <trkpt lat="43.53724" lon="2.99133">
        <ele>246</ele>
        <time>2016-06-12T01:15:09Z</time>
      </trkpt>
      <trkpt lat="43.53712" lon="2.99148">
        <ele>252</ele>
        <time>2016-06-12T01:15:44Z</time>
      </trkpt>
      <trkpt lat="43.53723" lon="2.99167">
        <ele>259</ele>
        <time>2016-06-12T01:16:26Z</time>
      </trkpt>
      <trkpt lat="43.53709" lon="2.99184">
        <ele>267</ele>
        <time>2016-06-12T01:17:14Z</time>
      </trkpt>
      <trkpt lat="43.53717" lon="2.99212">
        <ele>277</ele>
        <time>2016-06-12T01:18:12Z</time>
      </trkpt>
      <trkpt lat="43.53695" lon="2.99244">
        <ele>277</ele>
        <time>2016-06-12T01:18:31Z</time>
      </trkpt>
      <trkpt lat="43.53648" lon="2.99251">
        <ele>277</ele>
        <time>2016-06-12T01:18:58Z</time>
      </trkpt>
      <trkpt lat="43.53623" lon="2.99294">
        <ele>279</ele>
        <time>2016-06-12T01:19:23Z</time>
      </trkpt>
      <trkpt lat="43.53586" lon="2.9932">
        <ele>282</ele>
        <time>2016-06-12T01:19:52Z</time>
      </trkpt>
      <trkpt lat="43.53513" lon="2.99343">
        <ele>259</ele>
        <time>2016-06-12T01:21:09Z</time>
      </trkpt>
      <trkpt lat="43.53486" lon="2.99347">
        <ele>251</ele>
        <time>2016-06-12T01:21:36Z</time>
      </trkpt>
      <trkpt lat="43.5346" lon="2.99399">
        <ele>254</ele>
        <time>2016-06-12T01:22:06Z</time>
      </trkpt>
      <trkpt lat="43.53444" lon="2.99431">
        <ele>256</ele>
        <time>2016-06-12T01:22:26Z</time>
      </trkpt>
      <trkpt lat="43.53409" lon="2.99468">
        <ele>244</ele>
        <time>2016-06-12T01:23:05Z</time>
      </trkpt>
      <trkpt lat="43.53357" lon="2.99515">
        <ele>229</ele>
        <time>2016-06-12T01:23:55Z</time>
      </trkpt>
      <trkpt lat="43.53334" lon="2.99599">
        <ele>219</ele>
        <time>2016-06-12T01:24:33Z</time>
      </trkpt>
      <trkpt lat="43.53378" lon="2.99686">
        <ele>225</ele>
        <time>2016-06-12T01:25:28Z</time>
      </trkpt>
      <trkpt lat="43.53433" lon="2.99737">
        <ele>231</ele>
        <time>2016-06-12T01:26:17Z</time>
      </trkpt>
      <trkpt lat="43.53446" lon="2.9975">
        <ele>231</ele>
        <time>2016-06-12T01:26:26Z</time>
      </trkpt>
      <trkpt lat="43.53453" lon="2.99759">
        <ele>232</ele>
        <time>2016-06-12T01:26:34Z</time>
      </trkpt>
      <trkpt lat="43.5346" lon="2.99764">
        <ele>232</ele>
        <time>2016-06-12T01:26:39Z</time>
      </trkpt>
      <trkpt lat="43.53469" lon="2.99771">
        <ele>233</ele>
        <time>2016-06-12T01:26:47Z</time>
      </trkpt>
      <trkpt lat="43.53478" lon="2.99779">
        <ele>234</ele>
        <time>2016-06-12T01:26:55Z</time>
      </trkpt>
      <trkpt lat="43.53488" lon="2.99784">
        <ele>235</ele>
        <time>2016-06-12T01:27:03Z</time>
      </trkpt>
      <trkpt lat="43.53498" lon="2.99789">
        <ele>237</ele>
        <time>2016-06-12T01:27:15Z</time>
      </trkpt>
      <trkpt lat="43.5351" lon="2.99793">
        <ele>241</ele>
        <time>2016-06-12T01:27:39Z</time>
      </trkpt>
      <trkpt lat="43.53519" lon="2.998">
        <ele>241</ele>
        <time>2016-06-12T01:27:45Z</time>
      </trkpt>
      <trkpt lat="43.53524" lon="2.99813">
        <ele>243</ele>
        <time>2016-06-12T01:27:57Z</time>
      </trkpt>
      <trkpt lat="43.53517" lon="2.99825">
        <ele>239</ele>
        <time>2016-06-12T01:28:11Z</time>
      </trkpt>
      <trkpt lat="43.53507" lon="2.99833">
        <ele>236</ele>
        <time>2016-06-12T01:28:20Z</time>
      </trkpt>
      <trkpt lat="43.53498" lon="2.99842">
        <ele>233</ele>
        <time>2016-06-12T01:28:30Z</time>
      </trkpt>
      <trkpt lat="43.53493" lon="2.99857">
        <ele>231</ele>
        <time>2016-06-12T01:28:38Z</time>
      </trkpt>
      <trkpt lat="43.53487" lon="2.99872">
        <ele>230</ele>
        <time>2016-06-12T01:28:43Z</time>
      </trkpt>
      <trkpt lat="43.53484" lon="2.99886">
        <ele>230</ele>
        <time>2016-06-12T01:28:50Z</time>
      </trkpt>
      <trkpt lat="43.53478" lon="2.99898">
        <ele>230</ele>
        <time>2016-06-12T01:28:56Z</time>
      </trkpt>
      <trkpt lat="43.53472" lon="2.99912">
        <ele>229</ele>
        <time>2016-06-12T01:29:01Z</time>
      </trkpt>
      <trkpt lat="43.53466" lon="2.99925">
        <ele>229</ele>
        <time>2016-06-12T01:29:08Z</time>
      </trkpt>
      <trkpt lat="43.53461" lon="2.99938">
        <ele>229</ele>
        <time>2016-06-12T01:29:14Z</time>
      </trkpt>
      <trkpt lat="43.53456" lon="2.99952">
        <ele>229</ele>
        <time>2016-06-12T01:29:20Z</time>
      </trkpt>
      <trkpt lat="43.53453" lon="2.99967">
        <ele>229</ele>
        <time>2016-06-12T01:29:27Z</time>
      </trkpt>
      <trkpt lat="43.53451" lon="2.99982">
        <ele>230</ele>
        <time>2016-06-12T01:29:35Z</time>
      </trkpt>
      <trkpt lat="43.53448" lon="2.99994">
        <ele>230</ele>
        <time>2016-06-12T01:29:41Z</time>
      </trkpt>
      <trkpt lat="43.53446" lon="3.00004">
        <ele>230</ele>
        <time>2016-06-12T01:29:45Z</time>
      </trkpt>
      <trkpt lat="43.53444" lon="3.00015">
        <ele>229</ele>
        <time>2016-06-12T01:29:49Z</time>
      </trkpt>
      <trkpt lat="43.53441" lon="3.00027">
        <ele>229</ele>
        <time>2016-06-12T01:29:54Z</time>
      </trkpt>
      <trkpt lat="43.53441" lon="3.00039">
        <ele>230</ele>
        <time>2016-06-12T01:30:01Z</time>
      </trkpt>
      <trkpt lat="43.53439" lon="3.00051">
        <ele>230</ele>
        <time>2016-06-12T01:30:06Z</time>
      </trkpt>
      <trkpt lat="43.53438" lon="3.00062">
        <ele>230</ele>
        <time>2016-06-12T01:30:11Z</time>
      </trkpt>
      <trkpt lat="43.53437" lon="3.00075">
        <ele>229</ele>
        <time>2016-06-12T01:30:16Z</time>
      </trkpt>
      <trkpt lat="43.53438" lon="3.00087">
        <ele>229</ele>
        <time>2016-06-12T01:30:21Z</time>
      </trkpt>
      <trkpt lat="43.53439" lon="3.001">
        <ele>229</ele>
        <time>2016-06-12T01:30:26Z</time>
      </trkpt>
      <trkpt lat="43.5344" lon="3.00113">
        <ele>229</ele>
        <time>2016-06-12T01:30:32Z</time>
      </trkpt>
      <trkpt lat="43.53442" lon="3.00122">
        <ele>229</ele>
        <time>2016-06-12T01:30:36Z</time>
      </trkpt>
      <trkpt lat="43.53444" lon="3.00132">
        <ele>230</ele>
        <time>2016-06-12T01:30:42Z</time>
      </trkpt>
      <trkpt lat="43.53447" lon="3.00141">
        <ele>230</ele>
        <time>2016-06-12T01:30:46Z</time>
      </trkpt>
      <trkpt lat="43.53451" lon="3.00152">
        <ele>230</ele>
        <time>2016-06-12T01:30:51Z</time>
      </trkpt>
      <trkpt lat="43.53457" lon="3.00159">
        <ele>231</ele>
        <time>2016-06-12T01:30:58Z</time>
      </trkpt>
      <trkpt lat="43.53462" lon="3.00164">
        <ele>232</ele>
        <time>2016-06-12T01:31:04Z</time>
      </trkpt>
      <trkpt lat="43.53468" lon="3.00166">
        <ele>233</ele>
        <time>2016-06-12T01:31:11Z</time>
      </trkpt>
      <trkpt lat="43.53473" lon="3.00168">
        <ele>234</ele>
        <time>2016-06-12T01:31:17Z</time>
      </trkpt>
      <trkpt lat="43.53479" lon="3.0017">
        <ele>235</ele>
        <time>2016-06-12T01:31:23Z</time>
      </trkpt>
      <trkpt lat="43.53485" lon="3.00172">
        <ele>236</ele>
        <time>2016-06-12T01:31:29Z</time>
      </trkpt>
      <trkpt lat="43.53491" lon="3.00174">
        <ele>237</ele>
        <time>2016-06-12T01:31:35Z</time>
      </trkpt>
      <trkpt lat="43.53498" lon="3.00178">
        <ele>237</ele>
        <time>2016-06-12T01:31:39Z</time>
      </trkpt>
      <trkpt lat="43.53505" lon="3.0018">
        <ele>239</ele>
        <time>2016-06-12T01:31:51Z</time>
      </trkpt>
      <trkpt lat="43.53512" lon="3.0018">
        <ele>240</ele>
        <time>2016-06-12T01:31:57Z</time>
      </trkpt>
      <trkpt lat="43.53521" lon="3.00181">
        <ele>242</ele>
        <time>2016-06-12T01:32:09Z</time>
      </trkpt>
      <trkpt lat="43.53529" lon="3.00178">
        <ele>244</ele>
        <time>2016-06-12T01:32:22Z</time>
      </trkpt>
      <trkpt lat="43.53537" lon="3.00176">
        <ele>246</ele>
        <time>2016-06-12T01:32:33Z</time>
      </trkpt>
      <trkpt lat="43.53545" lon="3.00173">
        <ele>248</ele>
        <time>2016-06-12T01:32:45Z</time>
      </trkpt>
      <trkpt lat="43.53554" lon="3.00171">
        <ele>251</ele>
        <time>2016-06-12T01:33:03Z</time>
      </trkpt>
      <trkpt lat="43.53564" lon="3.00169">
        <ele>253</ele>
        <time>2016-06-12T01:33:15Z</time>
      </trkpt>
      <trkpt lat="43.53574" lon="3.00166">
        <ele>255</ele>
        <time>2016-06-12T01:33:27Z</time>
      </trkpt>
      <trkpt lat="43.53584" lon="3.00164">
        <ele>257</ele>
        <time>2016-06-12T01:33:39Z</time>
      </trkpt>
      <trkpt lat="43.53595" lon="3.00164">
        <ele>260</ele>
        <time>2016-06-12T01:33:57Z</time>
      </trkpt>
      <trkpt lat="43.53606" lon="3.00166">
        <ele>262</ele>
        <time>2016-06-12T01:34:09Z</time>
      </trkpt>
      <trkpt lat="43.53615" lon="3.00168">
        <ele>263</ele>
        <time>2016-06-12T01:34:16Z</time>
      </trkpt>
      <trkpt lat="43.53625" lon="3.00172">
        <ele>265</ele>
        <time>2016-06-12T01:34:28Z</time>
      </trkpt>
      <trkpt lat="43.53636" lon="3.00175">
        <ele>267</ele>
        <time>2016-06-12T01:34:40Z</time>
      </trkpt>
      <trkpt lat="43.53646" lon="3.00179">
        <ele>269</ele>
        <time>2016-06-12T01:34:52Z</time>
      </trkpt>
      <trkpt lat="43.53654" lon="3.00181">
        <ele>270</ele>
        <time>2016-06-12T01:35:00Z</time>
      </trkpt>
      <trkpt lat="43.53661" lon="3.00188">
        <ele>271</ele>
        <time>2016-06-12T01:35:07Z</time>
      </trkpt>
      <trkpt lat="43.53663" lon="3.00199">
        <ele>270</ele>
        <time>2016-06-12T01:35:11Z</time>
      </trkpt>
      <trkpt lat="43.53657" lon="3.00207">
        <ele>268</ele>
        <time>2016-06-12T01:35:18Z</time>
      </trkpt>
      <trkpt lat="43.5365" lon="3.00209">
        <ele>268</ele>
        <time>2016-06-12T01:35:22Z</time>
      </trkpt>
      <trkpt lat="43.53643" lon="3.00211">
        <ele>266</ele>
        <time>2016-06-12T01:35:28Z</time>
      </trkpt>
      <trkpt lat="43.53636" lon="3.00215">
        <ele>265</ele>
        <time>2016-06-12T01:35:33Z</time>
      </trkpt>
      <trkpt lat="43.5363" lon="3.00221">
        <ele>263</ele>
        <time>2016-06-12T01:35:39Z</time>
      </trkpt>
      <trkpt lat="43.53625" lon="3.00226">
        <ele>263</ele>
        <time>2016-06-12T01:35:42Z</time>
      </trkpt>
      <trkpt lat="43.5362" lon="3.0023">
        <ele>262</ele>
        <time>2016-06-12T01:35:46Z</time>
      </trkpt>
      <trkpt lat="43.53615" lon="3.00234">
        <ele>261</ele>
        <time>2016-06-12T01:35:50Z</time>
      </trkpt>
      <trkpt lat="43.53611" lon="3.00239">
        <ele>261</ele>
        <time>2016-06-12T01:35:53Z</time>
      </trkpt>
      <trkpt lat="43.53606" lon="3.00244">
        <ele>260</ele>
        <time>2016-06-12T01:35:57Z</time>
      </trkpt>
      <trkpt lat="43.53602" lon="3.0025">
        <ele>260</ele>
        <time>2016-06-12T01:36:00Z</time>
      </trkpt>
      <trkpt lat="43.53598" lon="3.00257">
        <ele>259</ele>
        <time>2016-06-12T01:36:04Z</time>
      </trkpt>
      <trkpt lat="43.53594" lon="3.00263">
        <ele>259</ele>
        <time>2016-06-12T01:36:07Z</time>
      </trkpt>
      <trkpt lat="43.53591" lon="3.0027">
        <ele>259</ele>
        <time>2016-06-12T01:36:11Z</time>
      </trkpt>
      <trkpt lat="43.53587" lon="3.00278">
        <ele>259</ele>
        <time>2016-06-12T01:36:14Z</time>
      </trkpt>
      <trkpt lat="43.53584" lon="3.00285">
        <ele>259</ele>
        <time>2016-06-12T01:36:18Z</time>
      </trkpt>
      <trkpt lat="43.5358" lon="3.00292">
        <ele>260</ele>
        <time>2016-06-12T01:36:24Z</time>
      </trkpt>
      <trkpt lat="43.53577" lon="3.00298">
        <ele>260</ele>
        <time>2016-06-12T01:36:27Z</time>
      </trkpt>
      <trkpt lat="43.53575" lon="3.00304">
        <ele>261</ele>
        <time>2016-06-12T01:36:33Z</time>
      </trkpt>
      <trkpt lat="43.53572" lon="3.00311">
        <ele>261</ele>
        <time>2016-06-12T01:36:37Z</time>
      </trkpt>
      <trkpt lat="43.53568" lon="3.00319">
        <ele>261</ele>
        <time>2016-06-12T01:36:40Z</time>
      </trkpt>
      <trkpt lat="43.53564" lon="3.00326">
        <ele>261</ele>
        <time>2016-06-12T01:36:44Z</time>
      </trkpt>
      <trkpt lat="43.53561" lon="3.00335">
        <ele>261</ele>
        <time>2016-06-12T01:36:48Z</time>
      </trkpt>
      <trkpt lat="43.53558" lon="3.00343">
        <ele>262</ele>
        <time>2016-06-12T01:36:54Z</time>
      </trkpt>
      <trkpt lat="43.53556" lon="3.0035">
        <ele>262</ele>
        <time>2016-06-12T01:36:58Z</time>
      </trkpt>
      <trkpt lat="43.53555" lon="3.00359">
        <ele>262</ele>
        <time>2016-06-12T01:37:01Z</time>
      </trkpt>
      <trkpt lat="43.53554" lon="3.00366">
        <ele>262</ele>
        <time>2016-06-12T01:37:04Z</time>
      </trkpt>
      <trkpt lat="43.53553" lon="3.00374">
        <ele>263</ele>
        <time>2016-06-12T01:37:10Z</time>
      </trkpt>
      <trkpt lat="43.53554" lon="3.00376">
        <ele>263</ele>
        <time>2016-06-12T01:37:11Z</time>
      </trkpt>
      <trkpt lat="43.53551" lon="3.00401">
        <ele>265</ele>
        <time>2016-06-12T01:37:26Z</time>
      </trkpt>
      <trkpt lat="43.53561" lon="3.00429">
        <ele>268</ele>
        <time>2016-06-12T01:37:47Z</time>
      </trkpt>
      <trkpt lat="43.53714" lon="3.00517">
        <ele>294</ele>
        <time>2016-06-12T01:40:29Z</time>
      </trkpt>
      <trkpt lat="43.5381" lon="3.00618">
        <ele>308</ele>
        <time>2016-06-12T01:42:10Z</time>
      </trkpt>
      <trkpt lat="43.53848" lon="3.00638">
        <ele>313</ele>
        <time>2016-06-12T01:42:45Z</time>
      </trkpt>
      <trkpt lat="43.53868" lon="3.00638">
        <ele>313</ele>
        <time>2016-06-12T01:42:56Z</time>
      </trkpt>
      <trkpt lat="43.53827" lon="3.00597">
        <ele>313</ele>
        <time>2016-06-12T01:43:25Z</time>
      </trkpt>
      <trkpt lat="43.53796" lon="3.0051">
        <ele>318</ele>
        <time>2016-06-12T01:44:14Z</time>
      </trkpt>
      <trkpt lat="43.53848" lon="3.00559">
        <ele>329</ele>
        <time>2016-06-12T01:45:21Z</time>
      </trkpt>
      <trkpt lat="43.53959" lon="3.00608">
        <ele>350</ele>
        <time>2016-06-12T01:47:28Z</time>
      </trkpt>
      <trkpt lat="43.53931" lon="3.00676">
        <ele>341</ele>
        <time>2016-06-12T01:48:02Z</time>
      </trkpt>
      <trkpt lat="43.53937" lon="3.00715">
        <ele>337</ele>
        <time>2016-06-12T01:48:18Z</time>
      </trkpt>
      <trkpt lat="43.53951" lon="3.00738">
        <ele>342</ele>
        <time>2016-06-12T01:48:48Z</time>
      </trkpt>
      <trkpt lat="43.53964" lon="3.00764">
        <ele>349</ele>
        <time>2016-06-12T01:49:29Z</time>
      </trkpt>
      <trkpt lat="43.54012" lon="3.00814">
        <ele>363</ele>
        <time>2016-06-12T01:50:53Z</time>
      </trkpt>
      <trkpt lat="43.54025" lon="3.00844">
        <ele>369</ele>
        <time>2016-06-12T01:51:29Z</time>
      </trkpt>
      <trkpt lat="43.53898" lon="3.00877">
        <ele>358</ele>
        <time>2016-06-12T01:52:32Z</time>
      </trkpt>
      <trkpt lat="43.53893" lon="3.00877">
        <ele>358</ele>
        <time>2016-06-12T01:52:35Z</time>
      </trkpt>
      <trkpt lat="43.53886" lon="3.00876">
        <ele>357</ele>
        <time>2016-06-12T01:52:39Z</time>
      </trkpt>
      <trkpt lat="43.53881" lon="3.00877">
        <ele>357</ele>
        <time>2016-06-12T01:52:42Z</time>
      </trkpt>
      <trkpt lat="43.53875" lon="3.00879">
        <ele>357</ele>
        <time>2016-06-12T01:52:46Z</time>
      </trkpt>
      <trkpt lat="43.53869" lon="3.0088">
        <ele>358</ele>
        <time>2016-06-12T01:52:52Z</time>
      </trkpt>
      <trkpt lat="43.53862" lon="3.00883">
        <ele>359</ele>
        <time>2016-06-12T01:52:59Z</time>
      </trkpt>
      <trkpt lat="43.53856" lon="3.00885">
        <ele>359</ele>
        <time>2016-06-12T01:53:02Z</time>
      </trkpt>
      <trkpt lat="43.53851" lon="3.00886">
        <ele>360</ele>
        <time>2016-06-12T01:53:08Z</time>
      </trkpt>
      <trkpt lat="43.53846" lon="3.00891">
        <ele>361</ele>
        <time>2016-06-12T01:53:14Z</time>
      </trkpt>
      <trkpt lat="43.5384" lon="3.00895">
        <ele>363</ele>
        <time>2016-06-12T01:53:26Z</time>
      </trkpt>
      <trkpt lat="43.53835" lon="3.00898">
        <ele>364</ele>
        <time>2016-06-12T01:53:32Z</time>
      </trkpt>
      <trkpt lat="43.53829" lon="3.00902">
        <ele>365</ele>
        <time>2016-06-12T01:53:38Z</time>
      </trkpt>
      <trkpt lat="43.53824" lon="3.00905">
        <ele>365</ele>
        <time>2016-06-12T01:53:41Z</time>
      </trkpt>
      <trkpt lat="43.53818" lon="3.00907">
        <ele>367</ele>
        <time>2016-06-12T01:53:53Z</time>
      </trkpt>
      <trkpt lat="43.53812" lon="3.00909">
        <ele>367</ele>
        <time>2016-06-12T01:53:57Z</time>
      </trkpt>
      <trkpt lat="43.53806" lon="3.00911">
        <ele>368</ele>
        <time>2016-06-12T01:54:03Z</time>
      </trkpt>
      <trkpt lat="43.53799" lon="3.00912">
        <ele>368</ele>
        <time>2016-06-12T01:54:07Z</time>
      </trkpt>
      <trkpt lat="43.53794" lon="3.00912">
        <ele>368</ele>
        <time>2016-06-12T01:54:10Z</time>
      </trkpt>
      <trkpt lat="43.53789" lon="3.00911">
        <ele>367</ele>
        <time>2016-06-12T01:54:13Z</time>
      </trkpt>
      <trkpt lat="43.53783" lon="3.00913">
        <ele>367</ele>
        <time>2016-06-12T01:54:16Z</time>
      </trkpt>
      <trkpt lat="43.53778" lon="3.00913">
        <ele>367</ele>
        <time>2016-06-12T01:54:20Z</time>
      </trkpt>
      <trkpt lat="43.53772" lon="3.00915">
        <ele>367</ele>
        <time>2016-06-12T01:54:23Z</time>
      </trkpt>
      <trkpt lat="43.53767" lon="3.00917">
        <ele>368</ele>
        <time>2016-06-12T01:54:29Z</time>
      </trkpt>
      <trkpt lat="43.53762" lon="3.00918">
        <ele>368</ele>
        <time>2016-06-12T01:54:32Z</time>
      </trkpt>
      <trkpt lat="43.53757" lon="3.00921">
        <ele>369</ele>
        <time>2016-06-12T01:54:38Z</time>
      </trkpt>
      <trkpt lat="43.53752" lon="3.00925">
        <ele>369</ele>
        <time>2016-06-12T01:54:41Z</time>
      </trkpt>
      <trkpt lat="43.53747" lon="3.00929">
        <ele>370</ele>
        <time>2016-06-12T01:54:47Z</time>
      </trkpt>
      <trkpt lat="43.53742" lon="3.00934">
        <ele>371</ele>
        <time>2016-06-12T01:54:53Z</time>
      </trkpt>
      <trkpt lat="43.53738" lon="3.0094">
        <ele>373</ele>
        <time>2016-06-12T01:55:05Z</time>
      </trkpt>
      <trkpt lat="43.53734" lon="3.00946">
        <ele>374</ele>
        <time>2016-06-12T01:55:11Z</time>
      </trkpt>
      <trkpt lat="43.53731" lon="3.00952">
        <ele>375</ele>
        <time>2016-06-12T01:55:17Z</time>
      </trkpt>
      <trkpt lat="43.53727" lon="3.00958">
        <ele>375</ele>
        <time>2016-06-12T01:55:21Z</time>
      </trkpt>
      <trkpt lat="43.53722" lon="3.00964">
        <ele>376</ele>
        <time>2016-06-12T01:55:27Z</time>
      </trkpt>
      <trkpt lat="43.53718" lon="3.00969">
        <ele>376</ele>
        <time>2016-06-12T01:55:30Z</time>
      </trkpt>
      <trkpt lat="43.53712" lon="3.00976">
        <ele>377</ele>
        <time>2016-06-12T01:55:37Z</time>
      </trkpt>
      <trkpt lat="43.5371" lon="3.00983">
        <ele>378</ele>
        <time>2016-06-12T01:55:43Z</time>
      </trkpt>
      <trkpt lat="43.53707" lon="3.00991">
        <ele>378</ele>
        <time>2016-06-12T01:55:47Z</time>
      </trkpt>
      <trkpt lat="43.53703" lon="3.01">
        <ele>379</ele>
        <time>2016-06-12T01:55:54Z</time>
      </trkpt>
      <trkpt lat="43.537" lon="3.0101">
        <ele>380</ele>
        <time>2016-06-12T01:56:00Z</time>
      </trkpt>
      <trkpt lat="43.53699" lon="3.01018">
        <ele>382</ele>
        <time>2016-06-12T01:56:12Z</time>
      </trkpt>
      <trkpt lat="43.53703" lon="3.01025">
        <ele>383</ele>
        <time>2016-06-12T01:56:18Z</time>
      </trkpt>
      <trkpt lat="43.53709" lon="3.01022">
        <ele>385</ele>
        <time>2016-06-12T01:56:30Z</time>
      </trkpt>
      <trkpt lat="43.53715" lon="3.0102">
        <ele>385</ele>
        <time>2016-06-12T01:56:33Z</time>
      </trkpt>
      <trkpt lat="43.5372" lon="3.01018">
        <ele>386</ele>
        <time>2016-06-12T01:56:39Z</time>
      </trkpt>
      <trkpt lat="43.53727" lon="3.0102">
        <ele>387</ele>
        <time>2016-06-12T01:56:46Z</time>
      </trkpt>
      <trkpt lat="43.53724" lon="3.01027">
        <ele>389</ele>
        <time>2016-06-12T01:56:57Z</time>
      </trkpt>
      <trkpt lat="43.53721" lon="3.01036">
        <ele>390</ele>
        <time>2016-06-12T01:57:04Z</time>
      </trkpt>
      <trkpt lat="43.53718" lon="3.01045">
        <ele>392</ele>
        <time>2016-06-12T01:57:16Z</time>
      </trkpt>
      <trkpt lat="43.53715" lon="3.01054">
        <ele>393</ele>
        <time>2016-06-12T01:57:22Z</time>
      </trkpt>
      <trkpt lat="43.53712" lon="3.01064">
        <ele>394</ele>
        <time>2016-06-12T01:57:29Z</time>
      </trkpt>
      <trkpt lat="43.53708" lon="3.01072">
        <ele>394</ele>
        <time>2016-06-12T01:57:33Z</time>
      </trkpt>
      <trkpt lat="43.53706" lon="3.0108">
        <ele>395</ele>
        <time>2016-06-12T01:57:39Z</time>
      </trkpt>
      <trkpt lat="43.53703" lon="3.01089">
        <ele>396</ele>
        <time>2016-06-12T01:57:46Z</time>
      </trkpt>
      <trkpt lat="43.537" lon="3.01099">
        <ele>397</ele>
        <time>2016-06-12T01:57:52Z</time>
      </trkpt>
      <trkpt lat="43.53696" lon="3.01107">
        <ele>398</ele>
        <time>2016-06-12T01:57:59Z</time>
      </trkpt>
      <trkpt lat="43.53692" lon="3.01119">
        <ele>399</ele>
        <time>2016-06-12T01:58:07Z</time>
      </trkpt>
      <trkpt lat="43.53689" lon="3.01129">
        <ele>401</ele>
        <time>2016-06-12T01:58:18Z</time>
      </trkpt>
      <trkpt lat="43.53686" lon="3.01141">
        <ele>402</ele>
        <time>2016-06-12T01:58:26Z</time>
      </trkpt>
      <trkpt lat="43.53685" lon="3.01155">
        <ele>404</ele>
        <time>2016-06-12T01:58:38Z</time>
      </trkpt>
      <trkpt lat="43.53684" lon="3.01168">
        <ele>406</ele>
        <time>2016-06-12T01:58:50Z</time>
      </trkpt>
      <trkpt lat="43.53681" lon="3.01182">
        <ele>409</ele>
        <time>2016-06-12T01:59:07Z</time>
      </trkpt>
      <trkpt lat="43.53676" lon="3.01196">
        <ele>411</ele>
        <time>2016-06-12T01:59:19Z</time>
      </trkpt>
      <trkpt lat="43.53672" lon="3.01209">
        <ele>413</ele>
        <time>2016-06-12T01:59:31Z</time>
      </trkpt>
      <trkpt lat="43.53671" lon="3.01224">
        <ele>415</ele>
        <time>2016-06-12T01:59:43Z</time>
      </trkpt>
      <trkpt lat="43.53667" lon="3.01237">
        <ele>417</ele>
        <time>2016-06-12T01:59:55Z</time>
      </trkpt>
      <trkpt lat="43.53662" lon="3.01249">
        <ele>418</ele>
        <time>2016-06-12T02:00:03Z</time>
      </trkpt>
      <trkpt lat="43.53657" lon="3.01262">
        <ele>418</ele>
        <time>2016-06-12T02:00:09Z</time>
      </trkpt>
      <trkpt lat="43.53654" lon="3.01275">
        <ele>419</ele>
        <time>2016-06-12T02:00:17Z</time>
      </trkpt>
      <trkpt lat="43.53654" lon="3.01289">
        <ele>421</ele>
        <time>2016-06-12T02:00:29Z</time>
      </trkpt>
      <trkpt lat="43.53654" lon="3.01298">
        <ele>423</ele>
        <time>2016-06-12T02:00:41Z</time>
      </trkpt>
      <trkpt lat="43.53655" lon="3.01308">
        <ele>424</ele>
        <time>2016-06-12T02:00:47Z</time>
      </trkpt>
      <trkpt lat="43.53658" lon="3.01318">
        <ele>426</ele>
        <time>2016-06-12T02:00:59Z</time>
      </trkpt>
      <trkpt lat="43.53659" lon="3.01328">
        <ele>427</ele>
        <time>2016-06-12T02:01:06Z</time>
      </trkpt>
      <trkpt lat="43.5366" lon="3.01338">
        <ele>428</ele>
        <time>2016-06-12T02:01:12Z</time>
      </trkpt>
      <trkpt lat="43.53662" lon="3.01347">
        <ele>430</ele>
        <time>2016-06-12T02:01:24Z</time>
      </trkpt>
      <trkpt lat="43.53664" lon="3.01355">
        <ele>431</ele>
        <time>2016-06-12T02:01:30Z</time>
      </trkpt>
      <trkpt lat="43.53666" lon="3.01363">
        <ele>433</ele>
        <time>2016-06-12T02:01:42Z</time>
      </trkpt>
      <trkpt lat="43.53667" lon="3.0137">
        <ele>433</ele>
        <time>2016-06-12T02:01:45Z</time>
      </trkpt>
      <trkpt lat="43.5367" lon="3.01377">
        <ele>435</ele>
        <time>2016-06-12T02:01:57Z</time>
      </trkpt>
      <trkpt lat="43.53672" lon="3.01384">
        <ele>436</ele>
        <time>2016-06-12T02:02:03Z</time>
      </trkpt>
      <trkpt lat="43.53674" lon="3.0139">
        <ele>436</ele>
        <time>2016-06-12T02:02:05Z</time>
      </trkpt>
      <trkpt lat="43.53677" lon="3.01396">
        <ele>438</ele>
        <time>2016-06-12T02:02:17Z</time>
      </trkpt>
      <trkpt lat="43.5368" lon="3.01402">
        <ele>438</ele>
        <time>2016-06-12T02:02:20Z</time>
      </trkpt>
      <trkpt lat="43.53684" lon="3.01408">
        <ele>440</ele>
        <time>2016-06-12T02:02:32Z</time>
      </trkpt>
      <trkpt lat="43.53689" lon="3.01416">
        <ele>441</ele>
        <time>2016-06-12T02:02:39Z</time>
      </trkpt>
      <trkpt lat="43.53695" lon="3.01424">
        <ele>443</ele>
        <time>2016-06-12T02:02:51Z</time>
      </trkpt>
      <trkpt lat="43.53701" lon="3.01428">
        <ele>444</ele>
        <time>2016-06-12T02:02:57Z</time>
      </trkpt>
      <trkpt lat="43.53705" lon="3.01422">
        <ele>446</ele>
        <time>2016-06-12T02:03:09Z</time>
      </trkpt>
      <trkpt lat="43.53707" lon="3.01414">
        <ele>447</ele>
        <time>2016-06-12T02:03:15Z</time>
      </trkpt>
      <trkpt lat="43.53711" lon="3.01407">
        <ele>449</ele>
        <time>2016-06-12T02:03:27Z</time>
      </trkpt>
      <trkpt lat="43.53714" lon="3.01399">
        <ele>450</ele>
        <time>2016-06-12T02:03:33Z</time>
      </trkpt>
      <trkpt lat="43.53718" lon="3.0139">
        <ele>452</ele>
        <time>2016-06-12T02:03:45Z</time>
      </trkpt>
      <trkpt lat="43.53723" lon="3.01395">
        <ele>452</ele>
        <time>2016-06-12T02:03:49Z</time>
      </trkpt>
      <trkpt lat="43.53727" lon="3.01404">
        <ele>454</ele>
        <time>2016-06-12T02:04:00Z</time>
      </trkpt>
      <trkpt lat="43.53733" lon="3.01412">
        <ele>456</ele>
        <time>2016-06-12T02:04:12Z</time>
      </trkpt>
      <trkpt lat="43.5374" lon="3.01417">
        <ele>458</ele>
        <time>2016-06-12T02:04:24Z</time>
      </trkpt>
      <trkpt lat="43.53744" lon="3.01407">
        <ele>460</ele>
        <time>2016-06-12T02:04:36Z</time>
      </trkpt>
      <trkpt lat="43.53744" lon="3.01398">
        <ele>461</ele>
        <time>2016-06-12T02:04:42Z</time>
      </trkpt>
      <trkpt lat="43.53746" lon="3.01389">
        <ele>462</ele>
        <time>2016-06-12T02:04:49Z</time>
      </trkpt>
      <trkpt lat="43.53751" lon="3.01382">
        <ele>464</ele>
        <time>2016-06-12T02:05:00Z</time>
      </trkpt>
      <trkpt lat="43.53757" lon="3.01377">
        <ele>466</ele>
        <time>2016-06-12T02:05:12Z</time>
      </trkpt>
      <trkpt lat="43.53762" lon="3.01383">
        <ele>466</ele>
        <time>2016-06-12T02:05:16Z</time>
      </trkpt>
      <trkpt lat="43.53767" lon="3.01391">
        <ele>466</ele>
        <time>2016-06-12T02:05:20Z</time>
      </trkpt>
      <trkpt lat="43.53773" lon="3.01397">
        <ele>467</ele>
        <time>2016-06-12T02:05:27Z</time>
      </trkpt>
      <trkpt lat="43.53779" lon="3.0139">
        <ele>469</ele>
        <time>2016-06-12T02:05:39Z</time>
      </trkpt>
      <trkpt lat="43.53782" lon="3.01383">
        <ele>470</ele>
        <time>2016-06-12T02:05:45Z</time>
      </trkpt>
      <trkpt lat="43.53788" lon="3.01381">
        <ele>471</ele>
        <time>2016-06-12T02:05:51Z</time>
      </trkpt>
      <trkpt lat="43.53793" lon="3.0138">
        <ele>472</ele>
        <time>2016-06-12T02:05:57Z</time>
      </trkpt>
      <trkpt lat="43.53798" lon="3.01377">
        <ele>474</ele>
        <time>2016-06-12T02:06:09Z</time>
      </trkpt>
      <trkpt lat="43.53802" lon="3.01374">
        <ele>475</ele>
        <time>2016-06-12T02:06:15Z</time>
      </trkpt>
      <trkpt lat="43.53807" lon="3.01372">
        <ele>476</ele>
        <time>2016-06-12T02:06:21Z</time>
      </trkpt>
      <trkpt lat="43.5381" lon="3.0137">
        <ele>477</ele>
        <time>2016-06-12T02:06:27Z</time>
      </trkpt>
      <trkpt lat="43.53815" lon="3.01368">
        <ele>478</ele>
        <time>2016-06-12T02:06:33Z</time>
      </trkpt>
      <trkpt lat="43.53819" lon="3.01365">
        <ele>479</ele>
        <time>2016-06-12T02:06:39Z</time>
      </trkpt>
      <trkpt lat="43.53823" lon="3.01366">
        <ele>480</ele>
        <time>2016-06-12T02:06:45Z</time>
      </trkpt>
      <trkpt lat="43.53828" lon="3.01368">
        <ele>482</ele>
        <time>2016-06-12T02:06:57Z</time>
      </trkpt>
      <trkpt lat="43.5383" lon="3.01371">
        <ele>482</ele>
        <time>2016-06-12T02:06:59Z</time>
      </trkpt>
      <trkpt lat="43.53832" lon="3.01376">
        <ele>482</ele>
        <time>2016-06-12T02:07:01Z</time>
      </trkpt>
      <trkpt lat="43.53835" lon="3.01381">
        <ele>482</ele>
        <time>2016-06-12T02:07:03Z</time>
      </trkpt>
      <trkpt lat="43.53838" lon="3.01385">
        <ele>483</ele>
        <time>2016-06-12T02:07:09Z</time>
      </trkpt>
      <trkpt lat="43.53844" lon="3.01392">
        <ele>484</ele>
        <time>2016-06-12T02:07:16Z</time>
      </trkpt>
      <trkpt lat="43.53851" lon="3.01397">
        <ele>485</ele>
        <time>2016-06-12T02:07:23Z</time>
      </trkpt>
      <trkpt lat="43.53856" lon="3.01399">
        <ele>485</ele>
        <time>2016-06-12T02:07:26Z</time>
      </trkpt>
      <trkpt lat="43.53859" lon="3.01404">
        <ele>486</ele>
        <time>2016-06-12T02:07:32Z</time>
      </trkpt>
      <trkpt lat="43.53864" lon="3.01407">
        <ele>487</ele>
        <time>2016-06-12T02:07:38Z</time>
      </trkpt>
      <trkpt lat="43.53869" lon="3.0141">
        <ele>488</ele>
        <time>2016-06-12T02:07:44Z</time>
      </trkpt>
      <trkpt lat="43.53873" lon="3.01413">
        <ele>489</ele>
        <time>2016-06-12T02:07:50Z</time>
      </trkpt>
      <trkpt lat="43.53878" lon="3.01415">
        <ele>490</ele>
        <time>2016-06-12T02:07:56Z</time>
      </trkpt>
      <trkpt lat="43.53884" lon="3.01418">
        <ele>492</ele>
        <time>2016-06-12T02:08:08Z</time>
      </trkpt>
      <trkpt lat="43.53889" lon="3.01422">
        <ele>493</ele>
        <time>2016-06-12T02:08:14Z</time>
      </trkpt>
      <trkpt lat="43.53894" lon="3.01426">
        <ele>495</ele>
        <time>2016-06-12T02:08:26Z</time>
      </trkpt>
      <trkpt lat="43.53901" lon="3.01432">
        <ele>497</ele>
        <time>2016-06-12T02:08:37Z</time>
      </trkpt>
      <trkpt lat="43.53906" lon="3.01439">
        <ele>499</ele>
        <time>2016-06-12T02:08:49Z</time>
      </trkpt>
      <trkpt lat="43.53914" lon="3.01449">
        <ele>500</ele>
        <time>2016-06-12T02:08:57Z</time>
      </trkpt>
      <trkpt lat="43.53919" lon="3.0146">
        <ele>501</ele>
        <time>2016-06-12T02:09:05Z</time>
      </trkpt>
      <trkpt lat="43.53923" lon="3.0147">
        <ele>501</ele>
        <time>2016-06-12T02:09:10Z</time>
      </trkpt>
      <trkpt lat="43.53928" lon="3.01482">
        <ele>502</ele>
        <time>2016-06-12T02:09:17Z</time>
      </trkpt>
      <trkpt lat="43.53934" lon="3.01492">
        <ele>502</ele>
        <time>2016-06-12T02:09:23Z</time>
      </trkpt>
      <trkpt lat="43.53937" lon="3.01503">
        <ele>503</ele>
        <time>2016-06-12T02:09:30Z</time>
      </trkpt>
      <trkpt lat="43.53941" lon="3.01513">
        <ele>504</ele>
        <time>2016-06-12T02:09:37Z</time>
      </trkpt>
      <trkpt lat="43.53945" lon="3.01523">
        <ele>505</ele>
        <time>2016-06-12T02:09:44Z</time>
      </trkpt>
      <trkpt lat="43.53948" lon="3.01533">
        <ele>507</ele>
        <time>2016-06-12T02:09:56Z</time>
      </trkpt>
      <trkpt lat="43.53951" lon="3.01544">
        <ele>507</ele>
        <time>2016-06-12T02:10:00Z</time>
      </trkpt>
      <trkpt lat="43.53953" lon="3.01554">
        <ele>508</ele>
        <time>2016-06-12T02:10:07Z</time>
      </trkpt>
      <trkpt lat="43.53956" lon="3.01564">
        <ele>508</ele>
        <time>2016-06-12T02:10:12Z</time>
      </trkpt>
      <trkpt lat="43.53958" lon="3.01573">
        <ele>509</ele>
        <time>2016-06-12T02:10:18Z</time>
      </trkpt>
      <trkpt lat="43.5396" lon="3.01582">
        <ele>509</ele>
        <time>2016-06-12T02:10:22Z</time>
      </trkpt>
      <trkpt lat="43.53962" lon="3.01592">
        <ele>511</ele>
        <time>2016-06-12T02:10:34Z</time>
      </trkpt>
      <trkpt lat="43.53963" lon="3.01601">
        <ele>510</ele>
        <time>2016-06-12T02:10:37Z</time>
      </trkpt>
      <trkpt lat="43.53961" lon="3.01611">
        <ele>509</ele>
        <time>2016-06-12T02:10:41Z</time>
      </trkpt>
      <trkpt lat="43.5396" lon="3.01619">
        <ele>508</ele>
        <time>2016-06-12T02:10:45Z</time>
      </trkpt>
      <trkpt lat="43.5396" lon="3.01629">
        <ele>508</ele>
        <time>2016-06-12T02:10:49Z</time>
      </trkpt>
      <trkpt lat="43.53961" lon="3.01638">
        <ele>508</ele>
        <time>2016-06-12T02:10:53Z</time>
      </trkpt>
      <trkpt lat="43.53963" lon="3.01645">
        <ele>509</ele>
        <time>2016-06-12T02:10:59Z</time>
      </trkpt>
      <trkpt lat="43.53965" lon="3.01654">
        <ele>508</ele>
        <time>2016-06-12T02:11:03Z</time>
      </trkpt>
      <trkpt lat="43.53966" lon="3.01661">
        <ele>508</ele>
        <time>2016-06-12T02:11:06Z</time>
      </trkpt>
      <trkpt lat="43.53969" lon="3.01668">
        <ele>508</ele>
        <time>2016-06-12T02:11:09Z</time>
      </trkpt>
      <trkpt lat="43.53973" lon="3.0167">
        <ele>509</ele>
        <time>2016-06-12T02:11:15Z</time>
      </trkpt>
      <trkpt lat="43.53977" lon="3.01667">
        <ele>511</ele>
        <time>2016-06-12T02:11:27Z</time>
      </trkpt>
      <trkpt lat="43.53977" lon="3.0166">
        <ele>512</ele>
        <time>2016-06-12T02:11:33Z</time>
      </trkpt>
      <trkpt lat="43.53978" lon="3.01654">
        <ele>514</ele>
        <time>2016-06-12T02:11:45Z</time>
      </trkpt>
      <trkpt lat="43.5398" lon="3.01648">
        <ele>516</ele>
        <time>2016-06-12T02:11:57Z</time>
      </trkpt>
      <trkpt lat="43.53982" lon="3.01642">
        <ele>518</ele>
        <time>2016-06-12T02:12:09Z</time>
      </trkpt>
      <trkpt lat="43.53987" lon="3.0164">
        <ele>519</ele>
        <time>2016-06-12T02:12:15Z</time>
      </trkpt>
      <trkpt lat="43.53991" lon="3.01647">
        <ele>522</ele>
        <time>2016-06-12T02:12:33Z</time>
      </trkpt>
      <trkpt lat="43.53995" lon="3.01653">
        <ele>523</ele>
        <time>2016-06-12T02:12:39Z</time>
      </trkpt>
      <trkpt lat="43.54" lon="3.01658">
        <ele>524</ele>
        <time>2016-06-12T02:12:45Z</time>
      </trkpt>
      <trkpt lat="43.54005" lon="3.01662">
        <ele>525</ele>
        <time>2016-06-12T02:12:52Z</time>
      </trkpt>
      <trkpt lat="43.5401" lon="3.01668">
        <ele>527</ele>
        <time>2016-06-12T02:13:03Z</time>
      </trkpt>
      <trkpt lat="43.54014" lon="3.01674">
        <ele>527</ele>
        <time>2016-06-12T02:13:07Z</time>
      </trkpt>
      <trkpt lat="43.54019" lon="3.01682">
        <ele>527</ele>
        <time>2016-06-12T02:13:11Z</time>
      </trkpt>
      <trkpt lat="43.54023" lon="3.01693">
        <ele>528</ele>
        <time>2016-06-12T02:13:18Z</time>
      </trkpt>
      <trkpt lat="43.54029" lon="3.01704">
        <ele>528</ele>
        <time>2016-06-12T02:13:24Z</time>
      </trkpt>
      <trkpt lat="43.54035" lon="3.01715">
        <ele>529</ele>
        <time>2016-06-12T02:13:32Z</time>
      </trkpt>
      <trkpt lat="43.54041" lon="3.01727">
        <ele>529</ele>
        <time>2016-06-12T02:13:38Z</time>
      </trkpt>
      <trkpt lat="43.54046" lon="3.01741">
        <ele>530</ele>
        <time>2016-06-12T02:13:46Z</time>
      </trkpt>
      <trkpt lat="43.54051" lon="3.01753">
        <ele>530</ele>
        <time>2016-06-12T02:13:52Z</time>
      </trkpt>
      <trkpt lat="43.54055" lon="3.01762">
        <ele>531</ele>
        <time>2016-06-12T02:13:59Z</time>
      </trkpt>
      <trkpt lat="43.5406" lon="3.01771">
        <ele>531</ele>
        <time>2016-06-12T02:14:04Z</time>
      </trkpt>
      <trkpt lat="43.54063" lon="3.0178">
        <ele>532</ele>
        <time>2016-06-12T02:14:10Z</time>
      </trkpt>
      <trkpt lat="43.54067" lon="3.01788">
        <ele>532</ele>
        <time>2016-06-12T02:14:14Z</time>
      </trkpt>
      <trkpt lat="43.5407" lon="3.01796">
        <ele>533</ele>
        <time>2016-06-12T02:14:21Z</time>
      </trkpt>
      <trkpt lat="43.54074" lon="3.01805">
        <ele>534</ele>
        <time>2016-06-12T02:14:27Z</time>
      </trkpt>
      <trkpt lat="43.54078" lon="3.01813">
        <ele>535</ele>
        <time>2016-06-12T02:14:34Z</time>
      </trkpt>
      <trkpt lat="43.54082" lon="3.01819">
        <ele>536</ele>
        <time>2016-06-12T02:14:40Z</time>
      </trkpt>
      <trkpt lat="43.54087" lon="3.01824">
        <ele>537</ele>
        <time>2016-06-12T02:14:46Z</time>
      </trkpt>
      <trkpt lat="43.54091" lon="3.01829">
        <ele>538</ele>
        <time>2016-06-12T02:14:52Z</time>
      </trkpt>
      <trkpt lat="43.54095" lon="3.01833">
        <ele>537</ele>
        <time>2016-06-12T02:14:56Z</time>
      </trkpt>
      <trkpt lat="43.54099" lon="3.01838">
        <ele>537</ele>
        <time>2016-06-12T02:14:59Z</time>
      </trkpt>
      <trkpt lat="43.54104" lon="3.01843">
        <ele>536</ele>
        <time>2016-06-12T02:15:03Z</time>
      </trkpt>
      <trkpt lat="43.54108" lon="3.01847">
        <ele>536</ele>
        <time>2016-06-12T02:15:06Z</time>
      </trkpt>
      <trkpt lat="43.54112" lon="3.01852">
        <ele>536</ele>
        <time>2016-06-12T02:15:09Z</time>
      </trkpt>
      <trkpt lat="43.54118" lon="3.01853">
        <ele>536</ele>
        <time>2016-06-12T02:15:12Z</time>
      </trkpt>
      <trkpt lat="43.54123" lon="3.01852">
        <ele>536</ele>
        <time>2016-06-12T02:15:15Z</time>
      </trkpt>
      <trkpt lat="43.54129" lon="3.01852">
        <ele>536</ele>
        <time>2016-06-12T02:15:18Z</time>
      </trkpt>
      <trkpt lat="43.54135" lon="3.0185">
        <ele>537</ele>
        <time>2016-06-12T02:15:24Z</time>
      </trkpt>
      <trkpt lat="43.54135" lon="3.01838">
        <ele>538</ele>
        <time>2016-06-12T02:15:31Z</time>
      </trkpt>
      <trkpt lat="43.54119" lon="3.018">
        <ele>544</ele>
        <time>2016-06-12T02:16:08Z</time>
      </trkpt>
      <trkpt lat="43.54136" lon="3.01774">
        <ele>550</ele>
        <time>2016-06-12T02:16:44Z</time>
      </trkpt>
      <trkpt lat="43.54157" lon="3.01734">
        <ele>555</ele>
        <time>2016-06-12T02:17:16Z</time>
      </trkpt>
      <trkpt lat="43.54211" lon="3.01593">
        <ele>572</ele>
        <time>2016-06-12T02:19:05Z</time>
      </trkpt>
      <trkpt lat="43.54242" lon="3.0157">
        <ele>574</ele>
        <time>2016-06-12T02:19:28Z</time>
      </trkpt>
      <trkpt lat="43.5426" lon="3.01545">
        <ele>576</ele>
        <time>2016-06-12T02:19:46Z</time>
      </trkpt>
      <trkpt lat="43.543" lon="3.01499">
        <ele>581</ele>
        <time>2016-06-12T02:20:26Z</time>
      </trkpt>
      <trkpt lat="43.54315" lon="3.01485">
        <ele>583</ele>
        <time>2016-06-12T02:20:41Z</time>
      </trkpt>
      <trkpt lat="43.54342" lon="3.01477">
        <ele>583</ele>
        <time>2016-06-12T02:20:56Z</time>
      </trkpt>
      <trkpt lat="43.54401" lon="3.01477">
        <ele>583</ele>
        <time>2016-06-12T02:21:30Z</time>
      </trkpt>
      <trkpt lat="43.54417" lon="3.01502">
        <ele>582</ele>
        <time>2016-06-12T02:21:43Z</time>
      </trkpt>
      <trkpt lat="43.5442" lon="3.01568">
        <ele>581</ele>
        <time>2016-06-12T02:22:08Z</time>
      </trkpt>
      <trkpt lat="43.54436" lon="3.01607">
        <ele>579</ele>
        <time>2016-06-12T02:22:24Z</time>
      </trkpt>
      <trkpt lat="43.54481" lon="3.0169">
        <ele>575</ele>
        <time>2016-06-12T02:23:00Z</time>
      </trkpt>
      <trkpt lat="43.54537" lon="3.01731">
        <ele>569</ele>
        <time>2016-06-12T02:23:32Z</time>
      </trkpt>
      <trkpt lat="43.54553" lon="3.01735">
        <ele>568</ele>
        <time>2016-06-12T02:23:40Z</time>
      </trkpt>
      <trkpt lat="43.54577" lon="3.01785">
        <ele>564</ele>
        <time>2016-06-12T02:24:01Z</time>
      </trkpt>
      <trkpt lat="43.54585" lon="3.01787">
        <ele>562</ele>
        <time>2016-06-12T02:24:08Z</time>
      </trkpt>
      <trkpt lat="43.5459" lon="3.01786">
        <ele>562</ele>
        <time>2016-06-12T02:24:11Z</time>
      </trkpt>
      <trkpt lat="43.54595" lon="3.01787">
        <ele>560</ele>
        <time>2016-06-12T02:24:18Z</time>
      </trkpt>
      <trkpt lat="43.546" lon="3.0179">
        <ele>560</ele>
        <time>2016-06-12T02:24:20Z</time>
      </trkpt>
      <trkpt lat="43.54605" lon="3.01794">
        <ele>559</ele>
        <time>2016-06-12T02:24:24Z</time>
      </trkpt>
      <trkpt lat="43.54609" lon="3.01799">
        <ele>559</ele>
        <time>2016-06-12T02:24:27Z</time>
      </trkpt>
      <trkpt lat="43.54614" lon="3.01805">
        <ele>558</ele>
        <time>2016-06-12T02:24:31Z</time>
      </trkpt>
      <trkpt lat="43.54618" lon="3.01811">
        <ele>558</ele>
        <time>2016-06-12T02:24:34Z</time>
      </trkpt>
      <trkpt lat="43.54621" lon="3.01818">
        <ele>558</ele>
        <time>2016-06-12T02:24:38Z</time>
      </trkpt>
      <trkpt lat="43.54624" lon="3.01826">
        <ele>559</ele>
        <time>2016-06-12T02:24:44Z</time>
      </trkpt>
      <trkpt lat="43.54627" lon="3.01834">
        <ele>559</ele>
        <time>2016-06-12T02:24:48Z</time>
      </trkpt>
      <trkpt lat="43.54631" lon="3.01842">
        <ele>560</ele>
        <time>2016-06-12T02:24:55Z</time>
      </trkpt>
      <trkpt lat="43.54636" lon="3.01849">
        <ele>560</ele>
        <time>2016-06-12T02:24:59Z</time>
      </trkpt>
      <trkpt lat="43.54641" lon="3.01857">
        <ele>560</ele>
        <time>2016-06-12T02:25:03Z</time>
      </trkpt>
      <trkpt lat="43.54646" lon="3.01864">
        <ele>561</ele>
        <time>2016-06-12T02:25:10Z</time>
      </trkpt>
      <trkpt lat="43.54651" lon="3.01872">
        <ele>561</ele>
        <time>2016-06-12T02:25:14Z</time>
      </trkpt>
      <trkpt lat="43.54655" lon="3.01879">
        <ele>562</ele>
        <time>2016-06-12T02:25:20Z</time>
      </trkpt>
      <trkpt lat="43.5466" lon="3.01887">
        <ele>562</ele>
        <time>2016-06-12T02:25:25Z</time>
      </trkpt>
      <trkpt lat="43.54665" lon="3.01895">
        <ele>563</ele>
        <time>2016-06-12T02:25:31Z</time>
      </trkpt>
      <trkpt lat="43.5467" lon="3.01902">
        <ele>564</ele>
        <time>2016-06-12T02:25:38Z</time>
      </trkpt>
      <trkpt lat="43.54676" lon="3.01908">
        <ele>565</ele>
        <time>2016-06-12T02:25:44Z</time>
      </trkpt>
      <trkpt lat="43.54681" lon="3.01913">
        <ele>565</ele>
        <time>2016-06-12T02:25:48Z</time>
      </trkpt>
      <trkpt lat="43.54687" lon="3.01918">
        <ele>566</ele>
        <time>2016-06-12T02:25:55Z</time>
      </trkpt>
      <trkpt lat="43.54693" lon="3.01922">
        <ele>566</ele>
        <time>2016-06-12T02:25:59Z</time>
      </trkpt>
      <trkpt lat="43.54701" lon="3.01925">
        <ele>566</ele>
        <time>2016-06-12T02:26:03Z</time>
      </trkpt>
      <trkpt lat="43.54726" lon="3.01931">
        <ele>564</ele>
        <time>2016-06-12T02:26:16Z</time>
      </trkpt>
      <trkpt lat="43.54732" lon="3.01931">
        <ele>564</ele>
        <time>2016-06-12T02:26:19Z</time>
      </trkpt>
      <trkpt lat="43.54738" lon="3.01932">
        <ele>563</ele>
        <time>2016-06-12T02:26:23Z</time>
      </trkpt>
      <trkpt lat="43.54744" lon="3.01933">
        <ele>563</ele>
        <time>2016-06-12T02:26:26Z</time>
      </trkpt>
      <trkpt lat="43.5475" lon="3.01935">
        <ele>562</ele>
        <time>2016-06-12T02:26:30Z</time>
      </trkpt>
      <trkpt lat="43.54756" lon="3.01939">
        <ele>562</ele>
        <time>2016-06-12T02:26:34Z</time>
      </trkpt>
      <trkpt lat="43.54762" lon="3.01945">
        <ele>562</ele>
        <time>2016-06-12T02:26:38Z</time>
      </trkpt>
      <trkpt lat="43.54765" lon="3.01951">
        <ele>562</ele>
        <time>2016-06-12T02:26:41Z</time>
      </trkpt>
      <trkpt lat="43.54767" lon="3.01957">
        <ele>562</ele>
        <time>2016-06-12T02:26:44Z</time>
      </trkpt>
      <trkpt lat="43.54769" lon="3.01966">
        <ele>562</ele>
        <time>2016-06-12T02:26:47Z</time>
      </trkpt>
      <trkpt lat="43.54769" lon="3.01972">
        <ele>562</ele>
        <time>2016-06-12T02:26:50Z</time>
      </trkpt>
      <trkpt lat="43.54768" lon="3.01978">
        <ele>562</ele>
        <time>2016-06-12T02:26:52Z</time>
      </trkpt>
      <trkpt lat="43.54768" lon="3.01984">
        <ele>563</ele>
        <time>2016-06-12T02:26:58Z</time>
      </trkpt>
      <trkpt lat="43.54766" lon="3.0199">
        <ele>563</ele>
        <time>2016-06-12T02:27:01Z</time>
      </trkpt>
      <trkpt lat="43.54764" lon="3.01995">
        <ele>564</ele>
        <time>2016-06-12T02:27:07Z</time>
      </trkpt>
      <trkpt lat="43.54759" lon="3.01997">
        <ele>564</ele>
        <time>2016-06-12T02:27:10Z</time>
      </trkpt>
      <trkpt lat="43.54755" lon="3.01995">
        <ele>565</ele>
        <time>2016-06-12T02:27:16Z</time>
      </trkpt>
      <trkpt lat="43.54751" lon="3.01992">
        <ele>566</ele>
        <time>2016-06-12T02:27:22Z</time>
      </trkpt>
      <trkpt lat="43.54746" lon="3.01992">
        <ele>567</ele>
        <time>2016-06-12T02:27:28Z</time>
      </trkpt>
      <trkpt lat="43.54743" lon="3.01993">
        <ele>567</ele>
        <time>2016-06-12T02:27:30Z</time>
      </trkpt>
      <trkpt lat="43.54739" lon="3.01995">
        <ele>568</ele>
        <time>2016-06-12T02:27:36Z</time>
      </trkpt>
      <trkpt lat="43.54735" lon="3.01997">
        <ele>569</ele>
        <time>2016-06-12T02:27:42Z</time>
      </trkpt>
      <trkpt lat="43.5473" lon="3.01999">
        <ele>569</ele>
        <time>2016-06-12T02:27:45Z</time>
      </trkpt>
      <trkpt lat="43.54726" lon="3.01999">
        <ele>570</ele>
        <time>2016-06-12T02:27:51Z</time>
      </trkpt>
      <trkpt lat="43.54722" lon="3.01997">
        <ele>571</ele>
        <time>2016-06-12T02:27:57Z</time>
      </trkpt>
      <trkpt lat="43.54717" lon="3.01996">
        <ele>572</ele>
        <time>2016-06-12T02:28:03Z</time>
      </trkpt>
      <trkpt lat="43.54713" lon="3.01996">
        <ele>572</ele>
        <time>2016-06-12T02:28:05Z</time>
      </trkpt>
      <trkpt lat="43.54709" lon="3.01995">
        <ele>573</ele>
        <time>2016-06-12T02:28:11Z</time>
      </trkpt>
      <trkpt lat="43.54704" lon="3.01994">
        <ele>573</ele>
        <time>2016-06-12T02:28:14Z</time>
      </trkpt>
      <trkpt lat="43.547" lon="3.01994">
        <ele>574</ele>
        <time>2016-06-12T02:28:20Z</time>
      </trkpt>
      <trkpt lat="43.54695" lon="3.01993">
        <ele>574</ele>
        <time>2016-06-12T02:28:22Z</time>
      </trkpt>
      <trkpt lat="43.5469" lon="3.01992">
        <ele>574</ele>
        <time>2016-06-12T02:28:26Z</time>
      </trkpt>
      <trkpt lat="43.54685" lon="3.0199">
        <ele>574</ele>
        <time>2016-06-12T02:28:29Z</time>
      </trkpt>
      <trkpt lat="43.5468" lon="3.01989">
        <ele>575</ele>
        <time>2016-06-12T02:28:35Z</time>
      </trkpt>
      <trkpt lat="43.54674" lon="3.01986">
        <ele>575</ele>
        <time>2016-06-12T02:28:38Z</time>
      </trkpt>
      <trkpt lat="43.54669" lon="3.01985">
        <ele>575</ele>
        <time>2016-06-12T02:28:41Z</time>
      </trkpt>
      <trkpt lat="43.54663" lon="3.01983">
        <ele>575</ele>
        <time>2016-06-12T02:28:44Z</time>
      </trkpt>
      <trkpt lat="43.54659" lon="3.01983">
        <ele>575</ele>
        <time>2016-06-12T02:28:47Z</time>
      </trkpt>
      <trkpt lat="43.54654" lon="3.01982">
        <ele>575</ele>
        <time>2016-06-12T02:28:49Z</time>
      </trkpt>
      <trkpt lat="43.5465" lon="3.01985">
        <ele>576</ele>
        <time>2016-06-12T02:28:56Z</time>
      </trkpt>
      <trkpt lat="43.54647" lon="3.01989">
        <ele>577</ele>
        <time>2016-06-12T02:29:02Z</time>
      </trkpt>
      <trkpt lat="43.54645" lon="3.01995">
        <ele>577</ele>
        <time>2016-06-12T02:29:04Z</time>
      </trkpt>
      <trkpt lat="43.54645" lon="3.02001">
        <ele>578</ele>
        <time>2016-06-12T02:29:10Z</time>
      </trkpt>
      <trkpt lat="43.54647" lon="3.02007">
        <ele>578</ele>
        <time>2016-06-12T02:29:13Z</time>
      </trkpt>
      <trkpt lat="43.54648" lon="3.02015">
        <ele>578</ele>
        <time>2016-06-12T02:29:16Z</time>
      </trkpt>
      <trkpt lat="43.54647" lon="3.02023">
        <ele>579</ele>
        <time>2016-06-12T02:29:22Z</time>
      </trkpt>
      <trkpt lat="43.54645" lon="3.02029">
        <ele>580</ele>
        <time>2016-06-12T02:29:28Z</time>
      </trkpt>
      <trkpt lat="43.54644" lon="3.02036">
        <ele>580</ele>
        <time>2016-06-12T02:29:32Z</time>
      </trkpt>
      <trkpt lat="43.54642" lon="3.02044">
        <ele>581</ele>
        <time>2016-06-12T02:29:38Z</time>
      </trkpt>
      <trkpt lat="43.54641" lon="3.02051">
        <ele>581</ele>
        <time>2016-06-12T02:29:41Z</time>
      </trkpt>
      <trkpt lat="43.54639" lon="3.02057">
        <ele>581</ele>
        <time>2016-06-12T02:29:44Z</time>
      </trkpt>
      <trkpt lat="43.54637" lon="3.02064">
        <ele>582</ele>
        <time>2016-06-12T02:29:50Z</time>
      </trkpt>
      <trkpt lat="43.54635" lon="3.02069">
        <ele>582</ele>
        <time>2016-06-12T02:29:52Z</time>
      </trkpt>
      <trkpt lat="43.54633" lon="3.02074">
        <ele>582</ele>
        <time>2016-06-12T02:29:55Z</time>
      </trkpt>
      <trkpt lat="43.5463" lon="3.0208">
        <ele>582</ele>
        <time>2016-06-12T02:29:57Z</time>
      </trkpt>
      <trkpt lat="43.54628" lon="3.02085">
        <ele>582</ele>
        <time>2016-06-12T02:30:00Z</time>
      </trkpt>
      <trkpt lat="43.54626" lon="3.0209">
        <ele>582</ele>
        <time>2016-06-12T02:30:02Z</time>
      </trkpt>
      <trkpt lat="43.54625" lon="3.02095">
        <ele>582</ele>
        <time>2016-06-12T02:30:04Z</time>
      </trkpt>
      <trkpt lat="43.54624" lon="3.02101">
        <ele>582</ele>
        <time>2016-06-12T02:30:07Z</time>
      </trkpt>
      <trkpt lat="43.54623" lon="3.02107">
        <ele>582</ele>
        <time>2016-06-12T02:30:09Z</time>
      </trkpt>
      <trkpt lat="43.54621" lon="3.02112">
        <ele>582</ele>
        <time>2016-06-12T02:30:12Z</time>
      </trkpt>
      <trkpt lat="43.54619" lon="3.02118">
        <ele>582</ele>
        <time>2016-06-12T02:30:15Z</time>
      </trkpt>
      <trkpt lat="43.54618" lon="3.02124">
        <ele>582</ele>
        <time>2016-06-12T02:30:17Z</time>
      </trkpt>
      <trkpt lat="43.54617" lon="3.02131">
        <ele>583</ele>
        <time>2016-06-12T02:30:23Z</time>
      </trkpt>
      <trkpt lat="43.54617" lon="3.0214">
        <ele>583</ele>
        <time>2016-06-12T02:30:27Z</time>
      </trkpt>
      <trkpt lat="43.54616" lon="3.02145">
        <ele>583</ele>
        <time>2016-06-12T02:30:29Z</time>
      </trkpt>
      <trkpt lat="43.54615" lon="3.0215">
        <ele>583</ele>
        <time>2016-06-12T02:30:31Z</time>
      </trkpt>
      <trkpt lat="43.54617" lon="3.02152">
        <ele>583</ele>
        <time>2016-06-12T02:30:32Z</time>
      </trkpt>
      <trkpt lat="43.5462" lon="3.02155">
        <ele>584</ele>
        <time>2016-06-12T02:30:38Z</time>
      </trkpt>
      <trkpt lat="43.54623" lon="3.02158">
        <ele>584</ele>
        <time>2016-06-12T02:30:40Z</time>
      </trkpt>
      <trkpt lat="43.54626" lon="3.02161">
        <ele>584</ele>
        <time>2016-06-12T02:30:42Z</time>
      </trkpt>
      <trkpt lat="43.54629" lon="3.02164">
        <ele>584</ele>
        <time>2016-06-12T02:30:44Z</time>
      </trkpt>
      <trkpt lat="43.54631" lon="3.02168">
        <ele>584</ele>
        <time>2016-06-12T02:30:46Z</time>
      </trkpt>
      <trkpt lat="43.54633" lon="3.02173">
        <ele>584</ele>
        <time>2016-06-12T02:30:49Z</time>
      </trkpt>
      <trkpt lat="43.54634" lon="3.02178">
        <ele>584</ele>
        <time>2016-06-12T02:30:51Z</time>
      </trkpt>
      <trkpt lat="43.54635" lon="3.02184">
        <ele>584</ele>
        <time>2016-06-12T02:30:53Z</time>
      </trkpt>
      <trkpt lat="43.54635" lon="3.02189">
        <ele>584</ele>
        <time>2016-06-12T02:30:56Z</time>
      </trkpt>
      <trkpt lat="43.54636" lon="3.02195">
        <ele>584</ele>
        <time>2016-06-12T02:30:58Z</time>
      </trkpt>
      <trkpt lat="43.54635" lon="3.02201">
        <ele>585</ele>
        <time>2016-06-12T02:31:04Z</time>
      </trkpt>
      <trkpt lat="43.54636" lon="3.02206">
        <ele>585</ele>
        <time>2016-06-12T02:31:06Z</time>
      </trkpt>
      <trkpt lat="43.54635" lon="3.02212">
        <ele>585</ele>
        <time>2016-06-12T02:31:09Z</time>
      </trkpt>
      <trkpt lat="43.54635" lon="3.02218">
        <ele>585</ele>
        <time>2016-06-12T02:31:11Z</time>
      </trkpt>
      <trkpt lat="43.54635" lon="3.02223">
        <ele>586</ele>
        <time>2016-06-12T02:31:17Z</time>
      </trkpt>
      <trkpt lat="43.54635" lon="3.02228">
        <ele>585</ele>
        <time>2016-06-12T02:31:20Z</time>
      </trkpt>
      <trkpt lat="43.54639" lon="3.02231">
        <ele>585</ele>
        <time>2016-06-12T02:31:23Z</time>
      </trkpt>
      <trkpt lat="43.54634" lon="3.02233">
        <ele>585</ele>
        <time>2016-06-12T02:31:26Z</time>
      </trkpt>
      <trkpt lat="43.54629" lon="3.02232">
        <ele>587</ele>
        <time>2016-06-12T02:31:37Z</time>
      </trkpt>
      <trkpt lat="43.54625" lon="3.02231">
        <ele>587</ele>
        <time>2016-06-12T02:31:40Z</time>
      </trkpt>
      <trkpt lat="43.54623" lon="3.02228">
        <ele>588</ele>
        <time>2016-06-12T02:31:45Z</time>
      </trkpt>
      <trkpt lat="43.5462" lon="3.02226">
        <ele>588</ele>
        <time>2016-06-12T02:31:47Z</time>
      </trkpt>
      <trkpt lat="43.54617" lon="3.02224">
        <ele>588</ele>
        <time>2016-06-12T02:31:49Z</time>
      </trkpt>
      <trkpt lat="43.54613" lon="3.02221">
        <ele>588</ele>
        <time>2016-06-12T02:31:51Z</time>
      </trkpt>
      <trkpt lat="43.5461" lon="3.0222">
        <ele>589</ele>
        <time>2016-06-12T02:31:57Z</time>
      </trkpt>
      <trkpt lat="43.54607" lon="3.02218">
        <ele>589</ele>
        <time>2016-06-12T02:31:59Z</time>
      </trkpt>
      <trkpt lat="43.54603" lon="3.02219">
        <ele>589</ele>
        <time>2016-06-12T02:32:02Z</time>
      </trkpt>
      <trkpt lat="43.54598" lon="3.02225">
        <ele>591</ele>
        <time>2016-06-12T02:32:13Z</time>
      </trkpt>
      <trkpt lat="43.54592" lon="3.02228">
        <ele>592</ele>
        <time>2016-06-12T02:32:19Z</time>
      </trkpt>
      <trkpt lat="43.54585" lon="3.0223">
        <ele>594</ele>
        <time>2016-06-12T02:32:31Z</time>
      </trkpt>
      <trkpt lat="43.54582" lon="3.02239">
        <ele>595</ele>
        <time>2016-06-12T02:32:38Z</time>
      </trkpt>
      <trkpt lat="43.54575" lon="3.02241">
        <ele>597</ele>
        <time>2016-06-12T02:32:49Z</time>
      </trkpt>
      <trkpt lat="43.54568" lon="3.02244">
        <ele>599</ele>
        <time>2016-06-12T02:33:01Z</time>
      </trkpt>
      <trkpt lat="43.5456" lon="3.02249">
        <ele>601</ele>
        <time>2016-06-12T02:33:13Z</time>
      </trkpt>
      <trkpt lat="43.54553" lon="3.02254">
        <ele>602</ele>
        <time>2016-06-12T02:33:20Z</time>
      </trkpt>
      <trkpt lat="43.54546" lon="3.02258">
        <ele>604</ele>
        <time>2016-06-12T02:33:32Z</time>
      </trkpt>
      <trkpt lat="43.54539" lon="3.0226">
        <ele>605</ele>
        <time>2016-06-12T02:33:38Z</time>
      </trkpt>
      <trkpt lat="43.54532" lon="3.02265">
        <ele>607</ele>
        <time>2016-06-12T02:33:50Z</time>
      </trkpt>
      <trkpt lat="43.54524" lon="3.02268">
        <ele>608</ele>
        <time>2016-06-12T02:33:57Z</time>
      </trkpt>
      <trkpt lat="43.54517" lon="3.0227">
        <ele>610</ele>
        <time>2016-06-12T02:34:09Z</time>
      </trkpt>
      <trkpt lat="43.5451" lon="3.02273">
        <ele>612</ele>
        <time>2016-06-12T02:34:20Z</time>
      </trkpt>
      <trkpt lat="43.54503" lon="3.02278">
        <ele>614</ele>
        <time>2016-06-12T02:34:32Z</time>
      </trkpt>
      <trkpt lat="43.54496" lon="3.02281">
        <ele>616</ele>
        <time>2016-06-12T02:34:44Z</time>
      </trkpt>
      <trkpt lat="43.54489" lon="3.02285">
        <ele>617</ele>
        <time>2016-06-12T02:34:50Z</time>
      </trkpt>
      <trkpt lat="43.54482" lon="3.02285">
        <ele>618</ele>
        <time>2016-06-12T02:34:57Z</time>
      </trkpt>
      <trkpt lat="43.54474" lon="3.02285">
        <ele>618</ele>
        <time>2016-06-12T02:35:01Z</time>
      </trkpt>
      <trkpt lat="43.54466" lon="3.02284">
        <ele>619</ele>
        <time>2016-06-12T02:35:08Z</time>
      </trkpt>
      <trkpt lat="43.54458" lon="3.02284">
        <ele>619</ele>
        <time>2016-06-12T02:35:13Z</time>
      </trkpt>
      <trkpt lat="43.54451" lon="3.02284">
        <ele>619</ele>
        <time>2016-06-12T02:35:17Z</time>
      </trkpt>
      <trkpt lat="43.54442" lon="3.02287">
        <ele>620</ele>
        <time>2016-06-12T02:35:24Z</time>
      </trkpt>
      <trkpt lat="43.54434" lon="3.02289">
        <ele>622</ele>
        <time>2016-06-12T02:35:36Z</time>
      </trkpt>
      <trkpt lat="43.54427" lon="3.02294">
        <ele>623</ele>
        <time>2016-06-12T02:35:43Z</time>
      </trkpt>
      <trkpt lat="43.54418" lon="3.02298">
        <ele>625</ele>
        <time>2016-06-12T02:35:55Z</time>
      </trkpt>
      <trkpt lat="43.5441" lon="3.02299">
        <ele>624</ele>
        <time>2016-06-12T02:35:59Z</time>
      </trkpt>
      <trkpt lat="43.54404" lon="3.02298">
        <ele>624</ele>
        <time>2016-06-12T02:36:03Z</time>
      </trkpt>
      <trkpt lat="43.54398" lon="3.02297">
        <ele>624</ele>
        <time>2016-06-12T02:36:06Z</time>
      </trkpt>
      <trkpt lat="43.54393" lon="3.02299">
        <ele>625</ele>
        <time>2016-06-12T02:36:12Z</time>
      </trkpt>
      <trkpt lat="43.54393" lon="3.02307">
        <ele>627</ele>
        <time>2016-06-12T02:36:24Z</time>
      </trkpt>
      <trkpt lat="43.54395" lon="3.02317">
        <ele>630</ele>
        <time>2016-06-12T02:36:42Z</time>
      </trkpt>
      <trkpt lat="43.54396" lon="3.02327">
        <ele>635</ele>
        <time>2016-06-12T02:37:04Z</time>
      </trkpt>
      <trkpt lat="43.54401" lon="3.02333">
        <ele>637</ele>
        <time>2016-06-12T02:37:15Z</time>
      </trkpt>
      <trkpt lat="43.54403" lon="3.02342">
        <ele>640</ele>
        <time>2016-06-12T02:37:33Z</time>
      </trkpt>
      <trkpt lat="43.54407" lon="3.0235">
        <ele>642</ele>
        <time>2016-06-12T02:37:45Z</time>
      </trkpt>
      <trkpt lat="43.5441" lon="3.02358">
        <ele>644</ele>
        <time>2016-06-12T02:37:57Z</time>
      </trkpt>
      <trkpt lat="43.54412" lon="3.02367">
        <ele>646</ele>
        <time>2016-06-12T02:38:08Z</time>
      </trkpt>
      <trkpt lat="43.5441" lon="3.02376">
        <ele>649</ele>
        <time>2016-06-12T02:38:26Z</time>
      </trkpt>
      <trkpt lat="43.5441" lon="3.02386">
        <ele>651</ele>
        <time>2016-06-12T02:38:38Z</time>
      </trkpt>
      <trkpt lat="43.5441" lon="3.02396">
        <ele>654</ele>
        <time>2016-06-12T02:38:56Z</time>
      </trkpt>
      <trkpt lat="43.54412" lon="3.02405">
        <ele>656</ele>
        <time>2016-06-12T02:39:08Z</time>
      </trkpt>
      <trkpt lat="43.54413" lon="3.02414">
        <ele>658</ele>
        <time>2016-06-12T02:39:19Z</time>
      </trkpt>
      <trkpt lat="43.54414" lon="3.02423">
        <ele>659</ele>
        <time>2016-06-12T02:39:26Z</time>
      </trkpt>
      <trkpt lat="43.54413" lon="3.02432">
        <ele>660</ele>
        <time>2016-06-12T02:39:32Z</time>
      </trkpt>
      <trkpt lat="43.54412" lon="3.02441">
        <ele>662</ele>
        <time>2016-06-12T02:39:44Z</time>
      </trkpt>
      <trkpt lat="43.54409" lon="3.0245">
        <ele>663</ele>
        <time>2016-06-12T02:39:50Z</time>
      </trkpt>
      <trkpt lat="43.54409" lon="3.0246">
        <ele>665</ele>
        <time>2016-06-12T02:40:02Z</time>
      </trkpt>
      <trkpt lat="43.5441" lon="3.0247">
        <ele>666</ele>
        <time>2016-06-12T02:40:08Z</time>
      </trkpt>
      <trkpt lat="43.54414" lon="3.02479">
        <ele>668</ele>
        <time>2016-06-12T02:40:20Z</time>
      </trkpt>
      <trkpt lat="43.54419" lon="3.02489">
        <ele>669</ele>
        <time>2016-06-12T02:40:27Z</time>
      </trkpt>
      <trkpt lat="43.54421" lon="3.02499">
        <ele>671</ele>
        <time>2016-06-12T02:40:39Z</time>
      </trkpt>
      <trkpt lat="43.54425" lon="3.0251">
        <ele>672</ele>
        <time>2016-06-12T02:40:46Z</time>
      </trkpt>
      <trkpt lat="43.54427" lon="3.02525">
        <ele>675</ele>
        <time>2016-06-12T02:41:04Z</time>
      </trkpt>
      <trkpt lat="43.54429" lon="3.02538">
        <ele>676</ele>
        <time>2016-06-12T02:41:11Z</time>
      </trkpt>
      <trkpt lat="43.54431" lon="3.02551">
        <ele>678</ele>
        <time>2016-06-12T02:41:23Z</time>
      </trkpt>
      <trkpt lat="43.54434" lon="3.02565">
        <ele>678</ele>
        <time>2016-06-12T02:41:29Z</time>
      </trkpt>
      <trkpt lat="43.54434" lon="3.02578">
        <ele>679</ele>
        <time>2016-06-12T02:41:37Z</time>
      </trkpt>
      <trkpt lat="43.54436" lon="3.02592">
        <ele>680</ele>
        <time>2016-06-12T02:41:45Z</time>
      </trkpt>
      <trkpt lat="43.54437" lon="3.02606">
        <ele>680</ele>
        <time>2016-06-12T02:41:50Z</time>
      </trkpt>
      <trkpt lat="43.54436" lon="3.02616">
        <ele>681</ele>
        <time>2016-06-12T02:41:57Z</time>
      </trkpt>
      <trkpt lat="43.54438" lon="3.02624">
        <ele>681</ele>
        <time>2016-06-12T02:42:01Z</time>
      </trkpt>
      <trkpt lat="43.54442" lon="3.02632">
        <ele>681</ele>
        <time>2016-06-12T02:42:05Z</time>
      </trkpt>
      <trkpt lat="43.54445" lon="3.0264">
        <ele>681</ele>
        <time>2016-06-12T02:42:08Z</time>
      </trkpt>
      <trkpt lat="43.54442" lon="3.02647">
        <ele>681</ele>
        <time>2016-06-12T02:42:12Z</time>
      </trkpt>
      <trkpt lat="43.54438" lon="3.02656">
        <ele>682</ele>
        <time>2016-06-12T02:42:18Z</time>
      </trkpt>
      <trkpt lat="43.54433" lon="3.02664">
        <ele>683</ele>
        <time>2016-06-12T02:42:25Z</time>
      </trkpt>
      <trkpt lat="43.54428" lon="3.02672">
        <ele>683</ele>
        <time>2016-06-12T02:42:30Z</time>
      </trkpt>
      <trkpt lat="43.54421" lon="3.02682">
        <ele>684</ele>
        <time>2016-06-12T02:42:37Z</time>
      </trkpt>
      <trkpt lat="43.54415" lon="3.0269">
        <ele>684</ele>
        <time>2016-06-12T02:42:43Z</time>
      </trkpt>
      <trkpt lat="43.54409" lon="3.02699">
        <ele>684</ele>
        <time>2016-06-12T02:42:48Z</time>
      </trkpt>
      <trkpt lat="43.54405" lon="3.02708">
        <ele>683</ele>
        <time>2016-06-12T02:42:52Z</time>
      </trkpt>
      <trkpt lat="43.54402" lon="3.02715">
        <ele>683</ele>
        <time>2016-06-12T02:42:55Z</time>
      </trkpt>
      <trkpt lat="43.54398" lon="3.02721">
        <ele>683</ele>
        <time>2016-06-12T02:42:59Z</time>
      </trkpt>
      <trkpt lat="43.54395" lon="3.02727">
        <ele>683</ele>
        <time>2016-06-12T02:43:02Z</time>
      </trkpt>
      <trkpt lat="43.54392" lon="3.02734">
        <ele>684</ele>
        <time>2016-06-12T02:43:08Z</time>
      </trkpt>
      <trkpt lat="43.5439" lon="3.02741">
        <ele>683</ele>
        <time>2016-06-12T02:43:11Z</time>
      </trkpt>
      <trkpt lat="43.54389" lon="3.0275">
        <ele>683</ele>
        <time>2016-06-12T02:43:15Z</time>
      </trkpt>
      <trkpt lat="43.54388" lon="3.02758">
        <ele>682</ele>
        <time>2016-06-12T02:43:19Z</time>
      </trkpt>
      <trkpt lat="43.54388" lon="3.02766">
        <ele>682</ele>
        <time>2016-06-12T02:43:22Z</time>
      </trkpt>
      <trkpt lat="43.54388" lon="3.02774">
        <ele>682</ele>
        <time>2016-06-12T02:43:25Z</time>
      </trkpt>
      <trkpt lat="43.54388" lon="3.02782">
        <ele>682</ele>
        <time>2016-06-12T02:43:29Z</time>
      </trkpt>
      <trkpt lat="43.54387" lon="3.02789">
        <ele>681</ele>
        <time>2016-06-12T02:43:32Z</time>
      </trkpt>
      <trkpt lat="43.54384" lon="3.02796">
        <ele>681</ele>
        <time>2016-06-12T02:43:35Z</time>
      </trkpt>
      <trkpt lat="43.5438" lon="3.02801">
        <ele>680</ele>
        <time>2016-06-12T02:43:39Z</time>
      </trkpt>
      <trkpt lat="43.54375" lon="3.02805">
        <ele>680</ele>
        <time>2016-06-12T02:43:42Z</time>
      </trkpt>
      <trkpt lat="43.54375" lon="3.02812">
        <ele>679</ele>
        <time>2016-06-12T02:43:46Z</time>
      </trkpt>
      <trkpt lat="43.54373" lon="3.02818">
        <ele>679</ele>
        <time>2016-06-12T02:43:48Z</time>
      </trkpt>
      <trkpt lat="43.54378" lon="3.02829">
        <ele>678</ele>
        <time>2016-06-12T02:43:53Z</time>
      </trkpt>
      <trkpt lat="43.54384" lon="3.02842">
        <ele>677</ele>
        <time>2016-06-12T02:43:58Z</time>
      </trkpt>
      <trkpt lat="43.54389" lon="3.02853">
        <ele>676</ele>
        <time>2016-06-12T02:44:03Z</time>
      </trkpt>
      <trkpt lat="43.54391" lon="3.02867">
        <ele>674</ele>
        <time>2016-06-12T02:44:10Z</time>
      </trkpt>
      <trkpt lat="43.54395" lon="3.02881">
        <ele>673</ele>
        <time>2016-06-12T02:44:16Z</time>
      </trkpt>
      <trkpt lat="43.54395" lon="3.02896">
        <ele>671</ele>
        <time>2016-06-12T02:44:23Z</time>
      </trkpt>
      <trkpt lat="43.54401" lon="3.02908">
        <ele>670</ele>
        <time>2016-06-12T02:44:28Z</time>
      </trkpt>
      <trkpt lat="43.54406" lon="3.0292">
        <ele>669</ele>
        <time>2016-06-12T02:44:33Z</time>
      </trkpt>
      <trkpt lat="43.54411" lon="3.02932">
        <ele>667</ele>
        <time>2016-06-12T02:44:40Z</time>
      </trkpt>
      <trkpt lat="43.54416" lon="3.02945">
        <ele>666</ele>
        <time>2016-06-12T02:44:45Z</time>
      </trkpt>
      <trkpt lat="43.5442" lon="3.02958">
        <ele>664</ele>
        <time>2016-06-12T02:44:52Z</time>
      </trkpt>
      <trkpt lat="43.54423" lon="3.02972">
        <ele>663</ele>
        <time>2016-06-12T02:44:58Z</time>
      </trkpt>
      <trkpt lat="43.54425" lon="3.02987">
        <ele>661</ele>
        <time>2016-06-12T02:45:05Z</time>
      </trkpt>
      <trkpt lat="43.54424" lon="3.03002">
        <ele>659</ele>
        <time>2016-06-12T02:45:12Z</time>
      </trkpt>
      <trkpt lat="43.54416" lon="3.03013">
        <ele>658</ele>
        <time>2016-06-12T02:45:17Z</time>
      </trkpt>
      <trkpt lat="43.54407" lon="3.03022">
        <ele>657</ele>
        <time>2016-06-12T02:45:23Z</time>
      </trkpt>
      <trkpt lat="43.54398" lon="3.03028">
        <ele>657</ele>
        <time>2016-06-12T02:45:29Z</time>
      </trkpt>
      <trkpt lat="43.54392" lon="3.03039">
        <ele>655</ele>
        <time>2016-06-12T02:45:36Z</time>
      </trkpt>
      <trkpt lat="43.54396" lon="3.03052">
        <ele>654</ele>
        <time>2016-06-12T02:45:41Z</time>
      </trkpt>
      <trkpt lat="43.54394" lon="3.03066">
        <ele>653</ele>
        <time>2016-06-12T02:45:46Z</time>
      </trkpt>
      <trkpt lat="43.54384" lon="3.03069">
        <ele>652</ele>
        <time>2016-06-12T02:45:51Z</time>
      </trkpt>
      <trkpt lat="43.54377" lon="3.0308">
        <ele>651</ele>
        <time>2016-06-12T02:45:56Z</time>
      </trkpt>
      <trkpt lat="43.54367" lon="3.0309">
        <ele>650</ele>
        <time>2016-06-12T02:46:02Z</time>
      </trkpt>
      <trkpt lat="43.5436" lon="3.03101">
        <ele>648</ele>
        <time>2016-06-12T02:46:09Z</time>
      </trkpt>
      <trkpt lat="43.5436" lon="3.03116">
        <ele>647</ele>
        <time>2016-06-12T02:46:15Z</time>
      </trkpt>
      <trkpt lat="43.54365" lon="3.03128">
        <ele>646</ele>
        <time>2016-06-12T02:46:20Z</time>
      </trkpt>
      <trkpt lat="43.54373" lon="3.03137">
        <ele>645</ele>
        <time>2016-06-12T02:46:25Z</time>
      </trkpt>
      <trkpt lat="43.54382" lon="3.03147">
        <ele>644</ele>
        <time>2016-06-12T02:46:30Z</time>
      </trkpt>
      <trkpt lat="43.5439" lon="3.03156">
        <ele>643</ele>
        <time>2016-06-12T02:46:36Z</time>
      </trkpt>
      <trkpt lat="43.54396" lon="3.03169">
        <ele>642</ele>
        <time>2016-06-12T02:46:41Z</time>
      </trkpt>
      <trkpt lat="43.54403" lon="3.03179">
        <ele>641</ele>
        <time>2016-06-12T02:46:46Z</time>
      </trkpt>
      <trkpt lat="43.5441" lon="3.03193">
        <ele>640</ele>
        <time>2016-06-12T02:46:52Z</time>
      </trkpt>
      <trkpt lat="43.54412" lon="3.0321">
        <ele>638</ele>
        <time>2016-06-12T02:47:00Z</time>
      </trkpt>
      <trkpt lat="43.54408" lon="3.03224">
        <ele>638</ele>
        <time>2016-06-12T02:47:06Z</time>
      </trkpt>
      <trkpt lat="43.54404" lon="3.03238">
        <ele>637</ele>
        <time>2016-06-12T02:47:12Z</time>
      </trkpt>
      <trkpt lat="43.54398" lon="3.03252">
        <ele>636</ele>
        <time>2016-06-12T02:47:17Z</time>
      </trkpt>
      <trkpt lat="43.5439" lon="3.03263">
        <ele>634</ele>
        <time>2016-06-12T02:47:24Z</time>
      </trkpt>
      <trkpt lat="43.54392" lon="3.03278">
        <ele>634</ele>
        <time>2016-06-12T02:47:31Z</time>
      </trkpt>
      <trkpt lat="43.54399" lon="3.03288">
        <ele>633</ele>
        <time>2016-06-12T02:47:36Z</time>
      </trkpt>
      <trkpt lat="43.54409" lon="3.03296">
        <ele>633</ele>
        <time>2016-06-12T02:47:42Z</time>
      </trkpt>
      <trkpt lat="43.54419" lon="3.03297">
        <ele>633</ele>
        <time>2016-06-12T02:47:48Z</time>
      </trkpt>
      <trkpt lat="43.54431" lon="3.03297">
        <ele>633</ele>
        <time>2016-06-12T02:47:55Z</time>
      </trkpt>
      <trkpt lat="43.54434" lon="3.03307">
        <ele>632</ele>
        <time>2016-06-12T02:47:59Z</time>
      </trkpt>
      <trkpt lat="43.54429" lon="3.03321">
        <ele>631</ele>
        <time>2016-06-12T02:48:04Z</time>
      </trkpt>
      <trkpt lat="43.54426" lon="3.03335">
        <ele>631</ele>
        <time>2016-06-12T02:48:11Z</time>
      </trkpt>
      <trkpt lat="43.54419" lon="3.03347">
        <ele>629</ele>
        <time>2016-06-12T02:48:18Z</time>
      </trkpt>
      <trkpt lat="43.54415" lon="3.03361">
        <ele>629</ele>
        <time>2016-06-12T02:48:24Z</time>
      </trkpt>
      <trkpt lat="43.54414" lon="3.03375">
        <ele>628</ele>
        <time>2016-06-12T02:48:29Z</time>
      </trkpt>
      <trkpt lat="43.5442" lon="3.03387">
        <ele>628</ele>
        <time>2016-06-12T02:48:35Z</time>
      </trkpt>
      <trkpt lat="43.54428" lon="3.03399">
        <ele>627</ele>
        <time>2016-06-12T02:48:41Z</time>
      </trkpt>
      <trkpt lat="43.54434" lon="3.03411">
        <ele>627</ele>
        <time>2016-06-12T02:48:47Z</time>
      </trkpt>
      <trkpt lat="43.54441" lon="3.03424">
        <ele>625</ele>
        <time>2016-06-12T02:48:54Z</time>
      </trkpt>
      <trkpt lat="43.54448" lon="3.03434">
        <ele>625</ele>
        <time>2016-06-12T02:49:00Z</time>
      </trkpt>
      <trkpt lat="43.54455" lon="3.03449">
        <ele>624</ele>
        <time>2016-06-12T02:49:06Z</time>
      </trkpt>
      <trkpt lat="43.54461" lon="3.03461">
        <ele>624</ele>
        <time>2016-06-12T02:49:13Z</time>
      </trkpt>
      <trkpt lat="43.54468" lon="3.03474">
        <ele>623</ele>
        <time>2016-06-12T02:49:18Z</time>
      </trkpt>
      <trkpt lat="43.54475" lon="3.03485">
        <ele>623</ele>
        <time>2016-06-12T02:49:24Z</time>
      </trkpt>
      <trkpt lat="43.54482" lon="3.03496">
        <ele>622</ele>
        <time>2016-06-12T02:49:30Z</time>
      </trkpt>
      <trkpt lat="43.54488" lon="3.03509">
        <ele>622</ele>
        <time>2016-06-12T02:49:36Z</time>
      </trkpt>
      <trkpt lat="43.54494" lon="3.03522">
        <ele>622</ele>
        <time>2016-06-12T02:49:42Z</time>
      </trkpt>
      <trkpt lat="43.54499" lon="3.03534">
        <ele>621</ele>
        <time>2016-06-12T02:49:47Z</time>
      </trkpt>
      <trkpt lat="43.54505" lon="3.03547">
        <ele>621</ele>
        <time>2016-06-12T02:49:54Z</time>
      </trkpt>
      <trkpt lat="43.54505" lon="3.03558">
        <ele>621</ele>
        <time>2016-06-12T02:49:58Z</time>
      </trkpt>
      <trkpt lat="43.54498" lon="3.0356">
        <ele>621</ele>
        <time>2016-06-12T02:50:03Z</time>
      </trkpt>
      <trkpt lat="43.54492" lon="3.03559">
        <ele>621</ele>
        <time>2016-06-12T02:50:06Z</time>
      </trkpt>
      <trkpt lat="43.54486" lon="3.03558">
        <ele>621</ele>
        <time>2016-06-12T02:50:09Z</time>
      </trkpt>
      <trkpt lat="43.54478" lon="3.03557">
        <ele>621</ele>
        <time>2016-06-12T02:50:14Z</time>
      </trkpt>
      <trkpt lat="43.54471" lon="3.03555">
        <ele>621</ele>
        <time>2016-06-12T02:50:18Z</time>
      </trkpt>
      <trkpt lat="43.54463" lon="3.03553">
        <ele>621</ele>
        <time>2016-06-12T02:50:23Z</time>
      </trkpt>
      <trkpt lat="43.54456" lon="3.03552">
        <ele>621</ele>
        <time>2016-06-12T02:50:27Z</time>
      </trkpt>
      <trkpt lat="43.54451" lon="3.03549">
        <ele>621</ele>
        <time>2016-06-12T02:50:30Z</time>
      </trkpt>
      <trkpt lat="43.54444" lon="3.03548">
        <ele>621</ele>
        <time>2016-06-12T02:50:34Z</time>
      </trkpt>
      <trkpt lat="43.54436" lon="3.03549">
        <ele>620</ele>
        <time>2016-06-12T02:50:38Z</time>
      </trkpt>
      <trkpt lat="43.54426" lon="3.03549">
        <ele>620</ele>
        <time>2016-06-12T02:50:44Z</time>
      </trkpt>
      <trkpt lat="43.54417" lon="3.0355">
        <ele>620</ele>
        <time>2016-06-12T02:50:49Z</time>
      </trkpt>
      <trkpt lat="43.54408" lon="3.03551">
        <ele>619</ele>
        <time>2016-06-12T02:50:54Z</time>
      </trkpt>
      <trkpt lat="43.54399" lon="3.03551">
        <ele>619</ele>
        <time>2016-06-12T02:50:59Z</time>
      </trkpt>
      <trkpt lat="43.54388" lon="3.0355">
        <ele>618</ele>
        <time>2016-06-12T02:51:04Z</time>
      </trkpt>
      <trkpt lat="43.54378" lon="3.03551">
        <ele>618</ele>
        <time>2016-06-12T02:51:10Z</time>
      </trkpt>
      <trkpt lat="43.54367" lon="3.03549">
        <ele>617</ele>
        <time>2016-06-12T02:51:16Z</time>
      </trkpt>
      <trkpt lat="43.54359" lon="3.03548">
        <ele>617</ele>
        <time>2016-06-12T02:51:21Z</time>
      </trkpt>
      <trkpt lat="43.5435" lon="3.03542">
        <ele>615</ele>
        <time>2016-06-12T02:51:27Z</time>
      </trkpt>
      <trkpt lat="43.54342" lon="3.03537">
        <ele>614</ele>
        <time>2016-06-12T02:51:32Z</time>
      </trkpt>
      <trkpt lat="43.54335" lon="3.03531">
        <ele>612</ele>
        <time>2016-06-12T02:51:39Z</time>
      </trkpt>
      <trkpt lat="43.5433" lon="3.03526">
        <ele>612</ele>
        <time>2016-06-12T02:51:42Z</time>
      </trkpt>
      <trkpt lat="43.54324" lon="3.03516">
        <ele>611</ele>
        <time>2016-06-12T02:51:47Z</time>
      </trkpt>
      <trkpt lat="43.54318" lon="3.03505">
        <ele>611</ele>
        <time>2016-06-12T02:51:53Z</time>
      </trkpt>
      <trkpt lat="43.54315" lon="3.03494">
        <ele>611</ele>
        <time>2016-06-12T02:51:58Z</time>
      </trkpt>
      <trkpt lat="43.54313" lon="3.03484">
        <ele>612</ele>
        <time>2016-06-12T02:52:04Z</time>
      </trkpt>
      <trkpt lat="43.54309" lon="3.03473">
        <ele>613</ele>
        <time>2016-06-12T02:52:12Z</time>
      </trkpt>
      <trkpt lat="43.54306" lon="3.03463">
        <ele>613</ele>
        <time>2016-06-12T02:52:16Z</time>
      </trkpt>
      <trkpt lat="43.54301" lon="3.03456">
        <ele>614</ele>
        <time>2016-06-12T02:52:23Z</time>
      </trkpt>
      <trkpt lat="43.54296" lon="3.03449">
        <ele>614</ele>
        <time>2016-06-12T02:52:27Z</time>
      </trkpt>
      <trkpt lat="43.5429" lon="3.03443">
        <ele>614</ele>
        <time>2016-06-12T02:52:31Z</time>
      </trkpt>
      <trkpt lat="43.54284" lon="3.03438">
        <ele>613</ele>
        <time>2016-06-12T02:52:35Z</time>
      </trkpt>
      <trkpt lat="43.54275" lon="3.03433">
        <ele>613</ele>
        <time>2016-06-12T02:52:40Z</time>
      </trkpt>
      <trkpt lat="43.54267" lon="3.0343">
        <ele>611</ele>
        <time>2016-06-12T02:52:47Z</time>
      </trkpt>
      <trkpt lat="43.54256" lon="3.03428">
        <ele>610</ele>
        <time>2016-06-12T02:52:52Z</time>
      </trkpt>
      <trkpt lat="43.54244" lon="3.03426">
        <ele>607</ele>
        <time>2016-06-12T02:53:02Z</time>
      </trkpt>
      <trkpt lat="43.54232" lon="3.03425">
        <ele>606</ele>
        <time>2016-06-12T02:53:08Z</time>
      </trkpt>
      <trkpt lat="43.54221" lon="3.03421">
        <ele>604</ele>
        <time>2016-06-12T02:53:15Z</time>
      </trkpt>
      <trkpt lat="43.54211" lon="3.03418">
        <ele>603</ele>
        <time>2016-06-12T02:53:20Z</time>
      </trkpt>
      <trkpt lat="43.54201" lon="3.03409">
        <ele>600</ele>
        <time>2016-06-12T02:53:30Z</time>
      </trkpt>
      <trkpt lat="43.54191" lon="3.03401">
        <ele>599</ele>
        <time>2016-06-12T02:53:36Z</time>
      </trkpt>
      <trkpt lat="43.54184" lon="3.03393">
        <ele>597</ele>
        <time>2016-06-12T02:53:42Z</time>
      </trkpt>
      <trkpt lat="43.54179" lon="3.03351">
        <ele>594</ele>
        <time>2016-06-12T02:53:58Z</time>
      </trkpt>
      <trkpt lat="43.54134" lon="3.03394">
        <ele>589</ele>
        <time>2016-06-12T02:54:25Z</time>
      </trkpt>
      <trkpt lat="43.54095" lon="3.03379">
        <ele>582</ele>
        <time>2016-06-12T02:54:50Z</time>
      </trkpt>
      <trkpt lat="43.54052" lon="3.03293">
        <ele>571</ele>
        <time>2016-06-12T02:55:33Z</time>
      </trkpt>
      <trkpt lat="43.53972" lon="3.03254">
        <ele>565</ele>
        <time>2016-06-12T02:56:14Z</time>
      </trkpt>
      <trkpt lat="43.53911" lon="3.03218">
        <ele>560</ele>
        <time>2016-06-12T02:56:46Z</time>
      </trkpt>
      <trkpt lat="43.53937" lon="3.03134">
        <ele>556</ele>
        <time>2016-06-12T02:57:18Z</time>
      </trkpt>
      <trkpt lat="43.53917" lon="3.03083">
        <ele>553</ele>
        <time>2016-06-12T02:57:39Z</time>
      </trkpt>
      <trkpt lat="43.53908" lon="3.03005">
        <ele>549</ele>
        <time>2016-06-12T02:58:06Z</time>
      </trkpt>
      <trkpt lat="43.53922" lon="3.02941">
        <ele>545</ele>
        <time>2016-06-12T02:58:30Z</time>
      </trkpt>
      <trkpt lat="43.53881" lon="3.02922">
        <ele>542</ele>
        <time>2016-06-12T02:58:51Z</time>
      </trkpt>
      <trkpt lat="43.53855" lon="3.02954">
        <ele>540</ele>
        <time>2016-06-12T02:59:08Z</time>
      </trkpt>
      <trkpt lat="43.53752" lon="3.02868">
        <ele>532</ele>
        <time>2016-06-12T03:00:06Z</time>
      </trkpt>
      <trkpt lat="43.53707" lon="3.02919">
        <ele>528</ele>
        <time>2016-06-12T03:00:34Z</time>
      </trkpt>
      <trkpt lat="43.53688" lon="3.03005">
        <ele>523</ele>
        <time>2016-06-12T03:01:06Z</time>
      </trkpt>
      <trkpt lat="43.53674" lon="3.03087">
        <ele>519</ele>
        <time>2016-06-12T03:01:35Z</time>
      </trkpt>
      <trkpt lat="43.53651" lon="3.03132">
        <ele>516</ele>
        <time>2016-06-12T03:01:55Z</time>
      </trkpt>
      <trkpt lat="43.53608" lon="3.03136">
        <ele>513</ele>
        <time>2016-06-12T03:02:16Z</time>
      </trkpt>
      <trkpt lat="43.53595" lon="3.03171">
        <ele>512</ele>
        <time>2016-06-12T03:02:30Z</time>
      </trkpt>
      <trkpt lat="43.53564" lon="3.03211">
        <ele>509</ele>
        <time>2016-06-12T03:02:51Z</time>
      </trkpt>
      <trkpt lat="43.53508" lon="3.03218">
        <ele>505</ele>
        <time>2016-06-12T03:03:18Z</time>
      </trkpt>
      <trkpt lat="43.53461" lon="3.03201">
        <ele>501</ele>
        <time>2016-06-12T03:03:41Z</time>
      </trkpt>
      <trkpt lat="43.53419" lon="3.03196">
        <ele>499</ele>
        <time>2016-06-12T03:04:02Z</time>
      </trkpt>
      <trkpt lat="43.53382" lon="3.03228">
        <ele>496</ele>
        <time>2016-06-12T03:04:24Z</time>
      </trkpt>
      <trkpt lat="43.53326" lon="3.03196">
        <ele>492</ele>
        <time>2016-06-12T03:04:53Z</time>
      </trkpt>
      <trkpt lat="43.53256" lon="3.03195">
        <ele>498</ele>
        <time>2016-06-12T03:05:44Z</time>
      </trkpt>
      <trkpt lat="43.53187" lon="3.03158">
        <ele>505</ele>
        <time>2016-06-12T03:06:40Z</time>
      </trkpt>
      <trkpt lat="43.53099" lon="3.03135">
        <ele>505</ele>
        <time>2016-06-12T03:07:32Z</time>
      </trkpt>
      <trkpt lat="43.53007" lon="3.03075">
        <ele>505</ele>
        <time>2016-06-12T03:08:30Z</time>
      </trkpt>
      <trkpt lat="43.52898" lon="3.03017">
        <ele>508</ele>
        <time>2016-06-12T03:09:41Z</time>
      </trkpt>
      <trkpt lat="43.52869" lon="3.03012">
        <ele>509</ele>
        <time>2016-06-12T03:09:59Z</time>
      </trkpt>
      <trkpt lat="43.52812" lon="3.03027">
        <ele>513</ele>
        <time>2016-06-12T03:10:38Z</time>
      </trkpt>
      <trkpt lat="43.52778" lon="3.02997">
        <ele>515</ele>
        <time>2016-06-12T03:11:04Z</time>
      </trkpt>
      <trkpt lat="43.52755" lon="3.0295">
        <ele>519</ele>
        <time>2016-06-12T03:11:36Z</time>
      </trkpt>
      <trkpt lat="43.52719" lon="3.02922">
        <ele>524</ele>
        <time>2016-06-12T03:12:11Z</time>
      </trkpt>
      <trkpt lat="43.52722" lon="3.02879">
        <ele>528</ele>
        <time>2016-06-12T03:12:38Z</time>
      </trkpt>
      <trkpt lat="43.52655" lon="3.02871">
        <ele>530</ele>
        <time>2016-06-12T03:13:19Z</time>
      </trkpt>
      <trkpt lat="43.52632" lon="3.02856">
        <ele>531</ele>
        <time>2016-06-12T03:13:35Z</time>
      </trkpt>
      <trkpt lat="43.52623" lon="3.02796">
        <ele>534</ele>
        <time>2016-06-12T03:14:05Z</time>
      </trkpt>
      <trkpt lat="43.5264" lon="3.02757">
        <ele>529</ele>
        <time>2016-06-12T03:14:24Z</time>
      </trkpt>
      <trkpt lat="43.52654" lon="3.02708">
        <ele>524</ele>
        <time>2016-06-12T03:14:45Z</time>
      </trkpt>
      <trkpt lat="43.52662" lon="3.02663">
        <ele>515</ele>
        <time>2016-06-12T03:15:15Z</time>
      </trkpt>
      <trkpt lat="43.52646" lon="3.0262">
        <ele>507</ele>
        <time>2016-06-12T03:15:42Z</time>
      </trkpt>
      <trkpt lat="43.52626" lon="3.026">
        <ele>503</ele>
        <time>2016-06-12T03:15:57Z</time>
      </trkpt>
      <trkpt lat="43.52612" lon="3.02555">
        <ele>498</ele>
        <time>2016-06-12T03:16:17Z</time>
      </trkpt>
      <trkpt lat="43.52588" lon="3.02547">
        <ele>496</ele>
        <time>2016-06-12T03:16:28Z</time>
      </trkpt>
      <trkpt lat="43.52567" lon="3.025">
        <ele>495</ele>
        <time>2016-06-12T03:16:50Z</time>
      </trkpt>
      <trkpt lat="43.52537" lon="3.02459">
        <ele>493</ele>
        <time>2016-06-12T03:17:10Z</time>
      </trkpt>
      <trkpt lat="43.52531" lon="3.02435">
        <ele>493</ele>
        <time>2016-06-12T03:17:21Z</time>
      </trkpt>
      <trkpt lat="43.5257" lon="3.02324">
        <ele>504</ele>
        <time>2016-06-12T03:18:38Z</time>
      </trkpt>
      <trkpt lat="43.5259" lon="3.02279">
        <ele>510</ele>
        <time>2016-06-12T03:19:15Z</time>
      </trkpt>
      <trkpt lat="43.52579" lon="3.02197">
        <ele>518</ele>
        <time>2016-06-12T03:20:09Z</time>
      </trkpt>
      <trkpt lat="43.52565" lon="3.02128">
        <ele>516</ele>
        <time>2016-06-12T03:20:35Z</time>
      </trkpt>
      <trkpt lat="43.52531" lon="3.02075">
        <ele>515</ele>
        <time>2016-06-12T03:21:03Z</time>
      </trkpt>
      <trkpt lat="43.52467" lon="3.02023">
        <ele>515</ele>
        <time>2016-06-12T03:21:45Z</time>
      </trkpt>
      <trkpt lat="43.52405" lon="3.01955">
        <ele>517</ele>
        <time>2016-06-12T03:22:33Z</time>
      </trkpt>
      <trkpt lat="43.52392" lon="3.01888">
        <ele>523</ele>
        <time>2016-06-12T03:23:16Z</time>
      </trkpt>
      <trkpt lat="43.52372" lon="3.0183">
        <ele>530</ele>
        <time>2016-06-12T03:24:00Z</time>
      </trkpt>
      <trkpt lat="43.5233" lon="3.01759">
        <ele>526</ele>
        <time>2016-06-12T03:24:32Z</time>
      </trkpt>
      <trkpt lat="43.52268" lon="3.01734">
        <ele>523</ele>
        <time>2016-06-12T03:25:05Z</time>
      </trkpt>
      <trkpt lat="43.52234" lon="3.01736">
        <ele>516</ele>
        <time>2016-06-12T03:25:29Z</time>
      </trkpt>
      <trkpt lat="43.52198" lon="3.01751">
        <ele>509</ele>
        <time>2016-06-12T03:25:53Z</time>
      </trkpt>
      <trkpt lat="43.52182" lon="3.01721">
        <ele>505</ele>
        <time>2016-06-12T03:26:09Z</time>
      </trkpt>
      <trkpt lat="43.52165" lon="3.01684">
        <ele>502</ele>
        <time>2016-06-12T03:26:24Z</time>
      </trkpt>
      <trkpt lat="43.5214" lon="3.01667">
        <ele>500</ele>
        <time>2016-06-12T03:26:38Z</time>
      </trkpt>
      <trkpt lat="43.52117" lon="3.01684">
        <ele>500</ele>
        <time>2016-06-12T03:26:53Z</time>
      </trkpt>
      <trkpt lat="43.52081" lon="3.01701">
        <ele>496</ele>
        <time>2016-06-12T03:27:12Z</time>
      </trkpt>
      <trkpt lat="43.52039" lon="3.01697">
        <ele>494</ele>
        <time>2016-06-12T03:27:33Z</time>
      </trkpt>
      <trkpt lat="43.52011" lon="3.01682">
        <ele>494</ele>
        <time>2016-06-12T03:27:50Z</time>
      </trkpt>
      <trkpt lat="43.51955" lon="3.01695">
        <ele>492</ele>
        <time>2016-06-12T03:28:19Z</time>
      </trkpt>
      <trkpt lat="43.51908" lon="3.01668">
        <ele>492</ele>
        <time>2016-06-12T03:28:49Z</time>
      </trkpt>
      <trkpt lat="43.51843" lon="3.01736">
        <ele>481</ele>
        <time>2016-06-12T03:29:33Z</time>
      </trkpt>
      <trkpt lat="43.51798" lon="3.01675">
        <ele>473</ele>
        <time>2016-06-12T03:30:07Z</time>
      </trkpt>
      <trkpt lat="43.5172" lon="3.01524">
        <ele>440</ele>
        <time>2016-06-12T03:31:57Z</time>
      </trkpt>
      <trkpt lat="43.5162" lon="3.01422">
        <ele>411</ele>
        <time>2016-06-12T03:33:34Z</time>
      </trkpt>
      <trkpt lat="43.51538" lon="3.01465">
        <ele>390</ele>
        <time>2016-06-12T03:34:44Z</time>
      </trkpt>
      <trkpt lat="43.51513" lon="3.01412">
        <ele>379</ele>
        <time>2016-06-12T03:35:21Z</time>
      </trkpt>
      <trkpt lat="43.51486" lon="3.01404">
        <ele>375</ele>
        <time>2016-06-12T03:35:37Z</time>
      </trkpt>
      <trkpt lat="43.51444" lon="3.01422">
        <ele>371</ele>
        <time>2016-06-12T03:35:59Z</time>
      </trkpt>
      <trkpt lat="43.51381" lon="3.01465">
        <ele>378</ele>
        <time>2016-06-12T03:36:53Z</time>
      </trkpt>
      <trkpt lat="43.51348" lon="3.01515">
        <ele>384</ele>
        <time>2016-06-12T03:37:35Z</time>
      </trkpt>
      <trkpt lat="43.5136" lon="3.01534">
        <ele>380</ele>
        <time>2016-06-12T03:37:49Z</time>
      </trkpt>
      <trkpt lat="43.51345" lon="3.01579">
        <ele>374</ele>
        <time>2016-06-12T03:38:10Z</time>
      </trkpt>
      <trkpt lat="43.51322" lon="3.01656">
        <ele>364</ele>
        <time>2016-06-12T03:38:47Z</time>
      </trkpt>
      <trkpt lat="43.51247" lon="3.01723">
        <ele>370</ele>
        <time>2016-06-12T03:39:48Z</time>
      </trkpt>
      <trkpt lat="43.51207" lon="3.01753">
        <ele>374</ele>
        <time>2016-06-12T03:40:21Z</time>
      </trkpt>
      <trkpt lat="43.51174" lon="3.01834">
        <ele>364</ele>
        <time>2016-06-12T03:41:00Z</time>
      </trkpt>
      <trkpt lat="43.51152" lon="3.01867">
        <ele>360</ele>
        <time>2016-06-12T03:41:17Z</time>
      </trkpt>
      <trkpt lat="43.51096" lon="3.01909">
        <ele>357</ele>
        <time>2016-06-12T03:41:49Z</time>
      </trkpt>
      <trkpt lat="43.51085" lon="3.02021">
        <ele>355</ele>
        <time>2016-06-12T03:42:32Z</time>
      </trkpt>
      <trkpt lat="43.51066" lon="3.0211">
        <ele>351</ele>
        <time>2016-06-12T03:43:04Z</time>
      </trkpt>
      <trkpt lat="43.51036" lon="3.02151">
        <ele>350</ele>
        <time>2016-06-12T03:43:27Z</time>
      </trkpt>
      <trkpt lat="43.5101" lon="3.02173">
        <ele>352</ele>
        <time>2016-06-12T03:43:48Z</time>
      </trkpt>
      <trkpt lat="43.50974" lon="3.02193">
        <ele>356</ele>
        <time>2016-06-12T03:44:18Z</time>
      </trkpt>
      <trkpt lat="43.5092" lon="3.0225">
        <ele>347</ele>
        <time>2016-06-12T03:44:55Z</time>
      </trkpt>
      <trkpt lat="43.50861" lon="3.02285">
        <ele>340</ele>
        <time>2016-06-12T03:45:28Z</time>
      </trkpt>
      <trkpt lat="43.50832" lon="3.02268">
        <ele>346</ele>
        <time>2016-06-12T03:46:04Z</time>
      </trkpt>
      <trkpt lat="43.50805" lon="3.0227">
        <ele>342</ele>
        <time>2016-06-12T03:46:19Z</time>
      </trkpt>
      <trkpt lat="43.50757" lon="3.02282">
        <ele>337</ele>
        <time>2016-06-12T03:46:44Z</time>
      </trkpt>
      <trkpt lat="43.50709" lon="3.02319">
        <ele>327</ele>
        <time>2016-06-12T03:47:20Z</time>
      </trkpt>
      <trkpt lat="43.50659" lon="3.02369">
        <ele>317</ele>
        <time>2016-06-12T03:47:57Z</time>
      </trkpt>
      <trkpt lat="43.50626" lon="3.02367">
        <ele>309</ele>
        <time>2016-06-12T03:48:23Z</time>
      </trkpt>
      <trkpt lat="43.50603" lon="3.02386">
        <ele>304</ele>
        <time>2016-06-12T03:48:41Z</time>
      </trkpt>
      <trkpt lat="43.50576" lon="3.02414">
        <ele>295</ele>
        <time>2016-06-12T03:49:11Z</time>
      </trkpt>
      <trkpt lat="43.50573" lon="3.02446">
        <ele>289</ele>
        <time>2016-06-12T03:49:30Z</time>
      </trkpt>
      <trkpt lat="43.50561" lon="3.02478">
        <ele>282</ele>
        <time>2016-06-12T03:49:54Z</time>
      </trkpt>
      <trkpt lat="43.50513" lon="3.02427">
        <ele>268</ele>
        <time>2016-06-12T03:50:41Z</time>
      </trkpt>
      <trkpt lat="43.50506" lon="3.0236">
        <ele>262</ele>
        <time>2016-06-12T03:51:06Z</time>
      </trkpt>
      <trkpt lat="43.50463" lon="3.02197">
        <ele>248</ele>
        <time>2016-06-12T03:52:11Z</time>
      </trkpt>
      <trkpt lat="43.50433" lon="3.02217">
        <ele>243</ele>
        <time>2016-06-12T03:52:30Z</time>
      </trkpt>
      <trkpt lat="43.50423" lon="3.02261">
        <ele>239</ele>
        <time>2016-06-12T03:52:48Z</time>
      </trkpt>
      <trkpt lat="43.50421" lon="3.02373">
        <ele>229</ele>
        <time>2016-06-12T03:53:30Z</time>
      </trkpt>
      <trkpt lat="43.50381" lon="3.02339">
        <ele>221</ele>
        <time>2016-06-12T03:54:00Z</time>
      </trkpt>
      <trkpt lat="43.50361" lon="3.02264">
        <ele>212</ele>
        <time>2016-06-12T03:54:34Z</time>
      </trkpt>
      <trkpt lat="43.50339" lon="3.02221">
        <ele>202</ele>
        <time>2016-06-12T03:55:07Z</time>
      </trkpt>
      <trkpt lat="43.50317" lon="3.02141">
        <ele>187</ele>
        <time>2016-06-12T03:55:57Z</time>
      </trkpt>
      <trkpt lat="43.50309" lon="3.02184">
        <ele>182</ele>
        <time>2016-06-12T03:56:16Z</time>
      </trkpt>
      <trkpt lat="43.50293" lon="3.02163">
        <ele>179</ele>
        <time>2016-06-12T03:56:28Z</time>
      </trkpt>
      <trkpt lat="43.50292" lon="3.02242">
        <ele>178</ele>
        <time>2016-06-12T03:56:59Z</time>
      </trkpt>
      <trkpt lat="43.50301" lon="3.02326">
        <ele>178</ele>
        <time>2016-06-12T03:57:34Z</time>
      </trkpt>
      <trkpt lat="43.50297" lon="3.02347">
        <ele>174</ele>
        <time>2016-06-12T03:57:47Z</time>
      </trkpt>
      <trkpt lat="43.50284" lon="3.02322">
        <ele>170</ele>
        <time>2016-06-12T03:58:02Z</time>
      </trkpt>
      <trkpt lat="43.50292" lon="3.02382">
        <ele>161</ele>
        <time>2016-06-12T03:58:33Z</time>
      </trkpt>
      <trkpt lat="43.50273" lon="3.02382">
        <ele>158</ele>
        <time>2016-06-12T03:58:44Z</time>
      </trkpt>
      <trkpt lat="43.50286" lon="3.02399">
        <ele>156</ele>
        <time>2016-06-12T03:58:53Z</time>
      </trkpt>
      <trkpt lat="43.50271" lon="3.02397">
        <ele>155</ele>
        <time>2016-06-12T03:59:00Z</time>
      </trkpt>
      <trkpt lat="43.50279" lon="3.02413">
        <ele>158</ele>
        <time>2016-06-12T03:59:18Z</time>
      </trkpt>
      <trkpt lat="43.5027" lon="3.02424">
        <ele>153</ele>
        <time>2016-06-12T03:59:36Z</time>
      </trkpt>
      <trkpt lat="43.50255" lon="3.02412">
        <ele>147</ele>
        <time>2016-06-12T03:59:57Z</time>
      </trkpt>
      <trkpt lat="43.50234" lon="3.02354">
        <ele>146</ele>
        <time>2016-06-12T04:00:22Z</time>
      </trkpt>
      <trkpt lat="43.50222" lon="3.02279">
        <ele>145</ele>
        <time>2016-06-12T04:00:52Z</time>
      </trkpt>
      <trkpt lat="43.5018" lon="3.02169">
        <ele>130</ele>
        <time>2016-06-12T04:01:47Z</time>
      </trkpt>
      <trkpt lat="43.50041" lon="3.02193">
        <ele>108</ele>
        <time>2016-06-12T04:03:10Z</time>
      </trkpt>
      <trkpt lat="43.50069" lon="3.02272">
        <ele>102</ele>
        <time>2016-06-12T04:03:42Z</time>
      </trkpt>
      <trkpt lat="43.49995" lon="3.02319">
        <ele>96</ele>
        <time>2016-06-12T04:04:21Z</time>
      </trkpt>
      <trkpt lat="43.49979" lon="3.02304">
        <ele>94</ele>
        <time>2016-06-12T04:04:31Z</time>
      </trkpt>
      <trkpt lat="43.4996" lon="3.02313">
        <ele>93</ele>
        <time>2016-06-12T04:04:41Z</time>
      </trkpt>
      <trkpt lat="43.49856" lon="3.02339">
        <ele>89</ele>
        <time>2016-06-12T04:05:34Z</time>
      </trkpt>
      <trkpt lat="43.49921" lon="3.02588">
        <ele>84</ele>
        <time>2016-06-12T04:07:16Z</time>
      </trkpt>
      <trkpt lat="43.49942" lon="3.0263">
        <ele>84</ele>
        <time>2016-06-12T04:07:37Z</time>
      </trkpt>
      <trkpt lat="43.49976" lon="3.02725">
        <ele>85</ele>
        <time>2016-06-12T04:08:22Z</time>
      </trkpt>
    </trkseg>
  </trk>
</gpx>